<?xml version='1.0' encoding='UTF-8'?><gpx version="1.1" creator="JPX - https://github.com/jenetics/jpx" xmlns="http://www.topografix.com/GPX/1/1"><trk><trkseg><trkpt lat="43.38731534899317" lon="5.484409387854864"><ele>384.0</ele><time>2026-03-21T14:57:09.999Z</time></trkpt><trkpt lat="43.38739832906495" lon="5.484358884814086"><ele>384.0</ele><time>2026-03-21T14:57:13.999Z</time></trkpt><trkpt lat="43.38743767599369" lon="5.484280353163579"><ele>384.0</ele><time>2026-03-21T14:57:15.999Z</time></trkpt><trkpt lat="43.38748226861936" lon="5.484142093549913"><ele>384.0</ele><time>2026-03-21T14:57:18.999Z</time></trkpt><trkpt lat="43.38751072261548" lon="5.484028507814405"><ele>384.0</ele><time>2026-03-21T14:57:20.999Z</time></trkpt><trkpt lat="43.387542124130235" lon="5.483918436195448"><ele>384.0</ele><time>2026-03-21T14:57:22.999Z</time></trkpt><trkpt lat="43.387589752442814" lon="5.483811567540291"><ele>384.0</ele><time>2026-03-21T14:57:24.999Z</time></trkpt><trkpt lat="43.38765011884142" lon="5.48374367271461"><ele>384.0</ele><time>2026-03-21T14:57:26.999Z</time></trkpt><trkpt lat="43.387713130740146" lon="5.483702206795042"><ele>384.0</ele><time>2026-03-21T14:57:28.999Z</time></trkpt><trkpt lat="43.38780850273896" lon="5.48370832780019"><ele>384.0</ele><time>2026-03-21T14:57:30.999Z</time></trkpt><trkpt lat="43.387886288043646" lon="5.483762415633095"><ele>384.0</ele><time>2026-03-21T14:57:32.999Z</time></trkpt><trkpt lat="43.38797096449075" lon="5.483814415892179"><ele>384.0</ele><time>2026-03-21T14:57:34.999Z</time></trkpt><trkpt lat="43.388035300264974" lon="5.4838473540453005"><ele>381.8333333333333</ele><time>2026-03-21T14:57:36.999Z</time></trkpt><trkpt lat="43.38810461106228" lon="5.483859407705241"><ele>379.6666666666667</ele><time>2026-03-21T14:57:38.999Z</time></trkpt><trkpt lat="43.38819990444197" lon="5.483832896362564"><ele>377.5</ele><time>2026-03-21T14:57:41.999Z</time></trkpt><trkpt lat="43.388280271789476" lon="5.483860343370309"><ele>375.33333333333337</ele><time>2026-03-21T14:57:43.999Z</time></trkpt><trkpt lat="43.3883660558991" lon="5.483912642898623"><ele>373.1666666666667</ele><time>2026-03-21T14:57:45.999Z</time></trkpt><trkpt lat="43.388441223821815" lon="5.483944187255723"><ele>371.0</ele><time>2026-03-21T14:57:48Z</time></trkpt><trkpt lat="43.38851295594553" lon="5.483927242960753"><ele>371.0</ele><time>2026-03-21T14:57:51Z</time></trkpt><trkpt lat="43.38855085811157" lon="5.483858007041161"><ele>371.0</ele><time>2026-03-21T14:57:53Z</time></trkpt><trkpt lat="43.38860494194971" lon="5.4837676840083125"><ele>371.0</ele><time>2026-03-21T14:57:55Z</time></trkpt><trkpt lat="43.388677929166036" lon="5.483672573668849"><ele>371.0</ele><time>2026-03-21T14:57:57Z</time></trkpt><trkpt lat="43.38874009690829" lon="5.483587632563497"><ele>371.0</ele><time>2026-03-21T14:57:59Z</time></trkpt><trkpt lat="43.38879625873907" lon="5.4834943855582425"><ele>371.0</ele><time>2026-03-21T14:58:01Z</time></trkpt><trkpt lat="43.38887610164435" lon="5.4833959162328005"><ele>370.20000000000005</ele><time>2026-03-21T14:58:03Z</time></trkpt><trkpt lat="43.388967436204695" lon="5.483310134843819"><ele>369.40000000000003</ele><time>2026-03-21T14:58:05Z</time></trkpt><trkpt lat="43.38906357474408" lon="5.483242223997704"><ele>368.6</ele><time>2026-03-21T14:58:07Z</time></trkpt><trkpt lat="43.38914967255295" lon="5.4831873981407915"><ele>367.8</ele><time>2026-03-21T14:58:09Z</time></trkpt><trkpt lat="43.389231797555496" lon="5.483154594820734"><ele>367.0</ele><time>2026-03-21T14:58:11Z</time></trkpt><trkpt lat="43.38931460381772" lon="5.483069963963817"><ele>367.0</ele><time>2026-03-21T14:58:13Z</time></trkpt><trkpt lat="43.38940388809348" lon="5.482982520189991"><ele>367.0</ele><time>2026-03-21T14:58:15Z</time></trkpt><trkpt lat="43.3894834299336" lon="5.4828960309172965"><ele>367.0</ele><time>2026-03-21T14:58:17Z</time></trkpt><trkpt lat="43.38955984010545" lon="5.482826955543911"><ele>367.0</ele><time>2026-03-21T14:58:19Z</time></trkpt><trkpt lat="43.38965852164001" lon="5.482807045065591"><ele>367.0</ele><time>2026-03-21T14:58:21Z</time></trkpt><trkpt lat="43.38974114731787" lon="5.482797298480272"><ele>367.0</ele><time>2026-03-21T14:58:22.999Z</time></trkpt><trkpt lat="43.389826337005836" lon="5.482832125268384"><ele>367.0</ele><time>2026-03-21T14:58:25.999Z</time></trkpt><trkpt lat="43.38986398348075" lon="5.482919461684202"><ele>367.0</ele><time>2026-03-21T14:58:30.999Z</time></trkpt><trkpt lat="43.38984830419537" lon="5.483041228695127"><ele>367.0</ele><time>2026-03-21T14:58:33.999Z</time></trkpt><trkpt lat="43.38981085706365" lon="5.483142313047741"><ele>367.0</ele><time>2026-03-21T14:58:36.999Z</time></trkpt><trkpt lat="43.38978745118611" lon="5.4832366075207375"><ele>367.0</ele><time>2026-03-21T14:58:38.999Z</time></trkpt><trkpt lat="43.38976859867218" lon="5.483319752678304"><ele>367.0</ele><time>2026-03-21T14:58:40.999Z</time></trkpt><trkpt lat="43.38974466251584" lon="5.483438881089716"><ele>367.0</ele><time>2026-03-21T14:58:43.999Z</time></trkpt><trkpt lat="43.38972176597617" lon="5.483568284952974"><ele>367.0</ele><time>2026-03-21T14:58:47.001Z</time></trkpt><trkpt lat="43.38972212511655" lon="5.4836704831119505"><ele>367.0</ele><time>2026-03-21T14:58:49.001Z</time></trkpt><trkpt lat="43.38972629666071" lon="5.483760626738284"><ele>367.0</ele><time>2026-03-21T14:58:51.001Z</time></trkpt><trkpt lat="43.3897185541821" lon="5.4838529604374315"><ele>367.0</ele><time>2026-03-21T14:58:53.001Z</time></trkpt><trkpt lat="43.38970543162787" lon="5.483985431387375"><ele>366.0</ele><time>2026-03-21T14:58:56.001Z</time></trkpt><trkpt lat="43.3897258858759" lon="5.484098427552798"><ele>365.0</ele><time>2026-03-21T14:58:59.001Z</time></trkpt><trkpt lat="43.38978198302392" lon="5.484179882184465"><ele>364.0</ele><time>2026-03-21T14:59:01.001Z</time></trkpt><trkpt lat="43.389816313521195" lon="5.4842532260503205"><ele>363.0</ele><time>2026-03-21T14:59:03.001Z</time></trkpt><trkpt lat="43.38985368070984" lon="5.484331478654047"><ele>362.0</ele><time>2026-03-21T14:59:05.001Z</time></trkpt><trkpt lat="43.38990920393213" lon="5.484412418927728"><ele>361.0</ele><time>2026-03-21T14:59:07.001Z</time></trkpt><trkpt lat="43.389975387036074" lon="5.484480156398614"><ele>361.0</ele><time>2026-03-21T14:59:09.001Z</time></trkpt><trkpt lat="43.39003805329533" lon="5.484576809794704"><ele>361.0</ele><time>2026-03-21T14:59:11Z</time></trkpt><trkpt lat="43.39009557998048" lon="5.484686203248268"><ele>361.0</ele><time>2026-03-21T14:59:13Z</time></trkpt><trkpt lat="43.390193800658416" lon="5.484781000232965"><ele>361.0</ele><time>2026-03-21T14:59:15Z</time></trkpt><trkpt lat="43.39025725221174" lon="5.484908162425773"><ele>361.0</ele><time>2026-03-21T14:59:17Z</time></trkpt><trkpt lat="43.39030966632792" lon="5.48502835080465"><ele>358.5714285714286</ele><time>2026-03-21T14:59:19Z</time></trkpt><trkpt lat="43.39036262093212" lon="5.485118205533504"><ele>356.1428571428571</ele><time>2026-03-21T14:59:21Z</time></trkpt><trkpt lat="43.39042272741395" lon="5.485175580736741"><ele>353.7142857142857</ele><time>2026-03-21T14:59:23Z</time></trkpt><trkpt lat="43.3904409676775" lon="5.4852617407873225"><ele>351.28571428571433</ele><time>2026-03-21T14:59:26Z</time></trkpt><trkpt lat="43.39037891155566" lon="5.4853173725180575"><ele>348.8571428571429</ele><time>2026-03-21T14:59:30Z</time></trkpt><trkpt lat="43.390309771751284" lon="5.48529556874087"><ele>346.42857142857144</ele><time>2026-03-21T14:59:32Z</time></trkpt><trkpt lat="43.39024927630629" lon="5.485237348032214"><ele>344.0</ele><time>2026-03-21T14:59:34Z</time></trkpt><trkpt lat="43.390140806935165" lon="5.485227346188683"><ele>344.0</ele><time>2026-03-21T14:59:37Z</time></trkpt><trkpt lat="43.39004038447625" lon="5.485186982232327"><ele>344.0</ele><time>2026-03-21T14:59:39Z</time></trkpt><trkpt lat="43.38993668708874" lon="5.485128781044898"><ele>344.0</ele><time>2026-03-21T14:59:41Z</time></trkpt><trkpt lat="43.38982796554277" lon="5.48507772573117"><ele>344.0</ele><time>2026-03-21T14:59:43Z</time></trkpt><trkpt lat="43.38972863621985" lon="5.485043533003226"><ele>344.0</ele><time>2026-03-21T14:59:45Z</time></trkpt><trkpt lat="43.38965474872425" lon="5.485098255394786"><ele>344.1666666666667</ele><time>2026-03-21T14:59:47Z</time></trkpt><trkpt lat="43.38958751887942" lon="5.485146869209713"><ele>344.33333333333337</ele><time>2026-03-21T14:59:49Z</time></trkpt><trkpt lat="43.38950093078763" lon="5.4851089636929835"><ele>344.5</ele><time>2026-03-21T14:59:51Z</time></trkpt><trkpt lat="43.389427314357484" lon="5.485156542717322"><ele>344.6666666666667</ele><time>2026-03-21T14:59:53Z</time></trkpt><trkpt lat="43.38939389474546" lon="5.485244930466735"><ele>344.8333333333333</ele><time>2026-03-21T14:59:55Z</time></trkpt><trkpt lat="43.38935646124244" lon="5.485332404669517"><ele>345.0</ele><time>2026-03-21T14:59:57Z</time></trkpt><trkpt lat="43.389280241393024" lon="5.48540566212019"><ele>345.0</ele><time>2026-03-21T14:59:59Z</time></trkpt><trkpt lat="43.38918834089009" lon="5.485418433516719"><ele>345.0</ele><time>2026-03-21T15:00:01Z</time></trkpt><trkpt lat="43.38910227892592" lon="5.485392460420611"><ele>345.0</ele><time>2026-03-21T15:00:03Z</time></trkpt><trkpt lat="43.38902483327647" lon="5.485359511250253"><ele>345.0</ele><time>2026-03-21T15:00:05Z</time></trkpt><trkpt lat="43.388955360501726" lon="5.485341816910175"><ele>345.0</ele><time>2026-03-21T15:00:07Z</time></trkpt><trkpt lat="43.38888035803286" lon="5.485339237268397"><ele>345.0</ele><time>2026-03-21T15:00:09Z</time></trkpt><trkpt lat="43.38880096292221" lon="5.485361026978762"><ele>344.7142857142857</ele><time>2026-03-21T15:00:11Z</time></trkpt><trkpt lat="43.3887235800789" lon="5.48539005696302"><ele>344.42857142857144</ele><time>2026-03-21T15:00:13Z</time></trkpt><trkpt lat="43.38865868963686" lon="5.4854147400247815"><ele>344.1428571428571</ele><time>2026-03-21T15:00:15Z</time></trkpt><trkpt lat="43.38859476382041" lon="5.485428623207703"><ele>343.8571428571429</ele><time>2026-03-21T15:00:17Z</time></trkpt><trkpt lat="43.38854038924906" lon="5.485483349838476"><ele>343.57142857142856</ele><time>2026-03-21T15:00:19Z</time></trkpt><trkpt lat="43.38848142699472" lon="5.485557616924164"><ele>343.2857142857143</ele><time>2026-03-21T15:00:21Z</time></trkpt><trkpt lat="43.38841261612473" lon="5.485612773046522"><ele>343.0</ele><time>2026-03-21T15:00:23Z</time></trkpt><trkpt lat="43.38835198245557" lon="5.48567732249984"><ele>343.0</ele><time>2026-03-21T15:00:24.999Z</time></trkpt><trkpt lat="43.38832489089869" lon="5.485772547020908"><ele>343.0</ele><time>2026-03-21T15:00:26.999Z</time></trkpt><trkpt lat="43.38830756550499" lon="5.48588731063046"><ele>343.0</ele><time>2026-03-21T15:00:28.999Z</time></trkpt><trkpt lat="43.38829863840681" lon="5.485978710609655"><ele>343.0</ele><time>2026-03-21T15:00:30.999Z</time></trkpt><trkpt lat="43.3882921139013" lon="5.486083377543593"><ele>343.0</ele><time>2026-03-21T15:00:32.999Z</time></trkpt><trkpt lat="43.38828385282215" lon="5.486178336223871"><ele>343.0</ele><time>2026-03-21T15:00:34.999Z</time></trkpt><trkpt lat="43.38827422694548" lon="5.486269833624269"><ele>343.0</ele><time>2026-03-21T15:00:36.999Z</time></trkpt><trkpt lat="43.38825917818254" lon="5.486359627150866"><ele>342.3333333333333</ele><time>2026-03-21T15:00:38.999Z</time></trkpt><trkpt lat="43.38824700019336" lon="5.486487632672547"><ele>341.66666666666663</ele><time>2026-03-21T15:00:41.999Z</time></trkpt><trkpt lat="43.388241815287095" lon="5.48660389568217"><ele>341.0</ele><time>2026-03-21T15:00:44.999Z</time></trkpt><trkpt lat="43.3882262332285" lon="5.4866897701545865"><ele>340.3333333333333</ele><time>2026-03-21T15:00:59.001Z</time></trkpt><trkpt lat="43.388204619784176" lon="5.48678623294597"><ele>339.6666666666667</ele><time>2026-03-21T15:01:06.001Z</time></trkpt><trkpt lat="43.388188515183145" lon="5.486872182815636"><ele>339.0</ele><time>2026-03-21T15:01:09.001Z</time></trkpt><trkpt lat="43.388160686725485" lon="5.486988925236755"><ele>338.3333333333333</ele><time>2026-03-21T15:01:12.001Z</time></trkpt><trkpt lat="43.388142421708224" lon="5.487096060950644"><ele>337.6666666666667</ele><time>2026-03-21T15:01:15Z</time></trkpt><trkpt lat="43.38811607554889" lon="5.4872104012955205"><ele>337.0</ele><time>2026-03-21T15:01:18Z</time></trkpt><trkpt lat="43.388096092474434" lon="5.487300868289687"><ele>336.33333333333337</ele><time>2026-03-21T15:01:20Z</time></trkpt><trkpt lat="43.388060822265814" lon="5.487425384055169"><ele>335.6666666666667</ele><time>2026-03-21T15:01:23Z</time></trkpt><trkpt lat="43.38803507815468" lon="5.487515549565447"><ele>335.0</ele><time>2026-03-21T15:01:25Z</time></trkpt><trkpt lat="43.38800047263454" lon="5.4876116394016"><ele>334.4285714285714</ele><time>2026-03-21T15:01:27Z</time></trkpt><trkpt lat="43.38795962835405" lon="5.487699040956433"><ele>333.85714285714283</ele><time>2026-03-21T15:01:29Z</time></trkpt><trkpt lat="43.38792003622264" lon="5.487780565468532"><ele>333.2857142857143</ele><time>2026-03-21T15:01:31Z</time></trkpt><trkpt lat="43.387881520619146" lon="5.487856851876741"><ele>332.71428571428567</ele><time>2026-03-21T15:01:33Z</time></trkpt><trkpt lat="43.387826609618614" lon="5.487923480870648"><ele>332.1428571428571</ele><time>2026-03-21T15:01:35Z</time></trkpt><trkpt lat="43.38777197356054" lon="5.487993359889591"><ele>331.57142857142856</ele><time>2026-03-21T15:01:37Z</time></trkpt><trkpt lat="43.38772253430843" lon="5.488061955293003"><ele>331.0</ele><time>2026-03-21T15:01:39Z</time></trkpt><trkpt lat="43.38767544277792" lon="5.488124954364831"><ele>331.0</ele><time>2026-03-21T15:01:41Z</time></trkpt><trkpt lat="43.38760852115777" lon="5.488175155017064"><ele>331.0</ele><time>2026-03-21T15:01:43Z</time></trkpt><trkpt lat="43.38754836894921" lon="5.488228735117862"><ele>331.0</ele><time>2026-03-21T15:01:45Z</time></trkpt><trkpt lat="43.38748300420438" lon="5.488282206791679"><ele>331.0</ele><time>2026-03-21T15:01:47Z</time></trkpt><trkpt lat="43.38741569772764" lon="5.4883357360206"><ele>331.0</ele><time>2026-03-21T15:01:49Z</time></trkpt><trkpt lat="43.38735817337835" lon="5.4883947247509655"><ele>331.0</ele><time>2026-03-21T15:01:51Z</time></trkpt><trkpt lat="43.38729291532479" lon="5.488408331424466"><ele>331.0</ele><time>2026-03-21T15:01:56Z</time></trkpt><trkpt lat="43.38722421409255" lon="5.48839814909953"><ele>331.0</ele><time>2026-03-21T15:02:00Z</time></trkpt><trkpt lat="43.38717869672183" lon="5.488570138035177"><ele>331.0</ele><time>2026-03-21T15:02:03Z</time></trkpt><trkpt lat="43.38715939057694" lon="5.48848159774514"><ele>331.0</ele><time>2026-03-21T15:02:10Z</time></trkpt><trkpt lat="43.38722394495278" lon="5.4885863825080365"><ele>331.0</ele><time>2026-03-21T15:02:13Z</time></trkpt><trkpt lat="43.387278069990366" lon="5.48869080644413"><ele>331.0</ele><time>2026-03-21T15:02:15Z</time></trkpt><trkpt lat="43.3872864231854" lon="5.488803700245352"><ele>330.66666666666663</ele><time>2026-03-21T15:02:17Z</time></trkpt><trkpt lat="43.387242102758314" lon="5.488906517105361"><ele>330.3333333333333</ele><time>2026-03-21T15:02:19Z</time></trkpt><trkpt lat="43.387170701660175" lon="5.488959886659398"><ele>330.0</ele><time>2026-03-21T15:02:21Z</time></trkpt><trkpt lat="43.387120124121594" lon="5.489044036419756"><ele>329.6666666666667</ele><time>2026-03-21T15:02:23Z</time></trkpt><trkpt lat="43.387097956130035" lon="5.489161814836088"><ele>329.33333333333337</ele><time>2026-03-21T15:02:25Z</time></trkpt><trkpt lat="43.387082826018435" lon="5.489265221107903"><ele>329.0</ele><time>2026-03-21T15:02:26.999Z</time></trkpt><trkpt lat="43.387043294827436" lon="5.489337895421952"><ele>329.42857142857144</ele><time>2026-03-21T15:02:28.999Z</time></trkpt><trkpt lat="43.38698176487525" lon="5.489392756980207"><ele>329.8571428571429</ele><time>2026-03-21T15:02:30.999Z</time></trkpt><trkpt lat="43.38692682092202" lon="5.489436476908246"><ele>330.2857142857143</ele><time>2026-03-21T15:02:32.999Z</time></trkpt><trkpt lat="43.38687706854483" lon="5.489502148195524"><ele>330.7142857142857</ele><time>2026-03-21T15:02:34.999Z</time></trkpt><trkpt lat="43.386840135824144" lon="5.489587988475762"><ele>331.14285714285717</ele><time>2026-03-21T15:02:36.999Z</time></trkpt><trkpt lat="43.38678951121023" lon="5.489684232962743"><ele>331.57142857142856</ele><time>2026-03-21T15:02:39.999Z</time></trkpt><trkpt lat="43.386738199866464" lon="5.489739540747423"><ele>332.0</ele><time>2026-03-21T15:02:41.999Z</time></trkpt><trkpt lat="43.38667369465467" lon="5.489764178841628"><ele>332.0</ele><time>2026-03-21T15:02:43.999Z</time></trkpt><trkpt lat="43.38658091920569" lon="5.489780202395344"><ele>332.0</ele><time>2026-03-21T15:02:46.999Z</time></trkpt><trkpt lat="43.386517078201955" lon="5.489784133781915"><ele>332.0</ele><time>2026-03-21T15:02:48.999Z</time></trkpt><trkpt lat="43.386431904781354" lon="5.489820649805872"><ele>332.0</ele><time>2026-03-21T15:02:51.999Z</time></trkpt><trkpt lat="43.38636213626016" lon="5.489876481960962"><ele>332.0</ele><time>2026-03-21T15:02:54.999Z</time></trkpt><trkpt lat="43.38631957075074" lon="5.4899635348188625"><ele>332.0</ele><time>2026-03-21T15:02:58.001Z</time></trkpt><trkpt lat="43.386336858099405" lon="5.4900656298139"><ele>332.0</ele><time>2026-03-21T15:03:01.001Z</time></trkpt><trkpt lat="43.38642454280858" lon="5.490156097337424"><ele>332.0</ele><time>2026-03-21T15:04:35.999Z</time></trkpt><trkpt lat="43.386476640214646" lon="5.490216022962303"><ele>332.0</ele><time>2026-03-21T15:04:37.999Z</time></trkpt><trkpt lat="43.3865369089644" lon="5.490264307853938"><ele>332.0</ele><time>2026-03-21T15:04:40.999Z</time></trkpt><trkpt lat="43.386608069772635" lon="5.490291838107371"><ele>332.0</ele><time>2026-03-21T15:04:43.999Z</time></trkpt><trkpt lat="43.38669012721779" lon="5.4903166083271495"><ele>332.0</ele><time>2026-03-21T15:04:46.999Z</time></trkpt><trkpt lat="43.3867658573645" lon="5.490335721813138"><ele>332.0</ele><time>2026-03-21T15:04:49.999Z</time></trkpt><trkpt lat="43.386854012316064" lon="5.490339121146515"><ele>332.0</ele><time>2026-03-21T15:04:52.999Z</time></trkpt><trkpt lat="43.386917658386885" lon="5.490363895090876"><ele>332.0</ele><time>2026-03-21T15:04:54.999Z</time></trkpt><trkpt lat="43.3869952236828" lon="5.490418116094712"><ele>332.0</ele><time>2026-03-21T15:04:57.999Z</time></trkpt><trkpt lat="43.38706014689244" lon="5.4905045190798285"><ele>332.0</ele><time>2026-03-21T15:05:00.999Z</time></trkpt><trkpt lat="43.3871140233386" lon="5.490602876037386"><ele>332.0</ele><time>2026-03-21T15:05:04Z</time></trkpt><trkpt lat="43.387159218618514" lon="5.4906917746024595"><ele>334.33333333333337</ele><time>2026-03-21T15:05:07Z</time></trkpt><trkpt lat="43.38719817244166" lon="5.490781135155442"><ele>336.6666666666667</ele><time>2026-03-21T15:05:10Z</time></trkpt><trkpt lat="43.38723639039006" lon="5.490872361443847"><ele>339.0</ele><time>2026-03-21T15:05:13Z</time></trkpt><trkpt lat="43.387282900877" lon="5.490961912843091"><ele>341.3333333333333</ele><time>2026-03-21T15:05:16Z</time></trkpt><trkpt lat="43.38733648710191" lon="5.491045793306855"><ele>343.66666666666663</ele><time>2026-03-21T15:05:19Z</time></trkpt><trkpt lat="43.38739051663632" lon="5.491126134978118"><ele>346.0</ele><time>2026-03-21T15:05:22Z</time></trkpt><trkpt lat="43.38743917415385" lon="5.49122042791682"><ele>347.5</ele><time>2026-03-21T15:05:25Z</time></trkpt><trkpt lat="43.38748104717385" lon="5.491325078015652"><ele>349.0</ele><time>2026-03-21T15:05:28Z</time></trkpt><trkpt lat="43.38752109048316" lon="5.491417039309903"><ele>350.5</ele><time>2026-03-21T15:05:31Z</time></trkpt><trkpt lat="43.38755499845058" lon="5.4915120263618356"><ele>352.0</ele><time>2026-03-21T15:05:34Z</time></trkpt><trkpt lat="43.38759589264459" lon="5.491601016329359"><ele>353.5</ele><time>2026-03-21T15:05:37Z</time></trkpt><trkpt lat="43.38763686097064" lon="5.491677219672967"><ele>355.0</ele><time>2026-03-21T15:05:40Z</time></trkpt><trkpt lat="43.38769188189075" lon="5.491748581542649"><ele>355.0</ele><time>2026-03-21T15:05:43Z</time></trkpt><trkpt lat="43.38774094849031" lon="5.49180553354743"><ele>355.0</ele><time>2026-03-21T15:05:46Z</time></trkpt><trkpt lat="43.38779413302695" lon="5.491853526584206"><ele>355.0</ele><time>2026-03-21T15:05:49Z</time></trkpt><trkpt lat="43.387855247543804" lon="5.491902679239673"><ele>355.0</ele><time>2026-03-21T15:05:53Z</time></trkpt><trkpt lat="43.38791474947285" lon="5.491931253651893"><ele>355.0</ele><time>2026-03-21T15:05:57Z</time></trkpt><trkpt lat="43.387850087471364" lon="5.492041475285853"><ele>355.0</ele><time>2026-03-21T15:06:00Z</time></trkpt><trkpt lat="43.387839350736705" lon="5.492146854344277"><ele>355.0</ele><time>2026-03-21T15:06:06Z</time></trkpt><trkpt lat="43.38786051298086" lon="5.492045359473905"><ele>355.0</ele><time>2026-03-21T15:06:52.999Z</time></trkpt><trkpt lat="43.387857841185536" lon="5.491957701719301"><ele>355.0</ele><time>2026-03-21T15:06:55.999Z</time></trkpt><trkpt lat="43.387796247140095" lon="5.491874449973776"><ele>355.0</ele><time>2026-03-21T15:06:58.999Z</time></trkpt><trkpt lat="43.387729457715544" lon="5.491811045378137"><ele>355.0</ele><time>2026-03-21T15:07:00.999Z</time></trkpt><trkpt lat="43.38766040820149" lon="5.491730281812907"><ele>355.0</ele><time>2026-03-21T15:07:02.999Z</time></trkpt><trkpt lat="43.387590882018856" lon="5.491616809013928"><ele>355.0</ele><time>2026-03-21T15:07:04.999Z</time></trkpt><trkpt lat="43.38753217041645" lon="5.491474378048266"><ele>355.0</ele><time>2026-03-21T15:07:06.999Z</time></trkpt><trkpt lat="43.38747982116223" lon="5.491344531438395"><ele>355.0</ele><time>2026-03-21T15:07:09Z</time></trkpt><trkpt lat="43.38745405924725" lon="5.4912039126358145"><ele>355.0</ele><time>2026-03-21T15:07:11Z</time></trkpt><trkpt lat="43.38740387048936" lon="5.491105315357257"><ele>355.0</ele><time>2026-03-21T15:07:13Z</time></trkpt><trkpt lat="43.38735220065711" lon="5.49100943679463"><ele>355.0</ele><time>2026-03-21T15:07:15Z</time></trkpt><trkpt lat="43.387302056133294" lon="5.4909163885980705"><ele>353.2</ele><time>2026-03-21T15:07:17Z</time></trkpt><trkpt lat="43.38724353908205" lon="5.490803506057299"><ele>351.4</ele><time>2026-03-21T15:07:19Z</time></trkpt><trkpt lat="43.38719200440177" lon="5.490698042807179"><ele>349.6</ele><time>2026-03-21T15:07:21Z</time></trkpt><trkpt lat="43.387131377002945" lon="5.490578126244348"><ele>347.8</ele><time>2026-03-21T15:07:23Z</time></trkpt><trkpt lat="43.3870702865961" lon="5.490465409126894"><ele>346.0</ele><time>2026-03-21T15:07:25Z</time></trkpt><trkpt lat="43.38700653172281" lon="5.490374726074438"><ele>343.20000000000005</ele><time>2026-03-21T15:07:27Z</time></trkpt><trkpt lat="43.3869261857531" lon="5.490315046050142"><ele>340.40000000000003</ele><time>2026-03-21T15:07:29Z</time></trkpt><trkpt lat="43.386830887146296" lon="5.490274416928437"><ele>337.6</ele><time>2026-03-21T15:07:31Z</time></trkpt><trkpt lat="43.38672692780448" lon="5.490262119469703"><ele>334.8</ele><time>2026-03-21T15:07:33Z</time></trkpt><trkpt lat="43.38663392026464" lon="5.490257811845441"><ele>332.0</ele><time>2026-03-21T15:07:35Z</time></trkpt><trkpt lat="43.38653441597074" lon="5.4902445898858"><ele>332.0</ele><time>2026-03-21T15:07:37Z</time></trkpt><trkpt lat="43.38644401249482" lon="5.4901753919272975"><ele>332.0</ele><time>2026-03-21T15:07:39Z</time></trkpt><trkpt lat="43.38637237897011" lon="5.490075758036643"><ele>332.0</ele><time>2026-03-21T15:07:41Z</time></trkpt><trkpt lat="43.38632267869432" lon="5.489969182924557"><ele>332.0</ele><time>2026-03-21T15:07:43Z</time></trkpt><trkpt lat="43.3863430847483" lon="5.48988628411135"><ele>332.0</ele><time>2026-03-21T15:07:44Z</time></trkpt><trkpt lat="43.38643017934208" lon="5.489778905927756"><ele>332.0</ele><time>2026-03-21T15:07:46Z</time></trkpt><trkpt lat="43.386546747894414" lon="5.489774529936813"><ele>332.0</ele><time>2026-03-21T15:07:48Z</time></trkpt><trkpt lat="43.386611022382496" lon="5.489780732017673"><ele>332.0</ele><time>2026-03-21T15:07:49Z</time></trkpt><trkpt lat="43.38667858434639" lon="5.489769278264692"><ele>332.0</ele><time>2026-03-21T15:07:50Z</time></trkpt><trkpt lat="43.38674384973371" lon="5.48976395966288"><ele>332.0</ele><time>2026-03-21T15:07:51Z</time></trkpt><trkpt lat="43.386810321025216" lon="5.4897119201212785"><ele>332.0</ele><time>2026-03-21T15:07:52Z</time></trkpt><trkpt lat="43.38685786530089" lon="5.489621905883415"><ele>330.40000000000003</ele><time>2026-03-21T15:07:53Z</time></trkpt><trkpt lat="43.38692263604424" lon="5.489498709706638"><ele>328.8</ele><time>2026-03-21T15:07:55Z</time></trkpt><trkpt lat="43.38698756724627" lon="5.489394658289402"><ele>327.2</ele><time>2026-03-21T15:07:57Z</time></trkpt><trkpt lat="43.38708181362362" lon="5.489306997842515"><ele>325.6</ele><time>2026-03-21T15:07:59Z</time></trkpt><trkpt lat="43.387121526443664" lon="5.489161016416088"><ele>324.0</ele><time>2026-03-21T15:08:01Z</time></trkpt><trkpt lat="43.38715736038907" lon="5.489017073955978"><ele>325.0</ele><time>2026-03-21T15:08:03Z</time></trkpt><trkpt lat="43.38724489923156" lon="5.488888478411063"><ele>326.0</ele><time>2026-03-21T15:08:05Z</time></trkpt><trkpt lat="43.38730016810139" lon="5.488775938156362"><ele>327.0</ele><time>2026-03-21T15:08:07Z</time></trkpt><trkpt lat="43.38726547844991" lon="5.488661343926926"><ele>328.0</ele><time>2026-03-21T15:08:09Z</time></trkpt><trkpt lat="43.38721588536854" lon="5.488598195037739"><ele>329.0</ele><time>2026-03-21T15:08:11Z</time></trkpt><trkpt lat="43.38714955908681" lon="5.488592968990539"><ele>329.0</ele><time>2026-03-21T15:08:13Z</time></trkpt><trkpt lat="43.387071194176" lon="5.488616357014529"><ele>329.0</ele><time>2026-03-21T15:08:15Z</time></trkpt><trkpt lat="43.387001240652936" lon="5.488628306814801"><ele>329.0</ele><time>2026-03-21T15:08:17Z</time></trkpt><trkpt lat="43.38692929112001" lon="5.488607566591288"><ele>329.0</ele><time>2026-03-21T15:08:20Z</time></trkpt><trkpt lat="43.3868545700236" lon="5.488541468775394"><ele>329.0</ele><time>2026-03-21T15:08:23Z</time></trkpt><trkpt lat="43.386823257625416" lon="5.488457526986657"><ele>329.0</ele><time>2026-03-21T15:08:25Z</time></trkpt><trkpt lat="43.38679284613958" lon="5.488366945554562"><ele>329.0</ele><time>2026-03-21T15:08:27Z</time></trkpt><trkpt lat="43.386765111709984" lon="5.48828652964462"><ele>329.0</ele><time>2026-03-21T15:08:28.999Z</time></trkpt><trkpt lat="43.38673306349452" lon="5.488182779436195"><ele>329.0</ele><time>2026-03-21T15:08:30.999Z</time></trkpt><trkpt lat="43.38670260979761" lon="5.488079119323819"><ele>329.0</ele><time>2026-03-21T15:08:32.999Z</time></trkpt><trkpt lat="43.386637433470575" lon="5.488009469968903"><ele>329.0</ele><time>2026-03-21T15:08:34.999Z</time></trkpt><trkpt lat="43.38654109923786" lon="5.488013499414554"><ele>329.0</ele><time>2026-03-21T15:08:36.999Z</time></trkpt><trkpt lat="43.38647428100488" lon="5.4880724461117385"><ele>329.0</ele><time>2026-03-21T15:08:38.999Z</time></trkpt><trkpt lat="43.38641213685186" lon="5.488126182336232"><ele>329.0</ele><time>2026-03-21T15:08:40.999Z</time></trkpt><trkpt lat="43.38635572765098" lon="5.488176248427479"><ele>329.0</ele><time>2026-03-21T15:08:42.999Z</time></trkpt><trkpt lat="43.38630299612046" lon="5.488230527607934"><ele>329.0</ele><time>2026-03-21T15:08:44.999Z</time></trkpt><trkpt lat="43.38625278531461" lon="5.48829139898513"><ele>329.0</ele><time>2026-03-21T15:08:46.999Z</time></trkpt><trkpt lat="43.386195030093326" lon="5.488379912280102"><ele>329.0</ele><time>2026-03-21T15:08:48.999Z</time></trkpt><trkpt lat="43.38614696202213" lon="5.488476575944199"><ele>329.0</ele><time>2026-03-21T15:08:51.999Z</time></trkpt><trkpt lat="43.38612513816048" lon="5.488561783341953"><ele>330.6666666666667</ele><time>2026-03-21T15:08:53.999Z</time></trkpt><trkpt lat="43.3861066740261" lon="5.4886453519962135"><ele>332.33333333333337</ele><time>2026-03-21T15:08:55.999Z</time></trkpt><trkpt lat="43.38601623289708" lon="5.488680135787538"><ele>334.0</ele><time>2026-03-21T15:08:58.999Z</time></trkpt><trkpt lat="43.38593352961652" lon="5.4886211248242605"><ele>335.6666666666667</ele><time>2026-03-21T15:09:01.999Z</time></trkpt><trkpt lat="43.38587234429705" lon="5.488590508221789"><ele>337.3333333333333</ele><time>2026-03-21T15:09:03.999Z</time></trkpt><trkpt lat="43.38580025817575" lon="5.48855443715964"><ele>339.0</ele><time>2026-03-21T15:09:05.999Z</time></trkpt><trkpt lat="43.38571809965951" lon="5.488520231914076"><ele>339.0</ele><time>2026-03-21T15:09:07.999Z</time></trkpt><trkpt lat="43.38564061506096" lon="5.488504502225465"><ele>339.0</ele><time>2026-03-21T15:09:09.999Z</time></trkpt><trkpt lat="43.3855629789275" lon="5.488499729054791"><ele>339.0</ele><time>2026-03-21T15:09:11.999Z</time></trkpt><trkpt lat="43.38548561124366" lon="5.488497092605383"><ele>339.0</ele><time>2026-03-21T15:09:14.001Z</time></trkpt><trkpt lat="43.38540691312702" lon="5.48849470234876"><ele>339.0</ele><time>2026-03-21T15:09:16.001Z</time></trkpt><trkpt lat="43.38533123286161" lon="5.488490767565665"><ele>339.0</ele><time>2026-03-21T15:09:18.001Z</time></trkpt><trkpt lat="43.38525241438969" lon="5.48848546322077"><ele>340.0</ele><time>2026-03-21T15:09:20.001Z</time></trkpt><trkpt lat="43.38517689091608" lon="5.488478530901594"><ele>341.0</ele><time>2026-03-21T15:09:22.001Z</time></trkpt><trkpt lat="43.38510248926677" lon="5.4884717015689946"><ele>342.0</ele><time>2026-03-21T15:09:24.001Z</time></trkpt><trkpt lat="43.38502306645968" lon="5.488465569046461"><ele>343.0</ele><time>2026-03-21T15:09:26.001Z</time></trkpt><trkpt lat="43.3849537043909" lon="5.488465569048019"><ele>344.0</ele><time>2026-03-21T15:09:28Z</time></trkpt><trkpt lat="43.38487344301017" lon="5.48846719952708"><ele>345.0</ele><time>2026-03-21T15:09:30Z</time></trkpt><trkpt lat="43.384803475625546" lon="5.488470343601465"><ele>346.0</ele><time>2026-03-21T15:09:32Z</time></trkpt><trkpt lat="43.38473129583549" lon="5.48847555179023"><ele>345.5</ele><time>2026-03-21T15:09:34Z</time></trkpt><trkpt lat="43.38466388813644" lon="5.488483204373469"><ele>345.0</ele><time>2026-03-21T15:09:36Z</time></trkpt><trkpt lat="43.38459122449998" lon="5.488490308193013"><ele>344.5</ele><time>2026-03-21T15:09:38Z</time></trkpt><trkpt lat="43.38450715345496" lon="5.488444193856685"><ele>344.0</ele><time>2026-03-21T15:09:41Z</time></trkpt><trkpt lat="43.38444117156738" lon="5.488361950165129"><ele>343.5</ele><time>2026-03-21T15:09:44Z</time></trkpt><trkpt lat="43.38437963105604" lon="5.488300200164891"><ele>343.0</ele><time>2026-03-21T15:09:46Z</time></trkpt><trkpt lat="43.38432475610094" lon="5.488245539061971"><ele>343.0</ele><time>2026-03-21T15:09:48Z</time></trkpt><trkpt lat="43.38426353075083" lon="5.488198047712682"><ele>343.0</ele><time>2026-03-21T15:09:50Z</time></trkpt><trkpt lat="43.38418292956556" lon="5.488133984036195"><ele>343.0</ele><time>2026-03-21T15:09:53Z</time></trkpt><trkpt lat="43.38412476861886" lon="5.488071839802824"><ele>343.0</ele><time>2026-03-21T15:09:55Z</time></trkpt><trkpt lat="43.38406090314774" lon="5.488041572835189"><ele>343.0</ele><time>2026-03-21T15:09:57Z</time></trkpt><trkpt lat="43.38399146060882" lon="5.488019730974878"><ele>343.0</ele><time>2026-03-21T15:09:59Z</time></trkpt><trkpt lat="43.383918825731705" lon="5.488015085478304"><ele>343.0</ele><time>2026-03-21T15:10:01Z</time></trkpt><trkpt lat="43.383853521612565" lon="5.488046574660843"><ele>343.14285714285717</ele><time>2026-03-21T15:10:03Z</time></trkpt><trkpt lat="43.38378757786125" lon="5.488057683935308"><ele>343.2857142857143</ele><time>2026-03-21T15:10:05Z</time></trkpt><trkpt lat="43.38372410223622" lon="5.488082516192379"><ele>343.42857142857144</ele><time>2026-03-21T15:10:07Z</time></trkpt><trkpt lat="43.38364806350258" lon="5.488110938477622"><ele>343.57142857142856</ele><time>2026-03-21T15:10:10Z</time></trkpt><trkpt lat="43.3835852472613" lon="5.4881328718045355"><ele>343.7142857142857</ele><time>2026-03-21T15:10:12Z</time></trkpt><trkpt lat="43.38353522785573" lon="5.488075159733502"><ele>343.8571428571429</ele><time>2026-03-21T15:10:14Z</time></trkpt><trkpt lat="43.383492727383846" lon="5.488008987154794"><ele>344.0</ele><time>2026-03-21T15:10:16Z</time></trkpt><trkpt lat="43.38344465346778" lon="5.487904622537644"><ele>344.00000000000006</ele><time>2026-03-21T15:10:19Z</time></trkpt><trkpt lat="43.38344088654526" lon="5.487815683772142"><ele>344.0</ele><time>2026-03-21T15:10:21Z</time></trkpt><trkpt lat="43.3834471486218" lon="5.487717688483606"><ele>344.0</ele><time>2026-03-21T15:10:23Z</time></trkpt><trkpt lat="43.38345250192538" lon="5.48761655807098"><ele>344.0</ele><time>2026-03-21T15:10:25Z</time></trkpt><trkpt lat="43.38346782284066" lon="5.487520363172682"><ele>344.0</ele><time>2026-03-21T15:10:27Z</time></trkpt><trkpt lat="43.38345919531071" lon="5.487422572567378"><ele>344.00000000000006</ele><time>2026-03-21T15:10:29Z</time></trkpt><trkpt lat="43.38343240005581" lon="5.48732497107077"><ele>344.0</ele><time>2026-03-21T15:10:31Z</time></trkpt><trkpt lat="43.3834220253836" lon="5.4872384068909845"><ele>344.0</ele><time>2026-03-21T15:10:33Z</time></trkpt><trkpt lat="43.38341465000157" lon="5.487134364236777"><ele>344.0</ele><time>2026-03-21T15:10:34.999Z</time></trkpt><trkpt lat="43.38341211129105" lon="5.487037397130431"><ele>344.0</ele><time>2026-03-21T15:10:36.999Z</time></trkpt><trkpt lat="43.38341849191477" lon="5.486932849725321"><ele>344.0</ele><time>2026-03-21T15:10:38.999Z</time></trkpt><trkpt lat="43.38343628455356" lon="5.4868307294942795"><ele>344.0</ele><time>2026-03-21T15:10:40.999Z</time></trkpt><trkpt lat="43.38347036500583" lon="5.4867299365583175"><ele>344.0</ele><time>2026-03-21T15:10:42.999Z</time></trkpt><trkpt lat="43.3834801752045" lon="5.4866262564456365"><ele>345.1666666666667</ele><time>2026-03-21T15:10:44.999Z</time></trkpt><trkpt lat="43.38350275589948" lon="5.486529910929157"><ele>346.33333333333337</ele><time>2026-03-21T15:10:46.999Z</time></trkpt><trkpt lat="43.383511061239005" lon="5.486423348431897"><ele>347.5</ele><time>2026-03-21T15:10:48.999Z</time></trkpt><trkpt lat="43.38349359105396" lon="5.486305897434249"><ele>348.6666666666667</ele><time>2026-03-21T15:10:50.999Z</time></trkpt><trkpt lat="43.383423029132615" lon="5.4862124018930025"><ele>349.8333333333333</ele><time>2026-03-21T15:10:52.999Z</time></trkpt><trkpt lat="43.383349789766804" lon="5.486166269328552"><ele>351.0</ele><time>2026-03-21T15:10:54.999Z</time></trkpt><trkpt lat="43.383272843608545" lon="5.486150863718946"><ele>351.0</ele><time>2026-03-21T15:10:56.999Z</time></trkpt><trkpt lat="43.3831901450022" lon="5.48613412585259"><ele>351.0</ele><time>2026-03-21T15:10:58.999Z</time></trkpt><trkpt lat="43.38310669851459" lon="5.486119210545399"><ele>351.0</ele><time>2026-03-21T15:11:00.999Z</time></trkpt><trkpt lat="43.38303650318928" lon="5.486099221048321"><ele>351.0</ele><time>2026-03-21T15:11:02.999Z</time></trkpt><trkpt lat="43.38296775550295" lon="5.486073017408594"><ele>351.0</ele><time>2026-03-21T15:11:04.999Z</time></trkpt><trkpt lat="43.38289915671987" lon="5.486031147843306"><ele>351.0</ele><time>2026-03-21T15:11:06.999Z</time></trkpt><trkpt lat="43.382844215661464" lon="5.4859732220346515"><ele>351.0</ele><time>2026-03-21T15:11:08.999Z</time></trkpt><trkpt lat="43.38278463482965" lon="5.485911180357742"><ele>351.0</ele><time>2026-03-21T15:11:10.999Z</time></trkpt><trkpt lat="43.38272623646905" lon="5.485857587518049"><ele>351.0</ele><time>2026-03-21T15:11:12.999Z</time></trkpt><trkpt lat="43.382662141635464" lon="5.485827073837039"><ele>351.0</ele><time>2026-03-21T15:11:14.999Z</time></trkpt><trkpt lat="43.38259348945033" lon="5.485807347415867"><ele>351.0</ele><time>2026-03-21T15:11:16.999Z</time></trkpt><trkpt lat="43.38252948619784" lon="5.485749653455278"><ele>351.0</ele><time>2026-03-21T15:11:18.999Z</time></trkpt><trkpt lat="43.38248710809432" lon="5.48563343820687"><ele>351.0</ele><time>2026-03-21T15:11:22Z</time></trkpt><trkpt lat="43.38245164780618" lon="5.48552676122553"><ele>351.0</ele><time>2026-03-21T15:11:24.001Z</time></trkpt><trkpt lat="43.38238699125468" lon="5.485440434843157"><ele>351.0</ele><time>2026-03-21T15:11:26Z</time></trkpt><trkpt lat="43.38228536669825" lon="5.485383620848737"><ele>351.0</ele><time>2026-03-21T15:11:28Z</time></trkpt><trkpt lat="43.3821850834259" lon="5.485374024053683"><ele>351.0</ele><time>2026-03-21T15:11:30Z</time></trkpt><trkpt lat="43.38206984784041" lon="5.485353995413958"><ele>350.1666666666667</ele><time>2026-03-21T15:11:32Z</time></trkpt><trkpt lat="43.38196826462726" lon="5.485285062479121"><ele>349.3333333333333</ele><time>2026-03-21T15:11:34Z</time></trkpt><trkpt lat="43.38193610108608" lon="5.485205687737439"><ele>348.5</ele><time>2026-03-21T15:11:35Z</time></trkpt><trkpt lat="43.3818886616407" lon="5.485119280069936"><ele>347.66666666666663</ele><time>2026-03-21T15:11:36Z</time></trkpt><trkpt lat="43.38184545165532" lon="5.485046920991812"><ele>346.8333333333333</ele><time>2026-03-21T15:11:37Z</time></trkpt><trkpt lat="43.38179933061828" lon="5.484975480610277"><ele>346.0</ele><time>2026-03-21T15:11:38Z</time></trkpt><trkpt lat="43.381753280705254" lon="5.484911906380865"><ele>346.0</ele><time>2026-03-21T15:11:39Z</time></trkpt><trkpt lat="43.38169374439854" lon="5.484856395173655"><ele>346.0</ele><time>2026-03-21T15:11:40Z</time></trkpt><trkpt lat="43.38161718982968" lon="5.484845156650128"><ele>346.0</ele><time>2026-03-21T15:11:41Z</time></trkpt><trkpt lat="43.38154907690811" lon="5.484815091073375"><ele>346.0</ele><time>2026-03-21T15:11:42Z</time></trkpt><trkpt lat="43.381420575957215" lon="5.484762018254205"><ele>346.0</ele><time>2026-03-21T15:11:44Z</time></trkpt><trkpt lat="43.38135041150997" lon="5.4847490904681955"><ele>346.0</ele><time>2026-03-21T15:11:45Z</time></trkpt><trkpt lat="43.38128151525212" lon="5.484730547098595"><ele>344.8333333333333</ele><time>2026-03-21T15:11:46Z</time></trkpt><trkpt lat="43.381216762374656" lon="5.484710771134345"><ele>343.66666666666663</ele><time>2026-03-21T15:11:47Z</time></trkpt><trkpt lat="43.38110482117147" lon="5.484650819176461"><ele>342.5</ele><time>2026-03-21T15:11:49Z</time></trkpt><trkpt lat="43.38105095088642" lon="5.484514691116971"><ele>341.3333333333333</ele><time>2026-03-21T15:11:51Z</time></trkpt><trkpt lat="43.381023493263164" lon="5.484424559335272"><ele>340.1666666666667</ele><time>2026-03-21T15:11:52Z</time></trkpt><trkpt lat="43.38098798971922" lon="5.484328896091211"><ele>339.0</ele><time>2026-03-21T15:11:53Z</time></trkpt><trkpt lat="43.38094594564177" lon="5.484240024937284"><ele>338.7142857142857</ele><time>2026-03-21T15:11:54Z</time></trkpt><trkpt lat="43.38089367430966" lon="5.484153713474075"><ele>338.42857142857144</ele><time>2026-03-21T15:11:55Z</time></trkpt><trkpt lat="43.38084636217504" lon="5.484074992981746"><ele>338.14285714285717</ele><time>2026-03-21T15:11:56Z</time></trkpt><trkpt lat="43.380799528011934" lon="5.484000860749122"><ele>337.8571428571429</ele><time>2026-03-21T15:11:57Z</time></trkpt><trkpt lat="43.3807525415383" lon="5.483928797301903"><ele>337.57142857142856</ele><time>2026-03-21T15:11:58Z</time></trkpt><trkpt lat="43.38070302941568" lon="5.483856259705061"><ele>337.28571428571433</ele><time>2026-03-21T15:11:59Z</time></trkpt><trkpt lat="43.3806545651947" lon="5.483788167282911"><ele>337.0</ele><time>2026-03-21T15:12:00Z</time></trkpt><trkpt lat="43.38060724491926" lon="5.483724684344115"><ele>335.8</ele><time>2026-03-21T15:12:01Z</time></trkpt><trkpt lat="43.38052236165398" lon="5.483610112571195"><ele>334.6</ele><time>2026-03-21T15:12:03Z</time></trkpt><trkpt lat="43.38047454596903" lon="5.4835454462188356"><ele>333.40000000000003</ele><time>2026-03-21T15:12:04Z</time></trkpt><trkpt lat="43.38042309327786" lon="5.483483626553793"><ele>332.20000000000005</ele><time>2026-03-21T15:12:05Z</time></trkpt><trkpt lat="43.3803229450211" lon="5.4833845690687495"><ele>331.0</ele><time>2026-03-21T15:12:07Z</time></trkpt><trkpt lat="43.380225076057805" lon="5.483302501015201"><ele>331.0</ele><time>2026-03-21T15:12:09Z</time></trkpt><trkpt lat="43.380134015745575" lon="5.48323298187579"><ele>331.0</ele><time>2026-03-21T15:12:11Z</time></trkpt><trkpt lat="43.38005361195545" lon="5.483176308915967"><ele>331.0</ele><time>2026-03-21T15:12:13Z</time></trkpt><trkpt lat="43.37998640861669" lon="5.4831374918249915"><ele>331.0</ele><time>2026-03-21T15:12:15Z</time></trkpt><trkpt lat="43.37989969940026" lon="5.483099598166372"><ele>331.0</ele><time>2026-03-21T15:12:17Z</time></trkpt><trkpt lat="43.37981688114169" lon="5.48307007233246"><ele>331.0</ele><time>2026-03-21T15:12:19Z</time></trkpt><trkpt lat="43.37972259373794" lon="5.483066878885054"><ele>330.16666666666663</ele><time>2026-03-21T15:12:21Z</time></trkpt><trkpt lat="43.379629450140925" lon="5.483040525946928"><ele>329.3333333333333</ele><time>2026-03-21T15:12:23Z</time></trkpt><trkpt lat="43.37954898659953" lon="5.482997288190815"><ele>328.5</ele><time>2026-03-21T15:12:25Z</time></trkpt><trkpt lat="43.37945966839644" lon="5.48297537799302"><ele>327.6666666666667</ele><time>2026-03-21T15:12:27Z</time></trkpt><trkpt lat="43.37937710920374" lon="5.482955920891366"><ele>326.83333333333337</ele><time>2026-03-21T15:12:29Z</time></trkpt><trkpt lat="43.37929917340251" lon="5.482937553396056"><ele>326.0</ele><time>2026-03-21T15:12:31Z</time></trkpt><trkpt lat="43.379212254598585" lon="5.482939759312063"><ele>326.0</ele><time>2026-03-21T15:12:33Z</time></trkpt><trkpt lat="43.37913451191724" lon="5.482944168682015"><ele>326.0</ele><time>2026-03-21T15:12:35Z</time></trkpt><trkpt lat="43.379045516187674" lon="5.482959484508558"><ele>326.0</ele><time>2026-03-21T15:12:36.999Z</time></trkpt><trkpt lat="43.37897013051872" lon="5.482973342393254"><ele>326.0</ele><time>2026-03-21T15:12:38.999Z</time></trkpt><trkpt lat="43.37889297518187" lon="5.482981277938127"><ele>326.0</ele><time>2026-03-21T15:12:40.999Z</time></trkpt><trkpt lat="43.37882239303457" lon="5.482965165620421"><ele>326.0</ele><time>2026-03-21T15:12:42.999Z</time></trkpt><trkpt lat="43.37875436021591" lon="5.482967670823431"><ele>326.42857142857144</ele><time>2026-03-21T15:12:44.999Z</time></trkpt><trkpt lat="43.378688844440795" lon="5.48298370397739"><ele>326.85714285714283</ele><time>2026-03-21T15:12:46.999Z</time></trkpt><trkpt lat="43.37862818891959" lon="5.482955952943139"><ele>327.2857142857143</ele><time>2026-03-21T15:12:48.999Z</time></trkpt><trkpt lat="43.378563540648784" lon="5.482919279597491"><ele>327.7142857142857</ele><time>2026-03-21T15:12:51.999Z</time></trkpt><trkpt lat="43.37862957205004" lon="5.4828336655962016"><ele>328.1428571428571</ele><time>2026-03-21T15:12:54.999Z</time></trkpt><trkpt lat="43.37869041430956" lon="5.482774641763528"><ele>328.57142857142856</ele><time>2026-03-21T15:12:56.999Z</time></trkpt><trkpt lat="43.37876131297611" lon="5.482744232040975"><ele>329.0</ele><time>2026-03-21T15:12:58.999Z</time></trkpt><trkpt lat="43.37883752789328" lon="5.482708651937157"><ele>329.83333333333337</ele><time>2026-03-21T15:13:00.999Z</time></trkpt><trkpt lat="43.3789149791404" lon="5.482680771006891"><ele>330.6666666666667</ele><time>2026-03-21T15:13:02.999Z</time></trkpt><trkpt lat="43.37897538040558" lon="5.482605719012282"><ele>331.5</ele><time>2026-03-21T15:13:04.999Z</time></trkpt><trkpt lat="43.37901666029701" lon="5.482528808567676"><ele>332.3333333333333</ele><time>2026-03-21T15:13:06.999Z</time></trkpt><trkpt lat="43.37905121677491" lon="5.482435152092372"><ele>333.16666666666663</ele><time>2026-03-21T15:13:08.999Z</time></trkpt><trkpt lat="43.3790492347453" lon="5.482311307821106"><ele>334.0</ele><time>2026-03-21T15:13:10.999Z</time></trkpt><trkpt lat="43.37905897075086" lon="5.482209301250449"><ele>334.0</ele><time>2026-03-21T15:13:12.999Z</time></trkpt><trkpt lat="43.379072619674666" lon="5.482103657030766"><ele>334.0</ele><time>2026-03-21T15:13:14.999Z</time></trkpt><trkpt lat="43.37908697073974" lon="5.48199973182093"><ele>334.0</ele><time>2026-03-21T15:13:16.999Z</time></trkpt><trkpt lat="43.37909654153603" lon="5.481892853021142"><ele>334.0</ele><time>2026-03-21T15:13:18.999Z</time></trkpt><trkpt lat="43.379115750886896" lon="5.481783585655763"><ele>334.0</ele><time>2026-03-21T15:13:20.999Z</time></trkpt><trkpt lat="43.379152567201885" lon="5.481682434048331"><ele>334.0</ele><time>2026-03-21T15:13:22.999Z</time></trkpt><trkpt lat="43.37917333450695" lon="5.481579637981038"><ele>333.85714285714283</ele><time>2026-03-21T15:13:24.999Z</time></trkpt><trkpt lat="43.37919055068991" lon="5.4814731078283065"><ele>333.7142857142857</ele><time>2026-03-21T15:13:27Z</time></trkpt><trkpt lat="43.37921045712562" lon="5.481369168140979"><ele>333.57142857142856</ele><time>2026-03-21T15:13:29Z</time></trkpt><trkpt lat="43.37923910849536" lon="5.481273675199979"><ele>333.42857142857144</ele><time>2026-03-21T15:13:31Z</time></trkpt><trkpt lat="43.37927029178116" lon="5.481193698219997"><ele>333.2857142857143</ele><time>2026-03-21T15:13:33Z</time></trkpt><trkpt lat="43.3793112591962" lon="5.481112315687584"><ele>333.14285714285717</ele><time>2026-03-21T15:13:35Z</time></trkpt><trkpt lat="43.37935791304926" lon="5.481038151148392"><ele>333.0</ele><time>2026-03-21T15:13:37Z</time></trkpt><trkpt lat="43.37940847840442" lon="5.480966363369586"><ele>333.7142857142857</ele><time>2026-03-21T15:13:39Z</time></trkpt><trkpt lat="43.37946144286228" lon="5.480897666362028"><ele>334.4285714285714</ele><time>2026-03-21T15:13:41Z</time></trkpt><trkpt lat="43.37951675580498" lon="5.480828502564832"><ele>335.1428571428571</ele><time>2026-03-21T15:13:43Z</time></trkpt><trkpt lat="43.37957445238259" lon="5.4807634671653975"><ele>335.8571428571429</ele><time>2026-03-21T15:13:45Z</time></trkpt><trkpt lat="43.37963946903641" lon="5.480702221398517"><ele>336.57142857142856</ele><time>2026-03-21T15:13:47Z</time></trkpt><trkpt lat="43.379707537862224" lon="5.480659657977703"><ele>337.2857142857143</ele><time>2026-03-21T15:13:49Z</time></trkpt><trkpt lat="43.37977310701359" lon="5.480621012202733"><ele>338.0</ele><time>2026-03-21T15:13:51Z</time></trkpt><trkpt lat="43.37985627204693" lon="5.480627473825114"><ele>338.0</ele><time>2026-03-21T15:13:53Z</time></trkpt><trkpt lat="43.379928206044134" lon="5.4806385051656115"><ele>338.0</ele><time>2026-03-21T15:13:55Z</time></trkpt><trkpt lat="43.38001090793262" lon="5.480639739642839"><ele>338.0</ele><time>2026-03-21T15:13:57Z</time></trkpt><trkpt lat="43.38008711149052" lon="5.480631855934223"><ele>338.0</ele><time>2026-03-21T15:13:59Z</time></trkpt><trkpt lat="43.380169880440945" lon="5.480642550125372"><ele>338.0</ele><time>2026-03-21T15:14:01Z</time></trkpt><trkpt lat="43.38025247401325" lon="5.4806511411931735"><ele>338.0</ele><time>2026-03-21T15:14:03Z</time></trkpt><trkpt lat="43.380329652224916" lon="5.4806676717238245"><ele>338.0</ele><time>2026-03-21T15:14:05Z</time></trkpt><trkpt lat="43.380408148433474" lon="5.480681028382477"><ele>338.0</ele><time>2026-03-21T15:14:07Z</time></trkpt><trkpt lat="43.38048534646457" lon="5.480691993658806"><ele>338.0</ele><time>2026-03-21T15:14:09Z</time></trkpt><trkpt lat="43.38055890296893" lon="5.48071243763396"><ele>338.0</ele><time>2026-03-21T15:14:11Z</time></trkpt><trkpt lat="43.380632982072534" lon="5.480718710345841"><ele>338.0</ele><time>2026-03-21T15:14:13Z</time></trkpt><trkpt lat="43.380703996145726" lon="5.480706835611258"><ele>338.0</ele><time>2026-03-21T15:14:15Z</time></trkpt><trkpt lat="43.380781897161974" lon="5.480707649128422"><ele>338.7142857142857</ele><time>2026-03-21T15:14:17Z</time></trkpt><trkpt lat="43.38084990928628" lon="5.4807023419522665"><ele>339.42857142857144</ele><time>2026-03-21T15:14:19Z</time></trkpt><trkpt lat="43.380927473835975" lon="5.480701533309733"><ele>340.1428571428571</ele><time>2026-03-21T15:14:21Z</time></trkpt><trkpt lat="43.38100384119077" lon="5.480682328469972"><ele>340.8571428571429</ele><time>2026-03-21T15:14:23Z</time></trkpt><trkpt lat="43.381080609595635" lon="5.480665208465995"><ele>341.57142857142856</ele><time>2026-03-21T15:14:25Z</time></trkpt><trkpt lat="43.38115323149619" lon="5.480667291574082"><ele>342.2857142857143</ele><time>2026-03-21T15:14:27Z</time></trkpt><trkpt lat="43.38122313478756" lon="5.4806309877186425"><ele>343.0</ele><time>2026-03-21T15:14:29Z</time></trkpt><trkpt lat="43.381294556902816" lon="5.4806404306906815"><ele>343.8333333333333</ele><time>2026-03-21T15:14:31Z</time></trkpt><trkpt lat="43.381366841388534" lon="5.480632266061867"><ele>344.66666666666663</ele><time>2026-03-21T15:14:33Z</time></trkpt><trkpt lat="43.38143493852338" lon="5.4806126071115475"><ele>345.5</ele><time>2026-03-21T15:14:35Z</time></trkpt><trkpt lat="43.38150619763778" lon="5.480608418526026"><ele>346.3333333333333</ele><time>2026-03-21T15:14:37Z</time></trkpt><trkpt lat="43.38157374821736" lon="5.480623183502491"><ele>347.1666666666667</ele><time>2026-03-21T15:14:39Z</time></trkpt><trkpt lat="43.38166406063041" lon="5.480614658717975"><ele>348.0</ele><time>2026-03-21T15:14:41.999Z</time></trkpt><trkpt lat="43.38174634514387" lon="5.480612611249765"><ele>348.0</ele><time>2026-03-21T15:14:44.999Z</time></trkpt><trkpt lat="43.381815741354124" lon="5.4806099771328975"><ele>348.0</ele><time>2026-03-21T15:14:46.999Z</time></trkpt><trkpt lat="43.381883131938864" lon="5.480626952780068"><ele>348.0</ele><time>2026-03-21T15:14:48.999Z</time></trkpt><trkpt lat="43.38195708478196" lon="5.480631618341117"><ele>348.0</ele><time>2026-03-21T15:14:50.999Z</time></trkpt><trkpt lat="43.38203175593174" lon="5.480624451842058"><ele>348.0</ele><time>2026-03-21T15:14:52.999Z</time></trkpt><trkpt lat="43.38210501436683" lon="5.4806410166241735"><ele>348.0</ele><time>2026-03-21T15:14:54.999Z</time></trkpt><trkpt lat="43.38218325847084" lon="5.480672882733198"><ele>348.0</ele><time>2026-03-21T15:14:56.999Z</time></trkpt><trkpt lat="43.38226076012906" lon="5.4806980905183735"><ele>348.5</ele><time>2026-03-21T15:14:58.999Z</time></trkpt><trkpt lat="43.382339704770956" lon="5.480714170252148"><ele>349.0</ele><time>2026-03-21T15:15:00.999Z</time></trkpt><trkpt lat="43.382416435382524" lon="5.480721910913818"><ele>349.5</ele><time>2026-03-21T15:15:02.999Z</time></trkpt><trkpt lat="43.38249030062235" lon="5.480731350579362"><ele>350.0</ele><time>2026-03-21T15:15:04.999Z</time></trkpt><trkpt lat="43.38256756441775" lon="5.480731351660543"><ele>350.5</ele><time>2026-03-21T15:15:06.999Z</time></trkpt><trkpt lat="43.38263603247755" lon="5.480802255154779"><ele>351.0</ele><time>2026-03-21T15:15:08.999Z</time></trkpt><trkpt lat="43.38271529209838" lon="5.4808504371106705"><ele>351.0</ele><time>2026-03-21T15:15:10.999Z</time></trkpt><trkpt lat="43.38276917542722" lon="5.4809176693031985"><ele>351.0</ele><time>2026-03-21T15:15:12.999Z</time></trkpt><trkpt lat="43.382820475928995" lon="5.481001472071402"><ele>351.0</ele><time>2026-03-21T15:15:14.999Z</time></trkpt><trkpt lat="43.3828554219189" lon="5.481108755622328"><ele>351.0</ele><time>2026-03-21T15:15:16.999Z</time></trkpt><trkpt lat="43.38288099771315" lon="5.481217575605435"><ele>351.0</ele><time>2026-03-21T15:15:18.999Z</time></trkpt><trkpt lat="43.38289833322413" lon="5.481326091642614"><ele>351.0</ele><time>2026-03-21T15:15:20.999Z</time></trkpt><trkpt lat="43.382905063849236" lon="5.481430948845151"><ele>352.5</ele><time>2026-03-21T15:15:22.999Z</time></trkpt><trkpt lat="43.3829251659987" lon="5.481527963937734"><ele>354.0</ele><time>2026-03-21T15:15:24.999Z</time></trkpt><trkpt lat="43.38296252485102" lon="5.481630859318076"><ele>355.5</ele><time>2026-03-21T15:15:26.999Z</time></trkpt><trkpt lat="43.38304080352115" lon="5.481660203267769"><ele>357.0</ele><time>2026-03-21T15:15:28.999Z</time></trkpt><trkpt lat="43.38311079503259" lon="5.481603177812588"><ele>358.5</ele><time>2026-03-21T15:15:30.999Z</time></trkpt><trkpt lat="43.38316301485499" lon="5.481512084940426"><ele>360.0</ele><time>2026-03-21T15:15:33Z</time></trkpt><trkpt lat="43.38322039450543" lon="5.481412939565952"><ele>360.0</ele><time>2026-03-21T15:15:35Z</time></trkpt><trkpt lat="43.38328082294171" lon="5.4813129604591495"><ele>360.0</ele><time>2026-03-21T15:15:37Z</time></trkpt><trkpt lat="43.383376338038644" lon="5.481262819873437"><ele>360.0</ele><time>2026-03-21T15:15:39Z</time></trkpt><trkpt lat="43.38349663422076" lon="5.481261214586394"><ele>360.0</ele><time>2026-03-21T15:15:41Z</time></trkpt><trkpt lat="43.38361669471154" lon="5.481239267342324"><ele>360.0</ele><time>2026-03-21T15:15:43Z</time></trkpt><trkpt lat="43.38373707257109" lon="5.481260356916302"><ele>358.3333333333333</ele><time>2026-03-21T15:15:45Z</time></trkpt><trkpt lat="43.383861084360625" lon="5.481257976099258"><ele>356.6666666666667</ele><time>2026-03-21T15:15:47Z</time></trkpt><trkpt lat="43.383930849176224" lon="5.481247124005584"><ele>355.0</ele><time>2026-03-21T15:15:48Z</time></trkpt><trkpt lat="43.38399570950932" lon="5.481245089209173"><ele>353.33333333333337</ele><time>2026-03-21T15:15:49Z</time></trkpt><trkpt lat="43.384060739023134" lon="5.481236144396114"><ele>351.6666666666667</ele><time>2026-03-21T15:15:50Z</time></trkpt><trkpt lat="43.38417053396071" lon="5.481238352717288"><ele>350.0</ele><time>2026-03-21T15:15:52Z</time></trkpt><trkpt lat="43.38427366410993" lon="5.481200416579038"><ele>350.0</ele><time>2026-03-21T15:15:54Z</time></trkpt><trkpt lat="43.384375932469624" lon="5.48116179847436"><ele>350.0</ele><time>2026-03-21T15:15:56Z</time></trkpt><trkpt lat="43.384450394527185" lon="5.481080217212316"><ele>350.0</ele><time>2026-03-21T15:15:58Z</time></trkpt><trkpt lat="43.384447278966434" lon="5.480927483569738"><ele>350.0</ele><time>2026-03-21T15:16:00Z</time></trkpt><trkpt lat="43.38444513841125" lon="5.480830549089922"><ele>350.0</ele><time>2026-03-21T15:16:01Z</time></trkpt><trkpt lat="43.38440891481598" lon="5.480753896682015"><ele>350.0</ele><time>2026-03-21T15:16:02Z</time></trkpt><trkpt lat="43.3843247330817" lon="5.4806759720350176"><ele>350.0</ele><time>2026-03-21T15:16:04Z</time></trkpt><trkpt lat="43.38424164785584" lon="5.480624470510996"><ele>350.0</ele><time>2026-03-21T15:16:06Z</time></trkpt><trkpt lat="43.38417531881617" lon="5.480567830219994"><ele>350.0</ele><time>2026-03-21T15:16:08Z</time></trkpt><trkpt lat="43.38411049049782" lon="5.48049894140528"><ele>350.0</ele><time>2026-03-21T15:16:10Z</time></trkpt><trkpt lat="43.384059187164745" lon="5.4804165428736935"><ele>350.0</ele><time>2026-03-21T15:16:12Z</time></trkpt><trkpt lat="43.38403133227308" lon="5.480327397534052"><ele>350.0</ele><time>2026-03-21T15:16:14Z</time></trkpt><trkpt lat="43.384046521972245" lon="5.480192340647572"><ele>348.6</ele><time>2026-03-21T15:16:17Z</time></trkpt><trkpt lat="43.38410127311544" lon="5.480097745860447"><ele>347.2</ele><time>2026-03-21T15:16:19Z</time></trkpt><trkpt lat="43.38418315059149" lon="5.480018928488262"><ele>345.79999999999995</ele><time>2026-03-21T15:16:21Z</time></trkpt><trkpt lat="43.38427483997061" lon="5.479949013128949"><ele>344.4</ele><time>2026-03-21T15:16:23Z</time></trkpt><trkpt lat="43.38436353451072" lon="5.479892962209225"><ele>343.0</ele><time>2026-03-21T15:16:25Z</time></trkpt><trkpt lat="43.38444787026297" lon="5.4798517575256085"><ele>343.0</ele><time>2026-03-21T15:16:27Z</time></trkpt><trkpt lat="43.38453343862856" lon="5.47980841039421"><ele>343.0</ele><time>2026-03-21T15:16:29Z</time></trkpt><trkpt lat="43.38462998907993" lon="5.479772169552645"><ele>343.0</ele><time>2026-03-21T15:16:31Z</time></trkpt><trkpt lat="43.38471206697413" lon="5.479701474015989"><ele>343.0</ele><time>2026-03-21T15:16:33Z</time></trkpt><trkpt lat="43.38478315257177" lon="5.479627566551638"><ele>343.0</ele><time>2026-03-21T15:16:35Z</time></trkpt><trkpt lat="43.384832815066744" lon="5.479549837432816"><ele>343.3333333333333</ele><time>2026-03-21T15:16:37Z</time></trkpt><trkpt lat="43.38486823294764" lon="5.479468951500116"><ele>343.66666666666663</ele><time>2026-03-21T15:16:39Z</time></trkpt><trkpt lat="43.384909335722746" lon="5.479370592231728"><ele>344.0</ele><time>2026-03-21T15:16:41.999Z</time></trkpt><trkpt lat="43.38494312611802" lon="5.479263031340197"><ele>344.3333333333333</ele><time>2026-03-21T15:16:44.999Z</time></trkpt><trkpt lat="43.38497610118945" lon="5.479173145058545"><ele>344.6666666666667</ele><time>2026-03-21T15:16:46.999Z</time></trkpt><trkpt lat="43.38499470449432" lon="5.479080662221265"><ele>345.0</ele><time>2026-03-21T15:16:48.999Z</time></trkpt><trkpt lat="43.385031837151516" lon="5.478970146264172"><ele>345.0</ele><time>2026-03-21T15:16:51.999Z</time></trkpt><trkpt lat="43.38507505118213" lon="5.47889979139058"><ele>345.0</ele><time>2026-03-21T15:16:53.999Z</time></trkpt><trkpt lat="43.38509910484317" lon="5.478786811300082"><ele>345.0</ele><time>2026-03-21T15:16:56.999Z</time></trkpt><trkpt lat="43.385142318670745" lon="5.478719412361755"><ele>345.0</ele><time>2026-03-21T15:16:58.999Z</time></trkpt><trkpt lat="43.38517621370641" lon="5.478632995600852"><ele>345.0</ele><time>2026-03-21T15:17:00.999Z</time></trkpt><trkpt lat="43.385214249732314" lon="5.478515981590206"><ele>345.0</ele><time>2026-03-21T15:17:02.999Z</time></trkpt><trkpt lat="43.38524578047694" lon="5.478386142968002"><ele>347.0</ele><time>2026-03-21T15:17:04.999Z</time></trkpt><trkpt lat="43.38528241855802" lon="5.47825018478862"><ele>349.0</ele><time>2026-03-21T15:17:06.999Z</time></trkpt><trkpt lat="43.38531656845794" lon="5.478116746808686"><ele>351.0</ele><time>2026-03-21T15:17:08.999Z</time></trkpt><trkpt lat="43.385390439116925" lon="5.478010991488164"><ele>353.0</ele><time>2026-03-21T15:17:10.999Z</time></trkpt><trkpt lat="43.385492807188214" lon="5.477985260476029"><ele>355.0</ele><time>2026-03-21T15:17:12.999Z</time></trkpt><trkpt lat="43.38559027792197" lon="5.477985051987342"><ele>355.0</ele><time>2026-03-21T15:17:14.999Z</time></trkpt><trkpt lat="43.38567570351587" lon="5.477968478544274"><ele>355.0</ele><time>2026-03-21T15:17:16.999Z</time></trkpt><trkpt lat="43.3857645720163" lon="5.477933582956206"><ele>355.0</ele><time>2026-03-21T15:17:18.999Z</time></trkpt><trkpt lat="43.38585039630901" lon="5.477882332679348"><ele>355.0</ele><time>2026-03-21T15:17:20.999Z</time></trkpt><trkpt lat="43.385938767218526" lon="5.477823352602307"><ele>355.0</ele><time>2026-03-21T15:17:22.999Z</time></trkpt><trkpt lat="43.38602249461974" lon="5.477783762449815"><ele>353.0</ele><time>2026-03-21T15:17:24.999Z</time></trkpt><trkpt lat="43.38610216132626" lon="5.47774739450878"><ele>351.0</ele><time>2026-03-21T15:17:26.999Z</time></trkpt><trkpt lat="43.38618667622112" lon="5.477716189924558"><ele>349.0</ele><time>2026-03-21T15:17:28.999Z</time></trkpt><trkpt lat="43.38627503227797" lon="5.477688453823474"><ele>347.0</ele><time>2026-03-21T15:17:30.999Z</time></trkpt><trkpt lat="43.38636920982825" lon="5.477641486151387"><ele>345.0</ele><time>2026-03-21T15:17:32.999Z</time></trkpt><trkpt lat="43.386457272390054" lon="5.477562118749881"><ele>345.0</ele><time>2026-03-21T15:17:34.999Z</time></trkpt><trkpt lat="43.386527116112404" lon="5.477429411695326"><ele>345.0</ele><time>2026-03-21T15:17:36.999Z</time></trkpt><trkpt lat="43.386551156399065" lon="5.477349189346774"><ele>345.0</ele><time>2026-03-21T15:17:38Z</time></trkpt><trkpt lat="43.38655497127266" lon="5.4772533943666355"><ele>345.0</ele><time>2026-03-21T15:17:39Z</time></trkpt><trkpt lat="43.386543869287074" lon="5.477158590450554"><ele>345.0</ele><time>2026-03-21T15:17:40Z</time></trkpt><trkpt lat="43.386525559141944" lon="5.477062902395905"><ele>345.0</ele><time>2026-03-21T15:17:41Z</time></trkpt><trkpt lat="43.38651511433959" lon="5.476907109367272"><ele>344.2</ele><time>2026-03-21T15:17:43Z</time></trkpt><trkpt lat="43.38648996680976" lon="5.476826975589111"><ele>343.4</ele><time>2026-03-21T15:17:44Z</time></trkpt><trkpt lat="43.386474599023515" lon="5.476659148157469"><ele>342.6</ele><time>2026-03-21T15:17:46Z</time></trkpt><trkpt lat="43.386464467968814" lon="5.476507166082214"><ele>341.8</ele><time>2026-03-21T15:17:48Z</time></trkpt><trkpt lat="43.386454746672314" lon="5.476352740946712"><ele>341.0</ele><time>2026-03-21T15:17:50Z</time></trkpt><trkpt lat="43.386443797602745" lon="5.476188743350317"><ele>340.6</ele><time>2026-03-21T15:17:52Z</time></trkpt><trkpt lat="43.38638934286336" lon="5.4761278811543095"><ele>340.20000000000005</ele><time>2026-03-21T15:17:53Z</time></trkpt><trkpt lat="43.3862710780611" lon="5.476125870805664"><ele>339.79999999999995</ele><time>2026-03-21T15:17:55Z</time></trkpt><trkpt lat="43.386209566290304" lon="5.4762388691503645"><ele>339.4</ele><time>2026-03-21T15:17:57Z</time></trkpt><trkpt lat="43.386151542544326" lon="5.476316462663883"><ele>339.0</ele><time>2026-03-21T15:17:59Z</time></trkpt><trkpt lat="43.38608927365733" lon="5.476391053472471"><ele>339.0</ele><time>2026-03-21T15:18:01Z</time></trkpt><trkpt lat="43.38604046020518" lon="5.476470276077986"><ele>339.0</ele><time>2026-03-21T15:18:03Z</time></trkpt><trkpt lat="43.3860064074609" lon="5.476574449121529"><ele>339.0</ele><time>2026-03-21T15:18:05Z</time></trkpt><trkpt lat="43.38596188118337" lon="5.476679613009898"><ele>339.0</ele><time>2026-03-21T15:18:07Z</time></trkpt><trkpt lat="43.385931822857856" lon="5.476781179936556"><ele>339.0</ele><time>2026-03-21T15:18:09Z</time></trkpt><trkpt lat="43.3858951479854" lon="5.476877603510042"><ele>339.0</ele><time>2026-03-21T15:18:11Z</time></trkpt><trkpt lat="43.38584019762452" lon="5.4769459773788265"><ele>339.0</ele><time>2026-03-21T15:18:13Z</time></trkpt><trkpt lat="43.38575795921224" lon="5.4769845621477105"><ele>339.0</ele><time>2026-03-21T15:18:15Z</time></trkpt><trkpt lat="43.385665914210605" lon="5.476951195816778"><ele>339.0</ele><time>2026-03-21T15:18:17Z</time></trkpt><trkpt lat="43.385595119367885" lon="5.476926596375205"><ele>339.0</ele><time>2026-03-21T15:18:19Z</time></trkpt><trkpt lat="43.385530231120406" lon="5.476893626796639"><ele>339.0</ele><time>2026-03-21T15:18:21Z</time></trkpt><trkpt lat="43.38546504581163" lon="5.476855523758594"><ele>339.0</ele><time>2026-03-21T15:18:23Z</time></trkpt><trkpt lat="43.38539538529604" lon="5.476813467703741"><ele>342.1666666666667</ele><time>2026-03-21T15:18:25Z</time></trkpt><trkpt lat="43.38532395701408" lon="5.4767693085290885"><ele>345.3333333333333</ele><time>2026-03-21T15:18:27Z</time></trkpt><trkpt lat="43.385251750793195" lon="5.476736137358254"><ele>348.5</ele><time>2026-03-21T15:18:29Z</time></trkpt><trkpt lat="43.38518053569538" lon="5.476704956788364"><ele>351.66666666666663</ele><time>2026-03-21T15:18:31Z</time></trkpt><trkpt lat="43.38509981745055" lon="5.476701689571019"><ele>354.8333333333333</ele><time>2026-03-21T15:18:33Z</time></trkpt><trkpt lat="43.385021864968024" lon="5.476718198958788"><ele>358.0</ele><time>2026-03-21T15:18:35Z</time></trkpt><trkpt lat="43.38494875105688" lon="5.476741765353024"><ele>358.0</ele><time>2026-03-21T15:18:37Z</time></trkpt><trkpt lat="43.38487599423577" lon="5.476771436247523"><ele>358.0</ele><time>2026-03-21T15:18:39Z</time></trkpt><trkpt lat="43.384805873272505" lon="5.476803812852528"><ele>358.0</ele><time>2026-03-21T15:18:41Z</time></trkpt><trkpt lat="43.38473964085261" lon="5.476840801901429"><ele>358.0</ele><time>2026-03-21T15:18:42.999Z</time></trkpt><trkpt lat="43.3846700035763" lon="5.476893190679443"><ele>358.0</ele><time>2026-03-21T15:18:44.999Z</time></trkpt><trkpt lat="43.384609923267504" lon="5.476963699380458"><ele>358.0</ele><time>2026-03-21T15:18:46.999Z</time></trkpt><trkpt lat="43.384589484748126" lon="5.477081054554069"><ele>357.14285714285717</ele><time>2026-03-21T15:18:48.999Z</time></trkpt><trkpt lat="43.38456246215547" lon="5.477174571540509"><ele>356.2857142857143</ele><time>2026-03-21T15:18:50.999Z</time></trkpt><trkpt lat="43.3845141379683" lon="5.477240191523386"><ele>355.42857142857144</ele><time>2026-03-21T15:18:52.999Z</time></trkpt><trkpt lat="43.38448633862985" lon="5.477325422297723"><ele>354.57142857142856</ele><time>2026-03-21T15:18:55.999Z</time></trkpt><trkpt lat="43.38443884678212" lon="5.4773837462163195"><ele>353.7142857142857</ele><time>2026-03-21T15:18:58.999Z</time></trkpt><trkpt lat="43.38439173119811" lon="5.477460632458575"><ele>352.8571428571429</ele><time>2026-03-21T15:19:00.999Z</time></trkpt><trkpt lat="43.38433898235695" lon="5.477539798391726"><ele>352.0</ele><time>2026-03-21T15:19:02.999Z</time></trkpt><trkpt lat="43.384287985175355" lon="5.477600712834937"><ele>352.0</ele><time>2026-03-21T15:19:04.999Z</time></trkpt><trkpt lat="43.38422730321298" lon="5.477648517862187"><ele>352.0</ele><time>2026-03-21T15:19:06.999Z</time></trkpt><trkpt lat="43.38413870697217" lon="5.477676899994494"><ele>352.0</ele><time>2026-03-21T15:19:09.999Z</time></trkpt><trkpt lat="43.38405828958483" lon="5.4776542028343576"><ele>352.0</ele><time>2026-03-21T15:19:12.999Z</time></trkpt><trkpt lat="43.38399594822297" lon="5.477617620305658"><ele>352.0</ele><time>2026-03-21T15:19:14.999Z</time></trkpt><trkpt lat="43.38391786845717" lon="5.477569252185081"><ele>352.0</ele><time>2026-03-21T15:19:17.999Z</time></trkpt><trkpt lat="43.38385842114403" lon="5.4775264584996215"><ele>351.57142857142856</ele><time>2026-03-21T15:19:19.999Z</time></trkpt><trkpt lat="43.383781230728644" lon="5.47746453789815"><ele>351.1428571428571</ele><time>2026-03-21T15:19:21.999Z</time></trkpt><trkpt lat="43.38371087184655" lon="5.477419982685845"><ele>350.71428571428567</ele><time>2026-03-21T15:19:24.999Z</time></trkpt><trkpt lat="43.38364697839072" lon="5.477388324053061"><ele>350.2857142857143</ele><time>2026-03-21T15:19:26.999Z</time></trkpt><trkpt lat="43.38357991936934" lon="5.47737223884487"><ele>349.85714285714283</ele><time>2026-03-21T15:19:28.999Z</time></trkpt><trkpt lat="43.38352142303167" lon="5.477326325146363"><ele>349.4285714285714</ele><time>2026-03-21T15:19:30.999Z</time></trkpt><trkpt lat="43.38345569244015" lon="5.47729312298199"><ele>349.0</ele><time>2026-03-21T15:19:32.999Z</time></trkpt><trkpt lat="43.383393373695625" lon="5.47725840562705"><ele>348.99999999999994</ele><time>2026-03-21T15:19:34.999Z</time></trkpt><trkpt lat="43.38332919679367" lon="5.477219434016056"><ele>349.0</ele><time>2026-03-21T15:19:36.999Z</time></trkpt><trkpt lat="43.38326491045471" lon="5.4771757219121"><ele>349.0</ele><time>2026-03-21T15:19:38.999Z</time></trkpt><trkpt lat="43.38320304934487" lon="5.477126946322356"><ele>349.0</ele><time>2026-03-21T15:19:40.999Z</time></trkpt><trkpt lat="43.38315145273867" lon="5.477071088196838"><ele>349.0</ele><time>2026-03-21T15:19:42.999Z</time></trkpt><trkpt lat="43.38311771474876" lon="5.4769565473629385"><ele>348.99999999999994</ele><time>2026-03-21T15:19:46Z</time></trkpt><trkpt lat="43.38313208451569" lon="5.476847184498339"><ele>349.0</ele><time>2026-03-21T15:19:49Z</time></trkpt><trkpt lat="43.383150334297106" lon="5.4767251470034255"><ele>349.8333333333333</ele><time>2026-03-21T15:19:52Z</time></trkpt><trkpt lat="43.38318095502987" lon="5.476610029139768"><ele>350.66666666666663</ele><time>2026-03-21T15:19:55Z</time></trkpt><trkpt lat="43.38322857884396" lon="5.476516383185805"><ele>351.5</ele><time>2026-03-21T15:19:58Z</time></trkpt><trkpt lat="43.38327419940815" lon="5.476412464640824"><ele>352.3333333333333</ele><time>2026-03-21T15:20:01Z</time></trkpt><trkpt lat="43.38331716505695" lon="5.476346468307917"><ele>353.1666666666667</ele><time>2026-03-21T15:20:03Z</time></trkpt><trkpt lat="43.38338124519452" lon="5.476260307424903"><ele>354.0</ele><time>2026-03-21T15:20:06Z</time></trkpt><trkpt lat="43.38343750392974" lon="5.476173172676601"><ele>354.0</ele><time>2026-03-21T15:20:09Z</time></trkpt><trkpt lat="43.38350426491226" lon="5.476092080487473"><ele>354.0</ele><time>2026-03-21T15:20:12Z</time></trkpt><trkpt lat="43.38356774705591" lon="5.475998702095856"><ele>354.0</ele><time>2026-03-21T15:20:15Z</time></trkpt><trkpt lat="43.38362526232864" lon="5.475896199607342"><ele>354.0</ele><time>2026-03-21T15:20:18Z</time></trkpt><trkpt lat="43.38368390727404" lon="5.47584826403648"><ele>354.0</ele><time>2026-03-21T15:20:20Z</time></trkpt><trkpt lat="43.38374688162207" lon="5.475813196962371"><ele>354.0</ele><time>2026-03-21T15:20:22Z</time></trkpt><trkpt lat="43.383805279862734" lon="5.475777933854365"><ele>357.14285714285717</ele><time>2026-03-21T15:20:24Z</time></trkpt><trkpt lat="43.38386624039126" lon="5.475753707915878"><ele>360.2857142857143</ele><time>2026-03-21T15:20:26Z</time></trkpt><trkpt lat="43.38392738517446" lon="5.475723639299367"><ele>363.42857142857144</ele><time>2026-03-21T15:20:28Z</time></trkpt><trkpt lat="43.38401282936253" lon="5.4756770722983665"><ele>366.57142857142856</ele><time>2026-03-21T15:20:31Z</time></trkpt><trkpt lat="43.38407989155702" lon="5.475663749183782"><ele>369.71428571428567</ele><time>2026-03-21T15:20:33Z</time></trkpt><trkpt lat="43.38413237379741" lon="5.47560879214032"><ele>372.85714285714283</ele><time>2026-03-21T15:20:35Z</time></trkpt><trkpt lat="43.384192417719746" lon="5.475572332390816"><ele>376.0</ele><time>2026-03-21T15:20:37Z</time></trkpt><trkpt lat="43.38424656148067" lon="5.475524376716341"><ele>376.0</ele><time>2026-03-21T15:20:39Z</time></trkpt><trkpt lat="43.384302386655875" lon="5.475473260586201"><ele>376.0</ele><time>2026-03-21T15:20:41Z</time></trkpt><trkpt lat="43.38435438282102" lon="5.47541138118067"><ele>376.0</ele><time>2026-03-21T15:20:43Z</time></trkpt><trkpt lat="43.38440989975752" lon="5.475366785305663"><ele>376.0</ele><time>2026-03-21T15:20:45Z</time></trkpt><trkpt lat="43.384474161161314" lon="5.475332061311556"><ele>376.0</ele><time>2026-03-21T15:20:46.999Z</time></trkpt><trkpt lat="43.38452158183708" lon="5.475265816768098"><ele>376.0</ele><time>2026-03-21T15:20:48.999Z</time></trkpt><trkpt lat="43.38454973997928" lon="5.475177502868307"><ele>376.0</ele><time>2026-03-21T15:20:50.999Z</time></trkpt><trkpt lat="43.384561762498684" lon="5.47508281529941"><ele>375.5</ele><time>2026-03-21T15:20:52.999Z</time></trkpt><trkpt lat="43.38459225492108" lon="5.474954533645212"><ele>375.0</ele><time>2026-03-21T15:20:55.999Z</time></trkpt><trkpt lat="43.384595124729415" lon="5.474866415548629"><ele>374.5</ele><time>2026-03-21T15:20:57.999Z</time></trkpt><trkpt lat="43.384574579553075" lon="5.474784133134244"><ele>374.0</ele><time>2026-03-21T15:20:59.999Z</time></trkpt><trkpt lat="43.384518805395324" lon="5.47467723551519"><ele>373.5</ele><time>2026-03-21T15:21:02.999Z</time></trkpt><trkpt lat="43.384460034229555" lon="5.474628488706141"><ele>373.0</ele><time>2026-03-21T15:21:04.999Z</time></trkpt><trkpt lat="43.38439584803949" lon="5.47459187267253"><ele>373.0</ele><time>2026-03-21T15:21:06.999Z</time></trkpt><trkpt lat="43.38432441622997" lon="5.474621225695638"><ele>373.0</ele><time>2026-03-21T15:21:08.999Z</time></trkpt><trkpt lat="43.384253177932735" lon="5.474621210222045"><ele>373.0</ele><time>2026-03-21T15:21:10.999Z</time></trkpt><trkpt lat="43.38418141918546" lon="5.474622771085422"><ele>373.0</ele><time>2026-03-21T15:21:12.999Z</time></trkpt><trkpt lat="43.38411194756956" lon="5.474617264233087"><ele>373.0</ele><time>2026-03-21T15:21:14.999Z</time></trkpt><trkpt lat="43.38403462909133" lon="5.474593973822215"><ele>373.0</ele><time>2026-03-21T15:21:16.999Z</time></trkpt><trkpt lat="43.383953687135346" lon="5.474583978960693"><ele>373.0</ele><time>2026-03-21T15:21:18.999Z</time></trkpt><trkpt lat="43.38387525891561" lon="5.474565214026416"><ele>374.66666666666663</ele><time>2026-03-21T15:21:20.999Z</time></trkpt><trkpt lat="43.38379624414461" lon="5.4745351330850545"><ele>376.3333333333333</ele><time>2026-03-21T15:21:22.999Z</time></trkpt><trkpt lat="43.38371957726004" lon="5.474498412664657"><ele>378.0</ele><time>2026-03-21T15:21:24.999Z</time></trkpt><trkpt lat="43.383634319201676" lon="5.474470501891522"><ele>379.6666666666667</ele><time>2026-03-21T15:21:26.999Z</time></trkpt><trkpt lat="43.38356517673833" lon="5.474413960377602"><ele>381.33333333333337</ele><time>2026-03-21T15:21:28.999Z</time></trkpt><trkpt lat="43.383489397928855" lon="5.4743910339055954"><ele>383.0</ele><time>2026-03-21T15:21:30.999Z</time></trkpt><trkpt lat="43.38343312974046" lon="5.474326788058993"><ele>383.0</ele><time>2026-03-21T15:21:32.999Z</time></trkpt><trkpt lat="43.38336122314906" lon="5.474278380795328"><ele>383.0</ele><time>2026-03-21T15:21:34.999Z</time></trkpt><trkpt lat="43.38329073016315" lon="5.47423664704931"><ele>383.0</ele><time>2026-03-21T15:21:36.999Z</time></trkpt><trkpt lat="43.38321968945964" lon="5.474198460118592"><ele>383.0</ele><time>2026-03-21T15:21:38.999Z</time></trkpt><trkpt lat="43.38314289770507" lon="5.474166144869159"><ele>383.0</ele><time>2026-03-21T15:21:40.999Z</time></trkpt><trkpt lat="43.38306037948696" lon="5.47414604736257"><ele>383.0</ele><time>2026-03-21T15:21:42.999Z</time></trkpt><trkpt lat="43.382978449733166" lon="5.474148258091863"><ele>382.5</ele><time>2026-03-21T15:21:44.999Z</time></trkpt><trkpt lat="43.38290139395462" lon="5.474146312162232"><ele>382.0</ele><time>2026-03-21T15:21:46.999Z</time></trkpt><trkpt lat="43.38283209737479" lon="5.474142158895664"><ele>381.5</ele><time>2026-03-21T15:21:49Z</time></trkpt><trkpt lat="43.38276492959495" lon="5.474136115540329"><ele>381.0</ele><time>2026-03-21T15:21:51Z</time></trkpt><trkpt lat="43.382693443002026" lon="5.474096800737441"><ele>380.5</ele><time>2026-03-21T15:21:53Z</time></trkpt><trkpt lat="43.382606962243486" lon="5.474076918461837"><ele>380.0</ele><time>2026-03-21T15:21:56Z</time></trkpt><trkpt lat="43.382541861081" lon="5.473983674859243"><ele>380.0</ele><time>2026-03-21T15:21:59Z</time></trkpt><trkpt lat="43.38250891826066" lon="5.47390644640144"><ele>380.0</ele><time>2026-03-21T15:22:03Z</time></trkpt><trkpt lat="43.38260921442991" lon="5.473859664320731"><ele>380.0</ele><time>2026-03-21T15:22:04Z</time></trkpt><trkpt lat="43.38266605720876" lon="5.473805560613583"><ele>380.0</ele><time>2026-03-21T15:22:06Z</time></trkpt><trkpt lat="43.38274264080767" lon="5.473733421293469"><ele>380.0</ele><time>2026-03-21T15:22:09Z</time></trkpt><trkpt lat="43.382794858292584" lon="5.473684639675795"><ele>380.0</ele><time>2026-03-21T15:22:11Z</time></trkpt><trkpt lat="43.38287251925007" lon="5.473610437259811"><ele>380.1666666666667</ele><time>2026-03-21T15:22:14Z</time></trkpt><trkpt lat="43.38293095731819" lon="5.473553541453682"><ele>380.33333333333337</ele><time>2026-03-21T15:22:16Z</time></trkpt><trkpt lat="43.382979324939505" lon="5.473496718050493"><ele>380.5</ele><time>2026-03-21T15:22:18Z</time></trkpt><trkpt lat="43.38306410888329" lon="5.4734353168682075"><ele>380.6666666666667</ele><time>2026-03-21T15:22:21Z</time></trkpt><trkpt lat="43.38315056185143" lon="5.4733804924419"><ele>380.8333333333333</ele><time>2026-03-21T15:22:24Z</time></trkpt><trkpt lat="43.3832395504745" lon="5.473344071362692"><ele>381.0</ele><time>2026-03-21T15:22:27Z</time></trkpt><trkpt lat="43.38332487893335" lon="5.4732990257956216"><ele>382.6666666666667</ele><time>2026-03-21T15:22:30Z</time></trkpt><trkpt lat="43.383388352453835" lon="5.473276073767041"><ele>384.33333333333337</ele><time>2026-03-21T15:22:32Z</time></trkpt><trkpt lat="43.383486031208335" lon="5.473263426947137"><ele>386.0</ele><time>2026-03-21T15:22:35Z</time></trkpt><trkpt lat="43.383569957480525" lon="5.473213570116437"><ele>387.6666666666667</ele><time>2026-03-21T15:22:38Z</time></trkpt><trkpt lat="43.3836632951973" lon="5.4731819844976295"><ele>389.33333333333337</ele><time>2026-03-21T15:22:41Z</time></trkpt><trkpt lat="43.383746381201505" lon="5.473158848574963"><ele>391.0</ele><time>2026-03-21T15:22:44Z</time></trkpt><trkpt lat="43.383828466295064" lon="5.473140034462924"><ele>392.6666666666667</ele><time>2026-03-21T15:22:47Z</time></trkpt><trkpt lat="43.3839105686678" lon="5.473132450171576"><ele>394.33333333333337</ele><time>2026-03-21T15:22:49.999Z</time></trkpt><trkpt lat="43.38399712578998" lon="5.473142531689614"><ele>396.0</ele><time>2026-03-21T15:22:52.999Z</time></trkpt><trkpt lat="43.38408951050005" lon="5.473163493275183"><ele>397.66666666666663</ele><time>2026-03-21T15:22:55.999Z</time></trkpt><trkpt lat="43.38418212704695" lon="5.4731859946868955"><ele>399.3333333333333</ele><time>2026-03-21T15:22:58.999Z</time></trkpt><trkpt lat="43.384253838266275" lon="5.473209476123311"><ele>401.0</ele><time>2026-03-21T15:23:00.999Z</time></trkpt><trkpt lat="43.38432065483096" lon="5.473242361200142"><ele>401.0</ele><time>2026-03-21T15:23:02.999Z</time></trkpt><trkpt lat="43.384386535563216" lon="5.47326738770267"><ele>401.0</ele><time>2026-03-21T15:23:04.999Z</time></trkpt><trkpt lat="43.38445834587352" lon="5.473296157834552"><ele>401.0</ele><time>2026-03-21T15:23:06.999Z</time></trkpt><trkpt lat="43.38452474309267" lon="5.4733386528507175"><ele>401.0</ele><time>2026-03-21T15:23:08.999Z</time></trkpt><trkpt lat="43.38459424617365" lon="5.473353169782231"><ele>401.0</ele><time>2026-03-21T15:23:10.999Z</time></trkpt><trkpt lat="43.38466147441475" lon="5.4733587158325046"><ele>401.0</ele><time>2026-03-21T15:23:12.999Z</time></trkpt><trkpt lat="43.384746053371956" lon="5.473339835144767"><ele>401.0</ele><time>2026-03-21T15:23:14.999Z</time></trkpt><trkpt lat="43.38481762391658" lon="5.473348130424955"><ele>401.57142857142856</ele><time>2026-03-21T15:23:16.999Z</time></trkpt><trkpt lat="43.38488422176587" lon="5.473345830985414"><ele>402.14285714285717</ele><time>2026-03-21T15:23:18.999Z</time></trkpt><trkpt lat="43.38494569499583" lon="5.473323262490717"><ele>402.71428571428567</ele><time>2026-03-21T15:23:20.999Z</time></trkpt><trkpt lat="43.385015906682476" lon="5.473320535234086"><ele>403.2857142857143</ele><time>2026-03-21T15:23:22.999Z</time></trkpt><trkpt lat="43.38508553658398" lon="5.473288023540703"><ele>403.85714285714283</ele><time>2026-03-21T15:23:24.999Z</time></trkpt><trkpt lat="43.38515421973421" lon="5.4732755043638806"><ele>404.4285714285714</ele><time>2026-03-21T15:23:26.999Z</time></trkpt><trkpt lat="43.385219653114554" lon="5.473265111632938"><ele>405.0</ele><time>2026-03-21T15:23:28.999Z</time></trkpt><trkpt lat="43.38528718746972" lon="5.473248419152799"><ele>404.99999999999994</ele><time>2026-03-21T15:23:30.999Z</time></trkpt><trkpt lat="43.385355642354575" lon="5.473227145007209"><ele>405.0</ele><time>2026-03-21T15:23:32.999Z</time></trkpt><trkpt lat="43.385423046133475" lon="5.473214174281817"><ele>405.0</ele><time>2026-03-21T15:23:34.999Z</time></trkpt><trkpt lat="43.385488562446376" lon="5.473192886227621"><ele>405.0</ele><time>2026-03-21T15:23:36.999Z</time></trkpt><trkpt lat="43.385554449050154" lon="5.473194375956778"><ele>405.0</ele><time>2026-03-21T15:23:38.999Z</time></trkpt><trkpt lat="43.385612073984085" lon="5.4731523595597"><ele>404.99999999999994</ele><time>2026-03-21T15:23:40.999Z</time></trkpt><trkpt lat="43.385701086401056" lon="5.4731179958856"><ele>405.0</ele><time>2026-03-21T15:23:43.999Z</time></trkpt><trkpt lat="43.385777368912926" lon="5.473067870378168"><ele>404.71428571428567</ele><time>2026-03-21T15:23:46.999Z</time></trkpt><trkpt lat="43.385833419502454" lon="5.473028182784624"><ele>404.42857142857144</ele><time>2026-03-21T15:23:48.999Z</time></trkpt><trkpt lat="43.385896485729" lon="5.472994489327804"><ele>404.1428571428571</ele><time>2026-03-21T15:23:50.999Z</time></trkpt><trkpt lat="43.38595216089185" lon="5.472942191569686"><ele>403.85714285714283</ele><time>2026-03-21T15:23:52.999Z</time></trkpt><trkpt lat="43.38603219000664" lon="5.472894867025684"><ele>403.57142857142856</ele><time>2026-03-21T15:23:56Z</time></trkpt><trkpt lat="43.38609238006071" lon="5.47286205824072"><ele>403.2857142857143</ele><time>2026-03-21T15:23:58Z</time></trkpt><trkpt lat="43.38614820900314" lon="5.472797869237705"><ele>403.0</ele><time>2026-03-21T15:24:00Z</time></trkpt><trkpt lat="43.38616897204916" lon="5.47270459220408"><ele>403.00000000000006</ele><time>2026-03-21T15:24:02Z</time></trkpt><trkpt lat="43.38622237577872" lon="5.472622402608088"><ele>403.0</ele><time>2026-03-21T15:24:05Z</time></trkpt><trkpt lat="43.38625662588128" lon="5.472540659263358"><ele>403.0</ele><time>2026-03-21T15:24:08Z</time></trkpt><trkpt lat="43.38630352251976" lon="5.47242873318402"><ele>403.0</ele><time>2026-03-21T15:24:11Z</time></trkpt><trkpt lat="43.3863424858052" lon="5.4723317292198"><ele>403.00000000000006</ele><time>2026-03-21T15:24:13Z</time></trkpt><trkpt lat="43.38637191343481" lon="5.472217407258049"><ele>403.0</ele><time>2026-03-21T15:24:15Z</time></trkpt><trkpt lat="43.38644339748828" lon="5.472146438598128"><ele>403.00000000000006</ele><time>2026-03-21T15:24:17Z</time></trkpt><trkpt lat="43.386514429446834" lon="5.472110988948863"><ele>403.0</ele><time>2026-03-21T15:24:19Z</time></trkpt><trkpt lat="43.386590047079714" lon="5.4720706920389475"><ele>403.0</ele><time>2026-03-21T15:24:21Z</time></trkpt><trkpt lat="43.38663550789996" lon="5.471973362482656"><ele>403.0</ele><time>2026-03-21T15:24:23Z</time></trkpt><trkpt lat="43.38670757355897" lon="5.471923098941459"><ele>403.00000000000006</ele><time>2026-03-21T15:24:25Z</time></trkpt><trkpt lat="43.38679281903886" lon="5.471834751753517"><ele>403.0</ele><time>2026-03-21T15:24:27Z</time></trkpt><trkpt lat="43.38689102823742" lon="5.471744937534363"><ele>403.0</ele><time>2026-03-21T15:24:29Z</time></trkpt><trkpt lat="43.38694399229938" lon="5.471688750609949"><ele>403.0</ele><time>2026-03-21T15:24:30Z</time></trkpt><trkpt lat="43.387007137366886" lon="5.471563079033025"><ele>403.0</ele><time>2026-03-21T15:24:32Z</time></trkpt><trkpt lat="43.386933539155635" lon="5.471405440913533"><ele>403.0</ele><time>2026-03-21T15:24:34Z</time></trkpt><trkpt lat="43.38686629716093" lon="5.471390499353263"><ele>403.0</ele><time>2026-03-21T15:24:35Z</time></trkpt><trkpt lat="43.386796996264465" lon="5.471392322548487"><ele>403.00000000000006</ele><time>2026-03-21T15:24:36Z</time></trkpt><trkpt lat="43.38672341830035" lon="5.471402686214744"><ele>403.0</ele><time>2026-03-21T15:24:37Z</time></trkpt><trkpt lat="43.38665403852595" lon="5.4713996422369195"><ele>403.0</ele><time>2026-03-21T15:24:38Z</time></trkpt><trkpt lat="43.38659419918443" lon="5.4713608832607425"><ele>403.0</ele><time>2026-03-21T15:24:39Z</time></trkpt><trkpt lat="43.38648109354503" lon="5.471301927793534"><ele>403.00000000000006</ele><time>2026-03-21T15:24:41Z</time></trkpt><trkpt lat="43.38637564792005" lon="5.471229861296602"><ele>403.0</ele><time>2026-03-21T15:24:43Z</time></trkpt><trkpt lat="43.38630744426201" lon="5.471176921508677"><ele>400.00000000000006</ele><time>2026-03-21T15:24:44Z</time></trkpt><trkpt lat="43.386249803924024" lon="5.471130093751882"><ele>397.0</ele><time>2026-03-21T15:24:45Z</time></trkpt><trkpt lat="43.3861935918799" lon="5.471083226422502"><ele>394.0</ele><time>2026-03-21T15:24:46Z</time></trkpt><trkpt lat="43.386109596979196" lon="5.47096668716793"><ele>391.0</ele><time>2026-03-21T15:24:48Z</time></trkpt><trkpt lat="43.3860433819591" lon="5.470836051328858"><ele>388.00000000000006</ele><time>2026-03-21T15:24:50Z</time></trkpt><trkpt lat="43.38600910429003" lon="5.470753878990351"><ele>385.0</ele><time>2026-03-21T15:24:51Z</time></trkpt><trkpt lat="43.385989466859186" lon="5.470671236174029"><ele>385.00000000000006</ele><time>2026-03-21T15:24:51.999Z</time></trkpt><trkpt lat="43.38597054930983" lon="5.4705823692005024"><ele>385.0</ele><time>2026-03-21T15:24:52.999Z</time></trkpt><trkpt lat="43.38594920856195" lon="5.470483213118921"><ele>385.0</ele><time>2026-03-21T15:24:53.999Z</time></trkpt><trkpt lat="43.38588928193034" lon="5.470323238151389"><ele>385.0</ele><time>2026-03-21T15:24:55.999Z</time></trkpt><trkpt lat="43.38584697554258" lon="5.470247142590148"><ele>385.00000000000006</ele><time>2026-03-21T15:24:56.999Z</time></trkpt><trkpt lat="43.38579503105861" lon="5.47017703000518"><ele>385.0</ele><time>2026-03-21T15:24:57.999Z</time></trkpt><trkpt lat="43.385747150626365" lon="5.470118049949546"><ele>385.6</ele><time>2026-03-21T15:24:58.999Z</time></trkpt><trkpt lat="43.3856420752769" lon="5.470021713215695"><ele>386.2</ele><time>2026-03-21T15:25:00.999Z</time></trkpt><trkpt lat="43.38560405296665" lon="5.469949051630068"><ele>386.79999999999995</ele><time>2026-03-21T15:25:01.999Z</time></trkpt><trkpt lat="43.38550902592944" lon="5.469838297079057"><ele>387.4</ele><time>2026-03-21T15:25:03.999Z</time></trkpt><trkpt lat="43.385446996427135" lon="5.469797494889268"><ele>388.0</ele><time>2026-03-21T15:25:04.999Z</time></trkpt><trkpt lat="43.385360475876006" lon="5.469681472423263"><ele>384.33333333333337</ele><time>2026-03-21T15:25:06.999Z</time></trkpt><trkpt lat="43.38530660121788" lon="5.4696297447587305"><ele>380.6666666666667</ele><time>2026-03-21T15:25:07.999Z</time></trkpt><trkpt lat="43.38521265578195" lon="5.46952960163453"><ele>377.0</ele><time>2026-03-21T15:25:09.999Z</time></trkpt><trkpt lat="43.3851701666176" lon="5.469447264531235"><ele>373.33333333333337</ele><time>2026-03-21T15:25:11.999Z</time></trkpt><trkpt lat="43.38520250973466" lon="5.469325831988084"><ele>369.6666666666667</ele><time>2026-03-21T15:25:14.999Z</time></trkpt><trkpt lat="43.385268657697345" lon="5.469239234199451"><ele>366.0</ele><time>2026-03-21T15:25:16.999Z</time></trkpt><trkpt lat="43.38531649470144" lon="5.469148462803355"><ele>366.1666666666667</ele><time>2026-03-21T15:25:18.999Z</time></trkpt><trkpt lat="43.38539800905288" lon="5.469035426039963"><ele>366.3333333333333</ele><time>2026-03-21T15:25:20.999Z</time></trkpt><trkpt lat="43.3854753621579" lon="5.4689002454927325"><ele>366.5</ele><time>2026-03-21T15:25:22.999Z</time></trkpt><trkpt lat="43.38551764439915" lon="5.468827106875713"><ele>366.66666666666663</ele><time>2026-03-21T15:25:23.999Z</time></trkpt><trkpt lat="43.385574637447476" lon="5.468760881994567"><ele>366.8333333333333</ele><time>2026-03-21T15:25:24.999Z</time></trkpt><trkpt lat="43.385616122175534" lon="5.468690555789395"><ele>367.0</ele><time>2026-03-21T15:25:25.999Z</time></trkpt><trkpt lat="43.3856660736633" lon="5.468608670475496"><ele>367.0</ele><time>2026-03-21T15:25:26.999Z</time></trkpt><trkpt lat="43.38570530140985" lon="5.468514990189747"><ele>367.0</ele><time>2026-03-21T15:25:27.999Z</time></trkpt><trkpt lat="43.38575560169777" lon="5.468418532543962"><ele>367.0</ele><time>2026-03-21T15:25:28.999Z</time></trkpt><trkpt lat="43.38580708176382" lon="5.468321298074043"><ele>367.0</ele><time>2026-03-21T15:25:29.999Z</time></trkpt><trkpt lat="43.38585505198086" lon="5.468230429085314"><ele>367.0</ele><time>2026-03-21T15:25:30.999Z</time></trkpt><trkpt lat="43.385901079307885" lon="5.468145547648482"><ele>367.0</ele><time>2026-03-21T15:25:31.999Z</time></trkpt><trkpt lat="43.385951824535184" lon="5.468063514444719"><ele>367.0</ele><time>2026-03-21T15:25:32.999Z</time></trkpt><trkpt lat="43.38597731289389" lon="5.467964281961992"><ele>367.0</ele><time>2026-03-21T15:25:33.999Z</time></trkpt><trkpt lat="43.38601462709692" lon="5.467890093892979"><ele>367.0</ele><time>2026-03-21T15:25:34.999Z</time></trkpt><trkpt lat="43.38604309480494" lon="5.467812163093194"><ele>367.0</ele><time>2026-03-21T15:25:35.999Z</time></trkpt><trkpt lat="43.38605755836359" lon="5.4676576920101505"><ele>367.0</ele><time>2026-03-21T15:25:37.999Z</time></trkpt><trkpt lat="43.38602573463299" lon="5.467572376983216"><ele>367.0</ele><time>2026-03-21T15:25:38.999Z</time></trkpt><trkpt lat="43.38597996834248" lon="5.467508688216218"><ele>367.5</ele><time>2026-03-21T15:25:39.999Z</time></trkpt><trkpt lat="43.38587006876512" lon="5.467481441610481"><ele>368.0</ele><time>2026-03-21T15:25:41.999Z</time></trkpt><trkpt lat="43.38577690284067" lon="5.467505047658177"><ele>368.5</ele><time>2026-03-21T15:25:44.999Z</time></trkpt><trkpt lat="43.385693213781266" lon="5.4675650370962146"><ele>369.0</ele><time>2026-03-21T15:25:47.999Z</time></trkpt><trkpt lat="43.38562653474658" lon="5.467598393587914"><ele>369.5</ele><time>2026-03-21T15:25:49.999Z</time></trkpt><trkpt lat="43.38556365965634" lon="5.4676291738380645"><ele>370.0</ele><time>2026-03-21T15:25:51.999Z</time></trkpt><trkpt lat="43.385494495153964" lon="5.467647795562193"><ele>372.3333333333333</ele><time>2026-03-21T15:25:53.999Z</time></trkpt><trkpt lat="43.38542964763862" lon="5.467686841084597"><ele>374.66666666666663</ele><time>2026-03-21T15:25:55.999Z</time></trkpt><trkpt lat="43.3853630889085" lon="5.467726916920591"><ele>377.0</ele><time>2026-03-21T15:25:57.998Z</time></trkpt><trkpt lat="43.38527570323198" lon="5.467778588328877"><ele>379.3333333333333</ele><time>2026-03-21T15:26:01Z</time></trkpt><trkpt lat="43.385223619642105" lon="5.4678303401916"><ele>381.6666666666667</ele><time>2026-03-21T15:26:03Z</time></trkpt><trkpt lat="43.385137105296934" lon="5.467873334306384"><ele>384.0</ele><time>2026-03-21T15:26:06Z</time></trkpt><trkpt lat="43.38505881856595" lon="5.467908535933484"><ele>384.0</ele><time>2026-03-21T15:26:09Z</time></trkpt><trkpt lat="43.38499121675579" lon="5.467936358451995"><ele>384.0</ele><time>2026-03-21T15:26:11Z</time></trkpt><trkpt lat="43.38490135690987" lon="5.467954325111798"><ele>384.0</ele><time>2026-03-21T15:26:14Z</time></trkpt><trkpt lat="43.3848183763628" lon="5.46797866870872"><ele>384.0</ele><time>2026-03-21T15:26:17Z</time></trkpt><trkpt lat="43.38472894251355" lon="5.467999298387081"><ele>384.0</ele><time>2026-03-21T15:26:20Z</time></trkpt><trkpt lat="43.38464421281564" lon="5.468013814627282"><ele>384.0</ele><time>2026-03-21T15:26:23Z</time></trkpt><trkpt lat="43.384556484642" lon="5.468024997821599"><ele>384.1666666666667</ele><time>2026-03-21T15:26:26Z</time></trkpt><trkpt lat="43.38446976760608" lon="5.468030732721127"><ele>384.33333333333337</ele><time>2026-03-21T15:26:29Z</time></trkpt><trkpt lat="43.38439767720392" lon="5.46801369236288"><ele>384.5</ele><time>2026-03-21T15:26:32Z</time></trkpt><trkpt lat="43.38432493453621" lon="5.467969199619616"><ele>384.6666666666667</ele><time>2026-03-21T15:26:35Z</time></trkpt><trkpt lat="43.38424954033341" lon="5.467895846509632"><ele>384.83333333333337</ele><time>2026-03-21T15:26:38Z</time></trkpt><trkpt lat="43.38417774544334" lon="5.46782688002644"><ele>385.0</ele><time>2026-03-21T15:26:41Z</time></trkpt><trkpt lat="43.384112024862965" lon="5.467756289361669"><ele>385.00000000000006</ele><time>2026-03-21T15:26:44Z</time></trkpt><trkpt lat="43.38406524595942" lon="5.467690243995677"><ele>385.0</ele><time>2026-03-21T15:26:47Z</time></trkpt><trkpt lat="43.38401698151865" lon="5.467598724649438"><ele>385.0</ele><time>2026-03-21T15:26:50Z</time></trkpt><trkpt lat="43.38396627236533" lon="5.467501132238697"><ele>385.0</ele><time>2026-03-21T15:26:54Z</time></trkpt><trkpt lat="43.383962457332714" lon="5.467407564425566"><ele>385.00000000000006</ele><time>2026-03-21T15:26:58.999Z</time></trkpt><trkpt lat="43.383852970185416" lon="5.467353258007171"><ele>385.0</ele><time>2026-03-21T15:27:03.999Z</time></trkpt><trkpt lat="43.38379585174972" lon="5.467304944600838"><ele>384.33333333333337</ele><time>2026-03-21T15:27:06.999Z</time></trkpt><trkpt lat="43.38372482185424" lon="5.467273118931857"><ele>383.6666666666667</ele><time>2026-03-21T15:27:09.999Z</time></trkpt><trkpt lat="43.38364684083705" lon="5.4672501783485155"><ele>383.0</ele><time>2026-03-21T15:27:12.999Z</time></trkpt><trkpt lat="43.38355598683748" lon="5.467268949004699"><ele>382.33333333333337</ele><time>2026-03-21T15:27:15.999Z</time></trkpt><trkpt lat="43.383465710642724" lon="5.46727037181709"><ele>381.6666666666667</ele><time>2026-03-21T15:27:18.999Z</time></trkpt><trkpt lat="43.38339383849628" lon="5.467282270895543"><ele>381.0</ele><time>2026-03-21T15:27:20.999Z</time></trkpt><trkpt lat="43.3833150206873" lon="5.467269902366761"><ele>381.0</ele><time>2026-03-21T15:27:22.999Z</time></trkpt><trkpt lat="43.38322552578836" lon="5.467271845800948"><ele>381.0</ele><time>2026-03-21T15:27:24.999Z</time></trkpt><trkpt lat="43.38312861237247" lon="5.467278664561452"><ele>381.0</ele><time>2026-03-21T15:27:26.999Z</time></trkpt><trkpt lat="43.38302952912271" lon="5.467223116057434"><ele>381.0</ele><time>2026-03-21T15:27:28.999Z</time></trkpt><trkpt lat="43.38291692050864" lon="5.467178704417445"><ele>381.0</ele><time>2026-03-21T15:27:30.999Z</time></trkpt><trkpt lat="43.38280323368915" lon="5.467135239809406"><ele>380.4</ele><time>2026-03-21T15:27:32.999Z</time></trkpt><trkpt lat="43.38269660425423" lon="5.467098443793327"><ele>379.8</ele><time>2026-03-21T15:27:34.999Z</time></trkpt><trkpt lat="43.38258684642344" lon="5.467060568256004"><ele>379.2</ele><time>2026-03-21T15:27:36.999Z</time></trkpt><trkpt lat="43.38248199800684" lon="5.467024386858512"><ele>378.59999999999997</ele><time>2026-03-21T15:27:38.999Z</time></trkpt><trkpt lat="43.38238029531999" lon="5.467012523823443"><ele>378.0</ele><time>2026-03-21T15:27:40.999Z</time></trkpt><trkpt lat="43.38229440936318" lon="5.466959653239059"><ele>378.0</ele><time>2026-03-21T15:27:42.999Z</time></trkpt><trkpt lat="43.382204249451945" lon="5.466927782519"><ele>378.0</ele><time>2026-03-21T15:27:44.999Z</time></trkpt><trkpt lat="43.38210981887957" lon="5.466893755686433"><ele>378.0</ele><time>2026-03-21T15:27:46.999Z</time></trkpt><trkpt lat="43.38200580615524" lon="5.46685686905524"><ele>378.0</ele><time>2026-03-21T15:27:48.999Z</time></trkpt><trkpt lat="43.381904329668316" lon="5.466821258929792"><ele>378.0</ele><time>2026-03-21T15:27:50.999Z</time></trkpt><trkpt lat="43.38178127117116" lon="5.46678440646008"><ele>376.59999999999997</ele><time>2026-03-21T15:27:52.999Z</time></trkpt><trkpt lat="43.38165925092436" lon="5.466782333656072"><ele>375.2</ele><time>2026-03-21T15:27:54.999Z</time></trkpt><trkpt lat="43.38159879170377" lon="5.466757484802782"><ele>373.8</ele><time>2026-03-21T15:27:55.999Z</time></trkpt><trkpt lat="43.38153575519672" lon="5.466768669501431"><ele>372.4</ele><time>2026-03-21T15:27:56.999Z</time></trkpt><trkpt lat="43.38141544840676" lon="5.466773436517001"><ele>371.0</ele><time>2026-03-21T15:27:58.999Z</time></trkpt><trkpt lat="43.38129179210596" lon="5.4667552908583765"><ele>369.7142857142857</ele><time>2026-03-21T15:28:00.998Z</time></trkpt><trkpt lat="43.381225180361376" lon="5.4667518840263245"><ele>368.42857142857144</ele><time>2026-03-21T15:28:01.998Z</time></trkpt><trkpt lat="43.38116211184334" lon="5.466744277676945"><ele>367.1428571428571</ele><time>2026-03-21T15:28:02.998Z</time></trkpt><trkpt lat="43.38109280327933" lon="5.466719504826326"><ele>365.8571428571429</ele><time>2026-03-21T15:28:03.998Z</time></trkpt><trkpt lat="43.381028904934126" lon="5.466740927695175"><ele>364.57142857142856</ele><time>2026-03-21T15:28:04.998Z</time></trkpt><trkpt lat="43.38096440598875" lon="5.466719480861059"><ele>363.2857142857143</ele><time>2026-03-21T15:28:06Z</time></trkpt><trkpt lat="43.38089196468239" lon="5.466742813633395"><ele>362.0</ele><time>2026-03-21T15:28:07Z</time></trkpt><trkpt lat="43.38082172597828" lon="5.4667350265877435"><ele>362.0</ele><time>2026-03-21T15:28:08Z</time></trkpt><trkpt lat="43.38075460105846" lon="5.466742996495945"><ele>362.0</ele><time>2026-03-21T15:28:09Z</time></trkpt><trkpt lat="43.38068022071185" lon="5.46674651758861"><ele>362.0</ele><time>2026-03-21T15:28:10Z</time></trkpt><trkpt lat="43.38060492106088" lon="5.466731462868624"><ele>362.0</ele><time>2026-03-21T15:28:11Z</time></trkpt><trkpt lat="43.38053182543243" lon="5.466706112320277"><ele>362.0</ele><time>2026-03-21T15:28:12Z</time></trkpt><trkpt lat="43.38046039870681" lon="5.466696160371222"><ele>362.0</ele><time>2026-03-21T15:28:13Z</time></trkpt><trkpt lat="43.38039273039054" lon="5.466710240799477"><ele>362.0</ele><time>2026-03-21T15:28:14Z</time></trkpt><trkpt lat="43.38031574547646" lon="5.466706288452381"><ele>360.85714285714283</ele><time>2026-03-21T15:28:15Z</time></trkpt><trkpt lat="43.38024277384636" lon="5.466707115396924"><ele>359.71428571428567</ele><time>2026-03-21T15:28:16Z</time></trkpt><trkpt lat="43.380171109904104" lon="5.4667119221670655"><ele>358.57142857142856</ele><time>2026-03-21T15:28:17Z</time></trkpt><trkpt lat="43.38010295321649" lon="5.466713262394818"><ele>357.42857142857144</ele><time>2026-03-21T15:28:18Z</time></trkpt><trkpt lat="43.3800219555631" lon="5.4667185260266615"><ele>356.2857142857143</ele><time>2026-03-21T15:28:19Z</time></trkpt><trkpt lat="43.37995434374885" lon="5.466677325281974"><ele>355.14285714285717</ele><time>2026-03-21T15:28:20Z</time></trkpt><trkpt lat="43.379883707240296" lon="5.466674597044528"><ele>354.0</ele><time>2026-03-21T15:28:21Z</time></trkpt><trkpt lat="43.379822291156835" lon="5.466643571681173"><ele>354.0</ele><time>2026-03-21T15:28:22Z</time></trkpt><trkpt lat="43.37975577077358" lon="5.466615809193906"><ele>354.0</ele><time>2026-03-21T15:28:23Z</time></trkpt><trkpt lat="43.3796996043547" lon="5.46654730907728"><ele>354.0</ele><time>2026-03-21T15:28:24Z</time></trkpt><trkpt lat="43.37962892110079" lon="5.466506198867704"><ele>354.0</ele><time>2026-03-21T15:28:25Z</time></trkpt><trkpt lat="43.379554841350064" lon="5.466487526763855"><ele>354.0</ele><time>2026-03-21T15:28:26Z</time></trkpt><trkpt lat="43.379485265233086" lon="5.466436491123051"><ele>354.0</ele><time>2026-03-21T15:28:27Z</time></trkpt><trkpt lat="43.379413695509136" lon="5.466398379548855"><ele>353.1666666666667</ele><time>2026-03-21T15:28:28Z</time></trkpt><trkpt lat="43.37934709925089" lon="5.466359465085925"><ele>352.3333333333333</ele><time>2026-03-21T15:28:29Z</time></trkpt><trkpt lat="43.37927485356884" lon="5.466307313739467"><ele>351.5</ele><time>2026-03-21T15:28:30Z</time></trkpt><trkpt lat="43.379217554286534" lon="5.466236751808428"><ele>350.66666666666663</ele><time>2026-03-21T15:28:31Z</time></trkpt><trkpt lat="43.37914188165241" lon="5.4661932518745555"><ele>349.8333333333333</ele><time>2026-03-21T15:28:32Z</time></trkpt><trkpt lat="43.37909028310672" lon="5.466120285572103"><ele>349.0</ele><time>2026-03-21T15:28:33Z</time></trkpt><trkpt lat="43.37902721305963" lon="5.466062881698162"><ele>349.0</ele><time>2026-03-21T15:28:34Z</time></trkpt><trkpt lat="43.37896204294272" lon="5.466028466196608"><ele>349.0</ele><time>2026-03-21T15:28:35Z</time></trkpt><trkpt lat="43.37891474477693" lon="5.465968920198722"><ele>349.0</ele><time>2026-03-21T15:28:36Z</time></trkpt><trkpt lat="43.37880898246717" lon="5.465908899119916"><ele>349.0</ele><time>2026-03-21T15:28:38Z</time></trkpt><trkpt lat="43.378725827154156" lon="5.465820841186132"><ele>349.0</ele><time>2026-03-21T15:28:40Z</time></trkpt><trkpt lat="43.378637511962864" lon="5.465783560847427"><ele>349.0</ele><time>2026-03-21T15:28:42Z</time></trkpt><trkpt lat="43.37856704989941" lon="5.465735052006886"><ele>348.8333333333333</ele><time>2026-03-21T15:28:44Z</time></trkpt><trkpt lat="43.378497794055505" lon="5.465688740786272"><ele>348.66666666666663</ele><time>2026-03-21T15:28:46Z</time></trkpt><trkpt lat="43.378426083020074" lon="5.465643630353998"><ele>348.5</ele><time>2026-03-21T15:28:48Z</time></trkpt><trkpt lat="43.37835879958827" lon="5.465602470520115"><ele>348.3333333333333</ele><time>2026-03-21T15:28:50Z</time></trkpt><trkpt lat="43.37828906256811" lon="5.465561970755627"><ele>348.1666666666667</ele><time>2026-03-21T15:28:52Z</time></trkpt><trkpt lat="43.37822507740445" lon="5.465515491508824"><ele>348.0</ele><time>2026-03-21T15:28:54Z</time></trkpt><trkpt lat="43.37815728469304" lon="5.465439491254309"><ele>348.0</ele><time>2026-03-21T15:28:56Z</time></trkpt><trkpt lat="43.37808900945747" lon="5.465384371490216"><ele>348.0</ele><time>2026-03-21T15:28:57.999Z</time></trkpt><trkpt lat="43.378022758189566" lon="5.465328508267894"><ele>348.0</ele><time>2026-03-21T15:28:59.999Z</time></trkpt><trkpt lat="43.37795738687402" lon="5.465270934669094"><ele>348.0</ele><time>2026-03-21T15:29:01.999Z</time></trkpt><trkpt lat="43.37789755964523" lon="5.46521336277135"><ele>348.0</ele><time>2026-03-21T15:29:03.999Z</time></trkpt><trkpt lat="43.377846336813896" lon="5.465159086398663"><ele>348.0</ele><time>2026-03-21T15:29:05.999Z</time></trkpt><trkpt lat="43.377779328567854" lon="5.465081486829202"><ele>347.8333333333333</ele><time>2026-03-21T15:29:08.999Z</time></trkpt><trkpt lat="43.3777273395775" lon="5.465015310138341"><ele>347.6666666666667</ele><time>2026-03-21T15:29:10.999Z</time></trkpt><trkpt lat="43.377665971304495" lon="5.464954698388249"><ele>347.5</ele><time>2026-03-21T15:29:12.999Z</time></trkpt><trkpt lat="43.37763185037058" lon="5.464852153961839"><ele>347.33333333333337</ele><time>2026-03-21T15:29:14.999Z</time></trkpt><trkpt lat="43.37757062329855" lon="5.464761549518634"><ele>347.1666666666667</ele><time>2026-03-21T15:29:17.999Z</time></trkpt><trkpt lat="43.377483103367005" lon="5.464715452702333"><ele>347.0</ele><time>2026-03-21T15:29:19.999Z</time></trkpt><trkpt lat="43.37738606662965" lon="5.464685775276148"><ele>347.0</ele><time>2026-03-21T15:29:21.999Z</time></trkpt><trkpt lat="43.37730412947756" lon="5.464619163736025"><ele>347.0</ele><time>2026-03-21T15:29:23.999Z</time></trkpt><trkpt lat="43.37721812566027" lon="5.464572302760988"><ele>347.0</ele><time>2026-03-21T15:29:25.999Z</time></trkpt><trkpt lat="43.37713611167372" lon="5.464522624529641"><ele>347.0</ele><time>2026-03-21T15:29:27.999Z</time></trkpt><trkpt lat="43.37707986691859" lon="5.464475345729572"><ele>347.0</ele><time>2026-03-21T15:29:29.999Z</time></trkpt><trkpt lat="43.3770458914063" lon="5.464371416901286"><ele>347.0</ele><time>2026-03-21T15:29:33.999Z</time></trkpt><trkpt lat="43.37707260625456" lon="5.464283527919966"><ele>346.5714285714286</ele><time>2026-03-21T15:29:35.999Z</time></trkpt><trkpt lat="43.377100832179565" lon="5.464159581742388"><ele>346.1428571428571</ele><time>2026-03-21T15:29:38.999Z</time></trkpt><trkpt lat="43.37713483501338" lon="5.464082915626115"><ele>345.7142857142857</ele><time>2026-03-21T15:29:40.999Z</time></trkpt><trkpt lat="43.37718105658949" lon="5.464009162817908"><ele>345.28571428571433</ele><time>2026-03-21T15:29:43.999Z</time></trkpt><trkpt lat="43.37723762784399" lon="5.463943987644164"><ele>344.8571428571429</ele><time>2026-03-21T15:29:45.999Z</time></trkpt><trkpt lat="43.37718339321948" lon="5.463998104479461"><ele>344.42857142857144</ele><time>2026-03-21T15:30:50Z</time></trkpt><trkpt lat="43.37713549980308" lon="5.46407284242387"><ele>344.0</ele><time>2026-03-21T15:30:53Z</time></trkpt><trkpt lat="43.37708107951296" lon="5.464171295552821"><ele>342.79999999999995</ele><time>2026-03-21T15:30:56Z</time></trkpt><trkpt lat="43.37707092550986" lon="5.4642949522286814"><ele>341.59999999999997</ele><time>2026-03-21T15:30:59Z</time></trkpt><trkpt lat="43.37705606720403" lon="5.464396169123284"><ele>340.4</ele><time>2026-03-21T15:31:01.999Z</time></trkpt><trkpt lat="43.376996874844444" lon="5.464295902659196"><ele>339.2</ele><time>2026-03-21T15:31:05.999Z</time></trkpt><trkpt lat="43.37687585148079" lon="5.464265235694934"><ele>338.0</ele><time>2026-03-21T15:31:06.999Z</time></trkpt><trkpt lat="43.376792674332336" lon="5.464179573141498"><ele>338.0</ele><time>2026-03-21T15:31:08.999Z</time></trkpt><trkpt lat="43.37683030906415" lon="5.464087228804063"><ele>338.0</ele><time>2026-03-21T15:31:09.999Z</time></trkpt><trkpt lat="43.37675038520553" lon="5.46399209641102"><ele>338.0</ele><time>2026-03-21T15:31:11.999Z</time></trkpt><trkpt lat="43.37648282172373" lon="5.464207513250785"><ele>338.0</ele><time>2026-03-21T15:31:12.999Z</time></trkpt><trkpt lat="43.37637815080115" lon="5.464157628715447"><ele>338.0</ele><time>2026-03-21T15:31:14.999Z</time></trkpt><trkpt lat="43.3762861125728" lon="5.464119921442444"><ele>338.0</ele><time>2026-03-21T15:31:16.999Z</time></trkpt><trkpt lat="43.376183361991075" lon="5.464067207485542"><ele>338.0</ele><time>2026-03-21T15:31:18.999Z</time></trkpt><trkpt lat="43.37609251226952" lon="5.464022292823194"><ele>338.0</ele><time>2026-03-21T15:31:20.999Z</time></trkpt><trkpt lat="43.37601848672591" lon="5.463981801980927"><ele>337.0</ele><time>2026-03-21T15:31:23.999Z</time></trkpt><trkpt lat="43.37595369326372" lon="5.46393165931835"><ele>336.0</ele><time>2026-03-21T15:31:25.999Z</time></trkpt><trkpt lat="43.375873322313076" lon="5.4638788618705645"><ele>335.0</ele><time>2026-03-21T15:31:27.999Z</time></trkpt><trkpt lat="43.3757925811261" lon="5.463819696431592"><ele>334.0</ele><time>2026-03-21T15:31:29.999Z</time></trkpt><trkpt lat="43.3757129355026" lon="5.463757821437424"><ele>333.0</ele><time>2026-03-21T15:31:31.999Z</time></trkpt><trkpt lat="43.375635074153166" lon="5.4636910710023106"><ele>332.0</ele><time>2026-03-21T15:31:33.999Z</time></trkpt><trkpt lat="43.375563058987176" lon="5.46360878525275"><ele>330.6</ele><time>2026-03-21T15:31:35.999Z</time></trkpt><trkpt lat="43.37549219635691" lon="5.463555881396391"><ele>329.20000000000005</ele><time>2026-03-21T15:31:37.999Z</time></trkpt><trkpt lat="43.375405528807526" lon="5.463560497619428"><ele>327.8</ele><time>2026-03-21T15:31:39.999Z</time></trkpt><trkpt lat="43.375306851887174" lon="5.463558405633225"><ele>326.4</ele><time>2026-03-21T15:31:41.999Z</time></trkpt><trkpt lat="43.37520814870826" lon="5.463535283657621"><ele>325.0</ele><time>2026-03-21T15:31:43.999Z</time></trkpt><trkpt lat="43.375101502676195" lon="5.463505677029157"><ele>325.0</ele><time>2026-03-21T15:31:45.999Z</time></trkpt><trkpt lat="43.37501945473623" lon="5.463478644339475"><ele>325.0</ele><time>2026-03-21T15:31:47.999Z</time></trkpt><trkpt lat="43.37494051062867" lon="5.4634598494554325"><ele>325.0</ele><time>2026-03-21T15:31:49.999Z</time></trkpt><trkpt lat="43.37486450469627" lon="5.4635083653335705"><ele>325.0</ele><time>2026-03-21T15:31:51.999Z</time></trkpt><trkpt lat="43.374790189291346" lon="5.463568803822603"><ele>325.0</ele><time>2026-03-21T15:31:53.999Z</time></trkpt><trkpt lat="43.37471518377382" lon="5.463609599765114"><ele>325.0</ele><time>2026-03-21T15:31:55.999Z</time></trkpt><trkpt lat="43.37462970811291" lon="5.463619638222258"><ele>323.66666666666663</ele><time>2026-03-21T15:31:57.999Z</time></trkpt><trkpt lat="43.374559195677215" lon="5.463560724168368"><ele>322.3333333333333</ele><time>2026-03-21T15:31:59.999Z</time></trkpt><trkpt lat="43.374530498190154" lon="5.463456904596466"><ele>321.0</ele><time>2026-03-21T15:32:01.999Z</time></trkpt><trkpt lat="43.3745341427028" lon="5.4633311340017805"><ele>319.6666666666667</ele><time>2026-03-21T15:32:03.999Z</time></trkpt><trkpt lat="43.37451791984136" lon="5.463216748401792"><ele>318.33333333333337</ele><time>2026-03-21T15:32:05.999Z</time></trkpt><trkpt lat="43.3744987242789" lon="5.463098299926033"><ele>317.0</ele><time>2026-03-21T15:32:07.998Z</time></trkpt><trkpt lat="43.37447120849533" lon="5.462948724050209"><ele>316.4</ele><time>2026-03-21T15:32:09.998Z</time></trkpt><trkpt lat="43.37444631210887" lon="5.4627864692437305"><ele>315.79999999999995</ele><time>2026-03-21T15:32:11.998Z</time></trkpt><trkpt lat="43.37442970681817" lon="5.462693755496683"><ele>315.2</ele><time>2026-03-21T15:32:12.998Z</time></trkpt><trkpt lat="43.374404875390844" lon="5.46259996954355"><ele>314.59999999999997</ele><time>2026-03-21T15:32:13.998Z</time></trkpt><trkpt lat="43.37437719955032" lon="5.462502474884643"><ele>314.0</ele><time>2026-03-21T15:32:14.998Z</time></trkpt><trkpt lat="43.37433350892314" lon="5.462359273690156"><ele>313.99999999999994</ele><time>2026-03-21T15:32:16.998Z</time></trkpt><trkpt lat="43.37432471883764" lon="5.4622581406069575"><ele>314.0</ele><time>2026-03-21T15:32:19Z</time></trkpt><trkpt lat="43.37433122613342" lon="5.462160598705864"><ele>314.0</ele><time>2026-03-21T15:32:21Z</time></trkpt><trkpt lat="43.37433014003211" lon="5.462053083979126"><ele>314.0</ele><time>2026-03-21T15:32:23Z</time></trkpt><trkpt lat="43.37433642977666" lon="5.461952625043934"><ele>314.0</ele><time>2026-03-21T15:32:25Z</time></trkpt><trkpt lat="43.37434254410814" lon="5.461849279609559"><ele>313.99999999999994</ele><time>2026-03-21T15:32:28Z</time></trkpt><trkpt lat="43.374290100523524" lon="5.461784058868803"><ele>314.0</ele><time>2026-03-21T15:32:33Z</time></trkpt><trkpt lat="43.374219852165005" lon="5.46178362627228"><ele>313.6666666666667</ele><time>2026-03-21T15:32:35Z</time></trkpt><trkpt lat="43.37415491588543" lon="5.461792888025682"><ele>313.33333333333337</ele><time>2026-03-21T15:32:37Z</time></trkpt><trkpt lat="43.37408408659026" lon="5.461805116502496"><ele>313.0</ele><time>2026-03-21T15:32:39Z</time></trkpt><trkpt lat="43.37400319473089" lon="5.461801886998421"><ele>312.6666666666667</ele><time>2026-03-21T15:32:41Z</time></trkpt><trkpt lat="43.373905525621716" lon="5.461779699268017"><ele>312.3333333333333</ele><time>2026-03-21T15:32:43Z</time></trkpt><trkpt lat="43.37382601052158" lon="5.46171971924787"><ele>312.0</ele><time>2026-03-21T15:32:45Z</time></trkpt><trkpt lat="43.3737475534217" lon="5.461656821222965"><ele>310.0</ele><time>2026-03-21T15:32:47Z</time></trkpt><trkpt lat="43.37366807380273" lon="5.461598435961692"><ele>308.0</ele><time>2026-03-21T15:32:49Z</time></trkpt><trkpt lat="43.373586882385624" lon="5.461557607905319"><ele>306.0</ele><time>2026-03-21T15:32:51Z</time></trkpt><trkpt lat="43.37351004672811" lon="5.461568824405062"><ele>304.0</ele><time>2026-03-21T15:32:53Z</time></trkpt><trkpt lat="43.373451898861454" lon="5.461602776693934"><ele>302.0</ele><time>2026-03-21T15:32:58Z</time></trkpt><trkpt lat="43.37353370429586" lon="5.46159201736812"><ele>300.0</ele><time>2026-03-21T15:33:59.999Z</time></trkpt><trkpt lat="43.373630107750586" lon="5.46159425110671"><ele>300.0</ele><time>2026-03-21T15:34:02.999Z</time></trkpt><trkpt lat="43.37369463353682" lon="5.46162655454582"><ele>300.0</ele><time>2026-03-21T15:34:04.999Z</time></trkpt><trkpt lat="43.37375924613474" lon="5.46167846855969"><ele>300.0</ele><time>2026-03-21T15:34:07.999Z</time></trkpt><trkpt lat="43.37384187687446" lon="5.461740990049808"><ele>300.0</ele><time>2026-03-21T15:34:10.998Z</time></trkpt><trkpt lat="43.37392612708665" lon="5.4617902703867305"><ele>300.0</ele><time>2026-03-21T15:34:13.998Z</time></trkpt><trkpt lat="43.374012125455764" lon="5.461821447515052"><ele>300.0</ele><time>2026-03-21T15:34:16.998Z</time></trkpt><trkpt lat="43.37409903112982" lon="5.461821209018292"><ele>302.0</ele><time>2026-03-21T15:34:19.998Z</time></trkpt><trkpt lat="43.374166738452125" lon="5.46180316444141"><ele>304.0</ele><time>2026-03-21T15:34:21.998Z</time></trkpt><trkpt lat="43.37424776456941" lon="5.461782444091372"><ele>306.0</ele><time>2026-03-21T15:34:25Z</time></trkpt><trkpt lat="43.37432435172679" lon="5.461812764004566"><ele>308.0</ele><time>2026-03-21T15:34:28Z</time></trkpt><trkpt lat="43.37434167587487" lon="5.461935055842096"><ele>310.0</ele><time>2026-03-21T15:34:33Z</time></trkpt><trkpt lat="43.37433054221709" lon="5.462024989429936"><ele>312.0</ele><time>2026-03-21T15:34:36Z</time></trkpt><trkpt lat="43.37432852107206" lon="5.462128246477968"><ele>312.3333333333333</ele><time>2026-03-21T15:34:39Z</time></trkpt><trkpt lat="43.374330456394965" lon="5.4622363418144495"><ele>312.6666666666667</ele><time>2026-03-21T15:34:42Z</time></trkpt><trkpt lat="43.37433999022697" lon="5.462363683276422"><ele>313.0</ele><time>2026-03-21T15:34:45Z</time></trkpt><trkpt lat="43.37435952005988" lon="5.462460517825023"><ele>313.33333333333337</ele><time>2026-03-21T15:34:47Z</time></trkpt><trkpt lat="43.37438586045307" lon="5.46254746831173"><ele>313.6666666666667</ele><time>2026-03-21T15:34:49Z</time></trkpt><trkpt lat="43.374413583807794" lon="5.462646245049948"><ele>314.0</ele><time>2026-03-21T15:34:51Z</time></trkpt><trkpt lat="43.37443414982126" lon="5.4627427689501085"><ele>314.0</ele><time>2026-03-21T15:34:53Z</time></trkpt><trkpt lat="43.37444728442583" lon="5.462833256581904"><ele>314.0</ele><time>2026-03-21T15:34:55Z</time></trkpt><trkpt lat="43.37446036843048" lon="5.462923523443299"><ele>314.0</ele><time>2026-03-21T15:34:57Z</time></trkpt><trkpt lat="43.37447722952376" lon="5.463006989006741"><ele>314.0</ele><time>2026-03-21T15:34:59Z</time></trkpt><trkpt lat="43.37450550978089" lon="5.463127851930864"><ele>314.0</ele><time>2026-03-21T15:35:02Z</time></trkpt><trkpt lat="43.3745295801643" lon="5.463248468788084"><ele>314.0</ele><time>2026-03-21T15:35:05Z</time></trkpt><trkpt lat="43.374542909667134" lon="5.463362459331988"><ele>314.5</ele><time>2026-03-21T15:35:08Z</time></trkpt><trkpt lat="43.37456045107229" lon="5.4634797756712485"><ele>315.0</ele><time>2026-03-21T15:35:10.999Z</time></trkpt><trkpt lat="43.37458292911908" lon="5.463561029104631"><ele>315.5</ele><time>2026-03-21T15:35:12.999Z</time></trkpt><trkpt lat="43.37465048614742" lon="5.463610493723259"><ele>316.0</ele><time>2026-03-21T15:35:15.999Z</time></trkpt><trkpt lat="43.37473463143921" lon="5.463594781996552"><ele>316.5</ele><time>2026-03-21T15:35:18.999Z</time></trkpt><trkpt lat="43.374805357385064" lon="5.463544505572267"><ele>317.0</ele><time>2026-03-21T15:35:21.999Z</time></trkpt><trkpt lat="43.37487671241239" lon="5.463502637413572"><ele>318.33333333333337</ele><time>2026-03-21T15:35:24.999Z</time></trkpt><trkpt lat="43.374949710243925" lon="5.46346037918899"><ele>319.6666666666667</ele><time>2026-03-21T15:35:27.999Z</time></trkpt><trkpt lat="43.375029770880374" lon="5.463464550653681"><ele>321.0</ele><time>2026-03-21T15:35:30.999Z</time></trkpt><trkpt lat="43.37510188375568" lon="5.463506614270645"><ele>322.3333333333333</ele><time>2026-03-21T15:35:33.999Z</time></trkpt><trkpt lat="43.3751812240249" lon="5.463521468736949"><ele>323.66666666666663</ele><time>2026-03-21T15:35:36.999Z</time></trkpt><trkpt lat="43.37525340402386" lon="5.46354588803463"><ele>325.0</ele><time>2026-03-21T15:35:39.999Z</time></trkpt><trkpt lat="43.37532488798996" lon="5.463561144790799"><ele>325.0</ele><time>2026-03-21T15:35:42.999Z</time></trkpt><trkpt lat="43.3754066065197" lon="5.463570117293217"><ele>325.0</ele><time>2026-03-21T15:35:45.999Z</time></trkpt><trkpt lat="43.375489746893074" lon="5.4635770454568515"><ele>325.0</ele><time>2026-03-21T15:35:48.999Z</time></trkpt><trkpt lat="43.375573091485975" lon="5.463625171241875"><ele>325.0</ele><time>2026-03-21T15:35:51.999Z</time></trkpt><trkpt lat="43.37564514166089" lon="5.463687557200107"><ele>325.0</ele><time>2026-03-21T15:35:54.999Z</time></trkpt><trkpt lat="43.3757153133532" lon="5.46375724007105"><ele>325.0</ele><time>2026-03-21T15:35:57.999Z</time></trkpt><trkpt lat="43.37579083538428" lon="5.463816739904337"><ele>326.0</ele><time>2026-03-21T15:36:00.999Z</time></trkpt><trkpt lat="43.3758701706752" lon="5.463876930364584"><ele>327.0</ele><time>2026-03-21T15:36:03.999Z</time></trkpt><trkpt lat="43.37594419435139" lon="5.463937524506457"><ele>328.0</ele><time>2026-03-21T15:36:06.999Z</time></trkpt><trkpt lat="43.37601929297889" lon="5.463976177040211"><ele>329.0</ele><time>2026-03-21T15:36:09.999Z</time></trkpt><trkpt lat="43.376087504624905" lon="5.464006419082295"><ele>330.0</ele><time>2026-03-21T15:36:12.999Z</time></trkpt><trkpt lat="43.376081404669094" lon="5.464110282732067"><ele>331.0</ele><time>2026-03-21T15:36:33Z</time></trkpt><trkpt lat="43.376029598944804" lon="5.464226730756374"><ele>331.0</ele><time>2026-03-21T15:36:36Z</time></trkpt><trkpt lat="43.37600582496148" lon="5.464323578168605"><ele>331.0</ele><time>2026-03-21T15:36:38Z</time></trkpt><trkpt lat="43.37601307601535" lon="5.464416100568552"><ele>331.0</ele><time>2026-03-21T15:36:40Z</time></trkpt><trkpt lat="43.376029207023365" lon="5.464502653912765"><ele>331.0</ele><time>2026-03-21T15:36:42Z</time></trkpt><trkpt lat="43.37599167554362" lon="5.464600343553891"><ele>331.0</ele><time>2026-03-21T15:36:44Z</time></trkpt><trkpt lat="43.37592920021632" lon="5.464696070821651"><ele>331.0</ele><time>2026-03-21T15:36:46Z</time></trkpt><trkpt lat="43.37585334184674" lon="5.464766884265797"><ele>329.8333333333333</ele><time>2026-03-21T15:36:48Z</time></trkpt><trkpt lat="43.375788414334956" lon="5.464853663738794"><ele>328.66666666666663</ele><time>2026-03-21T15:36:50Z</time></trkpt><trkpt lat="43.375730359284354" lon="5.4649224438194475"><ele>327.5</ele><time>2026-03-21T15:36:52Z</time></trkpt><trkpt lat="43.375668740465365" lon="5.464983886879576"><ele>326.3333333333333</ele><time>2026-03-21T15:36:54Z</time></trkpt><trkpt lat="43.37559398370294" lon="5.465026396299913"><ele>325.1666666666667</ele><time>2026-03-21T15:36:56Z</time></trkpt><trkpt lat="43.375535666649164" lon="5.465127091767209"><ele>324.0</ele><time>2026-03-21T15:36:58Z</time></trkpt><trkpt lat="43.375516298968535" lon="5.465236825496377"><ele>323.3333333333333</ele><time>2026-03-21T15:37:00Z</time></trkpt><trkpt lat="43.375470291666716" lon="5.465306336350663"><ele>322.6666666666667</ele><time>2026-03-21T15:37:02Z</time></trkpt><trkpt lat="43.37540732416724" lon="5.46536629597754"><ele>322.0</ele><time>2026-03-21T15:37:04Z</time></trkpt><trkpt lat="43.37535467272335" lon="5.465463769217349"><ele>321.33333333333337</ele><time>2026-03-21T15:37:06Z</time></trkpt><trkpt lat="43.375291751605126" lon="5.465572455688876"><ele>320.6666666666667</ele><time>2026-03-21T15:37:08Z</time></trkpt><trkpt lat="43.37525368994771" lon="5.465699609700462"><ele>320.0</ele><time>2026-03-21T15:37:10Z</time></trkpt><trkpt lat="43.37521191226621" lon="5.465798567953689"><ele>317.8</ele><time>2026-03-21T15:37:12Z</time></trkpt><trkpt lat="43.375135527933814" lon="5.4658900531119725"><ele>315.6</ele><time>2026-03-21T15:37:13.999Z</time></trkpt><trkpt lat="43.37501165913519" lon="5.465882787419228"><ele>313.4</ele><time>2026-03-21T15:37:15.999Z</time></trkpt><trkpt lat="43.37489109744633" lon="5.465903667052266"><ele>311.2</ele><time>2026-03-21T15:37:17.999Z</time></trkpt><trkpt lat="43.37482591762448" lon="5.465909462875343"><ele>309.0</ele><time>2026-03-21T15:37:18.999Z</time></trkpt><trkpt lat="43.37475207077708" lon="5.465910772807064"><ele>308.0</ele><time>2026-03-21T15:37:19.999Z</time></trkpt><trkpt lat="43.374682773399854" lon="5.465903007373649"><ele>307.0</ele><time>2026-03-21T15:37:20.999Z</time></trkpt><trkpt lat="43.374617085801454" lon="5.465879720137615"><ele>306.0</ele><time>2026-03-21T15:37:21.999Z</time></trkpt><trkpt lat="43.37454432576166" lon="5.465836865545824"><ele>305.0</ele><time>2026-03-21T15:37:22.999Z</time></trkpt><trkpt lat="43.37446416768102" lon="5.465795089890128"><ele>304.0</ele><time>2026-03-21T15:37:23.999Z</time></trkpt><trkpt lat="43.37437735080744" lon="5.465771571721516"><ele>303.0</ele><time>2026-03-21T15:37:24.999Z</time></trkpt><trkpt lat="43.37428803456038" lon="5.465746980059024"><ele>303.0</ele><time>2026-03-21T15:37:25.999Z</time></trkpt><trkpt lat="43.37420432361564" lon="5.46571409720584"><ele>303.0</ele><time>2026-03-21T15:37:26.999Z</time></trkpt><trkpt lat="43.37412584826573" lon="5.465676149553946"><ele>303.0</ele><time>2026-03-21T15:37:27.999Z</time></trkpt><trkpt lat="43.37405070839828" lon="5.4656159109405325"><ele>303.0</ele><time>2026-03-21T15:37:28.999Z</time></trkpt><trkpt lat="43.37396724023667" lon="5.46555170963219"><ele>303.0</ele><time>2026-03-21T15:37:29.999Z</time></trkpt><trkpt lat="43.37388061923318" lon="5.465495840249615"><ele>303.0</ele><time>2026-03-21T15:37:30.999Z</time></trkpt><trkpt lat="43.3737875023101" lon="5.465490641005837"><ele>302.3333333333333</ele><time>2026-03-21T15:37:31.999Z</time></trkpt><trkpt lat="43.3737005733464" lon="5.465482521595394"><ele>301.6666666666667</ele><time>2026-03-21T15:37:32.999Z</time></trkpt><trkpt lat="43.373620074368915" lon="5.465494130466539"><ele>301.0</ele><time>2026-03-21T15:37:33.999Z</time></trkpt><trkpt lat="43.37355648168851" lon="5.465506680199902"><ele>300.33333333333337</ele><time>2026-03-21T15:37:34.999Z</time></trkpt><trkpt lat="43.37344860190868" lon="5.465481780983975"><ele>299.6666666666667</ele><time>2026-03-21T15:37:36.999Z</time></trkpt><trkpt lat="43.37336355219177" lon="5.46546539380338"><ele>299.0</ele><time>2026-03-21T15:37:38.999Z</time></trkpt><trkpt lat="43.37328977296574" lon="5.4654434807566155"><ele>298.4</ele><time>2026-03-21T15:37:40.999Z</time></trkpt><trkpt lat="43.37319729604659" lon="5.465423413737908"><ele>297.79999999999995</ele><time>2026-03-21T15:37:42.999Z</time></trkpt><trkpt lat="43.373118553068565" lon="5.465317969797567"><ele>297.20000000000005</ele><time>2026-03-21T15:37:44.999Z</time></trkpt><trkpt lat="43.37312427892868" lon="5.465216634164887"><ele>296.6</ele><time>2026-03-21T15:37:45.999Z</time></trkpt><trkpt lat="43.37315556312285" lon="5.465052413504027"><ele>296.0</ele><time>2026-03-21T15:37:47.999Z</time></trkpt><trkpt lat="43.373164379376206" lon="5.464962347240146"><ele>296.0</ele><time>2026-03-21T15:37:48.999Z</time></trkpt><trkpt lat="43.373165431991445" lon="5.464858183201564"><ele>296.0</ele><time>2026-03-21T15:37:49.999Z</time></trkpt><trkpt lat="43.37315417464685" lon="5.464763817046246"><ele>296.0</ele><time>2026-03-21T15:37:50.999Z</time></trkpt><trkpt lat="43.37313395465983" lon="5.464660044857699"><ele>296.0</ele><time>2026-03-21T15:37:51.999Z</time></trkpt><trkpt lat="43.37311388549697" lon="5.46455283211539"><ele>296.0</ele><time>2026-03-21T15:37:52.999Z</time></trkpt><trkpt lat="43.373086733576095" lon="5.464442954481125"><ele>296.0</ele><time>2026-03-21T15:37:53.999Z</time></trkpt><trkpt lat="43.37304939666044" lon="5.464345094701067"><ele>294.1666666666667</ele><time>2026-03-21T15:37:54.999Z</time></trkpt><trkpt lat="43.3730017285406" lon="5.464241489059157"><ele>292.33333333333337</ele><time>2026-03-21T15:37:55.999Z</time></trkpt><trkpt lat="43.372943070658614" lon="5.4641605758608325"><ele>290.5</ele><time>2026-03-21T15:37:56.999Z</time></trkpt><trkpt lat="43.372887751886445" lon="5.464074043753314"><ele>288.6666666666667</ele><time>2026-03-21T15:37:57.999Z</time></trkpt><trkpt lat="43.372817188391245" lon="5.464002463937669"><ele>286.8333333333333</ele><time>2026-03-21T15:37:58.999Z</time></trkpt><trkpt lat="43.37273444344069" lon="5.46394664193066"><ele>285.0</ele><time>2026-03-21T15:37:59.999Z</time></trkpt><trkpt lat="43.37265124356914" lon="5.463906494250705"><ele>285.0</ele><time>2026-03-21T15:38:00.999Z</time></trkpt><trkpt lat="43.372568898911204" lon="5.463877957121405"><ele>285.0</ele><time>2026-03-21T15:38:01.999Z</time></trkpt><trkpt lat="43.3724747430876" lon="5.463858733184876"><ele>285.0</ele><time>2026-03-21T15:38:02.999Z</time></trkpt><trkpt lat="43.37239200778431" lon="5.463815466040372"><ele>285.0</ele><time>2026-03-21T15:38:03.999Z</time></trkpt><trkpt lat="43.372312031508294" lon="5.463786552460716"><ele>285.0</ele><time>2026-03-21T15:38:04.999Z</time></trkpt><trkpt lat="43.3722384157912" lon="5.463752211971435"><ele>285.0</ele><time>2026-03-21T15:38:05.999Z</time></trkpt><trkpt lat="43.37216832341399" lon="5.463709310800671"><ele>284.1666666666667</ele><time>2026-03-21T15:38:06.999Z</time></trkpt><trkpt lat="43.37209793360263" lon="5.463658568615656"><ele>283.3333333333333</ele><time>2026-03-21T15:38:07.999Z</time></trkpt><trkpt lat="43.372017407437355" lon="5.4635976177023196"><ele>282.5</ele><time>2026-03-21T15:38:08.999Z</time></trkpt><trkpt lat="43.37194123353305" lon="5.463533454186985"><ele>281.66666666666663</ele><time>2026-03-21T15:38:09.999Z</time></trkpt><trkpt lat="43.371854775605584" lon="5.463481247102304"><ele>280.8333333333333</ele><time>2026-03-21T15:38:10.999Z</time></trkpt><trkpt lat="43.371796303904325" lon="5.463391973738856"><ele>280.0</ele><time>2026-03-21T15:38:11.999Z</time></trkpt><trkpt lat="43.37172324164405" lon="5.463316112702622"><ele>280.0</ele><time>2026-03-21T15:38:12.999Z</time></trkpt><trkpt lat="43.37165387600249" lon="5.463237450641479"><ele>280.0</ele><time>2026-03-21T15:38:13.999Z</time></trkpt><trkpt lat="43.37158584095452" lon="5.463173599589616"><ele>280.0</ele><time>2026-03-21T15:38:14.999Z</time></trkpt><trkpt lat="43.37148875773307" lon="5.463170685423512"><ele>280.0</ele><time>2026-03-21T15:38:15.999Z</time></trkpt><trkpt lat="43.371389648544856" lon="5.4631679141928915"><ele>280.0</ele><time>2026-03-21T15:38:16.999Z</time></trkpt><trkpt lat="43.371296643577146" lon="5.4631300705453105"><ele>279.8333333333333</ele><time>2026-03-21T15:38:17.999Z</time></trkpt><trkpt lat="43.371202434104404" lon="5.463108065717896"><ele>279.66666666666663</ele><time>2026-03-21T15:38:18.999Z</time></trkpt><trkpt lat="43.37112945342579" lon="5.46307355713294"><ele>279.5</ele><time>2026-03-21T15:38:19.999Z</time></trkpt><trkpt lat="43.37106360588331" lon="5.463013990684275"><ele>279.3333333333333</ele><time>2026-03-21T15:38:20.998Z</time></trkpt><trkpt lat="43.37100131367042" lon="5.462936721080995"><ele>279.1666666666667</ele><time>2026-03-21T15:38:21.998Z</time></trkpt><trkpt lat="43.37094118311192" lon="5.462863621976511"><ele>279.0</ele><time>2026-03-21T15:38:22.998Z</time></trkpt><trkpt lat="43.37086327260384" lon="5.462784273288852"><ele>277.0</ele><time>2026-03-21T15:38:23.998Z</time></trkpt><trkpt lat="43.3707805228961" lon="5.462723317974281"><ele>275.0</ele><time>2026-03-21T15:38:24.998Z</time></trkpt><trkpt lat="43.37070431638486" lon="5.462653041658442"><ele>273.0</ele><time>2026-03-21T15:38:25.998Z</time></trkpt><trkpt lat="43.37061786012544" lon="5.462609260503063"><ele>271.0</ele><time>2026-03-21T15:38:26.998Z</time></trkpt><trkpt lat="43.37054921162119" lon="5.462531903736125"><ele>269.0</ele><time>2026-03-21T15:38:27.998Z</time></trkpt><trkpt lat="43.370476776584496" lon="5.462460521850943"><ele>268.0</ele><time>2026-03-21T15:38:28.998Z</time></trkpt><trkpt lat="43.37041818336755" lon="5.462352568770426"><ele>267.0</ele><time>2026-03-21T15:38:29.998Z</time></trkpt><trkpt lat="43.37035258923879" lon="5.462269551449342"><ele>266.0</ele><time>2026-03-21T15:38:30.998Z</time></trkpt><trkpt lat="43.3702828110221" lon="5.462207258725731"><ele>265.0</ele><time>2026-03-21T15:38:31.998Z</time></trkpt><trkpt lat="43.370189721611325" lon="5.462238634978337"><ele>264.0</ele><time>2026-03-21T15:38:32.998Z</time></trkpt><trkpt lat="43.3700675135602" lon="5.462173512836147"><ele>262.7142857142857</ele><time>2026-03-21T15:38:35Z</time></trkpt><trkpt lat="43.37002877989425" lon="5.462075473531337"><ele>261.42857142857144</ele><time>2026-03-21T15:38:36Z</time></trkpt><trkpt lat="43.36998553583665" lon="5.462002563224944"><ele>260.14285714285717</ele><time>2026-03-21T15:38:37Z</time></trkpt><trkpt lat="43.36995928262563" lon="5.461919815018823"><ele>258.8571428571429</ele><time>2026-03-21T15:38:38Z</time></trkpt><trkpt lat="43.36994403145001" lon="5.4618220005325915"><ele>257.5714285714286</ele><time>2026-03-21T15:38:39Z</time></trkpt><trkpt lat="43.36992987915851" lon="5.461716528510296"><ele>256.2857142857143</ele><time>2026-03-21T15:38:40Z</time></trkpt><trkpt lat="43.36989829053243" lon="5.461611366109328"><ele>255.0</ele><time>2026-03-21T15:38:41Z</time></trkpt><trkpt lat="43.36987785302592" lon="5.4615014074255255"><ele>255.0</ele><time>2026-03-21T15:38:42Z</time></trkpt><trkpt lat="43.36986430358356" lon="5.461397181839454"><ele>255.0</ele><time>2026-03-21T15:38:43Z</time></trkpt><trkpt lat="43.36982582692276" lon="5.461238791968298"><ele>255.0</ele><time>2026-03-21T15:38:45Z</time></trkpt><trkpt lat="43.3698027457217" lon="5.4611437777092755"><ele>255.0</ele><time>2026-03-21T15:38:47Z</time></trkpt><trkpt lat="43.369664001838714" lon="5.461133829043209"><ele>255.0</ele><time>2026-03-21T15:38:49Z</time></trkpt><trkpt lat="43.369574338896065" lon="5.461257826656069"><ele>254.5</ele><time>2026-03-21T15:38:51Z</time></trkpt><trkpt lat="43.3695244818476" lon="5.461335441309232"><ele>254.0</ele><time>2026-03-21T15:38:52Z</time></trkpt><trkpt lat="43.369477981838145" lon="5.461402068785998"><ele>253.5</ele><time>2026-03-21T15:38:53Z</time></trkpt><trkpt lat="43.36942330748199" lon="5.461449173299505"><ele>253.0</ele><time>2026-03-21T15:38:54Z</time></trkpt><trkpt lat="43.36939399724717" lon="5.461527539860627"><ele>252.5</ele><time>2026-03-21T15:38:55Z</time></trkpt><trkpt lat="43.36932837189485" lon="5.461643124927283"><ele>252.0</ele><time>2026-03-21T15:38:57Z</time></trkpt><trkpt lat="43.369276677629166" lon="5.461773330673659"><ele>252.0</ele><time>2026-03-21T15:38:59Z</time></trkpt><trkpt lat="43.369180995873215" lon="5.461847018066862"><ele>252.0</ele><time>2026-03-21T15:39:01Z</time></trkpt><trkpt lat="43.36911819446899" lon="5.461861911156882"><ele>252.0</ele><time>2026-03-21T15:39:02Z</time></trkpt><trkpt lat="43.369001437913184" lon="5.461881724268467"><ele>252.0</ele><time>2026-03-21T15:39:04Z</time></trkpt><trkpt lat="43.368885625710526" lon="5.461929534228769"><ele>252.0</ele><time>2026-03-21T15:39:06Z</time></trkpt><trkpt lat="43.368777268861166" lon="5.461984687604923"><ele>250.75</ele><time>2026-03-21T15:39:08Z</time></trkpt><trkpt lat="43.36865299778603" lon="5.461960132713472"><ele>249.5</ele><time>2026-03-21T15:39:10Z</time></trkpt><trkpt lat="43.36854260760252" lon="5.461887122982144"><ele>248.25</ele><time>2026-03-21T15:39:12Z</time></trkpt><trkpt lat="43.36846064431258" lon="5.461785951610613"><ele>247.0</ele><time>2026-03-21T15:39:14Z</time></trkpt><trkpt lat="43.36835819878155" lon="5.461703754560152"><ele>246.99999999999997</ele><time>2026-03-21T15:39:16Z</time></trkpt><trkpt lat="43.3682460781122" lon="5.461663726000184"><ele>247.0</ele><time>2026-03-21T15:39:17.999Z</time></trkpt><trkpt lat="43.368180450839496" lon="5.461670437751771"><ele>247.0</ele><time>2026-03-21T15:39:18.999Z</time></trkpt><trkpt lat="43.368115281776" lon="5.461690782615514"><ele>247.0</ele><time>2026-03-21T15:39:19.999Z</time></trkpt><trkpt lat="43.36803888448174" lon="5.461715746282511"><ele>246.99999999999997</ele><time>2026-03-21T15:39:20.999Z</time></trkpt><trkpt lat="43.36796584454819" lon="5.461701876166132"><ele>247.0</ele><time>2026-03-21T15:39:21.999Z</time></trkpt><trkpt lat="43.36789644132874" lon="5.461703760060647"><ele>246.16666666666666</ele><time>2026-03-21T15:39:22.999Z</time></trkpt><trkpt lat="43.36785152158539" lon="5.4616098824368615"><ele>245.33333333333331</ele><time>2026-03-21T15:39:23.999Z</time></trkpt><trkpt lat="43.36777486218024" lon="5.4614729869352825"><ele>244.5</ele><time>2026-03-21T15:39:25.999Z</time></trkpt><trkpt lat="43.367729128038235" lon="5.461409235417659"><ele>243.66666666666669</ele><time>2026-03-21T15:39:26.999Z</time></trkpt><trkpt lat="43.367669299477235" lon="5.461362282685112"><ele>242.83333333333334</ele><time>2026-03-21T15:39:27.999Z</time></trkpt><trkpt lat="43.367593965054226" lon="5.46136966703586"><ele>242.0</ele><time>2026-03-21T15:39:28.999Z</time></trkpt><trkpt lat="43.36752309900193" lon="5.461386485168055"><ele>242.0</ele><time>2026-03-21T15:39:29.999Z</time></trkpt><trkpt lat="43.36745371245607" lon="5.46141538828288"><ele>241.99999999999997</ele><time>2026-03-21T15:39:30.999Z</time></trkpt><trkpt lat="43.36739349159745" lon="5.461448814632746"><ele>242.0</ele><time>2026-03-21T15:39:31.999Z</time></trkpt><trkpt lat="43.36730827118373" lon="5.461451106694476"><ele>242.0</ele><time>2026-03-21T15:39:32.999Z</time></trkpt><trkpt lat="43.36723717938891" lon="5.461462096550103"><ele>241.99999999999997</ele><time>2026-03-21T15:39:33.999Z</time></trkpt><trkpt lat="43.367168865101206" lon="5.461458183564608"><ele>242.0</ele><time>2026-03-21T15:39:34.999Z</time></trkpt><trkpt lat="43.367094187134136" lon="5.461446642687917"><ele>242.0</ele><time>2026-03-21T15:39:35.999Z</time></trkpt><trkpt lat="43.36701515515165" lon="5.461432867267836"><ele>242.00000000000003</ele><time>2026-03-21T15:39:36.999Z</time></trkpt><trkpt lat="43.36694278796987" lon="5.461403442280017"><ele>242.0</ele><time>2026-03-21T15:39:37.999Z</time></trkpt><trkpt lat="43.36686415225086" lon="5.461371664803035"><ele>242.0</ele><time>2026-03-21T15:39:38.999Z</time></trkpt><trkpt lat="43.366794654923346" lon="5.461356540288572"><ele>242.0</ele><time>2026-03-21T15:39:39.999Z</time></trkpt><trkpt lat="43.3667244266967" lon="5.461353068780121"><ele>242.00000000000003</ele><time>2026-03-21T15:39:40.999Z</time></trkpt><trkpt lat="43.36664632086804" lon="5.461358078525675"><ele>242.0</ele><time>2026-03-21T15:39:41.999Z</time></trkpt><trkpt lat="43.366571396567295" lon="5.461374746640109"><ele>242.00000000000003</ele><time>2026-03-21T15:39:42.999Z</time></trkpt><trkpt lat="43.366503255390185" lon="5.461406942461761"><ele>242.0</ele><time>2026-03-21T15:39:43.999Z</time></trkpt><trkpt lat="43.36641875845077" lon="5.461414376651817"><ele>242.0</ele><time>2026-03-21T15:39:44.999Z</time></trkpt><trkpt lat="43.36634501858367" lon="5.461432162198345"><ele>242.0</ele><time>2026-03-21T15:39:45.999Z</time></trkpt><trkpt lat="43.36626426982621" lon="5.461436494934899"><ele>242.00000000000003</ele><time>2026-03-21T15:39:46.999Z</time></trkpt><trkpt lat="43.36617757676269" lon="5.461454946865878"><ele>242.0</ele><time>2026-03-21T15:39:47.999Z</time></trkpt><trkpt lat="43.36609829429057" lon="5.461469951517981"><ele>240.50000000000003</ele><time>2026-03-21T15:39:48.999Z</time></trkpt><trkpt lat="43.366014967502245" lon="5.461485680938432"><ele>239.0</ele><time>2026-03-21T15:39:49.999Z</time></trkpt><trkpt lat="43.36593743124018" lon="5.461489405440841"><ele>237.5</ele><time>2026-03-21T15:39:50.999Z</time></trkpt><trkpt lat="43.365858522329695" lon="5.461483945316354"><ele>236.0</ele><time>2026-03-21T15:39:51.999Z</time></trkpt><trkpt lat="43.36579093155659" lon="5.461450536032098"><ele>234.50000000000003</ele><time>2026-03-21T15:39:52.999Z</time></trkpt><trkpt lat="43.36572564335032" lon="5.461400392449646"><ele>233.0</ele><time>2026-03-21T15:39:53.999Z</time></trkpt><trkpt lat="43.36566316155336" lon="5.461376592195173"><ele>233.00000000000003</ele><time>2026-03-21T15:39:54.999Z</time></trkpt><trkpt lat="43.36556328542859" lon="5.4613762276994295"><ele>233.0</ele><time>2026-03-21T15:39:56.999Z</time></trkpt><trkpt lat="43.365497966365986" lon="5.461406013500034"><ele>233.0</ele><time>2026-03-21T15:39:58.999Z</time></trkpt><trkpt lat="43.36543236780006" lon="5.461408900297611"><ele>233.0</ele><time>2026-03-21T15:40:00.999Z</time></trkpt><trkpt lat="43.365358363028875" lon="5.461427345498521"><ele>233.00000000000003</ele><time>2026-03-21T15:40:02.999Z</time></trkpt><trkpt lat="43.365274696494886" lon="5.461413576114963"><ele>233.0</ele><time>2026-03-21T15:40:04.999Z</time></trkpt><trkpt lat="43.36518354254803" lon="5.461406471779154"><ele>230.8</ele><time>2026-03-21T15:40:06.999Z</time></trkpt><trkpt lat="43.36508763280749" lon="5.461396392275258"><ele>228.60000000000002</ele><time>2026-03-21T15:40:08.999Z</time></trkpt><trkpt lat="43.364965737671334" lon="5.461389467915245"><ele>226.39999999999998</ele><time>2026-03-21T15:40:10.999Z</time></trkpt><trkpt lat="43.36490642931982" lon="5.4614214469871865"><ele>224.2</ele><time>2026-03-21T15:40:11.999Z</time></trkpt><trkpt lat="43.36486044571389" lon="5.461522184884454"><ele>222.0</ele><time>2026-03-21T15:40:12.999Z</time></trkpt><trkpt lat="43.36487110301523" lon="5.461644617310077"><ele>222.0</ele><time>2026-03-21T15:40:13.999Z</time></trkpt><trkpt lat="43.36488517189554" lon="5.461741643351711"><ele>222.0</ele><time>2026-03-21T15:40:14.999Z</time></trkpt><trkpt lat="43.364939785703235" lon="5.4618149476387785"><ele>222.0</ele><time>2026-03-21T15:40:15.999Z</time></trkpt><trkpt lat="43.3649646139002" lon="5.4619004313256605"><ele>222.0</ele><time>2026-03-21T15:40:16.999Z</time></trkpt><trkpt lat="43.36501538796272" lon="5.462034192655709"><ele>222.0</ele><time>2026-03-21T15:40:18.999Z</time></trkpt><trkpt lat="43.364975455371265" lon="5.462145083238866"><ele>222.0</ele><time>2026-03-21T15:40:20.999Z</time></trkpt><trkpt lat="43.36497414004733" lon="5.462249159291594"><ele>221.33333333333334</ele><time>2026-03-21T15:40:22.998Z</time></trkpt><trkpt lat="43.364946681450014" lon="5.462349853247604"><ele>220.66666666666669</ele><time>2026-03-21T15:40:24.998Z</time></trkpt><trkpt lat="43.36489426669623" lon="5.4624321414501695"><ele>220.0</ele><time>2026-03-21T15:40:26.998Z</time></trkpt><trkpt lat="43.364857226138085" lon="5.462503678397518"><ele>219.33333333333334</ele><time>2026-03-21T15:40:28.998Z</time></trkpt><trkpt lat="43.36479687600053" lon="5.462551181967996"><ele>218.66666666666669</ele><time>2026-03-21T15:40:30.998Z</time></trkpt><trkpt lat="43.364705640851014" lon="5.462609951886481"><ele>218.0</ele><time>2026-03-21T15:40:32.998Z</time></trkpt><trkpt lat="43.36461588880938" lon="5.462639023732991"><ele>216.60000000000002</ele><time>2026-03-21T15:40:34.998Z</time></trkpt><trkpt lat="43.364539636554476" lon="5.462640675734048"><ele>215.20000000000002</ele><time>2026-03-21T15:40:36.998Z</time></trkpt><trkpt lat="43.36445283548674" lon="5.462628912642333"><ele>213.8</ele><time>2026-03-21T15:40:38.998Z</time></trkpt><trkpt lat="43.36436749425325" lon="5.462590789816735"><ele>212.4</ele><time>2026-03-21T15:40:41Z</time></trkpt><trkpt lat="43.364286627265784" lon="5.462517056505111"><ele>211.0</ele><time>2026-03-21T15:40:43Z</time></trkpt><trkpt lat="43.36419348086612" lon="5.462434491296151"><ele>211.0</ele><time>2026-03-21T15:40:45Z</time></trkpt><trkpt lat="43.36413456563571" lon="5.4623979338716335"><ele>211.0</ele><time>2026-03-21T15:40:46Z</time></trkpt><trkpt lat="43.364073769703026" lon="5.462364630991085"><ele>211.0</ele><time>2026-03-21T15:40:47Z</time></trkpt><trkpt lat="43.36400190155959" lon="5.462348431164728"><ele>211.0</ele><time>2026-03-21T15:40:48Z</time></trkpt><trkpt lat="43.363931524214195" lon="5.462355076051128"><ele>211.0</ele><time>2026-03-21T15:40:49Z</time></trkpt><trkpt lat="43.363859794213084" lon="5.462422610410023"><ele>211.0</ele><time>2026-03-21T15:40:50Z</time></trkpt><trkpt lat="43.36379632578564" lon="5.462481636613525"><ele>211.0</ele><time>2026-03-21T15:40:51Z</time></trkpt><trkpt lat="43.36373101075798" lon="5.462509137689809"><ele>211.0</ele><time>2026-03-21T15:40:52Z</time></trkpt><trkpt lat="43.363663263674596" lon="5.462551083617309"><ele>211.0</ele><time>2026-03-21T15:40:53Z</time></trkpt><trkpt lat="43.363604973039934" lon="5.46261000150842"><ele>211.0</ele><time>2026-03-21T15:40:54Z</time></trkpt><trkpt lat="43.36353869913993" lon="5.462655342032988"><ele>211.0</ele><time>2026-03-21T15:40:55Z</time></trkpt><trkpt lat="43.36346951090535" lon="5.4626922052799225"><ele>211.0</ele><time>2026-03-21T15:40:56Z</time></trkpt><trkpt lat="43.36340758944768" lon="5.462734166150608"><ele>211.0</ele><time>2026-03-21T15:40:57Z</time></trkpt><trkpt lat="43.36334499991443" lon="5.462774528990635"><ele>211.0</ele><time>2026-03-21T15:40:58Z</time></trkpt><trkpt lat="43.36327674725809" lon="5.46282579484566"><ele>210.99999999999997</ele><time>2026-03-21T15:40:59Z</time></trkpt><trkpt lat="43.363221713899954" lon="5.462885896232618"><ele>211.0</ele><time>2026-03-21T15:41:00Z</time></trkpt><trkpt lat="43.36316465361262" lon="5.462934500642567"><ele>211.0</ele><time>2026-03-21T15:41:01Z</time></trkpt><trkpt lat="43.363108505755854" lon="5.462999347415428"><ele>211.0</ele><time>2026-03-21T15:41:02Z</time></trkpt><trkpt lat="43.36305687739779" lon="5.46306157105728"><ele>210.99999999999997</ele><time>2026-03-21T15:41:03Z</time></trkpt><trkpt lat="43.36301782186542" lon="5.463141195824224"><ele>211.0</ele><time>2026-03-21T15:41:04Z</time></trkpt><trkpt lat="43.36292802045476" lon="5.463247655602464"><ele>208.0</ele><time>2026-03-21T15:41:06Z</time></trkpt><trkpt lat="43.36284925078542" lon="5.463335999603721"><ele>205.0</ele><time>2026-03-21T15:41:08Z</time></trkpt><trkpt lat="43.362768468627415" lon="5.463441024595757"><ele>202.0</ele><time>2026-03-21T15:41:10Z</time></trkpt><trkpt lat="43.36269219852014" lon="5.463551904412427"><ele>199.0</ele><time>2026-03-21T15:41:12Z</time></trkpt><trkpt lat="43.36260185790534" lon="5.463639195453646"><ele>196.0</ele><time>2026-03-21T15:41:14Z</time></trkpt><trkpt lat="43.36253398259014" lon="5.463726103980201"><ele>196.49999999999997</ele><time>2026-03-21T15:41:16Z</time></trkpt><trkpt lat="43.36248223327185" lon="5.463792364522792"><ele>197.0</ele><time>2026-03-21T15:41:19Z</time></trkpt><trkpt lat="43.362409710427414" lon="5.46382395330837"><ele>197.5</ele><time>2026-03-21T15:41:23.999Z</time></trkpt><trkpt lat="43.362332096649126" lon="5.463813716996019"><ele>198.0</ele><time>2026-03-21T15:41:25.999Z</time></trkpt><trkpt lat="43.362232909580094" lon="5.463809607609039"><ele>198.49999999999997</ele><time>2026-03-21T15:41:27.999Z</time></trkpt><trkpt lat="43.36212593501691" lon="5.463797861810876"><ele>199.0</ele><time>2026-03-21T15:41:29.999Z</time></trkpt><trkpt lat="43.3620167246478" lon="5.463784268633329"><ele>196.0</ele><time>2026-03-21T15:41:31.999Z</time></trkpt><trkpt lat="43.361904277661864" lon="5.463774646896085"><ele>193.0</ele><time>2026-03-21T15:41:33.999Z</time></trkpt><trkpt lat="43.361788752212945" lon="5.4637772459226746"><ele>190.0</ele><time>2026-03-21T15:41:35.999Z</time></trkpt><trkpt lat="43.36167081185894" lon="5.4637841748104"><ele>187.0</ele><time>2026-03-21T15:41:37.999Z</time></trkpt><trkpt lat="43.361551109118686" lon="5.463791356043078"><ele>186.8</ele><time>2026-03-21T15:41:39.999Z</time></trkpt><trkpt lat="43.361429597563706" lon="5.463801596585745"><ele>186.6</ele><time>2026-03-21T15:41:41.999Z</time></trkpt><trkpt lat="43.361309661100435" lon="5.463782998012526"><ele>186.4</ele><time>2026-03-21T15:41:43.999Z</time></trkpt><trkpt lat="43.3612468236435" lon="5.463764218932127"><ele>186.20000000000002</ele><time>2026-03-21T15:41:44.999Z</time></trkpt><trkpt lat="43.36112606535748" lon="5.463736228698518"><ele>186.0</ele><time>2026-03-21T15:41:46.999Z</time></trkpt><trkpt lat="43.36101938312375" lon="5.4637067542013344"><ele>185.66666666666666</ele><time>2026-03-21T15:41:48.999Z</time></trkpt><trkpt lat="43.360948124621764" lon="5.4636823173540305"><ele>185.33333333333334</ele><time>2026-03-21T15:41:51.999Z</time></trkpt><trkpt lat="43.360863305786864" lon="5.463657930543046"><ele>185.0</ele><time>2026-03-21T15:41:55.999Z</time></trkpt><trkpt lat="43.360804948732614" lon="5.463750664959274"><ele>184.66666666666669</ele><time>2026-03-21T15:41:57.999Z</time></trkpt><trkpt lat="43.36075332757225" lon="5.463833551047613"><ele>184.33333333333334</ele><time>2026-03-21T15:41:59.999Z</time></trkpt><trkpt lat="43.36069613538684" lon="5.463919564495233"><ele>184.0</ele><time>2026-03-21T15:42:01.999Z</time></trkpt><trkpt lat="43.36063121850187" lon="5.464016178924159"><ele>184.0</ele><time>2026-03-21T15:42:03.999Z</time></trkpt><trkpt lat="43.36055212734324" lon="5.464095020206358"><ele>184.0</ele><time>2026-03-21T15:42:05.999Z</time></trkpt><trkpt lat="43.36048175919013" lon="5.464193291283753"><ele>184.0</ele><time>2026-03-21T15:42:07.999Z</time></trkpt><trkpt lat="43.3604133661925" lon="5.464301039005782"><ele>184.0</ele><time>2026-03-21T15:42:09.999Z</time></trkpt><trkpt lat="43.360341479097535" lon="5.4643970811666005"><ele>184.0</ele><time>2026-03-21T15:42:11.999Z</time></trkpt><trkpt lat="43.36026137955993" lon="5.464488297625365"><ele>183.83333333333334</ele><time>2026-03-21T15:42:13.999Z</time></trkpt><trkpt lat="43.3601739823597" lon="5.464567369815942"><ele>183.66666666666669</ele><time>2026-03-21T15:42:15.999Z</time></trkpt><trkpt lat="43.36009018157644" lon="5.464651448933297"><ele>183.5</ele><time>2026-03-21T15:42:17.999Z</time></trkpt><trkpt lat="43.360013066853284" lon="5.4647420068902575"><ele>183.33333333333334</ele><time>2026-03-21T15:42:19.999Z</time></trkpt><trkpt lat="43.3599670156904" lon="5.464802383133274"><ele>183.16666666666666</ele><time>2026-03-21T15:42:20.999Z</time></trkpt><trkpt lat="43.35992143441513" lon="5.464869021201424"><ele>183.0</ele><time>2026-03-21T15:42:21.999Z</time></trkpt><trkpt lat="43.35986957647636" lon="5.4649338660577484"><ele>183.0</ele><time>2026-03-21T15:42:22.999Z</time></trkpt><trkpt lat="43.359812912054316" lon="5.465003221124635"><ele>183.0</ele><time>2026-03-21T15:42:23.999Z</time></trkpt><trkpt lat="43.359757521620125" lon="5.465074273738745"><ele>183.0</ele><time>2026-03-21T15:42:24.999Z</time></trkpt><trkpt lat="43.35969756505938" lon="5.465150349921462"><ele>183.0</ele><time>2026-03-21T15:42:25.999Z</time></trkpt><trkpt lat="43.3596388219257" lon="5.465227730187763"><ele>183.0</ele><time>2026-03-21T15:42:26.999Z</time></trkpt><trkpt lat="43.35957383537109" lon="5.46530716893765"><ele>183.0</ele><time>2026-03-21T15:42:27.999Z</time></trkpt><trkpt lat="43.35950523684843" lon="5.465381073493774"><ele>181.0</ele><time>2026-03-21T15:42:28.998Z</time></trkpt></trkseg><trkseg><trkpt lat="43.34145833729255" lon="5.430246916188891"><ele>113.0</ele><time>2026-03-31T14:05:32.965Z</time></trkpt><trkpt lat="43.34147640174331" lon="5.430098636392384"><ele>113.0</ele><time>2026-03-31T14:05:34.182Z</time></trkpt><trkpt lat="43.34140064122316" lon="5.429850073958471"><ele>113.0</ele><time>2026-03-31T14:05:40.597Z</time></trkpt><trkpt lat="43.34145274800396" lon="5.430051704259642"><ele>113.0</ele><time>2026-03-31T14:06:07.568Z</time></trkpt><trkpt lat="43.34157219951001" lon="5.430274257873573"><ele>113.00000000000001</ele><time>2026-03-31T14:06:09.993Z</time></trkpt><trkpt lat="43.34156411691808" lon="5.4301484564318026"><ele>113.00000000000001</ele><time>2026-03-31T14:06:13.995Z</time></trkpt><trkpt lat="43.34150985987252" lon="5.430087569647567"><ele>113.0</ele><time>2026-03-31T14:06:15.995Z</time></trkpt><trkpt lat="43.34147482161304" lon="5.430160169455625"><ele>113.0</ele><time>2026-03-31T14:06:16.996Z</time></trkpt><trkpt lat="43.34140600033549" lon="5.430091586012521"><ele>112.2</ele><time>2026-03-31T14:06:19.997Z</time></trkpt><trkpt lat="43.3413358206398" lon="5.4300197954680405"><ele>111.4</ele><time>2026-03-31T14:06:21.997Z</time></trkpt><trkpt lat="43.34124589738669" lon="5.42996919308151"><ele>110.60000000000001</ele><time>2026-03-31T14:06:23.998Z</time></trkpt><trkpt lat="43.341133949423465" lon="5.42996769940593"><ele>109.80000000000001</ele><time>2026-03-31T14:06:25.998Z</time></trkpt><trkpt lat="43.341012165902654" lon="5.429978002408282"><ele>109.0</ele><time>2026-03-31T14:06:27.998Z</time></trkpt><trkpt lat="43.340901313400394" lon="5.4299673126576735"><ele>109.00000000000001</ele><time>2026-03-31T14:06:29.999Z</time></trkpt><trkpt lat="43.340804991427504" lon="5.429970082190927"><ele>109.0</ele><time>2026-03-31T14:06:31.999Z</time></trkpt><trkpt lat="43.34074266416525" lon="5.430055344636507"><ele>109.0</ele><time>2026-03-31T14:06:33.999Z</time></trkpt><trkpt lat="43.34072662077184" lon="5.4301402832385595"><ele>109.0</ele><time>2026-03-31T14:06:34.999Z</time></trkpt><trkpt lat="43.34067679130856" lon="5.430209057256088"><ele>109.00000000000001</ele><time>2026-03-31T14:06:35.999Z</time></trkpt><trkpt lat="43.340600880866425" lon="5.4302952478644135"><ele>109.0</ele><time>2026-03-31T14:06:37.999Z</time></trkpt><trkpt lat="43.34049703841365" lon="5.430389481849911"><ele>109.33333333333334</ele><time>2026-03-31T14:06:40Z</time></trkpt><trkpt lat="43.340405264520044" lon="5.430491811882052"><ele>109.66666666666667</ele><time>2026-03-31T14:06:42Z</time></trkpt><trkpt lat="43.340351701712116" lon="5.430543299183313"><ele>110.0</ele><time>2026-03-31T14:06:43Z</time></trkpt><trkpt lat="43.34029818261513" lon="5.430589042127633"><ele>110.33333333333334</ele><time>2026-03-31T14:06:44Z</time></trkpt><trkpt lat="43.34020212999143" lon="5.430694328830576"><ele>110.66666666666667</ele><time>2026-03-31T14:06:46Z</time></trkpt><trkpt lat="43.340142412951984" lon="5.430729845601036"><ele>111.0</ele><time>2026-03-31T14:06:47Z</time></trkpt><trkpt lat="43.34010463718811" lon="5.430813682232775"><ele>111.0</ele><time>2026-03-31T14:06:48Z</time></trkpt><trkpt lat="43.34009140819667" lon="5.430975654637772"><ele>111.0</ele><time>2026-03-31T14:06:50Z</time></trkpt><trkpt lat="43.340083729830404" lon="5.43113579574713"><ele>111.0</ele><time>2026-03-31T14:06:52Z</time></trkpt><trkpt lat="43.340061593934614" lon="5.431282121114487"><ele>111.0</ele><time>2026-03-31T14:06:54Z</time></trkpt><trkpt lat="43.340056551645986" lon="5.431423649308609"><ele>111.0</ele><time>2026-03-31T14:06:56Z</time></trkpt><trkpt lat="43.34005284853759" lon="5.431565838225739"><ele>111.66666666666667</ele><time>2026-03-31T14:06:58Z</time></trkpt><trkpt lat="43.34005284853732" lon="5.4317019194307345"><ele>112.33333333333334</ele><time>2026-03-31T14:07:00Z</time></trkpt><trkpt lat="43.34006540762899" lon="5.431834683323412"><ele>113.0</ele><time>2026-03-31T14:07:02Z</time></trkpt><trkpt lat="43.340058740943455" lon="5.431951732489222"><ele>113.66666666666667</ele><time>2026-03-31T14:07:04Z</time></trkpt><trkpt lat="43.34004683745311" lon="5.43205180838071"><ele>114.33333333333334</ele><time>2026-03-31T14:07:06Z</time></trkpt><trkpt lat="43.33998694849386" lon="5.432079174745398"><ele>115.0</ele><time>2026-03-31T14:07:08Z</time></trkpt><trkpt lat="43.339923560039516" lon="5.432073202660828"><ele>114.99999999999999</ele><time>2026-03-31T14:07:10Z</time></trkpt><trkpt lat="43.339833136349114" lon="5.432079055370874"><ele>115.0</ele><time>2026-03-31T14:07:13Z</time></trkpt><trkpt lat="43.33976982848686" lon="5.432090255647049"><ele>114.99999999999999</ele><time>2026-03-31T14:07:15Z</time></trkpt><trkpt lat="43.33969067491763" lon="5.4321049494585"><ele>114.99999999999999</ele><time>2026-03-31T14:07:18Z</time></trkpt><trkpt lat="43.33961907332389" lon="5.4321241724915375"><ele>115.0</ele><time>2026-03-31T14:07:22Z</time></trkpt><trkpt lat="43.33956277122246" lon="5.432171541841028"><ele>114.99999999999999</ele><time>2026-03-31T14:07:25Z</time></trkpt><trkpt lat="43.339495186408364" lon="5.432190795295362"><ele>114.99999999999999</ele><time>2026-03-31T14:07:27Z</time></trkpt><trkpt lat="43.339432164639724" lon="5.432189257196585"><ele>114.4</ele><time>2026-03-31T14:07:30Z</time></trkpt><trkpt lat="43.33934794668405" lon="5.432204424803733"><ele>113.8</ele><time>2026-03-31T14:07:41Z</time></trkpt><trkpt lat="43.339249930154686" lon="5.432222077525214"><ele>113.19999999999999</ele><time>2026-03-31T14:07:43Z</time></trkpt><trkpt lat="43.33916215726683" lon="5.432250388161487"><ele>112.6</ele><time>2026-03-31T14:07:45Z</time></trkpt><trkpt lat="43.33906611504717" lon="5.43225787836869"><ele>112.0</ele><time>2026-03-31T14:07:47Z</time></trkpt><trkpt lat="43.33896034261293" lon="5.432267615595351"><ele>111.8</ele><time>2026-03-31T14:07:49Z</time></trkpt><trkpt lat="43.33885491136348" lon="5.432279887579106"><ele>111.6</ele><time>2026-03-31T14:07:51Z</time></trkpt><trkpt lat="43.338752907865356" lon="5.432306951759965"><ele>111.39999999999999</ele><time>2026-03-31T14:07:53Z</time></trkpt><trkpt lat="43.338667995810134" lon="5.4323267999104745"><ele>111.19999999999999</ele><time>2026-03-31T14:07:55Z</time></trkpt><trkpt lat="43.338596187676394" lon="5.432312471988514"><ele>111.0</ele><time>2026-03-31T14:07:57Z</time></trkpt><trkpt lat="43.33849718663429" lon="5.4323289102984615"><ele>111.0</ele><time>2026-03-31T14:07:59Z</time></trkpt><trkpt lat="43.33841976107391" lon="5.432429362601354"><ele>111.0</ele><time>2026-03-31T14:08:01Z</time></trkpt><trkpt lat="43.338444921338834" lon="5.432594103407795"><ele>111.0</ele><time>2026-03-31T14:08:03Z</time></trkpt><trkpt lat="43.33848307233324" lon="5.432669513233137"><ele>111.0</ele><time>2026-03-31T14:08:04Z</time></trkpt><trkpt lat="43.3385545206641" lon="5.432676535739931"><ele>111.0</ele><time>2026-03-31T14:08:05.001Z</time></trkpt><trkpt lat="43.338664938568684" lon="5.432672443496191"><ele>111.0</ele><time>2026-03-31T14:08:07.001Z</time></trkpt><trkpt lat="43.33876012349676" lon="5.432758625394649"><ele>111.0</ele><time>2026-03-31T14:08:09.001Z</time></trkpt><trkpt lat="43.33886122934533" lon="5.4327956038700975"><ele>111.0</ele><time>2026-03-31T14:08:11.001Z</time></trkpt><trkpt lat="43.338960756389795" lon="5.43282008027267"><ele>111.0</ele><time>2026-03-31T14:08:13.001Z</time></trkpt><trkpt lat="43.339064815818105" lon="5.432838500315957"><ele>111.0</ele><time>2026-03-31T14:08:15.001Z</time></trkpt><trkpt lat="43.33917004749953" lon="5.432849953155496"><ele>111.19999999999999</ele><time>2026-03-31T14:08:17.001Z</time></trkpt><trkpt lat="43.33926672767307" lon="5.43285040951884"><ele>111.39999999999999</ele><time>2026-03-31T14:08:19.001Z</time></trkpt><trkpt lat="43.339363853155746" lon="5.4328455253929056"><ele>111.6</ele><time>2026-03-31T14:08:21.001Z</time></trkpt><trkpt lat="43.33945703275423" lon="5.432819876732862"><ele>111.8</ele><time>2026-03-31T14:08:23.001Z</time></trkpt><trkpt lat="43.339560791335884" lon="5.432790575820866"><ele>112.0</ele><time>2026-03-31T14:08:25.001Z</time></trkpt><trkpt lat="43.33966385024782" lon="5.432758688994771"><ele>113.0</ele><time>2026-03-31T14:08:27.001Z</time></trkpt><trkpt lat="43.33976492604983" lon="5.4327318155869735"><ele>113.99999999999999</ele><time>2026-03-31T14:08:29.001Z</time></trkpt><trkpt lat="43.33986720206678" lon="5.4327057755209065"><ele>114.99999999999999</ele><time>2026-03-31T14:08:31Z</time></trkpt><trkpt lat="43.33997318984151" lon="5.432681204297604"><ele>116.0</ele><time>2026-03-31T14:08:33Z</time></trkpt><trkpt lat="43.34007789216714" lon="5.43265442507068"><ele>117.0</ele><time>2026-03-31T14:08:35Z</time></trkpt><trkpt lat="43.34018580525303" lon="5.432651882701462"><ele>117.0</ele><time>2026-03-31T14:08:37Z</time></trkpt><trkpt lat="43.34029354714225" lon="5.432667269500602"><ele>116.99999999999999</ele><time>2026-03-31T14:08:39Z</time></trkpt><trkpt lat="43.34040520098585" lon="5.432689093201422"><ele>116.99999999999999</ele><time>2026-03-31T14:08:41Z</time></trkpt><trkpt lat="43.34051770878753" lon="5.432724562307953"><ele>117.0</ele><time>2026-03-31T14:08:43Z</time></trkpt><trkpt lat="43.34062045552151" lon="5.432760314975638"><ele>117.0</ele><time>2026-03-31T14:08:45Z</time></trkpt><trkpt lat="43.340739149478914" lon="5.432791487284636"><ele>117.6</ele><time>2026-03-31T14:08:47Z</time></trkpt><trkpt lat="43.34080320210582" lon="5.432807459822162"><ele>118.19999999999999</ele><time>2026-03-31T14:08:48Z</time></trkpt><trkpt lat="43.34091955877408" lon="5.432831704100389"><ele>118.8</ele><time>2026-03-31T14:08:50Z</time></trkpt><trkpt lat="43.34103927583202" lon="5.432834574052572"><ele>119.4</ele><time>2026-03-31T14:08:52Z</time></trkpt><trkpt lat="43.34115567264659" lon="5.432828012563431"><ele>120.0</ele><time>2026-03-31T14:08:54Z</time></trkpt><trkpt lat="43.341273437213786" lon="5.432806809968959"><ele>119.75</ele><time>2026-03-31T14:08:56Z</time></trkpt><trkpt lat="43.34139465667573" lon="5.432777895810033"><ele>119.5</ele><time>2026-03-31T14:08:58Z</time></trkpt><trkpt lat="43.34151517395886" lon="5.4327599567600116"><ele>119.25</ele><time>2026-03-31T14:09:00Z</time></trkpt><trkpt lat="43.34163416498244" lon="5.43272852873455"><ele>119.0</ele><time>2026-03-31T14:09:02Z</time></trkpt><trkpt lat="43.341748244102085" lon="5.432704929387659"><ele>119.0</ele><time>2026-03-31T14:09:04Z</time></trkpt><trkpt lat="43.34186336885146" lon="5.432667674282811"><ele>119.0</ele><time>2026-03-31T14:09:06Z</time></trkpt><trkpt lat="43.34197985168139" lon="5.432634848368107"><ele>119.0</ele><time>2026-03-31T14:09:08Z</time></trkpt><trkpt lat="43.34209579578216" lon="5.432604921426084"><ele>119.0</ele><time>2026-03-31T14:09:10Z</time></trkpt><trkpt lat="43.34220674210654" lon="5.432563210527343"><ele>119.6</ele><time>2026-03-31T14:09:12Z</time></trkpt><trkpt lat="43.34231758480331" lon="5.432541138774797"><ele>120.2</ele><time>2026-03-31T14:09:14Z</time></trkpt><trkpt lat="43.34238167989459" lon="5.432514026533995"><ele>120.79999999999998</ele><time>2026-03-31T14:09:15Z</time></trkpt><trkpt lat="43.34249812405478" lon="5.432467951523576"><ele>121.39999999999999</ele><time>2026-03-31T14:09:17Z</time></trkpt><trkpt lat="43.34261647044749" lon="5.432414691969934"><ele>122.0</ele><time>2026-03-31T14:09:19Z</time></trkpt><trkpt lat="43.342719085057325" lon="5.432352237180578"><ele>122.0</ele><time>2026-03-31T14:09:21Z</time></trkpt><trkpt lat="43.34282709701298" lon="5.432279600702448"><ele>121.99999999999999</ele><time>2026-03-31T14:09:23Z</time></trkpt><trkpt lat="43.34292805607922" lon="5.432205195133408"><ele>121.99999999999999</ele><time>2026-03-31T14:09:25Z</time></trkpt><trkpt lat="43.342985400912106" lon="5.4321665003311335"><ele>122.0</ele><time>2026-03-31T14:09:26Z</time></trkpt><trkpt lat="43.34308299623034" lon="5.432078479968634"><ele>122.0</ele><time>2026-03-31T14:09:28Z</time></trkpt><trkpt lat="43.34316413337879" lon="5.431977212255481"><ele>122.0</ele><time>2026-03-31T14:09:30Z</time></trkpt><trkpt lat="43.34324579133869" lon="5.4318678172499055"><ele>121.99999999999999</ele><time>2026-03-31T14:09:32Z</time></trkpt><trkpt lat="43.34333487452262" lon="5.431756163527848"><ele>121.99999999999999</ele><time>2026-03-31T14:09:34Z</time></trkpt><trkpt lat="43.343423184462296" lon="5.431636435265029"><ele>122.0</ele><time>2026-03-31T14:09:36Z</time></trkpt><trkpt lat="43.34346578314987" lon="5.431569574338055"><ele>122.0</ele><time>2026-03-31T14:09:37Z</time></trkpt><trkpt lat="43.34354074928518" lon="5.431447929555013"><ele>122.0</ele><time>2026-03-31T14:09:39Z</time></trkpt><trkpt lat="43.34361835630433" lon="5.431344081010196"><ele>121.99999999999999</ele><time>2026-03-31T14:09:41Z</time></trkpt><trkpt lat="43.343684603059074" lon="5.431259570952642"><ele>121.99999999999999</ele><time>2026-03-31T14:09:43Z</time></trkpt><trkpt lat="43.34374487930108" lon="5.431203175356464"><ele>122.0</ele><time>2026-03-31T14:09:45Z</time></trkpt><trkpt lat="43.34383127634184" lon="5.431103376873493"><ele>122.0</ele><time>2026-03-31T14:09:47Z</time></trkpt><trkpt lat="43.34391704138432" lon="5.43098000962237"><ele>121.0</ele><time>2026-03-31T14:09:49Z</time></trkpt><trkpt lat="43.3439649537439" lon="5.430922042216315"><ele>119.99999999999999</ele><time>2026-03-31T14:09:50Z</time></trkpt><trkpt lat="43.34405457805457" lon="5.4308061402232095"><ele>118.99999999999999</ele><time>2026-03-31T14:09:52Z</time></trkpt><trkpt lat="43.344149415647294" lon="5.430691415972816"><ele>118.0</ele><time>2026-03-31T14:09:54Z</time></trkpt><trkpt lat="43.344194651289065" lon="5.430629943614346"><ele>117.0</ele><time>2026-03-31T14:09:55Z</time></trkpt><trkpt lat="43.34427829087548" lon="5.430511855632185"><ele>116.5</ele><time>2026-03-31T14:09:57Z</time></trkpt><trkpt lat="43.34435991981189" lon="5.430409231794072"><ele>116.0</ele><time>2026-03-31T14:09:59Z</time></trkpt><trkpt lat="43.34444423892981" lon="5.430293674246634"><ele>115.5</ele><time>2026-03-31T14:10:01Z</time></trkpt><trkpt lat="43.34452748713692" lon="5.430183709193494"><ele>115.0</ele><time>2026-03-31T14:10:03Z</time></trkpt><trkpt lat="43.34461359763468" lon="5.430073345766134"><ele>115.0</ele><time>2026-03-31T14:10:04.999Z</time></trkpt><trkpt lat="43.34470279389077" lon="5.429966652249568"><ele>115.0</ele><time>2026-03-31T14:10:06.999Z</time></trkpt><trkpt lat="43.34478142327235" lon="5.429852994881406"><ele>115.0</ele><time>2026-03-31T14:10:08.999Z</time></trkpt><trkpt lat="43.34485882115696" lon="5.429753244952125"><ele>115.0</ele><time>2026-03-31T14:10:11.001Z</time></trkpt><trkpt lat="43.34494147798688" lon="5.429645003109617"><ele>115.6</ele><time>2026-03-31T14:10:13.001Z</time></trkpt><trkpt lat="43.3449885356014" lon="5.4295833049269175"><ele>116.2</ele><time>2026-03-31T14:10:14.001Z</time></trkpt><trkpt lat="43.34507556081825" lon="5.429475660855925"><ele>116.80000000000001</ele><time>2026-03-31T14:10:16.001Z</time></trkpt><trkpt lat="43.34516551210308" lon="5.429371816136341"><ele>117.4</ele><time>2026-03-31T14:10:18.001Z</time></trkpt><trkpt lat="43.34526038485579" lon="5.429273095480151"><ele>118.0</ele><time>2026-03-31T14:10:20.001Z</time></trkpt><trkpt lat="43.34535718123556" lon="5.42917264544903"><ele>118.0</ele><time>2026-03-31T14:10:22.001Z</time></trkpt><trkpt lat="43.34545906686507" lon="5.429082860426295"><ele>118.00000000000001</ele><time>2026-03-31T14:10:24.001Z</time></trkpt><trkpt lat="43.34556044312054" lon="5.429003993504148"><ele>118.00000000000001</ele><time>2026-03-31T14:10:26.001Z</time></trkpt><trkpt lat="43.345660942514435" lon="5.428924375200001"><ele>118.0</ele><time>2026-03-31T14:10:28.001Z</time></trkpt><trkpt lat="43.34571873280016" lon="5.42888312323294"><ele>118.0</ele><time>2026-03-31T14:10:29.001Z</time></trkpt><trkpt lat="43.34581652098607" lon="5.4288150090738245"><ele>119.25</ele><time>2026-03-31T14:10:31.001Z</time></trkpt><trkpt lat="43.34592388959917" lon="5.428764191797363"><ele>120.5</ele><time>2026-03-31T14:10:33.001Z</time></trkpt><trkpt lat="43.34603625279474" lon="5.428712820135078"><ele>121.75</ele><time>2026-03-31T14:10:35.001Z</time></trkpt><trkpt lat="43.346146580676695" lon="5.428655523870588"><ele>123.0</ele><time>2026-03-31T14:10:37.001Z</time></trkpt><trkpt lat="43.346256465785736" lon="5.428605790502367"><ele>123.0</ele><time>2026-03-31T14:10:39Z</time></trkpt><trkpt lat="43.3463658116694" lon="5.42855568684831"><ele>123.0</ele><time>2026-03-31T14:10:41Z</time></trkpt><trkpt lat="43.34647603152632" lon="5.42850365523584"><ele>123.0</ele><time>2026-03-31T14:10:43Z</time></trkpt><trkpt lat="43.346584460959185" lon="5.428458083632355"><ele>123.0</ele><time>2026-03-31T14:10:45Z</time></trkpt><trkpt lat="43.34668683819266" lon="5.428419666526733"><ele>123.2</ele><time>2026-03-31T14:10:47Z</time></trkpt><trkpt lat="43.34678514266281" lon="5.428404164385599"><ele>123.4</ele><time>2026-03-31T14:10:49Z</time></trkpt><trkpt lat="43.34687078787113" lon="5.428440026068685"><ele>123.60000000000001</ele><time>2026-03-31T14:10:51Z</time></trkpt><trkpt lat="43.34689237249924" lon="5.428528892567197"><ele>123.80000000000001</ele><time>2026-03-31T14:10:52Z</time></trkpt><trkpt lat="43.34695547922234" lon="5.428633841478237"><ele>124.0</ele><time>2026-03-31T14:10:54Z</time></trkpt><trkpt lat="43.34705883087537" lon="5.4286576325099904"><ele>124.0</ele><time>2026-03-31T14:10:56Z</time></trkpt><trkpt lat="43.347153019119155" lon="5.42862703142845"><ele>124.0</ele><time>2026-03-31T14:10:58Z</time></trkpt><trkpt lat="43.34724075900045" lon="5.428707346815472"><ele>124.0</ele><time>2026-03-31T14:11:00Z</time></trkpt><trkpt lat="43.34731330730753" lon="5.428816525253602"><ele>124.0</ele><time>2026-03-31T14:11:02Z</time></trkpt><trkpt lat="43.34736441759708" lon="5.428947291583172"><ele>124.0</ele><time>2026-03-31T14:11:04Z</time></trkpt><trkpt lat="43.34740417365836" lon="5.429088686631036"><ele>125.0</ele><time>2026-03-31T14:11:06Z</time></trkpt><trkpt lat="43.34745277044712" lon="5.429220966160553"><ele>126.0</ele><time>2026-03-31T14:11:08Z</time></trkpt><trkpt lat="43.34751592315642" lon="5.429341354022521"><ele>127.0</ele><time>2026-03-31T14:11:10Z</time></trkpt><trkpt lat="43.34758169646029" lon="5.429456010963364"><ele>128.0</ele><time>2026-03-31T14:11:12Z</time></trkpt><trkpt lat="43.34765196734017" lon="5.429573279878824"><ele>129.0</ele><time>2026-03-31T14:11:14Z</time></trkpt><trkpt lat="43.34772881567395" lon="5.429670925756087"><ele>129.0</ele><time>2026-03-31T14:11:16Z</time></trkpt><trkpt lat="43.347811257569695" lon="5.429766643728371"><ele>129.0</ele><time>2026-03-31T14:11:18Z</time></trkpt><trkpt lat="43.34789612917859" lon="5.429857904305967"><ele>129.0</ele><time>2026-03-31T14:11:20Z</time></trkpt><trkpt lat="43.34798416881582" lon="5.42993953876428"><ele>129.0</ele><time>2026-03-31T14:11:22Z</time></trkpt><trkpt lat="43.34807227620794" lon="5.430033551927562"><ele>129.0</ele><time>2026-03-31T14:11:24Z</time></trkpt><trkpt lat="43.34816733525986" lon="5.430123794878933"><ele>130.0</ele><time>2026-03-31T14:11:26Z</time></trkpt><trkpt lat="43.34826245115309" lon="5.430215256897369"><ele>131.0</ele><time>2026-03-31T14:11:28Z</time></trkpt><trkpt lat="43.3483558440818" lon="5.43030713595798"><ele>132.0</ele><time>2026-03-31T14:11:30Z</time></trkpt><trkpt lat="43.348447003631705" lon="5.430396366995221"><ele>133.0</ele><time>2026-03-31T14:11:32Z</time></trkpt><trkpt lat="43.348538073882516" lon="5.4304867583850065"><ele>133.0</ele><time>2026-03-31T14:11:34Z</time></trkpt><trkpt lat="43.34862988551169" lon="5.430575279259651"><ele>133.0</ele><time>2026-03-31T14:11:36Z</time></trkpt><trkpt lat="43.34871580432211" lon="5.430654962810868"><ele>133.0</ele><time>2026-03-31T14:11:38Z</time></trkpt><trkpt lat="43.34880302117316" lon="5.430724249497386"><ele>133.0</ele><time>2026-03-31T14:11:40Z</time></trkpt><trkpt lat="43.348900491926706" lon="5.430784962929893"><ele>133.0</ele><time>2026-03-31T14:11:42Z</time></trkpt><trkpt lat="43.349003835559685" lon="5.430872754345354"><ele>134.5</ele><time>2026-03-31T14:11:44Z</time></trkpt><trkpt lat="43.349107249044515" lon="5.430955128973326"><ele>136.0</ele><time>2026-03-31T14:11:46Z</time></trkpt><trkpt lat="43.349210771943945" lon="5.431034476362657"><ele>137.5</ele><time>2026-03-31T14:11:48Z</time></trkpt><trkpt lat="43.349314444553755" lon="5.431106206948704"><ele>139.0</ele><time>2026-03-31T14:11:50Z</time></trkpt><trkpt lat="43.34941204754759" lon="5.4312047751631205"><ele>139.0</ele><time>2026-03-31T14:11:52Z</time></trkpt><trkpt lat="43.3495217809506" lon="5.431266304028829"><ele>139.0</ele><time>2026-03-31T14:11:54Z</time></trkpt><trkpt lat="43.3496258211017" lon="5.43134943876219"><ele>139.0</ele><time>2026-03-31T14:11:56Z</time></trkpt><trkpt lat="43.34972786189023" lon="5.431429443628521"><ele>139.0</ele><time>2026-03-31T14:11:58Z</time></trkpt><trkpt lat="43.34982797255046" lon="5.431508423782886"><ele>139.25</ele><time>2026-03-31T14:12:00Z</time></trkpt><trkpt lat="43.34992501690783" lon="5.431586417948983"><ele>139.5</ele><time>2026-03-31T14:12:02Z</time></trkpt><trkpt lat="43.35002819830378" lon="5.431667608490182"><ele>139.75</ele><time>2026-03-31T14:12:04Z</time></trkpt><trkpt lat="43.3501280541261" lon="5.431747181229816"><ele>140.0</ele><time>2026-03-31T14:12:05.999Z</time></trkpt><trkpt lat="43.3502239287643" lon="5.431821663059493"><ele>140.0</ele><time>2026-03-31T14:12:07.999Z</time></trkpt><trkpt lat="43.35032300109927" lon="5.431899480165159"><ele>140.0</ele><time>2026-03-31T14:12:09.999Z</time></trkpt><trkpt lat="43.35042248090031" lon="5.431976070989091"><ele>140.0</ele><time>2026-03-31T14:12:11.999Z</time></trkpt><trkpt lat="43.35052141232231" lon="5.432055776431511"><ele>140.0</ele><time>2026-03-31T14:12:13.999Z</time></trkpt><trkpt lat="43.350614676451094" lon="5.432143350578749"><ele>139.8</ele><time>2026-03-31T14:12:16.001Z</time></trkpt><trkpt lat="43.35069727005132" lon="5.432234308021838"><ele>139.6</ele><time>2026-03-31T14:12:18.001Z</time></trkpt><trkpt lat="43.35077501322109" lon="5.432322375356373"><ele>139.4</ele><time>2026-03-31T14:12:20.001Z</time></trkpt><trkpt lat="43.35085736104102" lon="5.432429861367318"><ele>139.2</ele><time>2026-03-31T14:12:22.001Z</time></trkpt><trkpt lat="43.350936201592646" lon="5.432544787830552"><ele>139.0</ele><time>2026-03-31T14:12:24.001Z</time></trkpt><trkpt lat="43.35101282796204" lon="5.4326671526144095"><ele>139.0</ele><time>2026-03-31T14:12:26.001Z</time></trkpt><trkpt lat="43.351084789296955" lon="5.432787156455372"><ele>139.0</ele><time>2026-03-31T14:12:28.001Z</time></trkpt><trkpt lat="43.35115540045225" lon="5.432910485451413"><ele>139.0</ele><time>2026-03-31T14:12:30.001Z</time></trkpt><trkpt lat="43.35124080727228" lon="5.433036297708488"><ele>139.0</ele><time>2026-03-31T14:12:32.001Z</time></trkpt><trkpt lat="43.35128122228901" lon="5.433107311158413"><ele>139.0</ele><time>2026-03-31T14:12:33.001Z</time></trkpt><trkpt lat="43.351359535569586" lon="5.433238648081991"><ele>139.2</ele><time>2026-03-31T14:12:35.001Z</time></trkpt><trkpt lat="43.35142349784844" lon="5.433375232303932"><ele>139.4</ele><time>2026-03-31T14:12:37.001Z</time></trkpt><trkpt lat="43.35149864916428" lon="5.4334991228946565"><ele>139.6</ele><time>2026-03-31T14:12:39.001Z</time></trkpt><trkpt lat="43.35157055743492" lon="5.433617667140258"><ele>139.8</ele><time>2026-03-31T14:12:41.001Z</time></trkpt><trkpt lat="43.35163174843143" lon="5.433724405041607"><ele>140.0</ele><time>2026-03-31T14:12:43Z</time></trkpt><trkpt lat="43.35179542177146" lon="5.433785172140149"><ele>140.0</ele><time>2026-03-31T14:12:45Z</time></trkpt><trkpt lat="43.35183942456968" lon="5.43351109068227"><ele>140.0</ele><time>2026-03-31T14:12:47Z</time></trkpt><trkpt lat="43.35189987193781" lon="5.4333966645653895"><ele>140.0</ele><time>2026-03-31T14:12:49Z</time></trkpt><trkpt lat="43.35194824747972" lon="5.433271841855245"><ele>140.0</ele><time>2026-03-31T14:12:51Z</time></trkpt><trkpt lat="43.351996803431646" lon="5.433146553596642"><ele>140.0</ele><time>2026-03-31T14:12:53Z</time></trkpt><trkpt lat="43.35203938095597" lon="5.4330136226033074"><ele>140.0</ele><time>2026-03-31T14:12:55Z</time></trkpt><trkpt lat="43.35209671803195" lon="5.432897928658342"><ele>140.0</ele><time>2026-03-31T14:12:57Z</time></trkpt><trkpt lat="43.352140627952494" lon="5.432763585783555"><ele>140.0</ele><time>2026-03-31T14:12:59Z</time></trkpt><trkpt lat="43.35219431801638" lon="5.432624753102769"><ele>140.0</ele><time>2026-03-31T14:13:01Z</time></trkpt><trkpt lat="43.352268504359344" lon="5.432508760941655"><ele>140.0</ele><time>2026-03-31T14:13:03Z</time></trkpt><trkpt lat="43.35234400776478" lon="5.432394604781276"><ele>140.0</ele><time>2026-03-31T14:13:05Z</time></trkpt><trkpt lat="43.35241680644536" lon="5.4322898889081115"><ele>140.0</ele><time>2026-03-31T14:13:07Z</time></trkpt><trkpt lat="43.352480381003176" lon="5.432188824022091"><ele>140.0</ele><time>2026-03-31T14:13:09Z</time></trkpt><trkpt lat="43.35254112314913" lon="5.432095157536801"><ele>140.0</ele><time>2026-03-31T14:13:11Z</time></trkpt><trkpt lat="43.352600045708186" lon="5.431991963479935"><ele>140.4</ele><time>2026-03-31T14:13:13Z</time></trkpt><trkpt lat="43.352665428485764" lon="5.431880709190854"><ele>140.8</ele><time>2026-03-31T14:13:15Z</time></trkpt><trkpt lat="43.352733715852644" lon="5.431772776286533"><ele>141.2</ele><time>2026-03-31T14:13:17Z</time></trkpt><trkpt lat="43.35280213596066" lon="5.4316598956122"><ele>141.6</ele><time>2026-03-31T14:13:19Z</time></trkpt><trkpt lat="43.3528867786453" lon="5.431574944440763"><ele>142.0</ele><time>2026-03-31T14:13:21Z</time></trkpt><trkpt lat="43.35296427428649" lon="5.431471419616923"><ele>142.0</ele><time>2026-03-31T14:13:23Z</time></trkpt><trkpt lat="43.353031935346095" lon="5.431359599460324"><ele>142.0</ele><time>2026-03-31T14:13:25Z</time></trkpt><trkpt lat="43.35310719693797" lon="5.431250740355703"><ele>142.0</ele><time>2026-03-31T14:13:27Z</time></trkpt><trkpt lat="43.353191117895896" lon="5.431155733085574"><ele>142.0</ele><time>2026-03-31T14:13:29Z</time></trkpt><trkpt lat="43.35325701739319" lon="5.431040878700724"><ele>142.0</ele><time>2026-03-31T14:13:31Z</time></trkpt><trkpt lat="43.35333455408039" lon="5.430941036074483"><ele>143.4</ele><time>2026-03-31T14:13:33Z</time></trkpt><trkpt lat="43.353416119688355" lon="5.430851732563604"><ele>144.79999999999998</ele><time>2026-03-31T14:13:35Z</time></trkpt><trkpt lat="43.353495466668114" lon="5.430769254979674"><ele>146.2</ele><time>2026-03-31T14:13:37Z</time></trkpt><trkpt lat="43.35357321139288" lon="5.430709106112665"><ele>147.6</ele><time>2026-03-31T14:13:39Z</time></trkpt><trkpt lat="43.3536535529352" lon="5.43064983576215"><ele>149.0</ele><time>2026-03-31T14:13:41Z</time></trkpt><trkpt lat="43.353731134876284" lon="5.430573618314398"><ele>149.6</ele><time>2026-03-31T14:13:43Z</time></trkpt><trkpt lat="43.35379388321264" lon="5.430463517424436"><ele>150.2</ele><time>2026-03-31T14:13:45Z</time></trkpt><trkpt lat="43.35385633737889" lon="5.430350447238732"><ele>150.79999999999998</ele><time>2026-03-31T14:13:47Z</time></trkpt><trkpt lat="43.35392042410262" lon="5.430237060141408"><ele>151.4</ele><time>2026-03-31T14:13:49Z</time></trkpt><trkpt lat="43.3539538582151" lon="5.430107037659047"><ele>152.0</ele><time>2026-03-31T14:13:51Z</time></trkpt><trkpt lat="43.35399574916619" lon="5.429990199785126"><ele>153.2</ele><time>2026-03-31T14:13:53Z</time></trkpt><trkpt lat="43.35396145504124" lon="5.429898056151805"><ele>154.39999999999998</ele><time>2026-03-31T14:13:54Z</time></trkpt><trkpt lat="43.35396484620282" lon="5.429757701498168"><ele>155.60000000000002</ele><time>2026-03-31T14:13:56Z</time></trkpt><trkpt lat="43.3539637484444" lon="5.429615924938391"><ele>156.8</ele><time>2026-03-31T14:13:58Z</time></trkpt><trkpt lat="43.35397810932079" lon="5.429482616353127"><ele>158.0</ele><time>2026-03-31T14:14:00Z</time></trkpt><trkpt lat="43.354016563655556" lon="5.429364343473583"><ele>159.0</ele><time>2026-03-31T14:14:01.999Z</time></trkpt><trkpt lat="43.35407038008632" lon="5.429257349665176"><ele>160.0</ele><time>2026-03-31T14:14:03.999Z</time></trkpt><trkpt lat="43.35411592612349" lon="5.429143898615613"><ele>161.0</ele><time>2026-03-31T14:14:05.999Z</time></trkpt><trkpt lat="43.354167941374136" lon="5.429036087437006"><ele>162.0</ele><time>2026-03-31T14:14:07.999Z</time></trkpt><trkpt lat="43.35421863680416" lon="5.428926307243114"><ele>163.0</ele><time>2026-03-31T14:14:09.999Z</time></trkpt><trkpt lat="43.35426916553351" lon="5.428826799972266"><ele>163.0</ele><time>2026-03-31T14:14:11.999Z</time></trkpt><trkpt lat="43.35432238514719" lon="5.42872235154414"><ele>163.0</ele><time>2026-03-31T14:14:13.999Z</time></trkpt><trkpt lat="43.35435945347307" lon="5.4286052190043605"><ele>163.0</ele><time>2026-03-31T14:14:15.999Z</time></trkpt><trkpt lat="43.35438993557415" lon="5.428485824838063"><ele>163.0</ele><time>2026-03-31T14:14:17.999Z</time></trkpt><trkpt lat="43.35442008661219" lon="5.428365231892363"><ele>163.0</ele><time>2026-03-31T14:14:19.999Z</time></trkpt><trkpt lat="43.35445783013521" lon="5.428254111507621"><ele>163.0</ele><time>2026-03-31T14:14:22.001Z</time></trkpt><trkpt lat="43.354479296020436" lon="5.428153921470005"><ele>163.0</ele><time>2026-03-31T14:14:24.001Z</time></trkpt><trkpt lat="43.35447588821346" lon="5.428047325129698"><ele>163.0</ele><time>2026-03-31T14:14:26.001Z</time></trkpt><trkpt lat="43.3544602267797" lon="5.427918940868035"><ele>163.0</ele><time>2026-03-31T14:14:28.001Z</time></trkpt><trkpt lat="43.3544424372105" lon="5.427763666058046"><ele>163.0</ele><time>2026-03-31T14:14:30.001Z</time></trkpt><trkpt lat="43.354417132863205" lon="5.427613364851829"><ele>163.2</ele><time>2026-03-31T14:14:32.001Z</time></trkpt><trkpt lat="43.354391919390466" lon="5.427460436480681"><ele>163.4</ele><time>2026-03-31T14:14:34.001Z</time></trkpt><trkpt lat="43.3543663316649" lon="5.427321579342994"><ele>163.6</ele><time>2026-03-31T14:14:36.001Z</time></trkpt><trkpt lat="43.3543749971896" lon="5.427220179610888"><ele>163.79999999999998</ele><time>2026-03-31T14:14:38.001Z</time></trkpt><trkpt lat="43.354428498937345" lon="5.427116920467933"><ele>164.0</ele><time>2026-03-31T14:14:40.001Z</time></trkpt><trkpt lat="43.35449407563203" lon="5.426979095300262"><ele>164.0</ele><time>2026-03-31T14:14:42.001Z</time></trkpt><trkpt lat="43.354533015333985" lon="5.426847325157842"><ele>164.0</ele><time>2026-03-31T14:14:44.001Z</time></trkpt><trkpt lat="43.35462124622638" lon="5.426758688658629"><ele>164.0</ele><time>2026-03-31T14:14:46.001Z</time></trkpt><trkpt lat="43.3547074288227" lon="5.426655000584685"><ele>164.0</ele><time>2026-03-31T14:14:48Z</time></trkpt><trkpt lat="43.35479250847849" lon="5.426538098792731"><ele>164.0</ele><time>2026-03-31T14:14:50Z</time></trkpt><trkpt lat="43.35488488399298" lon="5.426437609908166"><ele>164.85714285714283</ele><time>2026-03-31T14:14:52Z</time></trkpt><trkpt lat="43.35493374554502" lon="5.426378063298611"><ele>165.71428571428572</ele><time>2026-03-31T14:14:53Z</time></trkpt><trkpt lat="43.354979690753446" lon="5.426311179913305"><ele>166.57142857142856</ele><time>2026-03-31T14:14:54Z</time></trkpt><trkpt lat="43.35502694318771" lon="5.426234468432086"><ele>167.42857142857142</ele><time>2026-03-31T14:14:55Z</time></trkpt><trkpt lat="43.35506588778923" lon="5.426163466701493"><ele>168.28571428571428</ele><time>2026-03-31T14:14:56Z</time></trkpt><trkpt lat="43.35510133917617" lon="5.426081701129615"><ele>169.14285714285714</ele><time>2026-03-31T14:14:57Z</time></trkpt><trkpt lat="43.35512994371867" lon="5.42600373288173"><ele>170.0</ele><time>2026-03-31T14:14:58Z</time></trkpt><trkpt lat="43.35518098711721" lon="5.425855009577819"><ele>170.4</ele><time>2026-03-31T14:15:00Z</time></trkpt><trkpt lat="43.35523986848406" lon="5.425724255115306"><ele>170.8</ele><time>2026-03-31T14:15:02Z</time></trkpt><trkpt lat="43.35530208192781" lon="5.4256006405700665"><ele>171.2</ele><time>2026-03-31T14:15:04Z</time></trkpt><trkpt lat="43.35536966066444" lon="5.425495462647396"><ele>171.6</ele><time>2026-03-31T14:15:06Z</time></trkpt><trkpt lat="43.35544183331797" lon="5.4254001551649855"><ele>172.0</ele><time>2026-03-31T14:15:08Z</time></trkpt><trkpt lat="43.35550975349523" lon="5.425319455191945"><ele>172.5</ele><time>2026-03-31T14:15:10Z</time></trkpt><trkpt lat="43.35556954603567" lon="5.425226735454829"><ele>173.0</ele><time>2026-03-31T14:15:12Z</time></trkpt><trkpt lat="43.35560127126231" lon="5.425117525821006"><ele>173.5</ele><time>2026-03-31T14:15:14Z</time></trkpt><trkpt lat="43.355642178752625" lon="5.42504126002031"><ele>174.0</ele><time>2026-03-31T14:15:16Z</time></trkpt><trkpt lat="43.355701743360825" lon="5.424958785927961"><ele>174.5</ele><time>2026-03-31T14:15:19Z</time></trkpt><trkpt lat="43.35573992660092" lon="5.424885017683693"><ele>175.0</ele><time>2026-03-31T14:15:21Z</time></trkpt><trkpt lat="43.3557759561169" lon="5.424805178779036"><ele>175.0</ele><time>2026-03-31T14:15:23Z</time></trkpt><trkpt lat="43.3558080964672" lon="5.424712450174793"><ele>175.0</ele><time>2026-03-31T14:15:25Z</time></trkpt><trkpt lat="43.35583935303713" lon="5.424619639024467"><ele>175.0</ele><time>2026-03-31T14:15:27Z</time></trkpt><trkpt lat="43.35587670809167" lon="5.424537421748514"><ele>175.0</ele><time>2026-03-31T14:15:29Z</time></trkpt><trkpt lat="43.355910654079274" lon="5.42443862757425"><ele>175.0</ele><time>2026-03-31T14:15:31Z</time></trkpt><trkpt lat="43.35595058148691" lon="5.424340786716203"><ele>175.0</ele><time>2026-03-31T14:15:33Z</time></trkpt><trkpt lat="43.35599138371023" lon="5.424243986153881"><ele>174.83333333333334</ele><time>2026-03-31T14:15:35Z</time></trkpt><trkpt lat="43.3560288682959" lon="5.4241402366093086"><ele>174.66666666666669</ele><time>2026-03-31T14:15:37Z</time></trkpt><trkpt lat="43.356064486501666" lon="5.424030840713181"><ele>174.5</ele><time>2026-03-31T14:15:39Z</time></trkpt><trkpt lat="43.356108312583906" lon="5.4239211182183755"><ele>174.33333333333334</ele><time>2026-03-31T14:15:41Z</time></trkpt><trkpt lat="43.356151564740024" lon="5.423810168954865"><ele>174.16666666666666</ele><time>2026-03-31T14:15:43Z</time></trkpt><trkpt lat="43.3561891650917" lon="5.423704403260558"><ele>174.0</ele><time>2026-03-31T14:15:45Z</time></trkpt><trkpt lat="43.356228019871416" lon="5.423603810932711"><ele>174.5</ele><time>2026-03-31T14:15:47Z</time></trkpt><trkpt lat="43.35627060011232" lon="5.4235001109660175"><ele>175.0</ele><time>2026-03-31T14:15:49Z</time></trkpt><trkpt lat="43.35630780425121" lon="5.4233947495636015"><ele>175.5</ele><time>2026-03-31T14:15:51Z</time></trkpt><trkpt lat="43.356342730331804" lon="5.423287832973969"><ele>176.0</ele><time>2026-03-31T14:15:53Z</time></trkpt><trkpt lat="43.35637806316246" lon="5.4231798562529905"><ele>176.5</ele><time>2026-03-31T14:15:55Z</time></trkpt><trkpt lat="43.35641367441893" lon="5.423074387833129"><ele>177.0</ele><time>2026-03-31T14:15:57Z</time></trkpt><trkpt lat="43.35645290966753" lon="5.422971265156891"><ele>177.0</ele><time>2026-03-31T14:15:58.999Z</time></trkpt><trkpt lat="43.356490514255036" lon="5.422881847102841"><ele>177.0</ele><time>2026-03-31T14:16:00.999Z</time></trkpt><trkpt lat="43.35663805403549" lon="5.422938113995116"><ele>177.0</ele><time>2026-03-31T14:16:04.999Z</time></trkpt><trkpt lat="43.35671488470469" lon="5.422971374266495"><ele>177.0</ele><time>2026-03-31T14:16:06.999Z</time></trkpt><trkpt lat="43.35679434500195" lon="5.423009863136119"><ele>177.0</ele><time>2026-03-31T14:16:08.999Z</time></trkpt><trkpt lat="43.35688226665566" lon="5.4230514677627735"><ele>177.0</ele><time>2026-03-31T14:16:10.999Z</time></trkpt><trkpt lat="43.35697952261871" lon="5.423090438012641"><ele>177.0</ele><time>2026-03-31T14:16:12.999Z</time></trkpt><trkpt lat="43.3570755503657" lon="5.423122280567125"><ele>177.0</ele><time>2026-03-31T14:16:14.999Z</time></trkpt><trkpt lat="43.357174903756494" lon="5.423153824973389"><ele>177.0</ele><time>2026-03-31T14:16:16.999Z</time></trkpt><trkpt lat="43.35727225216179" lon="5.423184557730874"><ele>177.0</ele><time>2026-03-31T14:16:18.999Z</time></trkpt><trkpt lat="43.35737784778546" lon="5.423195732859781"><ele>177.83333333333334</ele><time>2026-03-31T14:16:20.999Z</time></trkpt><trkpt lat="43.357426444884155" lon="5.42313790893059"><ele>178.66666666666666</ele><time>2026-03-31T14:16:21.999Z</time></trkpt><trkpt lat="43.35751063985404" lon="5.423065701008297"><ele>179.5</ele><time>2026-03-31T14:16:23.999Z</time></trkpt><trkpt lat="43.35759416096888" lon="5.422993639369853"><ele>180.33333333333331</ele><time>2026-03-31T14:16:25.999Z</time></trkpt><trkpt lat="43.357665374288175" lon="5.422911773976548"><ele>181.16666666666666</ele><time>2026-03-31T14:16:28.001Z</time></trkpt><trkpt lat="43.35773733256706" lon="5.4228290522006635"><ele>182.0</ele><time>2026-03-31T14:16:30.001Z</time></trkpt><trkpt lat="43.35780504583525" lon="5.422752562659854"><ele>183.5</ele><time>2026-03-31T14:16:32.001Z</time></trkpt><trkpt lat="43.357868717500594" lon="5.422681971591543"><ele>185.0</ele><time>2026-03-31T14:16:34.001Z</time></trkpt><trkpt lat="43.35792022162086" lon="5.422624870310548"><ele>186.5</ele><time>2026-03-31T14:16:36.001Z</time></trkpt><trkpt lat="43.35798336566559" lon="5.422554710775181"><ele>188.0</ele><time>2026-03-31T14:16:39.001Z</time></trkpt><trkpt lat="43.3580528681395" lon="5.422498245119871"><ele>189.5</ele><time>2026-03-31T14:16:45.001Z</time></trkpt><trkpt lat="43.35809569782442" lon="5.422423198014519"><ele>191.0</ele><time>2026-03-31T14:16:47.001Z</time></trkpt><trkpt lat="43.358152942115886" lon="5.4223473501132755"><ele>192.16666666666666</ele><time>2026-03-31T14:16:49Z</time></trkpt><trkpt lat="43.35820888832102" lon="5.422254414117084"><ele>193.33333333333331</ele><time>2026-03-31T14:16:51Z</time></trkpt><trkpt lat="43.358268914445304" lon="5.422174486679196"><ele>194.5</ele><time>2026-03-31T14:16:53Z</time></trkpt><trkpt lat="43.35831284092099" lon="5.422077355916853"><ele>195.66666666666666</ele><time>2026-03-31T14:16:55Z</time></trkpt><trkpt lat="43.35832840656391" lon="5.421956469066581"><ele>196.83333333333334</ele><time>2026-03-31T14:16:57Z</time></trkpt><trkpt lat="43.358354762012084" lon="5.421845761506826"><ele>198.0</ele><time>2026-03-31T14:16:59Z</time></trkpt><trkpt lat="43.35838918175541" lon="5.421730435592857"><ele>198.5</ele><time>2026-03-31T14:17:01Z</time></trkpt><trkpt lat="43.35842548757161" lon="5.421624916424272"><ele>199.0</ele><time>2026-03-31T14:17:03Z</time></trkpt><trkpt lat="43.35848386705645" lon="5.42153552294529"><ele>199.5</ele><time>2026-03-31T14:17:05Z</time></trkpt><trkpt lat="43.3585531969648" lon="5.421466308816608"><ele>200.0</ele><time>2026-03-31T14:17:07Z</time></trkpt><trkpt lat="43.358637130262565" lon="5.421417838578126"><ele>200.5</ele><time>2026-03-31T14:17:09Z</time></trkpt><trkpt lat="43.35872296255079" lon="5.421409167864243"><ele>201.0</ele><time>2026-03-31T14:17:11Z</time></trkpt><trkpt lat="43.358798975721314" lon="5.421379313742963"><ele>202.33333333333334</ele><time>2026-03-31T14:17:13Z</time></trkpt><trkpt lat="43.3588721875608" lon="5.4213250053411555"><ele>203.66666666666669</ele><time>2026-03-31T14:17:15Z</time></trkpt><trkpt lat="43.35892222444722" lon="5.421226294970469"><ele>205.0</ele><time>2026-03-31T14:17:17Z</time></trkpt><trkpt lat="43.35897540178522" lon="5.421136296842324"><ele>206.33333333333334</ele><time>2026-03-31T14:17:19Z</time></trkpt><trkpt lat="43.35902092384786" lon="5.421037085315504"><ele>207.66666666666669</ele><time>2026-03-31T14:17:21Z</time></trkpt><trkpt lat="43.35906629120884" lon="5.420955106798253"><ele>209.0</ele><time>2026-03-31T14:17:23Z</time></trkpt><trkpt lat="43.35912942099132" lon="5.420881292348322"><ele>209.00000000000003</ele><time>2026-03-31T14:17:25Z</time></trkpt><trkpt lat="43.35919942691779" lon="5.420823809377242"><ele>209.0</ele><time>2026-03-31T14:17:27Z</time></trkpt><trkpt lat="43.35925972793126" lon="5.42074348110427"><ele>209.0</ele><time>2026-03-31T14:17:29Z</time></trkpt><trkpt lat="43.35933340721585" lon="5.42068448335362"><ele>209.0</ele><time>2026-03-31T14:17:31Z</time></trkpt><trkpt lat="43.35941838292663" lon="5.420649022848433"><ele>209.00000000000003</ele><time>2026-03-31T14:17:33Z</time></trkpt><trkpt lat="43.359496562429406" lon="5.420610009351527"><ele>209.0</ele><time>2026-03-31T14:17:35Z</time></trkpt><trkpt lat="43.35957655523268" lon="5.420559552948313"><ele>210.00000000000003</ele><time>2026-03-31T14:17:37Z</time></trkpt><trkpt lat="43.35964898877232" lon="5.420480373272966"><ele>211.0</ele><time>2026-03-31T14:17:39Z</time></trkpt><trkpt lat="43.35971496661071" lon="5.420410408049526"><ele>212.0</ele><time>2026-03-31T14:17:41Z</time></trkpt><trkpt lat="43.35978306385879" lon="5.420351836998779"><ele>213.0</ele><time>2026-03-31T14:17:43Z</time></trkpt><trkpt lat="43.35985827765533" lon="5.420347919201025"><ele>214.00000000000003</ele><time>2026-03-31T14:17:45Z</time></trkpt><trkpt lat="43.35994239726967" lon="5.420362947187629"><ele>215.0</ele><time>2026-03-31T14:17:47Z</time></trkpt><trkpt lat="43.36001917259625" lon="5.4203972265371885"><ele>215.00000000000003</ele><time>2026-03-31T14:17:49Z</time></trkpt><trkpt lat="43.360101457781255" lon="5.4203910592843805"><ele>215.0</ele><time>2026-03-31T14:17:51Z</time></trkpt><trkpt lat="43.360181099698146" lon="5.420333549995655"><ele>215.0</ele><time>2026-03-31T14:17:53Z</time></trkpt><trkpt lat="43.360242239841575" lon="5.420243003099282"><ele>215.0</ele><time>2026-03-31T14:17:55Z</time></trkpt><trkpt lat="43.360313128841845" lon="5.420179580084198"><ele>215.00000000000003</ele><time>2026-03-31T14:17:56.999Z</time></trkpt><trkpt lat="43.36039598184248" lon="5.420145232972052"><ele>215.0</ele><time>2026-03-31T14:17:58.999Z</time></trkpt><trkpt lat="43.36048057960431" lon="5.420163484615562"><ele>215.50000000000003</ele><time>2026-03-31T14:18:00.999Z</time></trkpt><trkpt lat="43.36055908459956" lon="5.420182563719631"><ele>216.0</ele><time>2026-03-31T14:18:02.999Z</time></trkpt><trkpt lat="43.360647017776984" lon="5.4201472805258915"><ele>216.5</ele><time>2026-03-31T14:18:04.999Z</time></trkpt><trkpt lat="43.360722549607246" lon="5.420096570316196"><ele>217.0</ele><time>2026-03-31T14:18:06.999Z</time></trkpt><trkpt lat="43.36080511518754" lon="5.420064785443481"><ele>217.50000000000003</ele><time>2026-03-31T14:18:08.999Z</time></trkpt><trkpt lat="43.36088497191394" lon="5.420041537509606"><ele>218.0</ele><time>2026-03-31T14:18:10.999Z</time></trkpt><trkpt lat="43.360965030941124" lon="5.420046495451421"><ele>218.00000000000003</ele><time>2026-03-31T14:18:12.999Z</time></trkpt><trkpt lat="43.36101950662985" lon="5.420106644044057"><ele>218.0</ele><time>2026-03-31T14:18:14.999Z</time></trkpt><trkpt lat="43.36107110165938" lon="5.420180143682826"><ele>218.0</ele><time>2026-03-31T14:18:16.999Z</time></trkpt><trkpt lat="43.36112859664794" lon="5.420253357187259"><ele>218.0</ele><time>2026-03-31T14:18:18.999Z</time></trkpt><trkpt lat="43.36121793438428" lon="5.420276336025296"><ele>218.00000000000003</ele><time>2026-03-31T14:18:20.999Z</time></trkpt><trkpt lat="43.36130860136997" lon="5.42025493175396"><ele>218.0</ele><time>2026-03-31T14:18:22.999Z</time></trkpt><trkpt lat="43.36138670450443" lon="5.420207000626278"><ele>218.00000000000003</ele><time>2026-03-31T14:18:24.999Z</time></trkpt><trkpt lat="43.36146323499645" lon="5.42016088278132"><ele>218.0</ele><time>2026-03-31T14:18:26.999Z</time></trkpt><trkpt lat="43.36153495378589" lon="5.4201127206900255"><ele>218.0</ele><time>2026-03-31T14:18:28.999Z</time></trkpt><trkpt lat="43.3616144349285" lon="5.420114621026737"><ele>218.0</ele><time>2026-03-31T14:18:30.999Z</time></trkpt><trkpt lat="43.361680044753854" lon="5.420158781946006"><ele>218.00000000000003</ele><time>2026-03-31T14:18:32.999Z</time></trkpt><trkpt lat="43.36175970618636" lon="5.420211475979127"><ele>218.0</ele><time>2026-03-31T14:18:35.001Z</time></trkpt><trkpt lat="43.36184146777665" lon="5.4202356271897285"><ele>218.00000000000003</ele><time>2026-03-31T14:18:37.001Z</time></trkpt><trkpt lat="43.36192415205356" lon="5.420237280329387"><ele>218.0</ele><time>2026-03-31T14:18:39.001Z</time></trkpt><trkpt lat="43.36200065122947" lon="5.420188706712257"><ele>218.0</ele><time>2026-03-31T14:18:41.001Z</time></trkpt><trkpt lat="43.36206745041298" lon="5.420111748051127"><ele>218.0</ele><time>2026-03-31T14:18:43.001Z</time></trkpt><trkpt lat="43.3621269223628" lon="5.420033936245153"><ele>218.00000000000003</ele><time>2026-03-31T14:18:45.001Z</time></trkpt><trkpt lat="43.36219225091045" lon="5.419975472412718"><ele>218.0</ele><time>2026-03-31T14:18:47.001Z</time></trkpt><trkpt lat="43.36227406865997" lon="5.419960434514212"><ele>219.00000000000003</ele><time>2026-03-31T14:18:49.001Z</time></trkpt><trkpt lat="43.36234358612948" lon="5.419999714722677"><ele>220.0</ele><time>2026-03-31T14:18:51Z</time></trkpt><trkpt lat="43.36241487589663" lon="5.420049318818921"><ele>221.0</ele><time>2026-03-31T14:18:53Z</time></trkpt><trkpt lat="43.36248912485757" lon="5.420070709575321"><ele>222.0</ele><time>2026-03-31T14:18:55Z</time></trkpt><trkpt lat="43.36254751180774" lon="5.4201314506487455"><ele>223.00000000000003</ele><time>2026-03-31T14:18:57Z</time></trkpt><trkpt lat="43.36262797563383" lon="5.420054051229895"><ele>224.0</ele><time>2026-03-31T14:18:59Z</time></trkpt><trkpt lat="43.36268376834603" lon="5.420009887999396"><ele>224.00000000000003</ele><time>2026-03-31T14:19:01Z</time></trkpt><trkpt lat="43.36274541466252" lon="5.419983616304355"><ele>224.0</ele><time>2026-03-31T14:19:37Z</time></trkpt><trkpt lat="43.36280530787361" lon="5.419888036749711"><ele>224.0</ele><time>2026-03-31T14:19:40Z</time></trkpt><trkpt lat="43.36281971292216" lon="5.419779634895063"><ele>224.0</ele><time>2026-03-31T14:19:42Z</time></trkpt><trkpt lat="43.36284378864937" lon="5.419674475792743"><ele>224.00000000000003</ele><time>2026-03-31T14:19:44Z</time></trkpt><trkpt lat="43.362904668460594" lon="5.419612620409631"><ele>224.0</ele><time>2026-03-31T14:19:46Z</time></trkpt><trkpt lat="43.362980167813575" lon="5.419656933634608"><ele>225.50000000000003</ele><time>2026-03-31T14:19:48Z</time></trkpt><trkpt lat="43.36305437981805" lon="5.41969881991817"><ele>227.0</ele><time>2026-03-31T14:19:50Z</time></trkpt><trkpt lat="43.363137763213345" lon="5.419691457336636"><ele>228.5</ele><time>2026-03-31T14:19:52Z</time></trkpt><trkpt lat="43.36321349213201" lon="5.419635049144773"><ele>230.0</ele><time>2026-03-31T14:19:54Z</time></trkpt><trkpt lat="43.36327071937173" lon="5.419536223752116"><ele>231.50000000000003</ele><time>2026-03-31T14:19:55.999Z</time></trkpt><trkpt lat="43.363335868121695" lon="5.419451277130192"><ele>233.0</ele><time>2026-03-31T14:19:57.999Z</time></trkpt><trkpt lat="43.3633998307936" lon="5.419377408703786"><ele>233.00000000000003</ele><time>2026-03-31T14:19:59.999Z</time></trkpt><trkpt lat="43.36345380687059" lon="5.419278320822798"><ele>233.0</ele><time>2026-03-31T14:20:01.999Z</time></trkpt><trkpt lat="43.36349202182556" lon="5.419161752994494"><ele>233.0</ele><time>2026-03-31T14:20:03.999Z</time></trkpt><trkpt lat="43.36349597699788" lon="5.419049757598682"><ele>233.0</ele><time>2026-03-31T14:20:05.999Z</time></trkpt><trkpt lat="43.36343710977316" lon="5.418961020926882"><ele>233.00000000000003</ele><time>2026-03-31T14:20:07.999Z</time></trkpt><trkpt lat="43.36338524650654" lon="5.418885346698101"><ele>233.0</ele><time>2026-03-31T14:20:09.999Z</time></trkpt><trkpt lat="43.363405572367995" lon="5.4187804427443105"><ele>234.83333333333334</ele><time>2026-03-31T14:20:11.999Z</time></trkpt><trkpt lat="43.363486042358296" lon="5.418730327853864"><ele>236.66666666666669</ele><time>2026-03-31T14:20:13.999Z</time></trkpt><trkpt lat="43.36357085313688" lon="5.41873573166766"><ele>238.5</ele><time>2026-03-31T14:20:15.999Z</time></trkpt><trkpt lat="43.36365420758461" lon="5.41872467273487"><ele>240.33333333333331</ele><time>2026-03-31T14:20:17.999Z</time></trkpt><trkpt lat="43.36373327409866" lon="5.4186975690296855"><ele>242.16666666666666</ele><time>2026-03-31T14:20:19.999Z</time></trkpt><trkpt lat="43.36377868966309" lon="5.418588323561605"><ele>244.0</ele><time>2026-03-31T14:20:21.999Z</time></trkpt><trkpt lat="43.363792141494116" lon="5.418477625578708"><ele>243.99999999999997</ele><time>2026-03-31T14:20:23.999Z</time></trkpt><trkpt lat="43.36380753778278" lon="5.418367496974002"><ele>244.0</ele><time>2026-03-31T14:20:25.999Z</time></trkpt><trkpt lat="43.36387070488544" lon="5.4182872466334375"><ele>244.0</ele><time>2026-03-31T14:20:27.999Z</time></trkpt><trkpt lat="43.36393286010572" lon="5.418200963861896"><ele>244.0</ele><time>2026-03-31T14:20:29.999Z</time></trkpt><trkpt lat="43.3639936310845" lon="5.418110880250006"><ele>243.99999999999997</ele><time>2026-03-31T14:20:31.999Z</time></trkpt><trkpt lat="43.364057425290234" lon="5.4180290470937"><ele>244.0</ele><time>2026-03-31T14:20:33.999Z</time></trkpt><trkpt lat="43.36411954872811" lon="5.4179317754435985"><ele>244.49999999999997</ele><time>2026-03-31T14:20:35.999Z</time></trkpt><trkpt lat="43.36418473126558" lon="5.417846390010881"><ele>245.0</ele><time>2026-03-31T14:20:37.999Z</time></trkpt><trkpt lat="43.36426205259327" lon="5.417783680547426"><ele>245.5</ele><time>2026-03-31T14:20:40Z</time></trkpt><trkpt lat="43.36432775337827" lon="5.41771467638635"><ele>246.0</ele><time>2026-03-31T14:20:42Z</time></trkpt><trkpt lat="43.364395087341535" lon="5.417679897394561"><ele>246.49999999999997</ele><time>2026-03-31T14:20:44Z</time></trkpt><trkpt lat="43.36447819238228" lon="5.417652056994357"><ele>247.0</ele><time>2026-03-31T14:20:46Z</time></trkpt><trkpt lat="43.364563347061235" lon="5.417673031350298"><ele>246.99999999999997</ele><time>2026-03-31T14:20:48Z</time></trkpt><trkpt lat="43.36464116019031" lon="5.417707899784084"><ele>247.0</ele><time>2026-03-31T14:20:50Z</time></trkpt><trkpt lat="43.36470993603553" lon="5.417769473017723"><ele>247.0</ele><time>2026-03-31T14:20:52Z</time></trkpt><trkpt lat="43.3647918976782" lon="5.417795600141643"><ele>247.0</ele><time>2026-03-31T14:20:54Z</time></trkpt><trkpt lat="43.36486491001773" lon="5.417856893398549"><ele>246.99999999999997</ele><time>2026-03-31T14:20:56Z</time></trkpt><trkpt lat="43.364937756138296" lon="5.417897985672788"><ele>247.0</ele><time>2026-03-31T14:20:58Z</time></trkpt><trkpt lat="43.36503761957808" lon="5.417877436489664"><ele>247.0</ele><time>2026-03-31T14:21:00Z</time></trkpt><trkpt lat="43.365118483537714" lon="5.417886510802448"><ele>247.0</ele><time>2026-03-31T14:21:02Z</time></trkpt><trkpt lat="43.36519169914824" lon="5.417886770829331"><ele>247.0</ele><time>2026-03-31T14:21:04Z</time></trkpt><trkpt lat="43.36526384558768" lon="5.41789079072378"><ele>247.0</ele><time>2026-03-31T14:21:06Z</time></trkpt><trkpt lat="43.36533827098275" lon="5.4178947679718945"><ele>247.0</ele><time>2026-03-31T14:21:08Z</time></trkpt><trkpt lat="43.36540849658469" lon="5.41790631056889"><ele>247.0</ele><time>2026-03-31T14:21:10Z</time></trkpt><trkpt lat="43.36548092700498" lon="5.417918074829167"><ele>247.0</ele><time>2026-03-31T14:21:12Z</time></trkpt><trkpt lat="43.36555889100141" lon="5.417922626018648"><ele>248.49999999999997</ele><time>2026-03-31T14:21:14Z</time></trkpt><trkpt lat="43.365634703742856" lon="5.4179350868660325"><ele>250.0</ele><time>2026-03-31T14:21:16Z</time></trkpt><trkpt lat="43.36570513877735" lon="5.4179301487066835"><ele>251.5</ele><time>2026-03-31T14:21:18Z</time></trkpt><trkpt lat="43.36578508922328" lon="5.417908853958404"><ele>253.0</ele><time>2026-03-31T14:21:20Z</time></trkpt><trkpt lat="43.36586154211636" lon="5.417871070007173"><ele>254.49999999999997</ele><time>2026-03-31T14:21:22Z</time></trkpt><trkpt lat="43.36593836626579" lon="5.417839710058917"><ele>256.0</ele><time>2026-03-31T14:21:24Z</time></trkpt><trkpt lat="43.365991230800965" lon="5.417781368483001"><ele>256.0</ele><time>2026-03-31T14:21:26Z</time></trkpt><trkpt lat="43.36604166022526" lon="5.417720193900735"><ele>255.99999999999997</ele><time>2026-03-31T14:21:28Z</time></trkpt><trkpt lat="43.366092987555945" lon="5.417663224083376"><ele>256.0</ele><time>2026-03-31T14:21:30Z</time></trkpt><trkpt lat="43.36614801143872" lon="5.417613085901534"><ele>256.0</ele><time>2026-03-31T14:21:32Z</time></trkpt><trkpt lat="43.36620824434798" lon="5.41756621674324"><ele>255.99999999999997</ele><time>2026-03-31T14:21:34Z</time></trkpt><trkpt lat="43.36626803187172" lon="5.417522785301855"><ele>256.0</ele><time>2026-03-31T14:21:36Z</time></trkpt><trkpt lat="43.36635687069692" lon="5.4174813905665244"><ele>256.0</ele><time>2026-03-31T14:21:39Z</time></trkpt><trkpt lat="43.36642174907831" lon="5.417460336403392"><ele>256.1428571428571</ele><time>2026-03-31T14:21:41Z</time></trkpt><trkpt lat="43.36648211007655" lon="5.417433732749439"><ele>256.2857142857143</ele><time>2026-03-31T14:21:43Z</time></trkpt><trkpt lat="43.366546477072895" lon="5.417420191657105"><ele>256.42857142857144</ele><time>2026-03-31T14:21:45Z</time></trkpt><trkpt lat="43.36661775358817" lon="5.417403467555418"><ele>256.57142857142856</ele><time>2026-03-31T14:21:47Z</time></trkpt><trkpt lat="43.36669200339804" lon="5.417378323605713"><ele>256.7142857142857</ele><time>2026-03-31T14:21:49Z</time></trkpt><trkpt lat="43.36675992244269" lon="5.417328492875079"><ele>256.85714285714283</ele><time>2026-03-31T14:21:51Z</time></trkpt><trkpt lat="43.36680581341752" lon="5.417246723431543"><ele>257.0</ele><time>2026-03-31T14:21:53Z</time></trkpt><trkpt lat="43.36687053451757" lon="5.417169339952873"><ele>259.6</ele><time>2026-03-31T14:21:55.999Z</time></trkpt><trkpt lat="43.36694248546757" lon="5.417083268389699"><ele>262.2</ele><time>2026-03-31T14:21:58.999Z</time></trkpt><trkpt lat="43.3670186118252" lon="5.4170374263833345"><ele>264.8</ele><time>2026-03-31T14:22:01.999Z</time></trkpt><trkpt lat="43.36710798534858" lon="5.4169918481821995"><ele>267.4</ele><time>2026-03-31T14:22:04.999Z</time></trkpt><trkpt lat="43.3672055125186" lon="5.416968602426939"><ele>270.0</ele><time>2026-03-31T14:22:07.999Z</time></trkpt><trkpt lat="43.36729054487746" lon="5.416957740220474"><ele>270.3333333333333</ele><time>2026-03-31T14:22:10.999Z</time></trkpt><trkpt lat="43.36735264487616" lon="5.4169390262840125"><ele>270.6666666666667</ele><time>2026-03-31T14:22:12.999Z</time></trkpt><trkpt lat="43.36743929930842" lon="5.416954271317569"><ele>271.0</ele><time>2026-03-31T14:22:15.999Z</time></trkpt><trkpt lat="43.36751555638337" lon="5.416939118565763"><ele>271.33333333333337</ele><time>2026-03-31T14:22:18.999Z</time></trkpt><trkpt lat="43.36759421578716" lon="5.416915563301961"><ele>271.6666666666667</ele><time>2026-03-31T14:22:21.999Z</time></trkpt><trkpt lat="43.36767807463193" lon="5.416869806690518"><ele>272.0</ele><time>2026-03-31T14:22:24.999Z</time></trkpt><trkpt lat="43.36775078924305" lon="5.416799977891912"><ele>272.0</ele><time>2026-03-31T14:22:27.999Z</time></trkpt><trkpt lat="43.367824400498854" lon="5.41676604698051"><ele>272.0</ele><time>2026-03-31T14:22:30.999Z</time></trkpt><trkpt lat="43.3678711752492" lon="5.41670559953327"><ele>272.0</ele><time>2026-03-31T14:22:32.999Z</time></trkpt><trkpt lat="43.36795645018646" lon="5.416664851158112"><ele>272.0</ele><time>2026-03-31T14:22:35.999Z</time></trkpt><trkpt lat="43.36803130873854" lon="5.416614543743085"><ele>272.0</ele><time>2026-03-31T14:22:38.999Z</time></trkpt><trkpt lat="43.36811432506043" lon="5.416576602029033"><ele>272.0</ele><time>2026-03-31T14:22:41.999Z</time></trkpt><trkpt lat="43.36819141313245" lon="5.4165579328757145"><ele>272.0</ele><time>2026-03-31T14:22:44.999Z</time></trkpt><trkpt lat="43.36827904872435" lon="5.416512998419585"><ele>272.0</ele><time>2026-03-31T14:22:48Z</time></trkpt><trkpt lat="43.36836166981739" lon="5.416518007154677"><ele>272.0</ele><time>2026-03-31T14:22:51Z</time></trkpt><trkpt lat="43.368445361189345" lon="5.416478815850438"><ele>272.0</ele><time>2026-03-31T14:22:54Z</time></trkpt><trkpt lat="43.36852277990699" lon="5.4164449154475705"><ele>272.0</ele><time>2026-03-31T14:22:57Z</time></trkpt><trkpt lat="43.36859350591356" lon="5.416408309113227"><ele>272.0</ele><time>2026-03-31T14:23:00Z</time></trkpt><trkpt lat="43.36866123530647" lon="5.416375769322093"><ele>272.0</ele><time>2026-03-31T14:23:03Z</time></trkpt><trkpt lat="43.36872641170539" lon="5.416330965830836"><ele>272.0</ele><time>2026-03-31T14:23:06Z</time></trkpt><trkpt lat="43.36880633768812" lon="5.416277584301644"><ele>272.0</ele><time>2026-03-31T14:23:09Z</time></trkpt><trkpt lat="43.36885735313801" lon="5.41619546578807"><ele>272.0</ele><time>2026-03-31T14:23:12Z</time></trkpt><trkpt lat="43.36893423824422" lon="5.41613728579267"><ele>272.0</ele><time>2026-03-31T14:23:15Z</time></trkpt><trkpt lat="43.36899743888782" lon="5.416064237787988"><ele>272.0</ele><time>2026-03-31T14:23:18Z</time></trkpt><trkpt lat="43.36905049086193" lon="5.415975862492672"><ele>275.1666666666667</ele><time>2026-03-31T14:23:21Z</time></trkpt><trkpt lat="43.369109156610236" lon="5.415894753010145"><ele>278.33333333333337</ele><time>2026-03-31T14:23:24Z</time></trkpt><trkpt lat="43.36917051012485" lon="5.415809055158136"><ele>281.5</ele><time>2026-03-31T14:23:27Z</time></trkpt><trkpt lat="43.36922642482188" lon="5.41572506960842"><ele>284.6666666666667</ele><time>2026-03-31T14:23:30Z</time></trkpt><trkpt lat="43.36926615582323" lon="5.415634911619845"><ele>287.8333333333333</ele><time>2026-03-31T14:23:33Z</time></trkpt><trkpt lat="43.36931924595347" lon="5.415546898768398"><ele>291.0</ele><time>2026-03-31T14:23:36Z</time></trkpt><trkpt lat="43.36936829928102" lon="5.41545901421391"><ele>291.8333333333333</ele><time>2026-03-31T14:23:39Z</time></trkpt><trkpt lat="43.369428385756045" lon="5.415387664129568"><ele>292.6666666666667</ele><time>2026-03-31T14:23:42Z</time></trkpt><trkpt lat="43.36947325200403" lon="5.415286519144163"><ele>293.5</ele><time>2026-03-31T14:23:45Z</time></trkpt><trkpt lat="43.36952518978756" lon="5.415200229679733"><ele>294.33333333333337</ele><time>2026-03-31T14:23:48Z</time></trkpt><trkpt lat="43.36958672675342" lon="5.415123973274142"><ele>295.1666666666667</ele><time>2026-03-31T14:23:51Z</time></trkpt><trkpt lat="43.36963716586448" lon="5.4150358264676255"><ele>296.0</ele><time>2026-03-31T14:23:54Z</time></trkpt><trkpt lat="43.3696889629385" lon="5.414946032463574"><ele>296.33333333333337</ele><time>2026-03-31T14:23:56.999Z</time></trkpt><trkpt lat="43.3697476079844" lon="5.41485331787142"><ele>296.6666666666667</ele><time>2026-03-31T14:23:59.999Z</time></trkpt><trkpt lat="43.36983255338371" lon="5.414806144999171"><ele>297.0</ele><time>2026-03-31T14:24:02.999Z</time></trkpt><trkpt lat="43.369883641853065" lon="5.414746227217102"><ele>297.3333333333333</ele><time>2026-03-31T14:24:04.999Z</time></trkpt><trkpt lat="43.36994766449581" lon="5.414707548424946"><ele>297.66666666666663</ele><time>2026-03-31T14:24:06.999Z</time></trkpt><trkpt lat="43.370007158101515" lon="5.414668534992115"><ele>298.0</ele><time>2026-03-31T14:24:08.999Z</time></trkpt><trkpt lat="43.370068172915396" lon="5.414631597809525"><ele>299.0</ele><time>2026-03-31T14:24:10.999Z</time></trkpt><trkpt lat="43.37012863497724" lon="5.414602278925721"><ele>300.0</ele><time>2026-03-31T14:24:12.999Z</time></trkpt><trkpt lat="43.37021219451401" lon="5.414555772506959"><ele>301.0</ele><time>2026-03-31T14:24:15.999Z</time></trkpt><trkpt lat="43.37029697513146" lon="5.4145214272514925"><ele>302.0</ele><time>2026-03-31T14:24:18.999Z</time></trkpt><trkpt lat="43.37035896947062" lon="5.414484363499663"><ele>303.0</ele><time>2026-03-31T14:24:20.999Z</time></trkpt><trkpt lat="43.37044538068268" lon="5.414430728003713"><ele>304.0</ele><time>2026-03-31T14:24:23.999Z</time></trkpt><trkpt lat="43.37050089088348" lon="5.414374690482117"><ele>304.2857142857143</ele><time>2026-03-31T14:24:25.999Z</time></trkpt><trkpt lat="43.370562138189584" lon="5.414346394801849"><ele>304.5714285714286</ele><time>2026-03-31T14:24:27.999Z</time></trkpt><trkpt lat="43.370625671806685" lon="5.414307140194346"><ele>304.8571428571429</ele><time>2026-03-31T14:24:29.999Z</time></trkpt><trkpt lat="43.370684729801724" lon="5.414265299860269"><ele>305.1428571428571</ele><time>2026-03-31T14:24:31.999Z</time></trkpt><trkpt lat="43.37074698205463" lon="5.4142258851099205"><ele>305.42857142857144</ele><time>2026-03-31T14:24:33.999Z</time></trkpt><trkpt lat="43.37080555375199" lon="5.414188256865146"><ele>305.7142857142857</ele><time>2026-03-31T14:24:35.999Z</time></trkpt><trkpt lat="43.37086321171796" lon="5.414149053851614"><ele>306.0</ele><time>2026-03-31T14:24:37.999Z</time></trkpt><trkpt lat="43.370928107506835" lon="5.41410839428913"><ele>306.0</ele><time>2026-03-31T14:24:39.999Z</time></trkpt><trkpt lat="43.37099285089238" lon="5.414093229691265"><ele>306.0</ele><time>2026-03-31T14:24:41.999Z</time></trkpt><trkpt lat="43.37107623340761" lon="5.414022919371386"><ele>306.0</ele><time>2026-03-31T14:24:44.999Z</time></trkpt><trkpt lat="43.37113881417554" lon="5.413990913755873"><ele>306.0</ele><time>2026-03-31T14:24:46.999Z</time></trkpt><trkpt lat="43.371198626831415" lon="5.413955144099071"><ele>306.0</ele><time>2026-03-31T14:24:48.999Z</time></trkpt><trkpt lat="43.37126216489643" lon="5.41392276641648"><ele>306.0</ele><time>2026-03-31T14:24:51Z</time></trkpt><trkpt lat="43.371325236471044" lon="5.41390015912443"><ele>306.0</ele><time>2026-03-31T14:24:53Z</time></trkpt><trkpt lat="43.37139032415776" lon="5.41387133395712"><ele>306.42857142857144</ele><time>2026-03-31T14:24:55Z</time></trkpt><trkpt lat="43.37145636096952" lon="5.41384568433849"><ele>306.8571428571429</ele><time>2026-03-31T14:24:57Z</time></trkpt><trkpt lat="43.371520953118406" lon="5.413821647189742"><ele>307.28571428571433</ele><time>2026-03-31T14:24:59Z</time></trkpt><trkpt lat="43.37158302501195" lon="5.41379710579993"><ele>307.7142857142857</ele><time>2026-03-31T14:25:01Z</time></trkpt><trkpt lat="43.37164712830589" lon="5.413775358454833"><ele>308.14285714285717</ele><time>2026-03-31T14:25:03Z</time></trkpt><trkpt lat="43.37171547712599" lon="5.413750316966114"><ele>308.5714285714286</ele><time>2026-03-31T14:25:05Z</time></trkpt><trkpt lat="43.37179410275062" lon="5.4137438057662495"><ele>309.0</ele><time>2026-03-31T14:25:07Z</time></trkpt><trkpt lat="43.371859473635226" lon="5.413702965803607"><ele>309.8571428571429</ele><time>2026-03-31T14:25:09Z</time></trkpt><trkpt lat="43.371931718182616" lon="5.413701210861022"><ele>310.7142857142857</ele><time>2026-03-31T14:25:11Z</time></trkpt><trkpt lat="43.3719937875274" lon="5.41368273547272"><ele>311.57142857142856</ele><time>2026-03-31T14:25:13Z</time></trkpt><trkpt lat="43.372089317984916" lon="5.413656306059073"><ele>312.42857142857144</ele><time>2026-03-31T14:25:16Z</time></trkpt><trkpt lat="43.372160190094654" lon="5.413639146269934"><ele>313.2857142857143</ele><time>2026-03-31T14:25:18Z</time></trkpt><trkpt lat="43.37223002661127" lon="5.413622433194587"><ele>314.14285714285717</ele><time>2026-03-31T14:25:20Z</time></trkpt><trkpt lat="43.37229316591453" lon="5.41358530386254"><ele>315.0</ele><time>2026-03-31T14:25:22Z</time></trkpt><trkpt lat="43.3723650843843" lon="5.413591826635534"><ele>315.57142857142856</ele><time>2026-03-31T14:25:24Z</time></trkpt><trkpt lat="43.37243013681229" lon="5.413553148755366"><ele>316.1428571428571</ele><time>2026-03-31T14:25:26Z</time></trkpt><trkpt lat="43.37250056958415" lon="5.413552471337539"><ele>316.7142857142857</ele><time>2026-03-31T14:25:28Z</time></trkpt><trkpt lat="43.37256549258495" lon="5.41351556922593"><ele>317.2857142857143</ele><time>2026-03-31T14:25:30Z</time></trkpt><trkpt lat="43.372634881952564" lon="5.413488292914887"><ele>317.85714285714283</ele><time>2026-03-31T14:25:32Z</time></trkpt><trkpt lat="43.37270451955102" lon="5.413488442873209"><ele>318.42857142857144</ele><time>2026-03-31T14:25:34Z</time></trkpt><trkpt lat="43.37276448740593" lon="5.41344284006454"><ele>319.0</ele><time>2026-03-31T14:25:36Z</time></trkpt><trkpt lat="43.3728512731161" lon="5.4134143210130015"><ele>319.0</ele><time>2026-03-31T14:25:39Z</time></trkpt><trkpt lat="43.37291469891338" lon="5.4134043687111415"><ele>319.0</ele><time>2026-03-31T14:25:41Z</time></trkpt><trkpt lat="43.37298185267322" lon="5.413423400066642"><ele>319.0</ele><time>2026-03-31T14:25:43Z</time></trkpt><trkpt lat="43.37304889742464" lon="5.41342181975272"><ele>319.0</ele><time>2026-03-31T14:25:45Z</time></trkpt><trkpt lat="43.373119974410194" lon="5.413420187733277"><ele>319.0</ele><time>2026-03-31T14:25:47Z</time></trkpt><trkpt lat="43.37318788528703" lon="5.413418978238319"><ele>319.0</ele><time>2026-03-31T14:25:49Z</time></trkpt><trkpt lat="43.373259756781366" lon="5.413417698205071"><ele>319.0</ele><time>2026-03-31T14:25:51Z</time></trkpt><trkpt lat="43.37332989857041" lon="5.413416448973857"><ele>319.5714285714286</ele><time>2026-03-31T14:25:53Z</time></trkpt><trkpt lat="43.37339812896553" lon="5.413415914364068"><ele>320.1428571428571</ele><time>2026-03-31T14:25:55Z</time></trkpt><trkpt lat="43.37346475972395" lon="5.413412168480142"><ele>320.7142857142857</ele><time>2026-03-31T14:25:57Z</time></trkpt><trkpt lat="43.373533558733996" lon="5.413408300651346"><ele>321.28571428571433</ele><time>2026-03-31T14:25:59Z</time></trkpt><trkpt lat="43.37359878622154" lon="5.413406157616395"><ele>321.8571428571429</ele><time>2026-03-31T14:26:00.999Z</time></trkpt><trkpt lat="43.373662135932705" lon="5.4133862545862135"><ele>322.42857142857144</ele><time>2026-03-31T14:26:02.999Z</time></trkpt><trkpt lat="43.37376033725019" lon="5.41338220183838"><ele>323.0</ele><time>2026-03-31T14:26:05.999Z</time></trkpt><trkpt lat="43.37382515759385" lon="5.413389829704654"><ele>324.33333333333337</ele><time>2026-03-31T14:26:07.999Z</time></trkpt><trkpt lat="43.37389125365817" lon="5.413376362516705"><ele>325.6666666666667</ele><time>2026-03-31T14:26:09.999Z</time></trkpt><trkpt lat="43.37397148398892" lon="5.41333263432902"><ele>327.0</ele><time>2026-03-31T14:26:12.999Z</time></trkpt><trkpt lat="43.37406017286277" lon="5.413328480609245"><ele>328.3333333333333</ele><time>2026-03-31T14:26:15.999Z</time></trkpt><trkpt lat="43.374143964270196" lon="5.413277152375546"><ele>329.66666666666663</ele><time>2026-03-31T14:26:18.999Z</time></trkpt><trkpt lat="43.37423013665567" lon="5.413265993259252"><ele>331.0</ele><time>2026-03-31T14:26:21.999Z</time></trkpt><trkpt lat="43.37430823855297" lon="5.413227271025528"><ele>331.0</ele><time>2026-03-31T14:26:24.999Z</time></trkpt><trkpt lat="43.37436730544995" lon="5.413188294645599"><ele>331.0</ele><time>2026-03-31T14:26:26.999Z</time></trkpt><trkpt lat="43.37442509431612" lon="5.4131426822640725"><ele>331.0</ele><time>2026-03-31T14:26:28.999Z</time></trkpt><trkpt lat="43.374479244406736" lon="5.413094231046651"><ele>331.0</ele><time>2026-03-31T14:26:30.999Z</time></trkpt><trkpt lat="43.37453822548779" lon="5.413030281886384"><ele>331.0</ele><time>2026-03-31T14:26:33.999Z</time></trkpt><trkpt lat="43.37460032124715" lon="5.412943553521456"><ele>331.0</ele><time>2026-03-31T14:26:36.999Z</time></trkpt><trkpt lat="43.374656167957816" lon="5.4128741246410215"><ele>331.0</ele><time>2026-03-31T14:26:41.999Z</time></trkpt><trkpt lat="43.37498065927247" lon="5.413017681341835"><ele>332.42857142857144</ele><time>2026-03-31T14:26:47.999Z</time></trkpt><trkpt lat="43.375046514729945" lon="5.413070695991962"><ele>333.85714285714283</ele><time>2026-03-31T14:26:51.999Z</time></trkpt><trkpt lat="43.37512980066992" lon="5.4130877270047835"><ele>335.2857142857143</ele><time>2026-03-31T14:26:54.999Z</time></trkpt><trkpt lat="43.375192873460485" lon="5.413095908427974"><ele>336.7142857142857</ele><time>2026-03-31T14:26:58Z</time></trkpt><trkpt lat="43.37526159202093" lon="5.413102379370124"><ele>338.14285714285717</ele><time>2026-03-31T14:27:01Z</time></trkpt><trkpt lat="43.37533795086262" lon="5.413106912266511"><ele>339.57142857142856</ele><time>2026-03-31T14:27:04Z</time></trkpt><trkpt lat="43.37541336279048" lon="5.413108610545554"><ele>341.0</ele><time>2026-03-31T14:27:07Z</time></trkpt><trkpt lat="43.37547559615901" lon="5.413154064258096"><ele>341.85714285714283</ele><time>2026-03-31T14:27:10Z</time></trkpt><trkpt lat="43.37554960490316" lon="5.413178528292775"><ele>342.7142857142857</ele><time>2026-03-31T14:27:13Z</time></trkpt><trkpt lat="43.375617654484856" lon="5.41321846969416"><ele>343.57142857142856</ele><time>2026-03-31T14:27:16Z</time></trkpt><trkpt lat="43.37567839314069" lon="5.413264861182867"><ele>344.42857142857144</ele><time>2026-03-31T14:27:19Z</time></trkpt><trkpt lat="43.37574813584062" lon="5.4133020523701"><ele>345.2857142857143</ele><time>2026-03-31T14:27:22Z</time></trkpt><trkpt lat="43.37580417970411" lon="5.413342784916315"><ele>346.14285714285717</ele><time>2026-03-31T14:27:25Z</time></trkpt><trkpt lat="43.37586946087605" lon="5.413408395017936"><ele>347.0</ele><time>2026-03-31T14:27:28Z</time></trkpt><trkpt lat="43.37593342120511" lon="5.413468687401521"><ele>347.0</ele><time>2026-03-31T14:27:31Z</time></trkpt><trkpt lat="43.37606868890853" lon="5.4133369693358935"><ele>347.0</ele><time>2026-03-31T14:27:33Z</time></trkpt><trkpt lat="43.37611974339147" lon="5.4133966851546855"><ele>347.0</ele><time>2026-03-31T14:27:36Z</time></trkpt><trkpt lat="43.376186005081344" lon="5.413461073454123"><ele>347.0</ele><time>2026-03-31T14:27:39Z</time></trkpt><trkpt lat="43.376251433753744" lon="5.413524650888153"><ele>347.0</ele><time>2026-03-31T14:27:42Z</time></trkpt><trkpt lat="43.376313124966096" lon="5.4135862773463455"><ele>346.83333333333337</ele><time>2026-03-31T14:27:45Z</time></trkpt><trkpt lat="43.3763782949715" lon="5.413662659799129"><ele>346.6666666666667</ele><time>2026-03-31T14:27:48Z</time></trkpt><trkpt lat="43.37642935802684" lon="5.413726886100982"><ele>346.5</ele><time>2026-03-31T14:27:51Z</time></trkpt><trkpt lat="43.37648091117661" lon="5.413813721074682"><ele>346.3333333333333</ele><time>2026-03-31T14:27:54Z</time></trkpt><trkpt lat="43.376553801028855" lon="5.413856545823452"><ele>346.16666666666663</ele><time>2026-03-31T14:27:57Z</time></trkpt><trkpt lat="43.376611361627646" lon="5.413916532174419"><ele>346.0</ele><time>2026-03-31T14:28:00Z</time></trkpt><trkpt lat="43.37667794319711" lon="5.413963459309686"><ele>347.8333333333333</ele><time>2026-03-31T14:28:03Z</time></trkpt><trkpt lat="43.37675124069135" lon="5.413996158124126"><ele>349.66666666666663</ele><time>2026-03-31T14:28:05.999Z</time></trkpt><trkpt lat="43.376815130611085" lon="5.4140498742564525"><ele>351.5</ele><time>2026-03-31T14:28:08.999Z</time></trkpt><trkpt lat="43.37688462269802" lon="5.414103760455766"><ele>353.3333333333333</ele><time>2026-03-31T14:28:11.999Z</time></trkpt><trkpt lat="43.37694762956589" lon="5.414150034311327"><ele>355.1666666666667</ele><time>2026-03-31T14:28:14.999Z</time></trkpt><trkpt lat="43.377020871106346" lon="5.4142089178021475"><ele>357.0</ele><time>2026-03-31T14:28:17.999Z</time></trkpt><trkpt lat="43.377090188282445" lon="5.414264350808329"><ele>357.0</ele><time>2026-03-31T14:28:20.999Z</time></trkpt><trkpt lat="43.37715544002266" lon="5.414322407060491"><ele>357.0</ele><time>2026-03-31T14:28:23.999Z</time></trkpt><trkpt lat="43.37720828640892" lon="5.414397424076442"><ele>357.0</ele><time>2026-03-31T14:28:26.999Z</time></trkpt><trkpt lat="43.37726480959551" lon="5.4144692090821005"><ele>357.0</ele><time>2026-03-31T14:28:29.999Z</time></trkpt><trkpt lat="43.37732416390603" lon="5.4145348316312525"><ele>357.0</ele><time>2026-03-31T14:28:32.999Z</time></trkpt><trkpt lat="43.37738848332889" lon="5.414594740415129"><ele>357.0</ele><time>2026-03-31T14:28:35.999Z</time></trkpt><trkpt lat="43.37745824027404" lon="5.414644544186149"><ele>357.14285714285717</ele><time>2026-03-31T14:28:38.999Z</time></trkpt><trkpt lat="43.377530248851905" lon="5.414682239346782"><ele>357.2857142857143</ele><time>2026-03-31T14:28:41.999Z</time></trkpt><trkpt lat="43.37761818101091" lon="5.414688624220293"><ele>357.42857142857144</ele><time>2026-03-31T14:28:44.999Z</time></trkpt><trkpt lat="43.377683278122255" lon="5.414716841113891"><ele>357.57142857142856</ele><time>2026-03-31T14:28:46.999Z</time></trkpt><trkpt lat="43.377750426184875" lon="5.4147337650277025"><ele>357.7142857142857</ele><time>2026-03-31T14:28:48.999Z</time></trkpt><trkpt lat="43.37781111260636" lon="5.414760475306815"><ele>357.8571428571429</ele><time>2026-03-31T14:28:50.999Z</time></trkpt><trkpt lat="43.377871631029954" lon="5.41479431769056"><ele>358.0</ele><time>2026-03-31T14:28:52.999Z</time></trkpt><trkpt lat="43.37793873850273" lon="5.4148154597299865"><ele>358.0</ele><time>2026-03-31T14:28:54.999Z</time></trkpt><trkpt lat="43.37800221585057" lon="5.4148541543430415"><ele>358.0</ele><time>2026-03-31T14:28:56.999Z</time></trkpt><trkpt lat="43.378062168631594" lon="5.414899435855156"><ele>358.0</ele><time>2026-03-31T14:28:58.999Z</time></trkpt><trkpt lat="43.378123134984826" lon="5.414929952987062"><ele>358.0</ele><time>2026-03-31T14:29:00.999Z</time></trkpt><trkpt lat="43.37820415246618" lon="5.414985077691161"><ele>358.0</ele><time>2026-03-31T14:29:04Z</time></trkpt><trkpt lat="43.37828561233453" lon="5.4150459389657914"><ele>358.0</ele><time>2026-03-31T14:29:07Z</time></trkpt><trkpt lat="43.37836583533893" lon="5.4151068162804705"><ele>359.16666666666663</ele><time>2026-03-31T14:29:10Z</time></trkpt><trkpt lat="43.37842396899781" lon="5.415146510685579"><ele>360.3333333333333</ele><time>2026-03-31T14:29:12Z</time></trkpt><trkpt lat="43.37850784791208" lon="5.415198189633158"><ele>361.5</ele><time>2026-03-31T14:29:15Z</time></trkpt><trkpt lat="43.37856877543027" lon="5.415220025434087"><ele>362.6666666666667</ele><time>2026-03-31T14:29:17Z</time></trkpt><trkpt lat="43.37862792797692" lon="5.41525309062771"><ele>363.83333333333337</ele><time>2026-03-31T14:29:19Z</time></trkpt><trkpt lat="43.378713168656205" lon="5.415285494389759"><ele>365.0</ele><time>2026-03-31T14:29:22Z</time></trkpt><trkpt lat="43.37879321809362" lon="5.415298583664405"><ele>365.33333333333337</ele><time>2026-03-31T14:29:25Z</time></trkpt><trkpt lat="43.37886271639175" lon="5.415364578123623"><ele>365.6666666666667</ele><time>2026-03-31T14:29:28Z</time></trkpt><trkpt lat="43.37891437678963" lon="5.415461037754328"><ele>366.0</ele><time>2026-03-31T14:29:31Z</time></trkpt><trkpt lat="43.37897591653553" lon="5.41554079052865"><ele>366.3333333333333</ele><time>2026-03-31T14:29:34Z</time></trkpt><trkpt lat="43.37904108174078" lon="5.4156234187499095"><ele>366.66666666666663</ele><time>2026-03-31T14:29:37Z</time></trkpt><trkpt lat="43.37911195840325" lon="5.415687680183537"><ele>367.0</ele><time>2026-03-31T14:29:40Z</time></trkpt><trkpt lat="43.379195701151296" lon="5.415711889987127"><ele>368.16666666666663</ele><time>2026-03-31T14:29:43Z</time></trkpt><trkpt lat="43.37927226115262" lon="5.41571964452787"><ele>369.3333333333333</ele><time>2026-03-31T14:29:46Z</time></trkpt><trkpt lat="43.379361884717696" lon="5.4157157765709405"><ele>370.5</ele><time>2026-03-31T14:29:49Z</time></trkpt><trkpt lat="43.37943591399046" lon="5.415754621501816"><ele>371.6666666666667</ele><time>2026-03-31T14:29:52Z</time></trkpt><trkpt lat="43.37951435167858" lon="5.415749930645059"><ele>372.83333333333337</ele><time>2026-03-31T14:29:55Z</time></trkpt><trkpt lat="43.379600988573955" lon="5.4157722171795095"><ele>374.0</ele><time>2026-03-31T14:29:58Z</time></trkpt><trkpt lat="43.37968582777787" lon="5.415792680182088"><ele>375.6666666666667</ele><time>2026-03-31T14:30:01Z</time></trkpt><trkpt lat="43.379764063227306" lon="5.415830715442166"><ele>377.33333333333337</ele><time>2026-03-31T14:30:04Z</time></trkpt><trkpt lat="43.37985049970171" lon="5.415819397592341"><ele>379.0</ele><time>2026-03-31T14:30:07Z</time></trkpt><trkpt lat="43.37993185851562" lon="5.415835645509672"><ele>380.6666666666667</ele><time>2026-03-31T14:30:09.999Z</time></trkpt><trkpt lat="43.38001557417202" lon="5.415847568148788"><ele>382.3333333333333</ele><time>2026-03-31T14:30:12.999Z</time></trkpt><trkpt lat="43.38010170051767" lon="5.415839415022007"><ele>384.0</ele><time>2026-03-31T14:30:15.999Z</time></trkpt><trkpt lat="43.380182476075184" lon="5.415834599447179"><ele>384.0</ele><time>2026-03-31T14:30:18.999Z</time></trkpt><trkpt lat="43.38026574826488" lon="5.415825428289493"><ele>384.0</ele><time>2026-03-31T14:30:21.999Z</time></trkpt><trkpt lat="43.380355470825634" lon="5.415816983160608"><ele>384.0</ele><time>2026-03-31T14:30:24.999Z</time></trkpt><trkpt lat="43.38043519280555" lon="5.415784832015685"><ele>384.0</ele><time>2026-03-31T14:30:27.999Z</time></trkpt><trkpt lat="43.38051640456348" lon="5.41577879242176"><ele>384.0</ele><time>2026-03-31T14:30:30.999Z</time></trkpt><trkpt lat="43.3805903690598" lon="5.4158389914824125"><ele>384.0</ele><time>2026-03-31T14:30:33.999Z</time></trkpt><trkpt lat="43.380572599428405" lon="5.415937115055481"><ele>383.99999999999994</ele><time>2026-03-31T14:30:35.999Z</time></trkpt><trkpt lat="43.380494493011334" lon="5.41595956113103"><ele>384.0</ele><time>2026-03-31T14:30:37.999Z</time></trkpt><trkpt lat="43.38042039906405" lon="5.415923385233358"><ele>384.0</ele><time>2026-03-31T14:30:39.999Z</time></trkpt><trkpt lat="43.380355807880385" lon="5.415949991170563"><ele>384.0</ele><time>2026-03-31T14:30:41.999Z</time></trkpt><trkpt lat="43.380285096107755" lon="5.415965838604791"><ele>384.0</ele><time>2026-03-31T14:30:43.999Z</time></trkpt><trkpt lat="43.38021386916245" lon="5.415969142758743"><ele>383.99999999999994</ele><time>2026-03-31T14:30:45.999Z</time></trkpt><trkpt lat="43.38015206559276" lon="5.41599244316674"><ele>384.0</ele><time>2026-03-31T14:30:47.999Z</time></trkpt><trkpt lat="43.38008005490363" lon="5.416034913382433"><ele>384.0</ele><time>2026-03-31T14:30:49.999Z</time></trkpt><trkpt lat="43.38001544094893" lon="5.416134238998645"><ele>384.0</ele><time>2026-03-31T14:30:51.999Z</time></trkpt><trkpt lat="43.37999182770269" lon="5.416261772175375"><ele>384.0</ele><time>2026-03-31T14:30:53.999Z</time></trkpt><trkpt lat="43.380034055005744" lon="5.416376673738353"><ele>384.0</ele><time>2026-03-31T14:30:55.999Z</time></trkpt><trkpt lat="43.38010076053381" lon="5.41644634940913"><ele>384.0</ele><time>2026-03-31T14:30:57.999Z</time></trkpt><trkpt lat="43.380150047547176" lon="5.416503613943731"><ele>384.0</ele><time>2026-03-31T14:30:59.999Z</time></trkpt><trkpt lat="43.38020172083327" lon="5.416561887433235"><ele>385.0</ele><time>2026-03-31T14:31:01.999Z</time></trkpt><trkpt lat="43.38025083871343" lon="5.416619691511107"><ele>386.0</ele><time>2026-03-31T14:31:03.999Z</time></trkpt><trkpt lat="43.380315193659214" lon="5.41670852421341"><ele>387.0</ele><time>2026-03-31T14:31:06.999Z</time></trkpt><trkpt lat="43.380384501567455" lon="5.416806963028237"><ele>388.0</ele><time>2026-03-31T14:31:10Z</time></trkpt><trkpt lat="43.380438387969214" lon="5.416869645390364"><ele>389.0</ele><time>2026-03-31T14:31:12Z</time></trkpt><trkpt lat="43.38049389625195" lon="5.416927023226286"><ele>390.0</ele><time>2026-03-31T14:31:14Z</time></trkpt><trkpt lat="43.38055091094806" lon="5.416978732912203"><ele>391.5</ele><time>2026-03-31T14:31:16Z</time></trkpt><trkpt lat="43.3806309364339" lon="5.417052576551025"><ele>393.0</ele><time>2026-03-31T14:31:19Z</time></trkpt><trkpt lat="43.38068454992044" lon="5.417102048546069"><ele>394.5</ele><time>2026-03-31T14:31:21Z</time></trkpt><trkpt lat="43.3807624205944" lon="5.417173903892636"><ele>396.0</ele><time>2026-03-31T14:31:24Z</time></trkpt><trkpt lat="43.380839113955325" lon="5.417244966261592"><ele>397.5</ele><time>2026-03-31T14:31:27Z</time></trkpt><trkpt lat="43.380916362918114" lon="5.417312249753815"><ele>399.0</ele><time>2026-03-31T14:31:30Z</time></trkpt><trkpt lat="43.380975291669536" lon="5.417363206618581"><ele>399.0</ele><time>2026-03-31T14:31:32Z</time></trkpt><trkpt lat="43.38105424463073" lon="5.4174103127857425"><ele>399.0</ele><time>2026-03-31T14:31:35Z</time></trkpt><trkpt lat="43.38112438225107" lon="5.4174818086440855"><ele>399.0</ele><time>2026-03-31T14:31:38Z</time></trkpt><trkpt lat="43.381202932633684" lon="5.417542976570223"><ele>399.0</ele><time>2026-03-31T14:31:41Z</time></trkpt><trkpt lat="43.38125809680098" lon="5.417586245409018"><ele>399.0</ele><time>2026-03-31T14:31:43Z</time></trkpt><trkpt lat="43.38134207768206" lon="5.41763698391"><ele>399.0</ele><time>2026-03-31T14:31:46Z</time></trkpt><trkpt lat="43.38141096759404" lon="5.417691152496475"><ele>401.5</ele><time>2026-03-31T14:31:49Z</time></trkpt><trkpt lat="43.381487181113314" lon="5.417750174285879"><ele>404.0</ele><time>2026-03-31T14:31:52Z</time></trkpt><trkpt lat="43.38154164534988" lon="5.417794519635045"><ele>406.5</ele><time>2026-03-31T14:31:54Z</time></trkpt><trkpt lat="43.38161401919521" lon="5.417870194385151"><ele>409.0</ele><time>2026-03-31T14:31:57Z</time></trkpt><trkpt lat="43.38169524211106" lon="5.417934723441267"><ele>411.5</ele><time>2026-03-31T14:32:00Z</time></trkpt><trkpt lat="43.38175260097331" lon="5.417978979708495"><ele>414.0</ele><time>2026-03-31T14:32:02Z</time></trkpt><trkpt lat="43.3818093129144" lon="5.418022736856355"><ele>414.0</ele><time>2026-03-31T14:32:04Z</time></trkpt><trkpt lat="43.381865215079124" lon="5.418065869162538"><ele>414.0</ele><time>2026-03-31T14:32:05.999Z</time></trkpt><trkpt lat="43.381946287759625" lon="5.418134559842809"><ele>414.0</ele><time>2026-03-31T14:32:08.999Z</time></trkpt><trkpt lat="43.38201601970112" lon="5.418202688153808"><ele>414.0</ele><time>2026-03-31T14:32:11.999Z</time></trkpt><trkpt lat="43.382085331342594" lon="5.418274007971712"><ele>414.0</ele><time>2026-03-31T14:32:14.999Z</time></trkpt><trkpt lat="43.38215970491903" lon="5.418348260593713"><ele>414.0</ele><time>2026-03-31T14:32:17.999Z</time></trkpt><trkpt lat="43.382213123039584" lon="5.418396501498444"><ele>417.1666666666667</ele><time>2026-03-31T14:32:19.999Z</time></trkpt><trkpt lat="43.382269148719566" lon="5.418443028053242"><ele>420.33333333333337</ele><time>2026-03-31T14:32:21.999Z</time></trkpt><trkpt lat="43.382349132806524" lon="5.418505767874323"><ele>423.5</ele><time>2026-03-31T14:32:24.999Z</time></trkpt><trkpt lat="43.38242834761207" lon="5.418567904253661"><ele>426.6666666666667</ele><time>2026-03-31T14:32:27.999Z</time></trkpt><trkpt lat="43.382505851275965" lon="5.4186097816895655"><ele>429.83333333333337</ele><time>2026-03-31T14:32:30.999Z</time></trkpt><trkpt lat="43.38256115031171" lon="5.418714249582653"><ele>433.0</ele><time>2026-03-31T14:32:33.999Z</time></trkpt><trkpt lat="43.382570167616116" lon="5.41884059454633"><ele>433.1666666666667</ele><time>2026-03-31T14:32:36.999Z</time></trkpt><trkpt lat="43.38250541322168" lon="5.418897949631917"><ele>433.33333333333337</ele><time>2026-03-31T14:32:39.999Z</time></trkpt><trkpt lat="43.382424499862225" lon="5.418941980024523"><ele>433.5</ele><time>2026-03-31T14:32:42.999Z</time></trkpt><trkpt lat="43.38234411086044" lon="5.418996320422828"><ele>433.66666666666663</ele><time>2026-03-31T14:32:45.999Z</time></trkpt><trkpt lat="43.38226164038389" lon="5.419035428068143"><ele>433.8333333333333</ele><time>2026-03-31T14:32:48.999Z</time></trkpt><trkpt lat="43.382173337095686" lon="5.41907879052579"><ele>434.0</ele><time>2026-03-31T14:32:51.999Z</time></trkpt><trkpt lat="43.382120919903166" lon="5.4191284493774345"><ele>432.16666666666663</ele><time>2026-03-31T14:32:53.999Z</time></trkpt><trkpt lat="43.382069368461174" lon="5.419224276153189"><ele>430.3333333333333</ele><time>2026-03-31T14:32:56.999Z</time></trkpt><trkpt lat="43.38200211990404" lon="5.419300181169674"><ele>428.5</ele><time>2026-03-31T14:32:59.999Z</time></trkpt><trkpt lat="43.381952400580495" lon="5.419387158747388"><ele>426.66666666666663</ele><time>2026-03-31T14:33:02.999Z</time></trkpt><trkpt lat="43.38190580268522" lon="5.419496699576573"><ele>424.8333333333333</ele><time>2026-03-31T14:33:05.999Z</time></trkpt><trkpt lat="43.38185323790661" lon="5.419579193819106"><ele>423.0</ele><time>2026-03-31T14:33:08.999Z</time></trkpt><trkpt lat="43.38179025223678" lon="5.419638044754326"><ele>423.0</ele><time>2026-03-31T14:33:11.999Z</time></trkpt><trkpt lat="43.38173310503407" lon="5.419677544401564"><ele>423.0</ele><time>2026-03-31T14:33:13.998Z</time></trkpt><trkpt lat="43.38164710134733" lon="5.419660925176282"><ele>423.0</ele><time>2026-03-31T14:33:17Z</time></trkpt><trkpt lat="43.38158291493788" lon="5.419623263034987"><ele>423.0</ele><time>2026-03-31T14:33:19Z</time></trkpt><trkpt lat="43.381518899451166" lon="5.419605996311574"><ele>423.0</ele><time>2026-03-31T14:33:21Z</time></trkpt><trkpt lat="43.3814525674176" lon="5.419592398677124"><ele>423.0</ele><time>2026-03-31T14:33:23Z</time></trkpt><trkpt lat="43.3813804940507" lon="5.419609126961497"><ele>423.0</ele><time>2026-03-31T14:33:25Z</time></trkpt><trkpt lat="43.381310422725676" lon="5.419604691980652"><ele>422.85714285714283</ele><time>2026-03-31T14:33:27Z</time></trkpt><trkpt lat="43.38123969211939" lon="5.419608895603105"><ele>422.7142857142857</ele><time>2026-03-31T14:33:29Z</time></trkpt><trkpt lat="43.38117096858228" lon="5.419619873952755"><ele>422.57142857142856</ele><time>2026-03-31T14:33:31Z</time></trkpt><trkpt lat="43.38110751000109" lon="5.419623159139971"><ele>422.42857142857144</ele><time>2026-03-31T14:33:33Z</time></trkpt><trkpt lat="43.38103607377114" lon="5.41963752143874"><ele>422.28571428571433</ele><time>2026-03-31T14:33:35Z</time></trkpt><trkpt lat="43.38095976729707" lon="5.419632220397315"><ele>422.14285714285717</ele><time>2026-03-31T14:33:37Z</time></trkpt><trkpt lat="43.38089256432607" lon="5.419648533615921"><ele>422.0</ele><time>2026-03-31T14:33:39Z</time></trkpt><trkpt lat="43.380828298548515" lon="5.419665881525659"><ele>424.49999999999994</ele><time>2026-03-31T14:33:41Z</time></trkpt><trkpt lat="43.380765064684724" lon="5.419684542018952"><ele>427.0</ele><time>2026-03-31T14:33:43Z</time></trkpt><trkpt lat="43.38069607657049" lon="5.419709387473201"><ele>429.5</ele><time>2026-03-31T14:33:45Z</time></trkpt><trkpt lat="43.38062537464195" lon="5.4197371946158155"><ele>432.0</ele><time>2026-03-31T14:33:47Z</time></trkpt><trkpt lat="43.38055721687795" lon="5.41976857766315"><ele>434.49999999999994</ele><time>2026-03-31T14:33:49Z</time></trkpt><trkpt lat="43.38049044459226" lon="5.419806575722412"><ele>437.0</ele><time>2026-03-31T14:33:51Z</time></trkpt><trkpt lat="43.380394363104166" lon="5.419880102195245"><ele>436.99999999999994</ele><time>2026-03-31T14:33:54Z</time></trkpt><trkpt lat="43.38032411163612" lon="5.419956635925266"><ele>437.0</ele><time>2026-03-31T14:33:57Z</time></trkpt><trkpt lat="43.38026949145443" lon="5.420030541126566"><ele>437.0</ele><time>2026-03-31T14:34:00Z</time></trkpt><trkpt lat="43.38023773245877" lon="5.420110473400201"><ele>437.0</ele><time>2026-03-31T14:34:03Z</time></trkpt><trkpt lat="43.38023574873968" lon="5.42019913308842"><ele>436.99999999999994</ele><time>2026-03-31T14:34:35.999Z</time></trkpt><trkpt lat="43.38021392291542" lon="5.420316180499341"><ele>437.0</ele><time>2026-03-31T14:34:38.999Z</time></trkpt><trkpt lat="43.380209982355694" lon="5.420411027431633"><ele>437.16666666666663</ele><time>2026-03-31T14:34:40.999Z</time></trkpt><trkpt lat="43.380207130872655" lon="5.420546181225997"><ele>437.3333333333333</ele><time>2026-03-31T14:34:43.999Z</time></trkpt><trkpt lat="43.380204147343726" lon="5.420655895111201"><ele>437.5</ele><time>2026-03-31T14:34:45.999Z</time></trkpt><trkpt lat="43.380199177901034" lon="5.420766531667288"><ele>437.66666666666663</ele><time>2026-03-31T14:34:47.999Z</time></trkpt><trkpt lat="43.38019186894416" lon="5.420884637696357"><ele>437.8333333333333</ele><time>2026-03-31T14:34:49.999Z</time></trkpt><trkpt lat="43.380184215558316" lon="5.421006782949854"><ele>438.0</ele><time>2026-03-31T14:34:51.999Z</time></trkpt><trkpt lat="43.38017604325236" lon="5.42112498594984"><ele>438.0</ele><time>2026-03-31T14:34:53.999Z</time></trkpt><trkpt lat="43.38016716061122" lon="5.421249611099166"><ele>438.0</ele><time>2026-03-31T14:34:56.999Z</time></trkpt><trkpt lat="43.380155885827676" lon="5.421381234073901"><ele>438.0</ele><time>2026-03-31T14:34:59.999Z</time></trkpt><trkpt lat="43.38014567535944" lon="5.421500432426706"><ele>438.0</ele><time>2026-03-31T14:35:02.999Z</time></trkpt><trkpt lat="43.380132223702084" lon="5.4216080897749155"><ele>438.0</ele><time>2026-03-31T14:35:05.999Z</time></trkpt><trkpt lat="43.380111658758615" lon="5.421701429590525"><ele>438.0</ele><time>2026-03-31T14:35:07.999Z</time></trkpt><trkpt lat="43.38007649987674" lon="5.421812433717398"><ele>438.79999999999995</ele><time>2026-03-31T14:35:09.999Z</time></trkpt><trkpt lat="43.3800332554776" lon="5.421925751370497"><ele>439.59999999999997</ele><time>2026-03-31T14:35:11.999Z</time></trkpt><trkpt lat="43.37996872333659" lon="5.422061579020501"><ele>440.40000000000003</ele><time>2026-03-31T14:35:13.999Z</time></trkpt><trkpt lat="43.37988039505175" lon="5.422178369649426"><ele>441.20000000000005</ele><time>2026-03-31T14:35:15.999Z</time></trkpt><trkpt lat="43.37982762077913" lon="5.422238341391697"><ele>442.0</ele><time>2026-03-31T14:35:16.999Z</time></trkpt><trkpt lat="43.37978586933911" lon="5.42230812089829"><ele>443.5714285714286</ele><time>2026-03-31T14:35:17.999Z</time></trkpt><trkpt lat="43.379727177040785" lon="5.422352729648825"><ele>445.1428571428571</ele><time>2026-03-31T14:35:18.999Z</time></trkpt><trkpt lat="43.37967142292002" lon="5.4224065387274285"><ele>446.71428571428567</ele><time>2026-03-31T14:35:19.999Z</time></trkpt><trkpt lat="43.37962156738055" lon="5.422464691942158"><ele>448.2857142857143</ele><time>2026-03-31T14:35:21Z</time></trkpt><trkpt lat="43.37957664504701" lon="5.422527898532981"><ele>449.85714285714283</ele><time>2026-03-31T14:35:22Z</time></trkpt><trkpt lat="43.37953280811409" lon="5.422609760052808"><ele>451.4285714285714</ele><time>2026-03-31T14:35:23Z</time></trkpt><trkpt lat="43.3795031725687" lon="5.422695395080015"><ele>452.99999999999994</ele><time>2026-03-31T14:35:24Z</time></trkpt><trkpt lat="43.3794865555202" lon="5.422790712922447"><ele>449.0</ele><time>2026-03-31T14:35:25Z</time></trkpt><trkpt lat="43.379450623409404" lon="5.422878299480544"><ele>445.0</ele><time>2026-03-31T14:35:26Z</time></trkpt><trkpt lat="43.37943123359039" lon="5.422975808600255"><ele>441.0</ele><time>2026-03-31T14:35:27Z</time></trkpt><trkpt lat="43.379416868642764" lon="5.423074928841193"><ele>437.0</ele><time>2026-03-31T14:35:28Z</time></trkpt><trkpt lat="43.37940787967005" lon="5.423170235324886"><ele>433.0</ele><time>2026-03-31T14:35:29Z</time></trkpt><trkpt lat="43.379396165209755" lon="5.4232640050577015"><ele>429.0</ele><time>2026-03-31T14:35:30Z</time></trkpt><trkpt lat="43.37939034355767" lon="5.423431374587023"><ele>429.0</ele><time>2026-03-31T14:35:32Z</time></trkpt><trkpt lat="43.37944631060383" lon="5.423511604236585"><ele>429.0</ele><time>2026-03-31T14:35:33Z</time></trkpt><trkpt lat="43.37956148124335" lon="5.42367824819929"><ele>429.0</ele><time>2026-03-31T14:35:36Z</time></trkpt><trkpt lat="43.37964326771559" lon="5.423778835342275"><ele>429.0</ele><time>2026-03-31T14:35:38Z</time></trkpt><trkpt lat="43.3797353450244" lon="5.423856319089674"><ele>431.0</ele><time>2026-03-31T14:35:40Z</time></trkpt><trkpt lat="43.3798184240147" lon="5.423945901114973"><ele>433.0</ele><time>2026-03-31T14:35:42Z</time></trkpt><trkpt lat="43.379900205152666" lon="5.424022580996476"><ele>435.0</ele><time>2026-03-31T14:35:44Z</time></trkpt><trkpt lat="43.3799766956377" lon="5.4240990173066335"><ele>437.0</ele><time>2026-03-31T14:35:46Z</time></trkpt><trkpt lat="43.38005156381458" lon="5.424182887914518"><ele>439.0</ele><time>2026-03-31T14:35:48Z</time></trkpt><trkpt lat="43.38013678068708" lon="5.424236635936962"><ele>439.0</ele><time>2026-03-31T14:35:50Z</time></trkpt><trkpt lat="43.38022351564665" lon="5.424305339365271"><ele>439.0</ele><time>2026-03-31T14:35:52Z</time></trkpt><trkpt lat="43.38031730265522" lon="5.42437847381096"><ele>439.0</ele><time>2026-03-31T14:35:54Z</time></trkpt><trkpt lat="43.38041160189596" lon="5.424455662418925"><ele>439.0</ele><time>2026-03-31T14:35:56Z</time></trkpt><trkpt lat="43.38051241432366" lon="5.4245449718625744"><ele>439.0</ele><time>2026-03-31T14:35:58Z</time></trkpt><trkpt lat="43.38059077847637" lon="5.424648264210874"><ele>440.0</ele><time>2026-03-31T14:36:00Z</time></trkpt><trkpt lat="43.380677458032096" lon="5.424748678566878"><ele>441.0</ele><time>2026-03-31T14:36:02Z</time></trkpt><trkpt lat="43.38077077929203" lon="5.424847516802093"><ele>442.0</ele><time>2026-03-31T14:36:04Z</time></trkpt><trkpt lat="43.380835331677844" lon="5.4249871225452"><ele>443.0</ele><time>2026-03-31T14:36:06Z</time></trkpt><trkpt lat="43.380836154832586" lon="5.4251372138321114"><ele>443.0</ele><time>2026-03-31T14:36:08Z</time></trkpt><trkpt lat="43.380864158402886" lon="5.425282060104451"><ele>442.99999999999994</ele><time>2026-03-31T14:36:10Z</time></trkpt><trkpt lat="43.380862280546815" lon="5.425433412042885"><ele>442.99999999999994</ele><time>2026-03-31T14:36:12Z</time></trkpt><trkpt lat="43.380864312948326" lon="5.425592735573477"><ele>443.0</ele><time>2026-03-31T14:36:14Z</time></trkpt><trkpt lat="43.38084553956879" lon="5.425724661858052"><ele>443.0</ele><time>2026-03-31T14:36:16Z</time></trkpt><trkpt lat="43.380773938737995" lon="5.425834793641021"><ele>442.59999999999997</ele><time>2026-03-31T14:36:18Z</time></trkpt><trkpt lat="43.380673562670836" lon="5.42590781408732"><ele>442.19999999999993</ele><time>2026-03-31T14:36:19.999Z</time></trkpt><trkpt lat="43.380565438461254" lon="5.4259636417957475"><ele>441.8</ele><time>2026-03-31T14:36:21.999Z</time></trkpt><trkpt lat="43.380479385148725" lon="5.426056487214503"><ele>441.4</ele><time>2026-03-31T14:36:23.999Z</time></trkpt><trkpt lat="43.38042077242245" lon="5.426089566327173"><ele>441.0</ele><time>2026-03-31T14:36:24.999Z</time></trkpt><trkpt lat="43.38038225163119" lon="5.426163182866745"><ele>439.8</ele><time>2026-03-31T14:36:25.999Z</time></trkpt><trkpt lat="43.38027958558758" lon="5.426249851300848"><ele>438.6</ele><time>2026-03-31T14:36:27.999Z</time></trkpt><trkpt lat="43.38017578621102" lon="5.426309664934263"><ele>437.4</ele><time>2026-03-31T14:36:29.999Z</time></trkpt><trkpt lat="43.38007591897332" lon="5.4263574884325525"><ele>436.2</ele><time>2026-03-31T14:36:31.999Z</time></trkpt><trkpt lat="43.37997863072437" lon="5.426413812869938"><ele>435.0</ele><time>2026-03-31T14:36:33.999Z</time></trkpt><trkpt lat="43.37991070712557" lon="5.426541087989736"><ele>435.0</ele><time>2026-03-31T14:36:35.999Z</time></trkpt><trkpt lat="43.37986143238757" lon="5.426682939671978"><ele>435.0</ele><time>2026-03-31T14:36:37.999Z</time></trkpt><trkpt lat="43.3798327412931" lon="5.426829087176697"><ele>435.0</ele><time>2026-03-31T14:36:39.999Z</time></trkpt><trkpt lat="43.37977578595789" lon="5.426970656168726"><ele>435.0</ele><time>2026-03-31T14:36:41.999Z</time></trkpt><trkpt lat="43.37972777524391" lon="5.427127253364088"><ele>436.4</ele><time>2026-03-31T14:36:43.999Z</time></trkpt><trkpt lat="43.37969854138899" lon="5.4272812364527105"><ele>437.8</ele><time>2026-03-31T14:36:45.999Z</time></trkpt><trkpt lat="43.37965764529333" lon="5.42734783428551"><ele>439.20000000000005</ele><time>2026-03-31T14:36:46.999Z</time></trkpt><trkpt lat="43.379610533345144" lon="5.427492764373977"><ele>440.6</ele><time>2026-03-31T14:36:48.999Z</time></trkpt><trkpt lat="43.37951929565796" lon="5.427599840713202"><ele>442.0</ele><time>2026-03-31T14:36:50.999Z</time></trkpt><trkpt lat="43.37946748964931" lon="5.427650103739225"><ele>439.5714285714286</ele><time>2026-03-31T14:36:51.999Z</time></trkpt><trkpt lat="43.37940779492139" lon="5.427694569262432"><ele>437.14285714285717</ele><time>2026-03-31T14:36:52.999Z</time></trkpt><trkpt lat="43.37935660897955" lon="5.427757663030116"><ele>434.7142857142857</ele><time>2026-03-31T14:36:53.999Z</time></trkpt><trkpt lat="43.37928798009801" lon="5.427785777640548"><ele>432.28571428571433</ele><time>2026-03-31T14:36:54.999Z</time></trkpt><trkpt lat="43.379223358390725" lon="5.427834970607337"><ele>429.85714285714283</ele><time>2026-03-31T14:36:55.999Z</time></trkpt><trkpt lat="43.37916265312564" lon="5.427904358709257"><ele>427.42857142857144</ele><time>2026-03-31T14:36:56.999Z</time></trkpt><trkpt lat="43.37909509264421" lon="5.427959602173825"><ele>425.0</ele><time>2026-03-31T14:36:57.999Z</time></trkpt><trkpt lat="43.379033180554444" lon="5.428008633583486"><ele>424.99999999999994</ele><time>2026-03-31T14:36:58.999Z</time></trkpt><trkpt lat="43.37895386274208" lon="5.428138601866813"><ele>425.0</ele><time>2026-03-31T14:37:00.999Z</time></trkpt><trkpt lat="43.37896056492138" lon="5.428229370855696"><ele>425.0</ele><time>2026-03-31T14:37:01.999Z</time></trkpt><trkpt lat="43.3789911979163" lon="5.4283138887487485"><ele>425.0</ele><time>2026-03-31T14:37:02.999Z</time></trkpt><trkpt lat="43.379039856703024" lon="5.4283882615020085"><ele>424.99999999999994</ele><time>2026-03-31T14:37:03.999Z</time></trkpt><trkpt lat="43.37909451357568" lon="5.428442906545396"><ele>425.0</ele><time>2026-03-31T14:37:04.999Z</time></trkpt><trkpt lat="43.379202438490566" lon="5.4285313463503035"><ele>424.99999999999994</ele><time>2026-03-31T14:37:06.999Z</time></trkpt><trkpt lat="43.379264797117536" lon="5.428559745864124"><ele>425.0</ele><time>2026-03-31T14:37:07.999Z</time></trkpt><trkpt lat="43.37932128968264" lon="5.4286092972814615"><ele>425.0</ele><time>2026-03-31T14:37:08.999Z</time></trkpt><trkpt lat="43.37937915618405" lon="5.428649080262839"><ele>425.0</ele><time>2026-03-31T14:37:09.999Z</time></trkpt><trkpt lat="43.3794431300844" lon="5.428673235624207"><ele>424.99999999999994</ele><time>2026-03-31T14:37:10.999Z</time></trkpt><trkpt lat="43.379537969809554" lon="5.428774203122285"><ele>425.0</ele><time>2026-03-31T14:37:12.999Z</time></trkpt><trkpt lat="43.379642688751645" lon="5.428859085049097"><ele>423.8333333333333</ele><time>2026-03-31T14:37:14.999Z</time></trkpt><trkpt lat="43.37970085786284" lon="5.428906155339407"><ele>422.66666666666663</ele><time>2026-03-31T14:37:15.999Z</time></trkpt><trkpt lat="43.379823361249606" lon="5.428972445982384"><ele>421.5</ele><time>2026-03-31T14:37:17.999Z</time></trkpt><trkpt lat="43.37987975607233" lon="5.429011428258432"><ele>420.33333333333337</ele><time>2026-03-31T14:37:18.999Z</time></trkpt><trkpt lat="43.379930853869205" lon="5.4290696658549535"><ele>419.1666666666667</ele><time>2026-03-31T14:37:19.999Z</time></trkpt><trkpt lat="43.37998896901362" lon="5.429108013752628"><ele>418.0</ele><time>2026-03-31T14:37:20.999Z</time></trkpt><trkpt lat="43.380050989684" lon="5.429150216128506"><ele>418.00000000000006</ele><time>2026-03-31T14:37:21.999Z</time></trkpt><trkpt lat="43.380108428228404" lon="5.429206281291919"><ele>418.0</ele><time>2026-03-31T14:37:22.999Z</time></trkpt><trkpt lat="43.38017647000762" lon="5.429232377652871"><ele>418.0</ele><time>2026-03-31T14:37:23.999Z</time></trkpt><trkpt lat="43.38024130815184" lon="5.429267331172259"><ele>418.0</ele><time>2026-03-31T14:37:24.999Z</time></trkpt><trkpt lat="43.38030908976215" lon="5.429297119236555"><ele>418.00000000000006</ele><time>2026-03-31T14:37:25.999Z</time></trkpt><trkpt lat="43.38043140187681" lon="5.429336027501661"><ele>418.0</ele><time>2026-03-31T14:37:28Z</time></trkpt><trkpt lat="43.380490054555274" lon="5.429379334474886"><ele>418.00000000000006</ele><time>2026-03-31T14:37:29Z</time></trkpt><trkpt lat="43.38059851117399" lon="5.429423456053667"><ele>418.0</ele><time>2026-03-31T14:37:31Z</time></trkpt><trkpt lat="43.380660959130076" lon="5.4295526446862565"><ele>418.0</ele><time>2026-03-31T14:37:33Z</time></trkpt><trkpt lat="43.38065985465814" lon="5.429644292575989"><ele>418.0</ele><time>2026-03-31T14:37:34Z</time></trkpt><trkpt lat="43.380672565324055" lon="5.429729359594612"><ele>418.00000000000006</ele><time>2026-03-31T14:37:35Z</time></trkpt><trkpt lat="43.38066106429402" lon="5.4298175435023195"><ele>418.0</ele><time>2026-03-31T14:37:36Z</time></trkpt><trkpt lat="43.380633205606046" lon="5.429907674200281"><ele>418.00000000000006</ele><time>2026-03-31T14:37:37Z</time></trkpt><trkpt lat="43.38055843959145" lon="5.42996581489877"><ele>418.0</ele><time>2026-03-31T14:37:38Z</time></trkpt><trkpt lat="43.38049066227109" lon="5.430023435039594"><ele>418.0</ele><time>2026-03-31T14:37:39Z</time></trkpt><trkpt lat="43.38043453087078" lon="5.430099985987037"><ele>418.0</ele><time>2026-03-31T14:37:40Z</time></trkpt><trkpt lat="43.380383511702384" lon="5.430198111004348"><ele>418.00000000000006</ele><time>2026-03-31T14:37:41Z</time></trkpt><trkpt lat="43.38033055840219" lon="5.430293351113199"><ele>418.0</ele><time>2026-03-31T14:37:42Z</time></trkpt><trkpt lat="43.38027497697375" lon="5.430379337765829"><ele>416.00000000000006</ele><time>2026-03-31T14:37:43Z</time></trkpt><trkpt lat="43.38021537137267" lon="5.430454591434011"><ele>414.0</ele><time>2026-03-31T14:37:44Z</time></trkpt><trkpt lat="43.38014253363355" lon="5.430515564076575"><ele>412.0</ele><time>2026-03-31T14:37:45Z</time></trkpt><trkpt lat="43.38005789118952" lon="5.430554887383742"><ele>410.0</ele><time>2026-03-31T14:37:46Z</time></trkpt><trkpt lat="43.37997511900828" lon="5.430598882253842"><ele>408.00000000000006</ele><time>2026-03-31T14:37:47Z</time></trkpt><trkpt lat="43.3798920684282" lon="5.430621714377362"><ele>406.0</ele><time>2026-03-31T14:37:48Z</time></trkpt><trkpt lat="43.37980494567041" lon="5.430608198798478"><ele>405.50000000000006</ele><time>2026-03-31T14:37:49Z</time></trkpt><trkpt lat="43.37972267823424" lon="5.430574525875305"><ele>405.0</ele><time>2026-03-31T14:37:50Z</time></trkpt><trkpt lat="43.37964258426114" lon="5.430566216559474"><ele>404.5</ele><time>2026-03-31T14:37:51Z</time></trkpt><trkpt lat="43.37956377801096" lon="5.430548364332134"><ele>404.0</ele><time>2026-03-31T14:37:52Z</time></trkpt><trkpt lat="43.37948824743454" lon="5.430536104328494"><ele>403.50000000000006</ele><time>2026-03-31T14:37:53Z</time></trkpt><trkpt lat="43.37941862221475" lon="5.430521395630076"><ele>403.0</ele><time>2026-03-31T14:37:54Z</time></trkpt><trkpt lat="43.37935300771145" lon="5.430516618126749"><ele>401.2857142857143</ele><time>2026-03-31T14:37:55Z</time></trkpt><trkpt lat="43.37928921278569" lon="5.4305368938733665"><ele>399.57142857142856</ele><time>2026-03-31T14:37:56Z</time></trkpt><trkpt lat="43.37921979534429" lon="5.43056198627567"><ele>397.85714285714283</ele><time>2026-03-31T14:37:57Z</time></trkpt><trkpt lat="43.37917309787789" lon="5.430655616219451"><ele>396.1428571428571</ele><time>2026-03-31T14:37:58Z</time></trkpt><trkpt lat="43.37911033475131" lon="5.4307145210529155"><ele>394.42857142857144</ele><time>2026-03-31T14:37:59Z</time></trkpt><trkpt lat="43.37906092532973" lon="5.4307941623127"><ele>392.71428571428567</ele><time>2026-03-31T14:38:00Z</time></trkpt><trkpt lat="43.37902467311091" lon="5.430887062326835"><ele>391.0</ele><time>2026-03-31T14:38:01Z</time></trkpt><trkpt lat="43.378985418891986" lon="5.430976482650776"><ele>391.00000000000006</ele><time>2026-03-31T14:38:02Z</time></trkpt><trkpt lat="43.37893090038276" lon="5.431051354211116"><ele>391.0</ele><time>2026-03-31T14:38:03Z</time></trkpt><trkpt lat="43.378891823588226" lon="5.431136091124559"><ele>391.0</ele><time>2026-03-31T14:38:04Z</time></trkpt><trkpt lat="43.37885038135147" lon="5.431225957823396"><ele>391.0</ele><time>2026-03-31T14:38:05Z</time></trkpt><trkpt lat="43.37880660156436" lon="5.431320893148334"><ele>391.00000000000006</ele><time>2026-03-31T14:38:06Z</time></trkpt><trkpt lat="43.378761105785465" lon="5.431416323833788"><ele>391.0</ele><time>2026-03-31T14:38:07Z</time></trkpt><trkpt lat="43.37871142003845" lon="5.431516424441046"><ele>388.4</ele><time>2026-03-31T14:38:08Z</time></trkpt><trkpt lat="43.3786558488464" lon="5.431612997169001"><ele>385.8</ele><time>2026-03-31T14:38:09Z</time></trkpt><trkpt lat="43.37859337811045" lon="5.431713971876123"><ele>383.2</ele><time>2026-03-31T14:38:10Z</time></trkpt><trkpt lat="43.37854156233394" lon="5.431824539004792"><ele>380.59999999999997</ele><time>2026-03-31T14:38:11Z</time></trkpt><trkpt lat="43.378478360671316" lon="5.431941883479577"><ele>378.0</ele><time>2026-03-31T14:38:12Z</time></trkpt><trkpt lat="43.37840797710872" lon="5.432036250476811"><ele>378.0</ele><time>2026-03-31T14:38:13Z</time></trkpt><trkpt lat="43.37835732061649" lon="5.432134706037537"><ele>378.0</ele><time>2026-03-31T14:38:14Z</time></trkpt><trkpt lat="43.37832570839978" lon="5.432223906928895"><ele>378.0</ele><time>2026-03-31T14:38:15Z</time></trkpt><trkpt lat="43.37829152106177" lon="5.432312603552489"><ele>378.0</ele><time>2026-03-31T14:38:16Z</time></trkpt><trkpt lat="43.37825385313672" lon="5.432387151322326"><ele>378.0</ele><time>2026-03-31T14:38:17Z</time></trkpt><trkpt lat="43.378180788533356" lon="5.432481633012418"><ele>378.0</ele><time>2026-03-31T14:38:19Z</time></trkpt><trkpt lat="43.378178896061364" lon="5.432661855532159"><ele>377.79999999999995</ele><time>2026-03-31T14:38:21Z</time></trkpt><trkpt lat="43.37812638078833" lon="5.432784231950951"><ele>377.6</ele><time>2026-03-31T14:38:23Z</time></trkpt><trkpt lat="43.37810635066842" lon="5.432923718199832"><ele>377.4</ele><time>2026-03-31T14:38:24.999Z</time></trkpt><trkpt lat="43.378189713145034" lon="5.433042991922527"><ele>377.20000000000005</ele><time>2026-03-31T14:38:26.999Z</time></trkpt><trkpt lat="43.378266386455266" lon="5.433020472181497"><ele>377.0</ele><time>2026-03-31T14:38:27.999Z</time></trkpt><trkpt lat="43.37832761190264" lon="5.4329579163253685"><ele>376.99999999999994</ele><time>2026-03-31T14:38:28.999Z</time></trkpt><trkpt lat="43.378397085962746" lon="5.432941748250501"><ele>377.0</ele><time>2026-03-31T14:38:29.999Z</time></trkpt><trkpt lat="43.378462029126965" lon="5.432937620278383"><ele>377.0</ele><time>2026-03-31T14:38:30.999Z</time></trkpt><trkpt lat="43.37853596239106" lon="5.432958953934124"><ele>377.0</ele><time>2026-03-31T14:38:31.999Z</time></trkpt><trkpt lat="43.37860275266599" lon="5.43299313071885"><ele>377.0</ele><time>2026-03-31T14:38:32.999Z</time></trkpt><trkpt lat="43.37865906661648" lon="5.433042591560601"><ele>376.99999999999994</ele><time>2026-03-31T14:38:33.999Z</time></trkpt><trkpt lat="43.37867747651423" lon="5.433130459549551"><ele>377.0</ele><time>2026-03-31T14:38:34.999Z</time></trkpt><trkpt lat="43.378646749331054" lon="5.433217612461146"><ele>375.6</ele><time>2026-03-31T14:38:35.999Z</time></trkpt><trkpt lat="43.37861566173167" lon="5.433349444692157"><ele>374.20000000000005</ele><time>2026-03-31T14:38:37.999Z</time></trkpt><trkpt lat="43.378586397931244" lon="5.433499447353987"><ele>372.8</ele><time>2026-03-31T14:38:39.999Z</time></trkpt><trkpt lat="43.378562618938524" lon="5.433647224583715"><ele>371.4</ele><time>2026-03-31T14:38:41.999Z</time></trkpt><trkpt lat="43.37855655098608" lon="5.43380143955748"><ele>370.0</ele><time>2026-03-31T14:38:43.999Z</time></trkpt><trkpt lat="43.37857701438399" lon="5.433957521299005"><ele>368.8</ele><time>2026-03-31T14:38:45.999Z</time></trkpt><trkpt lat="43.37861473659517" lon="5.434098297216752"><ele>367.6</ele><time>2026-03-31T14:38:47.999Z</time></trkpt><trkpt lat="43.378682785510776" lon="5.434227899868324"><ele>366.4</ele><time>2026-03-31T14:38:49.999Z</time></trkpt><trkpt lat="43.378729681553196" lon="5.43435516268296"><ele>365.2</ele><time>2026-03-31T14:38:51.999Z</time></trkpt><trkpt lat="43.37881612199062" lon="5.4344524247254276"><ele>364.0</ele><time>2026-03-31T14:38:53.999Z</time></trkpt><trkpt lat="43.37887940233464" lon="5.434457859489659"><ele>366.6</ele><time>2026-03-31T14:38:54.999Z</time></trkpt><trkpt lat="43.378975029774956" lon="5.434494384243063"><ele>369.2</ele><time>2026-03-31T14:38:56.999Z</time></trkpt><trkpt lat="43.379076311436414" lon="5.434523075454923"><ele>371.8</ele><time>2026-03-31T14:38:58.999Z</time></trkpt><trkpt lat="43.3791716339065" lon="5.4345407838581545"><ele>374.40000000000003</ele><time>2026-03-31T14:39:00.999Z</time></trkpt><trkpt lat="43.379255529538426" lon="5.434591399241111"><ele>377.0</ele><time>2026-03-31T14:39:02.999Z</time></trkpt><trkpt lat="43.37930526207925" lon="5.434720074781407"><ele>377.0</ele><time>2026-03-31T14:39:04.999Z</time></trkpt><trkpt lat="43.37922201485674" lon="5.434798297930337"><ele>377.0</ele><time>2026-03-31T14:39:06.999Z</time></trkpt><trkpt lat="43.379180295736376" lon="5.434917352205049"><ele>377.0</ele><time>2026-03-31T14:39:08.999Z</time></trkpt><trkpt lat="43.3791405169048" lon="5.435039040446094"><ele>377.0</ele><time>2026-03-31T14:39:10.999Z</time></trkpt><trkpt lat="43.37910445674701" lon="5.435153356043834"><ele>377.0</ele><time>2026-03-31T14:39:12.999Z</time></trkpt><trkpt lat="43.379068177980244" lon="5.4352776176357125"><ele>377.0</ele><time>2026-03-31T14:39:14.999Z</time></trkpt><trkpt lat="43.37905013531051" lon="5.435417250318827"><ele>377.0</ele><time>2026-03-31T14:39:16.999Z</time></trkpt><trkpt lat="43.379039860899134" lon="5.4355617411570805"><ele>377.0</ele><time>2026-03-31T14:39:18.999Z</time></trkpt><trkpt lat="43.379034333773" lon="5.435694885173389"><ele>377.0</ele><time>2026-03-31T14:39:20.999Z</time></trkpt><trkpt lat="43.37903492029546" lon="5.4358322331454705"><ele>377.0</ele><time>2026-03-31T14:39:22.999Z</time></trkpt><trkpt lat="43.37904267096454" lon="5.435966827427699"><ele>377.0</ele><time>2026-03-31T14:39:24.999Z</time></trkpt><trkpt lat="43.37905721508325" lon="5.436110591612244"><ele>377.0</ele><time>2026-03-31T14:39:26.999Z</time></trkpt><trkpt lat="43.37908214989344" lon="5.436246003278447"><ele>377.0</ele><time>2026-03-31T14:39:28.999Z</time></trkpt><trkpt lat="43.37913272298598" lon="5.436375977016764"><ele>377.0</ele><time>2026-03-31T14:39:30.998Z</time></trkpt><trkpt lat="43.379205886879" lon="5.436478264622679"><ele>377.0</ele><time>2026-03-31T14:39:33Z</time></trkpt><trkpt lat="43.37930549513388" lon="5.436541775495549"><ele>377.40000000000003</ele><time>2026-03-31T14:39:35Z</time></trkpt><trkpt lat="43.37939425748167" lon="5.436594169606823"><ele>377.8</ele><time>2026-03-31T14:39:37Z</time></trkpt><trkpt lat="43.379489718820054" lon="5.436642442885801"><ele>378.2</ele><time>2026-03-31T14:39:39Z</time></trkpt><trkpt lat="43.37959061578903" lon="5.436675309190072"><ele>378.6</ele><time>2026-03-31T14:39:41Z</time></trkpt><trkpt lat="43.379677653109816" lon="5.436704971636638"><ele>379.0</ele><time>2026-03-31T14:39:43Z</time></trkpt><trkpt lat="43.37977127876994" lon="5.436715492757554"><ele>379.0</ele><time>2026-03-31T14:39:45Z</time></trkpt><trkpt lat="43.37984797180607" lon="5.436767024212667"><ele>379.0</ele><time>2026-03-31T14:39:47Z</time></trkpt><trkpt lat="43.37992912927745" lon="5.4367724029816005"><ele>379.0</ele><time>2026-03-31T14:39:49Z</time></trkpt><trkpt lat="43.3800133573966" lon="5.436787520418871"><ele>379.0</ele><time>2026-03-31T14:39:51Z</time></trkpt><trkpt lat="43.38008514778505" lon="5.436783313140055"><ele>379.0</ele><time>2026-03-31T14:39:53Z</time></trkpt><trkpt lat="43.38017032487612" lon="5.436758043792218"><ele>379.0</ele><time>2026-03-31T14:39:55Z</time></trkpt><trkpt lat="43.380251187966905" lon="5.436728552678884"><ele>379.0</ele><time>2026-03-31T14:39:57Z</time></trkpt><trkpt lat="43.38033629160173" lon="5.43670977903109"><ele>379.0</ele><time>2026-03-31T14:39:59Z</time></trkpt><trkpt lat="43.3804226464889" lon="5.436714405489894"><ele>379.0</ele><time>2026-03-31T14:40:01Z</time></trkpt><trkpt lat="43.38051282062448" lon="5.436727805467199"><ele>379.0</ele><time>2026-03-31T14:40:03Z</time></trkpt><trkpt lat="43.38058337613015" lon="5.436790476403853"><ele>379.0</ele><time>2026-03-31T14:40:05Z</time></trkpt><trkpt lat="43.38065788382324" lon="5.436851141665576"><ele>379.0</ele><time>2026-03-31T14:40:07Z</time></trkpt><trkpt lat="43.380731003744714" lon="5.4369305822215255"><ele>380.8333333333333</ele><time>2026-03-31T14:40:09Z</time></trkpt><trkpt lat="43.38080526049656" lon="5.436979645830704"><ele>382.66666666666663</ele><time>2026-03-31T14:40:11Z</time></trkpt><trkpt lat="43.380893253093056" lon="5.436952013011652"><ele>384.5</ele><time>2026-03-31T14:40:13Z</time></trkpt><trkpt lat="43.38098309989578" lon="5.436964155969797"><ele>386.3333333333333</ele><time>2026-03-31T14:40:15Z</time></trkpt><trkpt lat="43.3810521929099" lon="5.43689136052022"><ele>388.1666666666667</ele><time>2026-03-31T14:40:17Z</time></trkpt><trkpt lat="43.38112001440357" lon="5.436824279705184"><ele>390.0</ele><time>2026-03-31T14:40:19Z</time></trkpt><trkpt lat="43.38117398272193" lon="5.436756457731574"><ele>390.0</ele><time>2026-03-31T14:40:21Z</time></trkpt><trkpt lat="43.38124445736158" lon="5.436723250293932"><ele>390.0</ele><time>2026-03-31T14:40:23Z</time></trkpt><trkpt lat="43.38131816143804" lon="5.43677639778517"><ele>390.0</ele><time>2026-03-31T14:40:25Z</time></trkpt><trkpt lat="43.381339685624376" lon="5.436872020775493"><ele>390.0</ele><time>2026-03-31T14:40:26.999Z</time></trkpt><trkpt lat="43.38128112561619" lon="5.436965423677316"><ele>390.0</ele><time>2026-03-31T14:40:28.999Z</time></trkpt><trkpt lat="43.381273935794894" lon="5.437084885364302"><ele>390.0</ele><time>2026-03-31T14:40:30.999Z</time></trkpt><trkpt lat="43.38126572231571" lon="5.437193377286468"><ele>388.6666666666667</ele><time>2026-03-31T14:40:32.999Z</time></trkpt><trkpt lat="43.38125662433438" lon="5.4373106111112275"><ele>387.3333333333333</ele><time>2026-03-31T14:40:34.999Z</time></trkpt><trkpt lat="43.3812450542584" lon="5.437443222577171"><ele>386.0</ele><time>2026-03-31T14:40:36.999Z</time></trkpt><trkpt lat="43.38122778464019" lon="5.437560130900684"><ele>384.66666666666663</ele><time>2026-03-31T14:40:38.999Z</time></trkpt><trkpt lat="43.381205953553064" lon="5.437673773064431"><ele>383.3333333333333</ele><time>2026-03-31T14:40:40.999Z</time></trkpt><trkpt lat="43.38117321237523" lon="5.437793070816169"><ele>382.0</ele><time>2026-03-31T14:40:42.999Z</time></trkpt><trkpt lat="43.38113188962974" lon="5.4378962694675"><ele>382.0</ele><time>2026-03-31T14:40:44.999Z</time></trkpt><trkpt lat="43.38109899029462" lon="5.438036750202106"><ele>382.0</ele><time>2026-03-31T14:40:46.999Z</time></trkpt><trkpt lat="43.38109991437282" lon="5.438124785286978"><ele>382.0</ele><time>2026-03-31T14:40:47.999Z</time></trkpt><trkpt lat="43.3811933562691" lon="5.438281668383349"><ele>382.0</ele><time>2026-03-31T14:40:49.999Z</time></trkpt><trkpt lat="43.381266648834014" lon="5.4382883835662525"><ele>382.0</ele><time>2026-03-31T14:40:50.999Z</time></trkpt><trkpt lat="43.381352026431" lon="5.438342384032482"><ele>382.0</ele><time>2026-03-31T14:40:52.999Z</time></trkpt><trkpt lat="43.38142853664894" lon="5.438398811817687"><ele>382.0</ele><time>2026-03-31T14:40:54.999Z</time></trkpt><trkpt lat="43.381502262154974" lon="5.43846873940264"><ele>382.0</ele><time>2026-03-31T14:40:56.999Z</time></trkpt><trkpt lat="43.38156423923081" lon="5.438553107780002"><ele>382.0</ele><time>2026-03-31T14:40:58.999Z</time></trkpt><trkpt lat="43.38162036395623" lon="5.438637786474031"><ele>382.0</ele><time>2026-03-31T14:41:00.999Z</time></trkpt><trkpt lat="43.381680843577534" lon="5.438734913864261"><ele>382.0</ele><time>2026-03-31T14:41:02.999Z</time></trkpt><trkpt lat="43.38174385596188" lon="5.438825395100287"><ele>382.0</ele><time>2026-03-31T14:41:04.999Z</time></trkpt><trkpt lat="43.381820070273506" lon="5.438913914121439"><ele>382.0</ele><time>2026-03-31T14:41:06.999Z</time></trkpt><trkpt lat="43.38189888642613" lon="5.438999626597276"><ele>382.0</ele><time>2026-03-31T14:41:08.999Z</time></trkpt><trkpt lat="43.38197627432624" lon="5.439077820758303"><ele>382.0</ele><time>2026-03-31T14:41:10.999Z</time></trkpt><trkpt lat="43.38206520305592" lon="5.439137795650125"><ele>382.0</ele><time>2026-03-31T14:41:12.999Z</time></trkpt><trkpt lat="43.38214641595535" lon="5.439204095220211"><ele>386.0</ele><time>2026-03-31T14:41:14.999Z</time></trkpt><trkpt lat="43.38222325522073" lon="5.439272052129253"><ele>390.0</ele><time>2026-03-31T14:41:16.999Z</time></trkpt><trkpt lat="43.38229815798572" lon="5.439338751140847"><ele>394.0</ele><time>2026-03-31T14:41:18.999Z</time></trkpt><trkpt lat="43.382388008592834" lon="5.439363875126939"><ele>398.0</ele><time>2026-03-31T14:41:20.999Z</time></trkpt><trkpt lat="43.382474535463864" lon="5.439407945050922"><ele>402.0</ele><time>2026-03-31T14:41:22.999Z</time></trkpt><trkpt lat="43.38256292043813" lon="5.439439260803499"><ele>402.0</ele><time>2026-03-31T14:41:24.999Z</time></trkpt><trkpt lat="43.382643330435414" lon="5.4394704824349835"><ele>402.0</ele><time>2026-03-31T14:41:26.999Z</time></trkpt><trkpt lat="43.38273093332843" lon="5.439519194587949"><ele>402.0</ele><time>2026-03-31T14:41:28.999Z</time></trkpt><trkpt lat="43.3828143737181" lon="5.439563773091461"><ele>402.0</ele><time>2026-03-31T14:41:30.999Z</time></trkpt><trkpt lat="43.382888379328485" lon="5.439633838429911"><ele>402.0</ele><time>2026-03-31T14:41:32.998Z</time></trkpt><trkpt lat="43.38295505013796" lon="5.439680438887278"><ele>402.0</ele><time>2026-03-31T14:41:34.998Z</time></trkpt><trkpt lat="43.38298994278088" lon="5.439765067011146"><ele>400.6</ele><time>2026-03-31T14:41:36.998Z</time></trkpt><trkpt lat="43.38295528672901" lon="5.439865658758586"><ele>399.20000000000005</ele><time>2026-03-31T14:41:39Z</time></trkpt><trkpt lat="43.382859720779976" lon="5.439850434159038"><ele>397.8</ele><time>2026-03-31T14:41:41Z</time></trkpt><trkpt lat="43.38277275532044" lon="5.439869057282092"><ele>396.4</ele><time>2026-03-31T14:41:43Z</time></trkpt><trkpt lat="43.38267068154278" lon="5.439904012395584"><ele>395.0</ele><time>2026-03-31T14:41:45Z</time></trkpt><trkpt lat="43.38257783662363" lon="5.439950972764184"><ele>395.0</ele><time>2026-03-31T14:41:47Z</time></trkpt><trkpt lat="43.38249250141405" lon="5.440020424339345"><ele>395.0</ele><time>2026-03-31T14:41:49Z</time></trkpt><trkpt lat="43.382401353669756" lon="5.440056874060582"><ele>395.0</ele><time>2026-03-31T14:41:51Z</time></trkpt><trkpt lat="43.382320127219934" lon="5.440112750830642"><ele>395.0</ele><time>2026-03-31T14:41:53Z</time></trkpt><trkpt lat="43.3822338680869" lon="5.440167423872762"><ele>395.0</ele><time>2026-03-31T14:41:55Z</time></trkpt><trkpt lat="43.3821510584607" lon="5.44018652455938"><ele>393.0</ele><time>2026-03-31T14:41:57Z</time></trkpt><trkpt lat="43.38205742203772" lon="5.4402132396915865"><ele>391.0</ele><time>2026-03-31T14:41:59Z</time></trkpt><trkpt lat="43.38196301587859" lon="5.44025611776059"><ele>389.0</ele><time>2026-03-31T14:42:01Z</time></trkpt><trkpt lat="43.38188290370483" lon="5.440323436124966"><ele>387.0</ele><time>2026-03-31T14:42:03Z</time></trkpt><trkpt lat="43.381803081836495" lon="5.4403930182673115"><ele>385.0</ele><time>2026-03-31T14:42:05Z</time></trkpt><trkpt lat="43.381709828006315" lon="5.440426547674141"><ele>385.0</ele><time>2026-03-31T14:42:07Z</time></trkpt><trkpt lat="43.38162109539992" lon="5.440464280528253"><ele>385.0</ele><time>2026-03-31T14:42:09Z</time></trkpt><trkpt lat="43.381529454131034" lon="5.440523520467465"><ele>385.0</ele><time>2026-03-31T14:42:11Z</time></trkpt><trkpt lat="43.38146990660094" lon="5.440669805261206"><ele>385.0</ele><time>2026-03-31T14:42:13Z</time></trkpt><trkpt lat="43.38144485236718" lon="5.440807329981243"><ele>385.0</ele><time>2026-03-31T14:42:15Z</time></trkpt><trkpt lat="43.38141827678443" lon="5.440923771101624"><ele>386.0</ele><time>2026-03-31T14:42:17Z</time></trkpt><trkpt lat="43.38137781655896" lon="5.441023949539082"><ele>387.0</ele><time>2026-03-31T14:42:19Z</time></trkpt><trkpt lat="43.381329998470754" lon="5.441134764019811"><ele>388.0</ele><time>2026-03-31T14:42:21Z</time></trkpt><trkpt lat="43.38128379570457" lon="5.441244421418394"><ele>389.0</ele><time>2026-03-31T14:42:23Z</time></trkpt><trkpt lat="43.381235972014046" lon="5.441358853574317"><ele>390.0</ele><time>2026-03-31T14:42:25Z</time></trkpt><trkpt lat="43.38119670903543" lon="5.441486544811562"><ele>390.0</ele><time>2026-03-31T14:42:27Z</time></trkpt><trkpt lat="43.38114156565838" lon="5.441593442544838"><ele>390.0</ele><time>2026-03-31T14:42:28.999Z</time></trkpt><trkpt lat="43.381111895517954" lon="5.44172033376203"><ele>390.0</ele><time>2026-03-31T14:42:30.999Z</time></trkpt><trkpt lat="43.381123654351654" lon="5.441806341261052"><ele>390.0</ele><time>2026-03-31T14:42:31.999Z</time></trkpt><trkpt lat="43.381167206648094" lon="5.441875913955532"><ele>390.0</ele><time>2026-03-31T14:42:32.999Z</time></trkpt><trkpt lat="43.381239363305774" lon="5.441895684065578"><ele>390.0</ele><time>2026-03-31T14:42:33.999Z</time></trkpt><trkpt lat="43.38134112093145" lon="5.441904564005819"><ele>392.8</ele><time>2026-03-31T14:42:35.999Z</time></trkpt><trkpt lat="43.38142216546816" lon="5.441877172791753"><ele>395.6</ele><time>2026-03-31T14:42:37.999Z</time></trkpt><trkpt lat="43.381508994033034" lon="5.441852823603295"><ele>398.4</ele><time>2026-03-31T14:42:39.999Z</time></trkpt><trkpt lat="43.381589153639595" lon="5.4418106708229"><ele>401.2</ele><time>2026-03-31T14:42:41.999Z</time></trkpt><trkpt lat="43.38168265503519" lon="5.441793263320845"><ele>404.0</ele><time>2026-03-31T14:42:43.999Z</time></trkpt><trkpt lat="43.38177875074812" lon="5.4418296032352504"><ele>404.0</ele><time>2026-03-31T14:42:45.999Z</time></trkpt><trkpt lat="43.381842246922126" lon="5.441911244361534"><ele>404.0</ele><time>2026-03-31T14:42:47.999Z</time></trkpt><trkpt lat="43.381899241642834" lon="5.442010037961887"><ele>404.0</ele><time>2026-03-31T14:42:49.999Z</time></trkpt><trkpt lat="43.381931319995644" lon="5.442125689817804"><ele>404.0</ele><time>2026-03-31T14:42:51.999Z</time></trkpt><trkpt lat="43.38196348770201" lon="5.442247640270394"><ele>404.0</ele><time>2026-03-31T14:42:53.999Z</time></trkpt><trkpt lat="43.38198449007213" lon="5.4423732814351995"><ele>402.6</ele><time>2026-03-31T14:42:55.999Z</time></trkpt><trkpt lat="43.38198926788983" lon="5.442495895012571"><ele>401.2</ele><time>2026-03-31T14:42:57.999Z</time></trkpt><trkpt lat="43.38198488234237" lon="5.442617666280841"><ele>399.8</ele><time>2026-03-31T14:42:59.999Z</time></trkpt><trkpt lat="43.3819644768385" lon="5.442732094289771"><ele>398.40000000000003</ele><time>2026-03-31T14:43:01.999Z</time></trkpt><trkpt lat="43.38193517214134" lon="5.4428568442897625"><ele>397.0</ele><time>2026-03-31T14:43:03.999Z</time></trkpt><trkpt lat="43.38190256047722" lon="5.442983946868498"><ele>396.40000000000003</ele><time>2026-03-31T14:43:05.999Z</time></trkpt><trkpt lat="43.381878799613276" lon="5.44312050036741"><ele>395.8</ele><time>2026-03-31T14:43:07.999Z</time></trkpt><trkpt lat="43.38186832023067" lon="5.4432668576806105"><ele>395.2</ele><time>2026-03-31T14:43:09.999Z</time></trkpt><trkpt lat="43.381878993619004" lon="5.443415287831303"><ele>394.6</ele><time>2026-03-31T14:43:11.999Z</time></trkpt><trkpt lat="43.38190863228684" lon="5.443561347550424"><ele>394.0</ele><time>2026-03-31T14:43:13.999Z</time></trkpt><trkpt lat="43.381957478751055" lon="5.443693942087791"><ele>394.79999999999995</ele><time>2026-03-31T14:43:15.999Z</time></trkpt><trkpt lat="43.38201580438078" lon="5.443815441162215"><ele>395.59999999999997</ele><time>2026-03-31T14:43:17.999Z</time></trkpt><trkpt lat="43.38208729498789" lon="5.443922431785847"><ele>396.4</ele><time>2026-03-31T14:43:19.999Z</time></trkpt><trkpt lat="43.38218092371909" lon="5.444005051712169"><ele>397.2</ele><time>2026-03-31T14:43:21.999Z</time></trkpt><trkpt lat="43.38228063535755" lon="5.444035064342604"><ele>398.0</ele><time>2026-03-31T14:43:23.999Z</time></trkpt><trkpt lat="43.38237088743002" lon="5.444045364771992"><ele>398.0</ele><time>2026-03-31T14:43:25.999Z</time></trkpt><trkpt lat="43.382452892603276" lon="5.444033303029448"><ele>398.0</ele><time>2026-03-31T14:43:27.999Z</time></trkpt><trkpt lat="43.38254416358623" lon="5.443971946965271"><ele>398.0</ele><time>2026-03-31T14:43:29.999Z</time></trkpt><trkpt lat="43.382631061135825" lon="5.443913997537375"><ele>398.0</ele><time>2026-03-31T14:43:31.999Z</time></trkpt><trkpt lat="43.38271410597037" lon="5.443856844652272"><ele>398.0</ele><time>2026-03-31T14:43:33.998Z</time></trkpt><trkpt lat="43.38280567329335" lon="5.443810707841358"><ele>399.79999999999995</ele><time>2026-03-31T14:43:35.998Z</time></trkpt><trkpt lat="43.38289804485476" lon="5.443774012470915"><ele>401.6</ele><time>2026-03-31T14:43:37.998Z</time></trkpt><trkpt lat="43.38299461044575" lon="5.443777407421963"><ele>403.4</ele><time>2026-03-31T14:43:39.998Z</time></trkpt><trkpt lat="43.38309230506374" lon="5.443783983247016"><ele>405.20000000000005</ele><time>2026-03-31T14:43:41.998Z</time></trkpt><trkpt lat="43.38318222604077" lon="5.4438135492021225"><ele>407.0</ele><time>2026-03-31T14:43:44Z</time></trkpt><trkpt lat="43.383267147713354" lon="5.443874596576247"><ele>407.0</ele><time>2026-03-31T14:43:46Z</time></trkpt><trkpt lat="43.38333672458505" lon="5.443965678752447"><ele>407.0</ele><time>2026-03-31T14:43:48Z</time></trkpt><trkpt lat="43.383388846308094" lon="5.4440844037172615"><ele>407.0</ele><time>2026-03-31T14:43:50Z</time></trkpt><trkpt lat="43.383412774018" lon="5.444212454695547"><ele>407.0</ele><time>2026-03-31T14:43:52Z</time></trkpt><trkpt lat="43.38342682669596" lon="5.444344044776032"><ele>407.0</ele><time>2026-03-31T14:43:54Z</time></trkpt><trkpt lat="43.383443168055834" lon="5.444485883545204"><ele>407.0</ele><time>2026-03-31T14:43:56Z</time></trkpt><trkpt lat="43.38345921637527" lon="5.444625178763933"><ele>407.0</ele><time>2026-03-31T14:43:58Z</time></trkpt><trkpt lat="43.383479144256576" lon="5.444777921908262"><ele>407.0</ele><time>2026-03-31T14:44:00Z</time></trkpt><trkpt lat="43.38349966580997" lon="5.444922959456084"><ele>407.0</ele><time>2026-03-31T14:44:02Z</time></trkpt><trkpt lat="43.38351659366985" lon="5.445061372335543"><ele>407.0</ele><time>2026-03-31T14:44:04Z</time></trkpt><trkpt lat="43.38352687640358" lon="5.44519593547685"><ele>405.40000000000003</ele><time>2026-03-31T14:44:06Z</time></trkpt><trkpt lat="43.38352419263776" lon="5.445338846240654"><ele>403.8</ele><time>2026-03-31T14:44:08Z</time></trkpt><trkpt lat="43.3835193988204" lon="5.445476005655909"><ele>402.2</ele><time>2026-03-31T14:44:10Z</time></trkpt><trkpt lat="43.383500258782874" lon="5.445616847718517"><ele>400.6</ele><time>2026-03-31T14:44:12Z</time></trkpt><trkpt lat="43.38349921612397" lon="5.4457738599297025"><ele>399.0</ele><time>2026-03-31T14:44:14Z</time></trkpt><trkpt lat="43.38356510678922" lon="5.445930444439346"><ele>398.1666666666667</ele><time>2026-03-31T14:44:16Z</time></trkpt><trkpt lat="43.383630125232855" lon="5.445960099866411"><ele>397.33333333333337</ele><time>2026-03-31T14:44:17Z</time></trkpt><trkpt lat="43.383701697828236" lon="5.445943174306109"><ele>396.5</ele><time>2026-03-31T14:44:18Z</time></trkpt><trkpt lat="43.383804457072884" lon="5.445953513390816"><ele>395.6666666666667</ele><time>2026-03-31T14:44:20Z</time></trkpt><trkpt lat="43.38389327647959" lon="5.445937659387317"><ele>394.83333333333337</ele><time>2026-03-31T14:44:22Z</time></trkpt><trkpt lat="43.38398240016924" lon="5.44586432917558"><ele>394.0</ele><time>2026-03-31T14:44:24Z</time></trkpt><trkpt lat="43.38406876962005" lon="5.44581736017271"><ele>396.4</ele><time>2026-03-31T14:44:26Z</time></trkpt><trkpt lat="43.38416081502557" lon="5.4457903407485215"><ele>398.79999999999995</ele><time>2026-03-31T14:44:28Z</time></trkpt><trkpt lat="43.38425157689621" lon="5.445764796596542"><ele>401.20000000000005</ele><time>2026-03-31T14:44:30Z</time></trkpt><trkpt lat="43.38435070278113" lon="5.445742961378117"><ele>403.6</ele><time>2026-03-31T14:44:31.999Z</time></trkpt><trkpt lat="43.38445323226922" lon="5.4457517208063635"><ele>406.0</ele><time>2026-03-31T14:44:33.999Z</time></trkpt><trkpt lat="43.38455449389284" lon="5.44571890204198"><ele>406.0</ele><time>2026-03-31T14:44:35.999Z</time></trkpt><trkpt lat="43.38465305226028" lon="5.445684366662039"><ele>406.0</ele><time>2026-03-31T14:44:37.999Z</time></trkpt><trkpt lat="43.38474660696076" lon="5.445645425899558"><ele>406.0</ele><time>2026-03-31T14:44:39.999Z</time></trkpt><trkpt lat="43.384843864827815" lon="5.44562019943218"><ele>406.0</ele><time>2026-03-31T14:44:41.999Z</time></trkpt><trkpt lat="43.384944934936655" lon="5.4455934038497755"><ele>406.0</ele><time>2026-03-31T14:44:43.999Z</time></trkpt><trkpt lat="43.38503993452329" lon="5.445559339644741"><ele>407.20000000000005</ele><time>2026-03-31T14:44:45.999Z</time></trkpt><trkpt lat="43.385138765908955" lon="5.4455509117735055"><ele>408.40000000000003</ele><time>2026-03-31T14:44:47.999Z</time></trkpt><trkpt lat="43.38523102093112" lon="5.445530961299838"><ele>409.6</ele><time>2026-03-31T14:44:49.999Z</time></trkpt><trkpt lat="43.38531481991059" lon="5.445525260037231"><ele>410.8</ele><time>2026-03-31T14:44:51.999Z</time></trkpt><trkpt lat="43.385383973888715" lon="5.445595174252423"><ele>412.0</ele><time>2026-03-31T14:44:53.999Z</time></trkpt><trkpt lat="43.38532579688601" lon="5.44571205323501"><ele>412.0</ele><time>2026-03-31T14:44:55.999Z</time></trkpt><trkpt lat="43.38524720697836" lon="5.445775238851978"><ele>412.0</ele><time>2026-03-31T14:44:57.999Z</time></trkpt><trkpt lat="43.385180496081404" lon="5.445889120122081"><ele>412.0</ele><time>2026-03-31T14:44:59.999Z</time></trkpt><trkpt lat="43.385093534553235" lon="5.445987536656586"><ele>412.0</ele><time>2026-03-31T14:45:01.999Z</time></trkpt><trkpt lat="43.38501141310639" lon="5.4461002356485455"><ele>412.0</ele><time>2026-03-31T14:45:03.999Z</time></trkpt><trkpt lat="43.3849222102268" lon="5.446216905662679"><ele>411.99999999999994</ele><time>2026-03-31T14:45:05.999Z</time></trkpt><trkpt lat="43.38487747429027" lon="5.446278974627314"><ele>412.0</ele><time>2026-03-31T14:45:06.999Z</time></trkpt><trkpt lat="43.38484459397364" lon="5.446354815708758"><ele>412.0</ele><time>2026-03-31T14:45:07.999Z</time></trkpt><trkpt lat="43.38481325725045" lon="5.446430061915904"><ele>412.0</ele><time>2026-03-31T14:45:08.999Z</time></trkpt><trkpt lat="43.38477752460821" lon="5.446501722267098"><ele>412.0</ele><time>2026-03-31T14:45:09.999Z</time></trkpt><trkpt lat="43.38472651340848" lon="5.446562815490354"><ele>411.99999999999994</ele><time>2026-03-31T14:45:10.999Z</time></trkpt><trkpt lat="43.38469811167855" lon="5.446640840533285"><ele>412.0</ele><time>2026-03-31T14:45:11.999Z</time></trkpt><trkpt lat="43.384652682441526" lon="5.4467070283355135"><ele>409.40000000000003</ele><time>2026-03-31T14:45:12.999Z</time></trkpt><trkpt lat="43.38459465050382" lon="5.446743686747132"><ele>406.8</ele><time>2026-03-31T14:45:13.999Z</time></trkpt><trkpt lat="43.38454019230134" lon="5.446907328586888"><ele>404.2</ele><time>2026-03-31T14:45:15.999Z</time></trkpt><trkpt lat="43.38450669582141" lon="5.446987742889718"><ele>401.6</ele><time>2026-03-31T14:45:16.999Z</time></trkpt><trkpt lat="43.384471690642606" lon="5.447063725116434"><ele>399.0</ele><time>2026-03-31T14:45:17.999Z</time></trkpt><trkpt lat="43.384391626712834" lon="5.447191632872126"><ele>399.0</ele><time>2026-03-31T14:45:19.999Z</time></trkpt><trkpt lat="43.38436906984494" lon="5.447273630575316"><ele>399.0</ele><time>2026-03-31T14:45:20.999Z</time></trkpt><trkpt lat="43.38431017745209" lon="5.447414029942688"><ele>399.0</ele><time>2026-03-31T14:45:22.999Z</time></trkpt><trkpt lat="43.38427896134949" lon="5.44755987789699"><ele>399.0</ele><time>2026-03-31T14:45:24.999Z</time></trkpt><trkpt lat="43.3842568494366" lon="5.447713275812903"><ele>399.0</ele><time>2026-03-31T14:45:26.999Z</time></trkpt><trkpt lat="43.38430459139926" lon="5.4478570448584245"><ele>399.6</ele><time>2026-03-31T14:45:28.999Z</time></trkpt><trkpt lat="43.384314131588496" lon="5.447992576713709"><ele>400.2</ele><time>2026-03-31T14:45:30.999Z</time></trkpt><trkpt lat="43.38434887640369" lon="5.448115968803709"><ele>400.8</ele><time>2026-03-31T14:45:32.999Z</time></trkpt><trkpt lat="43.38440287920856" lon="5.4482392499995385"><ele>401.40000000000003</ele><time>2026-03-31T14:45:34.999Z</time></trkpt><trkpt lat="43.38442933069226" lon="5.448376660188271"><ele>402.0</ele><time>2026-03-31T14:45:36.998Z</time></trkpt><trkpt lat="43.38448723192172" lon="5.448499994405158"><ele>402.0</ele><time>2026-03-31T14:45:38.998Z</time></trkpt><trkpt lat="43.38454073348957" lon="5.4486149835283815"><ele>402.0</ele><time>2026-03-31T14:45:40.998Z</time></trkpt><trkpt lat="43.38457734544647" lon="5.448743640075771"><ele>402.0</ele><time>2026-03-31T14:45:42.998Z</time></trkpt><trkpt lat="43.38459320372768" lon="5.448880748883627"><ele>402.0</ele><time>2026-03-31T14:45:44.998Z</time></trkpt><trkpt lat="43.38457587959838" lon="5.449011185864685"><ele>402.0</ele><time>2026-03-31T14:45:46.998Z</time></trkpt><trkpt lat="43.384549537703194" lon="5.449136100124349"><ele>402.6</ele><time>2026-03-31T14:45:48.998Z</time></trkpt><trkpt lat="43.38451013131018" lon="5.449263270562982"><ele>403.20000000000005</ele><time>2026-03-31T14:45:51Z</time></trkpt><trkpt lat="43.38446768454763" lon="5.449378591696237"><ele>403.8</ele><time>2026-03-31T14:45:53Z</time></trkpt><trkpt lat="43.384420113064365" lon="5.449494463676026"><ele>404.4</ele><time>2026-03-31T14:45:55Z</time></trkpt><trkpt lat="43.3843693097359" lon="5.44960339377521"><ele>405.0</ele><time>2026-03-31T14:45:57Z</time></trkpt><trkpt lat="43.38432056760314" lon="5.449714629352509"><ele>406.5</ele><time>2026-03-31T14:45:59Z</time></trkpt><trkpt lat="43.38427473660734" lon="5.44981936032452"><ele>408.0</ele><time>2026-03-31T14:46:01Z</time></trkpt><trkpt lat="43.38424150869247" lon="5.449905761396527"><ele>409.5</ele><time>2026-03-31T14:46:03Z</time></trkpt><trkpt lat="43.38425594904462" lon="5.450031883462552"><ele>411.0</ele><time>2026-03-31T14:46:06Z</time></trkpt><trkpt lat="43.384317155042254" lon="5.4500711481015145"><ele>412.5</ele><time>2026-03-31T14:46:08Z</time></trkpt><trkpt lat="43.38438783755325" lon="5.450073401792183"><ele>414.0</ele><time>2026-03-31T14:47:34.999Z</time></trkpt><trkpt lat="43.384472398378506" lon="5.45005741190616"><ele>414.0</ele><time>2026-03-31T14:47:37.999Z</time></trkpt><trkpt lat="43.38455327825876" lon="5.450068157543666"><ele>414.0</ele><time>2026-03-31T14:47:39.999Z</time></trkpt><trkpt lat="43.3846410227071" lon="5.450078346537443"><ele>414.0</ele><time>2026-03-31T14:47:41.999Z</time></trkpt><trkpt lat="43.38472961637447" lon="5.450111323682603"><ele>414.0</ele><time>2026-03-31T14:47:43.998Z</time></trkpt><trkpt lat="43.384815942765634" lon="5.450133318672579"><ele>414.0</ele><time>2026-03-31T14:47:45.998Z</time></trkpt><trkpt lat="43.384904090228254" lon="5.450159433421035"><ele>414.0</ele><time>2026-03-31T14:47:47.998Z</time></trkpt><trkpt lat="43.384992320370664" lon="5.4501894798207084"><ele>415.0</ele><time>2026-03-31T14:47:49.998Z</time></trkpt><trkpt lat="43.385077407047824" lon="5.450232618864016"><ele>416.0</ele><time>2026-03-31T14:47:51.998Z</time></trkpt><trkpt lat="43.38517274276913" lon="5.450283054539786"><ele>417.0</ele><time>2026-03-31T14:47:53.998Z</time></trkpt><trkpt lat="43.38528549367054" lon="5.450283733103307"><ele>418.0</ele><time>2026-03-31T14:47:56Z</time></trkpt><trkpt lat="43.38537985165107" lon="5.450309229519231"><ele>419.0</ele><time>2026-03-31T14:47:58Z</time></trkpt><trkpt lat="43.38548589491617" lon="5.450300122724335"><ele>419.4</ele><time>2026-03-31T14:48:00Z</time></trkpt><trkpt lat="43.38558786789316" lon="5.450255452166328"><ele>419.79999999999995</ele><time>2026-03-31T14:48:02Z</time></trkpt><trkpt lat="43.38569369034771" lon="5.450230376927108"><ele>420.20000000000005</ele><time>2026-03-31T14:48:04Z</time></trkpt><trkpt lat="43.3858007718332" lon="5.450203907129907"><ele>420.6</ele><time>2026-03-31T14:48:06Z</time></trkpt><trkpt lat="43.385904608108525" lon="5.450191804257473"><ele>421.0</ele><time>2026-03-31T14:48:08Z</time></trkpt><trkpt lat="43.386017068633485" lon="5.450170630826053"><ele>421.0</ele><time>2026-03-31T14:48:10Z</time></trkpt><trkpt lat="43.3861282808924" lon="5.450158348048211"><ele>421.0</ele><time>2026-03-31T14:48:12Z</time></trkpt><trkpt lat="43.386232775885155" lon="5.450128495358653"><ele>421.0</ele><time>2026-03-31T14:48:14Z</time></trkpt><trkpt lat="43.38633778243456" lon="5.450124524053678"><ele>421.0</ele><time>2026-03-31T14:48:16Z</time></trkpt><trkpt lat="43.38644027284551" lon="5.450111162916896"><ele>421.0</ele><time>2026-03-31T14:48:18Z</time></trkpt><trkpt lat="43.38653943406007" lon="5.450105064540113"><ele>419.6</ele><time>2026-03-31T14:48:20Z</time></trkpt><trkpt lat="43.386642943791976" lon="5.450100239555223"><ele>418.20000000000005</ele><time>2026-03-31T14:48:22Z</time></trkpt><trkpt lat="43.386749677221886" lon="5.450093347591211"><ele>416.79999999999995</ele><time>2026-03-31T14:48:24Z</time></trkpt><trkpt lat="43.38684877494319" lon="5.45008540013735"><ele>415.4</ele><time>2026-03-31T14:48:26Z</time></trkpt><trkpt lat="43.386945894391175" lon="5.450075584991161"><ele>414.0</ele><time>2026-03-31T14:48:28Z</time></trkpt><trkpt lat="43.38703569270883" lon="5.450029136626376"><ele>414.0</ele><time>2026-03-31T14:48:30Z</time></trkpt><trkpt lat="43.387119184213994" lon="5.449999857219192"><ele>414.0</ele><time>2026-03-31T14:48:32Z</time></trkpt><trkpt lat="43.38720081287431" lon="5.449967574918327"><ele>414.0</ele><time>2026-03-31T14:48:34Z</time></trkpt><trkpt lat="43.38727883011391" lon="5.449930470173928"><ele>414.0</ele><time>2026-03-31T14:48:36Z</time></trkpt><trkpt lat="43.38735881448894" lon="5.449889123615895"><ele>414.0</ele><time>2026-03-31T14:48:37.999Z</time></trkpt><trkpt lat="43.38744408498103" lon="5.449853421245842"><ele>414.0</ele><time>2026-03-31T14:48:39.999Z</time></trkpt><trkpt lat="43.38753934823551" lon="5.449824424272006"><ele>412.2</ele><time>2026-03-31T14:48:41.999Z</time></trkpt><trkpt lat="43.38763819397883" lon="5.449786796722343"><ele>410.4</ele><time>2026-03-31T14:48:43.999Z</time></trkpt><trkpt lat="43.38772765565728" lon="5.449727526591191"><ele>408.6</ele><time>2026-03-31T14:48:45.999Z</time></trkpt><trkpt lat="43.38781363803459" lon="5.4496768733574426"><ele>406.8</ele><time>2026-03-31T14:48:47.999Z</time></trkpt><trkpt lat="43.38790035196485" lon="5.449613274904273"><ele>405.0</ele><time>2026-03-31T14:48:49.999Z</time></trkpt><trkpt lat="43.387991999525646" lon="5.449559057636856"><ele>406.8</ele><time>2026-03-31T14:48:51.999Z</time></trkpt><trkpt lat="43.388085166221764" lon="5.449528694388449"><ele>408.6</ele><time>2026-03-31T14:48:53.999Z</time></trkpt><trkpt lat="43.38818523200412" lon="5.449492883456235"><ele>410.4</ele><time>2026-03-31T14:48:55.999Z</time></trkpt><trkpt lat="43.38827921292541" lon="5.4494314465240965"><ele>412.2</ele><time>2026-03-31T14:48:57.999Z</time></trkpt><trkpt lat="43.38837315859626" lon="5.449360519453802"><ele>414.0</ele><time>2026-03-31T14:48:59.999Z</time></trkpt><trkpt lat="43.3884587544835" lon="5.449282240772803"><ele>414.0</ele><time>2026-03-31T14:49:01.999Z</time></trkpt><trkpt lat="43.38852911010099" lon="5.449188430942173"><ele>414.0</ele><time>2026-03-31T14:49:03.999Z</time></trkpt><trkpt lat="43.38857200604702" lon="5.449071852002406"><ele>414.0</ele><time>2026-03-31T14:49:05.999Z</time></trkpt><trkpt lat="43.38859544788641" lon="5.448953163102344"><ele>414.0</ele><time>2026-03-31T14:49:07.999Z</time></trkpt><trkpt lat="43.38865323526203" lon="5.448838459014039"><ele>414.0</ele><time>2026-03-31T14:49:09.999Z</time></trkpt><trkpt lat="43.388759027663056" lon="5.448841676089411"><ele>414.0</ele><time>2026-03-31T14:49:11.999Z</time></trkpt><trkpt lat="43.38884060256203" lon="5.448833670781264"><ele>414.0</ele><time>2026-03-31T14:49:13.999Z</time></trkpt><trkpt lat="43.38893444234002" lon="5.448860629543089"><ele>414.0</ele><time>2026-03-31T14:49:15.999Z</time></trkpt><trkpt lat="43.389032152597984" lon="5.448839376628902"><ele>414.0</ele><time>2026-03-31T14:49:17.999Z</time></trkpt><trkpt lat="43.389122901572115" lon="5.448764572142504"><ele>414.0</ele><time>2026-03-31T14:49:19.999Z</time></trkpt><trkpt lat="43.389208483377615" lon="5.448698394797695"><ele>415.6</ele><time>2026-03-31T14:49:21.999Z</time></trkpt><trkpt lat="43.38929255385874" lon="5.448635818508702"><ele>417.2</ele><time>2026-03-31T14:49:23.999Z</time></trkpt><trkpt lat="43.3893802100296" lon="5.448601234441231"><ele>418.8</ele><time>2026-03-31T14:49:25.999Z</time></trkpt><trkpt lat="43.38946802955688" lon="5.448571612528168"><ele>420.40000000000003</ele><time>2026-03-31T14:49:27.999Z</time></trkpt><trkpt lat="43.38955240094127" lon="5.448553607290789"><ele>422.0</ele><time>2026-03-31T14:49:29.999Z</time></trkpt><trkpt lat="43.38964110982839" lon="5.448509766771076"><ele>418.40000000000003</ele><time>2026-03-31T14:49:31.999Z</time></trkpt><trkpt lat="43.389732638009235" lon="5.448473036663031"><ele>414.8</ele><time>2026-03-31T14:49:33.999Z</time></trkpt><trkpt lat="43.389827229726045" lon="5.448422430558346"><ele>411.2</ele><time>2026-03-31T14:49:35.999Z</time></trkpt><trkpt lat="43.3899196962133" lon="5.448378966075181"><ele>407.6</ele><time>2026-03-31T14:49:37.999Z</time></trkpt><trkpt lat="43.3900162062091" lon="5.448334222928316"><ele>404.0</ele><time>2026-03-31T14:49:39.999Z</time></trkpt><trkpt lat="43.390120214871395" lon="5.448327368506211"><ele>404.0</ele><time>2026-03-31T14:49:41.999Z</time></trkpt><trkpt lat="43.39021702824355" lon="5.448275023801618"><ele>404.0</ele><time>2026-03-31T14:49:43.998Z</time></trkpt><trkpt lat="43.390278642992826" lon="5.448143554425228"><ele>404.0</ele><time>2026-03-31T14:49:45.999Z</time></trkpt><trkpt lat="43.39032301279077" lon="5.448026773469969"><ele>404.0</ele><time>2026-03-31T14:49:47.998Z</time></trkpt><trkpt lat="43.39042100848063" lon="5.448004591703574"><ele>404.0</ele><time>2026-03-31T14:49:49.998Z</time></trkpt><trkpt lat="43.39046250293488" lon="5.448126822002006"><ele>404.8333333333333</ele><time>2026-03-31T14:49:51.998Z</time></trkpt><trkpt lat="43.39053075353127" lon="5.448191760592615"><ele>405.66666666666663</ele><time>2026-03-31T14:49:53.998Z</time></trkpt><trkpt lat="43.39063774882843" lon="5.448197291334821"><ele>406.5</ele><time>2026-03-31T14:49:55.998Z</time></trkpt><trkpt lat="43.390736826203515" lon="5.448173753171402"><ele>407.33333333333337</ele><time>2026-03-31T14:49:57.998Z</time></trkpt><trkpt lat="43.39082763718923" lon="5.448190119566005"><ele>408.1666666666667</ele><time>2026-03-31T14:49:59.998Z</time></trkpt><trkpt lat="43.39089463647856" lon="5.448190031375682"><ele>409.0</ele><time>2026-03-31T14:50:02Z</time></trkpt><trkpt lat="43.390834429563924" lon="5.4482427691797675"><ele>409.0</ele><time>2026-03-31T14:50:08Z</time></trkpt><trkpt lat="43.39070431636179" lon="5.448283660132889"><ele>409.0</ele><time>2026-03-31T14:50:10Z</time></trkpt><trkpt lat="43.390634245808975" lon="5.448327771346691"><ele>409.0</ele><time>2026-03-31T14:50:11Z</time></trkpt><trkpt lat="43.390553334191964" lon="5.448351614981859"><ele>409.0</ele><time>2026-03-31T14:50:12Z</time></trkpt><trkpt lat="43.39046813600951" lon="5.448380691393974"><ele>409.0</ele><time>2026-03-31T14:50:13Z</time></trkpt><trkpt lat="43.39037342091872" lon="5.448415305569851"><ele>408.1666666666667</ele><time>2026-03-31T14:50:14Z</time></trkpt><trkpt lat="43.390284957961924" lon="5.448453753391978"><ele>407.33333333333337</ele><time>2026-03-31T14:50:15Z</time></trkpt><trkpt lat="43.390202822749096" lon="5.448498443192967"><ele>406.5</ele><time>2026-03-31T14:50:16Z</time></trkpt><trkpt lat="43.390120511390165" lon="5.448543348931243"><ele>405.66666666666663</ele><time>2026-03-31T14:50:17Z</time></trkpt><trkpt lat="43.390046867304484" lon="5.448612252664918"><ele>404.8333333333333</ele><time>2026-03-31T14:50:18Z</time></trkpt><trkpt lat="43.38996148018398" lon="5.448642860084032"><ele>404.0</ele><time>2026-03-31T14:50:19Z</time></trkpt><trkpt lat="43.38989414373536" lon="5.448714850313305"><ele>404.0</ele><time>2026-03-31T14:50:20Z</time></trkpt><trkpt lat="43.38982035325344" lon="5.448771450960439"><ele>404.0</ele><time>2026-03-31T14:50:21Z</time></trkpt><trkpt lat="43.38974856070628" lon="5.44883202687486"><ele>404.0</ele><time>2026-03-31T14:50:22Z</time></trkpt><trkpt lat="43.38967471962443" lon="5.448907952793283"><ele>404.0</ele><time>2026-03-31T14:50:23Z</time></trkpt><trkpt lat="43.389599901439865" lon="5.448993220220404"><ele>404.0</ele><time>2026-03-31T14:50:24Z</time></trkpt><trkpt lat="43.38953251113186" lon="5.449095009771403"><ele>402.4</ele><time>2026-03-31T14:50:25Z</time></trkpt><trkpt lat="43.389464305752746" lon="5.449189021800641"><ele>400.79999999999995</ele><time>2026-03-31T14:50:26Z</time></trkpt><trkpt lat="43.38938147343888" lon="5.449265713342742"><ele>399.20000000000005</ele><time>2026-03-31T14:50:27Z</time></trkpt><trkpt lat="43.38929935562642" lon="5.449359616065161"><ele>397.6</ele><time>2026-03-31T14:50:28Z</time></trkpt><trkpt lat="43.389192234381326" lon="5.4494293990518665"><ele>396.0</ele><time>2026-03-31T14:50:29Z</time></trkpt><trkpt lat="43.38910517967068" lon="5.449541737421478"><ele>395.8</ele><time>2026-03-31T14:50:30Z</time></trkpt><trkpt lat="43.38904329915927" lon="5.4496738333762895"><ele>395.6</ele><time>2026-03-31T14:50:31Z</time></trkpt><trkpt lat="43.38896672438409" lon="5.449778443161208"><ele>395.4</ele><time>2026-03-31T14:50:32Z</time></trkpt><trkpt lat="43.388875506323224" lon="5.449859898011086"><ele>395.2</ele><time>2026-03-31T14:50:33Z</time></trkpt><trkpt lat="43.388794017004024" lon="5.449922915040695"><ele>395.0</ele><time>2026-03-31T14:50:34Z</time></trkpt><trkpt lat="43.38869893990132" lon="5.4499847802350185"><ele>394.6</ele><time>2026-03-31T14:50:35Z</time></trkpt><trkpt lat="43.3886021251429" lon="5.450051726318509"><ele>394.2</ele><time>2026-03-31T14:50:36Z</time></trkpt><trkpt lat="43.388509371966904" lon="5.450121218052209"><ele>393.79999999999995</ele><time>2026-03-31T14:50:37Z</time></trkpt><trkpt lat="43.38841701129971" lon="5.450207199010266"><ele>393.4</ele><time>2026-03-31T14:50:38Z</time></trkpt><trkpt lat="43.38834528209892" lon="5.45032755547891"><ele>393.0</ele><time>2026-03-31T14:50:39Z</time></trkpt><trkpt lat="43.3882954369992" lon="5.450457030974438"><ele>391.6666666666667</ele><time>2026-03-31T14:50:40Z</time></trkpt><trkpt lat="43.38821797142384" lon="5.450546993434113"><ele>390.33333333333337</ele><time>2026-03-31T14:50:41Z</time></trkpt><trkpt lat="43.3881451621197" lon="5.4506286576441285"><ele>389.0</ele><time>2026-03-31T14:50:41.999Z</time></trkpt><trkpt lat="43.38807451924174" lon="5.450691489438657"><ele>387.6666666666667</ele><time>2026-03-31T14:50:42.999Z</time></trkpt><trkpt lat="43.387997581660265" lon="5.45075842280655"><ele>386.33333333333337</ele><time>2026-03-31T14:50:43.999Z</time></trkpt><trkpt lat="43.38792893450872" lon="5.4508107465457885"><ele>385.0</ele><time>2026-03-31T14:50:44.999Z</time></trkpt><trkpt lat="43.38785485919516" lon="5.4508617223417755"><ele>384.1666666666667</ele><time>2026-03-31T14:50:45.999Z</time></trkpt><trkpt lat="43.387781827922545" lon="5.450907922227726"><ele>383.33333333333337</ele><time>2026-03-31T14:50:46.999Z</time></trkpt><trkpt lat="43.38770718782728" lon="5.450952173127005"><ele>382.5</ele><time>2026-03-31T14:50:47.999Z</time></trkpt><trkpt lat="43.38764057455664" lon="5.451015196297376"><ele>381.6666666666667</ele><time>2026-03-31T14:50:48.999Z</time></trkpt><trkpt lat="43.38756155373844" lon="5.451035266310094"><ele>380.83333333333337</ele><time>2026-03-31T14:50:49.999Z</time></trkpt><trkpt lat="43.38749319413626" lon="5.4510941220298434"><ele>380.0</ele><time>2026-03-31T14:50:50.999Z</time></trkpt><trkpt lat="43.38741619258666" lon="5.451110696612605"><ele>380.0</ele><time>2026-03-31T14:50:51.999Z</time></trkpt><trkpt lat="43.38733685267456" lon="5.451136827720702"><ele>380.0</ele><time>2026-03-31T14:50:52.999Z</time></trkpt><trkpt lat="43.387261067579296" lon="5.451184117317677"><ele>380.0</ele><time>2026-03-31T14:50:53.999Z</time></trkpt><trkpt lat="43.38718728296048" lon="5.451202551267209"><ele>380.0</ele><time>2026-03-31T14:50:54.999Z</time></trkpt><trkpt lat="43.3871029876889" lon="5.451230536222263"><ele>380.0</ele><time>2026-03-31T14:50:55.999Z</time></trkpt><trkpt lat="43.38702012142448" lon="5.451253958580521"><ele>380.0</ele><time>2026-03-31T14:50:56.999Z</time></trkpt><trkpt lat="43.38693813637004" lon="5.451270685263734"><ele>379.83333333333337</ele><time>2026-03-31T14:50:57.999Z</time></trkpt><trkpt lat="43.38684785018443" lon="5.451294790791157"><ele>379.6666666666667</ele><time>2026-03-31T14:50:58.999Z</time></trkpt><trkpt lat="43.38676404325788" lon="5.451320642954849"><ele>379.5</ele><time>2026-03-31T14:50:59.999Z</time></trkpt><trkpt lat="43.38667831010526" lon="5.451344673669059"><ele>379.3333333333333</ele><time>2026-03-31T14:51:00.999Z</time></trkpt><trkpt lat="43.38659812917445" lon="5.451370195629245"><ele>379.16666666666663</ele><time>2026-03-31T14:51:01.999Z</time></trkpt><trkpt lat="43.38651606179922" lon="5.451396905328583"><ele>379.0</ele><time>2026-03-31T14:51:02.999Z</time></trkpt><trkpt lat="43.386428530200035" lon="5.451402514078842"><ele>377.4</ele><time>2026-03-31T14:51:03.999Z</time></trkpt><trkpt lat="43.386335543508345" lon="5.451442674740638"><ele>375.79999999999995</ele><time>2026-03-31T14:51:04.999Z</time></trkpt><trkpt lat="43.3862484806125" lon="5.451504156141634"><ele>374.20000000000005</ele><time>2026-03-31T14:51:05.999Z</time></trkpt><trkpt lat="43.386173649313605" lon="5.451586835830927"><ele>372.6</ele><time>2026-03-31T14:51:06.999Z</time></trkpt><trkpt lat="43.38609804736151" lon="5.451657283222731"><ele>371.0</ele><time>2026-03-31T14:51:07.999Z</time></trkpt><trkpt lat="43.38602495879093" lon="5.4517253884377475"><ele>371.0</ele><time>2026-03-31T14:51:08.999Z</time></trkpt><trkpt lat="43.385949745260454" lon="5.4517921836548044"><ele>371.0</ele><time>2026-03-31T14:51:09.999Z</time></trkpt><trkpt lat="43.38587158383763" lon="5.451844590792015"><ele>371.0</ele><time>2026-03-31T14:51:10.999Z</time></trkpt><trkpt lat="43.38578265895485" lon="5.451876628108418"><ele>371.0</ele><time>2026-03-31T14:51:11.999Z</time></trkpt><trkpt lat="43.38569346565804" lon="5.45190816593672"><ele>371.0</ele><time>2026-03-31T14:51:12.999Z</time></trkpt><trkpt lat="43.38559493652638" lon="5.45194944513887"><ele>371.0</ele><time>2026-03-31T14:51:13.999Z</time></trkpt><trkpt lat="43.38551111117676" lon="5.451996032781331"><ele>371.0</ele><time>2026-03-31T14:51:14.999Z</time></trkpt><trkpt lat="43.38542243983779" lon="5.4520479836408215"><ele>371.0</ele><time>2026-03-31T14:51:15.999Z</time></trkpt><trkpt lat="43.385338789391305" lon="5.452091582489357"><ele>371.0</ele><time>2026-03-31T14:51:16.999Z</time></trkpt><trkpt lat="43.385246751394774" lon="5.452130763462254"><ele>371.0</ele><time>2026-03-31T14:51:17.999Z</time></trkpt><trkpt lat="43.38515857394885" lon="5.452158779532798"><ele>369.8</ele><time>2026-03-31T14:51:18.999Z</time></trkpt><trkpt lat="43.38506742641242" lon="5.452180428335827"><ele>368.6</ele><time>2026-03-31T14:51:19.999Z</time></trkpt><trkpt lat="43.384980369334805" lon="5.452191424458534"><ele>367.4</ele><time>2026-03-31T14:51:20.999Z</time></trkpt><trkpt lat="43.384901237824344" lon="5.452205568559728"><ele>366.2</ele><time>2026-03-31T14:51:21.999Z</time></trkpt><trkpt lat="43.38480514205804" lon="5.452207437897797"><ele>365.0</ele><time>2026-03-31T14:51:22.999Z</time></trkpt><trkpt lat="43.3847070111474" lon="5.452208670227317"><ele>364.0</ele><time>2026-03-31T14:51:23.999Z</time></trkpt><trkpt lat="43.384604217281904" lon="5.452247931625344"><ele>363.0</ele><time>2026-03-31T14:51:24.999Z</time></trkpt><trkpt lat="43.3845118085546" lon="5.4523022274082695"><ele>362.0</ele><time>2026-03-31T14:51:25.999Z</time></trkpt><trkpt lat="43.38442188060269" lon="5.452346468625586"><ele>361.0</ele><time>2026-03-31T14:51:26.999Z</time></trkpt><trkpt lat="43.38433073330738" lon="5.452365810589628"><ele>360.0</ele><time>2026-03-31T14:51:27.999Z</time></trkpt><trkpt lat="43.38424342246215" lon="5.4524031593265265"><ele>360.0</ele><time>2026-03-31T14:51:28.999Z</time></trkpt><trkpt lat="43.38415874263277" lon="5.452466192080109"><ele>360.0</ele><time>2026-03-31T14:51:29.999Z</time></trkpt><trkpt lat="43.38407833504688" lon="5.452523770032349"><ele>360.0</ele><time>2026-03-31T14:51:30.999Z</time></trkpt><trkpt lat="43.38399595922487" lon="5.452589333539383"><ele>360.0</ele><time>2026-03-31T14:51:31.999Z</time></trkpt><trkpt lat="43.3839086184192" lon="5.4526454175969965"><ele>360.0</ele><time>2026-03-31T14:51:32.999Z</time></trkpt><trkpt lat="43.38384202594726" lon="5.45273945415244"><ele>360.3333333333333</ele><time>2026-03-31T14:51:33.999Z</time></trkpt><trkpt lat="43.38378634114361" lon="5.452822094073235"><ele>360.6666666666667</ele><time>2026-03-31T14:51:34.999Z</time></trkpt><trkpt lat="43.38371677650196" lon="5.4528878791645194"><ele>361.0</ele><time>2026-03-31T14:51:35.999Z</time></trkpt><trkpt lat="43.3836546217368" lon="5.4529611705383125"><ele>361.33333333333337</ele><time>2026-03-31T14:51:36.999Z</time></trkpt><trkpt lat="43.38358969054285" lon="5.453025427827293"><ele>361.6666666666667</ele><time>2026-03-31T14:51:37.999Z</time></trkpt><trkpt lat="43.38349295905992" lon="5.452996632988508"><ele>362.0</ele><time>2026-03-31T14:51:38.999Z</time></trkpt><trkpt lat="43.38341430150778" lon="5.453011687883377"><ele>360.8</ele><time>2026-03-31T14:51:39.999Z</time></trkpt><trkpt lat="43.38332069199387" lon="5.453034241113191"><ele>359.6</ele><time>2026-03-31T14:51:40.999Z</time></trkpt><trkpt lat="43.3832346761411" lon="5.453093424169064"><ele>358.40000000000003</ele><time>2026-03-31T14:51:41.999Z</time></trkpt><trkpt lat="43.38314095252335" lon="5.45315223990386"><ele>357.20000000000005</ele><time>2026-03-31T14:51:42.999Z</time></trkpt><trkpt lat="43.383050396903506" lon="5.45320786901277"><ele>356.0</ele><time>2026-03-31T14:51:43.999Z</time></trkpt><trkpt lat="43.3829543667458" lon="5.453258890709117"><ele>356.0</ele><time>2026-03-31T14:51:44.999Z</time></trkpt><trkpt lat="43.38286460025053" lon="5.453343474322119"><ele>356.0</ele><time>2026-03-31T14:51:45.999Z</time></trkpt><trkpt lat="43.382785934151386" lon="5.453432894281474"><ele>356.0</ele><time>2026-03-31T14:51:46.999Z</time></trkpt><trkpt lat="43.38271016909599" lon="5.453537810589469"><ele>356.0</ele><time>2026-03-31T14:51:47.998Z</time></trkpt><trkpt lat="43.382647450094005" lon="5.453656996353869"><ele>356.0</ele><time>2026-03-31T14:51:48.998Z</time></trkpt><trkpt lat="43.382596368835856" lon="5.453806943927337"><ele>355.0</ele><time>2026-03-31T14:51:49.998Z</time></trkpt><trkpt lat="43.38252511252113" lon="5.453901103039665"><ele>354.0</ele><time>2026-03-31T14:51:50.998Z</time></trkpt><trkpt lat="43.38245060601959" lon="5.454003668226835"><ele>353.0</ele><time>2026-03-31T14:51:51.998Z</time></trkpt><trkpt lat="43.38237859067986" lon="5.454107434161552"><ele>352.0</ele><time>2026-03-31T14:51:52.998Z</time></trkpt><trkpt lat="43.382282309449025" lon="5.454166260620302"><ele>351.0</ele><time>2026-03-31T14:51:53.998Z</time></trkpt><trkpt lat="43.382208877657085" lon="5.4542629677969785"><ele>351.5</ele><time>2026-03-31T14:51:54.998Z</time></trkpt><trkpt lat="43.3821391237743" lon="5.454354944579534"><ele>352.0</ele><time>2026-03-31T14:51:55.998Z</time></trkpt><trkpt lat="43.382072571433376" lon="5.454444703115326"><ele>352.5</ele><time>2026-03-31T14:51:56.998Z</time></trkpt><trkpt lat="43.382010101740754" lon="5.454531634717662"><ele>353.0</ele><time>2026-03-31T14:51:57.998Z</time></trkpt><trkpt lat="43.38195319901076" lon="5.454612514361388"><ele>353.5</ele><time>2026-03-31T14:51:58.998Z</time></trkpt><trkpt lat="43.38189608581317" lon="5.4546901969275225"><ele>354.0</ele><time>2026-03-31T14:51:59.998Z</time></trkpt><trkpt lat="43.38184207969197" lon="5.454756763983101"><ele>352.8333333333333</ele><time>2026-03-31T14:52:00.998Z</time></trkpt><trkpt lat="43.381792375503665" lon="5.454811492745976"><ele>351.6666666666667</ele><time>2026-03-31T14:52:01.998Z</time></trkpt><trkpt lat="43.381717562253954" lon="5.454891444163279"><ele>350.5</ele><time>2026-03-31T14:52:03.998Z</time></trkpt><trkpt lat="43.38164652265382" lon="5.4549747450362265"><ele>349.33333333333337</ele><time>2026-03-31T14:52:06Z</time></trkpt><trkpt lat="43.38156800056477" lon="5.455025518452549"><ele>348.1666666666667</ele><time>2026-03-31T14:52:08Z</time></trkpt><trkpt lat="43.38149150739894" lon="5.455081434161414"><ele>347.0</ele><time>2026-03-31T14:52:10Z</time></trkpt><trkpt lat="43.381408551084924" lon="5.455146628740732"><ele>345.83333333333337</ele><time>2026-03-31T14:52:12Z</time></trkpt><trkpt lat="43.381335130260425" lon="5.455215647176337"><ele>344.6666666666667</ele><time>2026-03-31T14:52:14Z</time></trkpt><trkpt lat="43.3812801527856" lon="5.45527524481348"><ele>343.5</ele><time>2026-03-31T14:52:16Z</time></trkpt><trkpt lat="43.38122335717186" lon="5.4553410729044804"><ele>342.3333333333333</ele><time>2026-03-31T14:52:18Z</time></trkpt><trkpt lat="43.38115910409054" lon="5.455406632029609"><ele>341.16666666666663</ele><time>2026-03-31T14:52:20Z</time></trkpt><trkpt lat="43.38107855965311" lon="5.4554564712617335"><ele>340.0</ele><time>2026-03-31T14:52:22Z</time></trkpt><trkpt lat="43.38099862743218" lon="5.4554835268068045"><ele>344.0</ele><time>2026-03-31T14:52:24Z</time></trkpt><trkpt lat="43.380925638132574" lon="5.455527122485572"><ele>348.0</ele><time>2026-03-31T14:52:26Z</time></trkpt><trkpt lat="43.38085090258632" lon="5.455545899370115"><ele>352.0</ele><time>2026-03-31T14:52:28Z</time></trkpt><trkpt lat="43.38077784085961" lon="5.455562319196224"><ele>356.0</ele><time>2026-03-31T14:52:30Z</time></trkpt><trkpt lat="43.38069238779154" lon="5.455577687998629"><ele>360.0</ele><time>2026-03-31T14:52:32Z</time></trkpt><trkpt lat="43.380616247808554" lon="5.45556865262961"><ele>364.0</ele><time>2026-03-31T14:52:34Z</time></trkpt><trkpt lat="43.38054273181864" lon="5.45557097200673"><ele>364.0</ele><time>2026-03-31T14:52:36Z</time></trkpt><trkpt lat="43.38047091890435" lon="5.455570972008232"><ele>364.0</ele><time>2026-03-31T14:52:38Z</time></trkpt><trkpt lat="43.380390032849974" lon="5.455560527287274"><ele>364.0</ele><time>2026-03-31T14:52:40Z</time></trkpt><trkpt lat="43.38030310233458" lon="5.4555512783326545"><ele>364.0</ele><time>2026-03-31T14:52:42Z</time></trkpt><trkpt lat="43.38023127321707" lon="5.455544115864702"><ele>364.0</ele><time>2026-03-31T14:52:43.999Z</time></trkpt><trkpt lat="43.3801558480369" lon="5.45553659486334"><ele>364.0</ele><time>2026-03-31T14:52:45.999Z</time></trkpt><trkpt lat="43.38007700932846" lon="5.4555467627100604"><ele>364.0</ele><time>2026-03-31T14:52:47.999Z</time></trkpt><trkpt lat="43.379998242140005" lon="5.455526131239701"><ele>364.0</ele><time>2026-03-31T14:52:49.999Z</time></trkpt><trkpt lat="43.3799254319169" lon="5.455477748588135"><ele>364.0</ele><time>2026-03-31T14:52:51.999Z</time></trkpt><trkpt lat="43.37986049574198" lon="5.45544914325879"><ele>364.0</ele><time>2026-03-31T14:52:53.999Z</time></trkpt><trkpt lat="43.37978267516121" lon="5.455414070430394"><ele>364.0</ele><time>2026-03-31T14:52:55.999Z</time></trkpt><trkpt lat="43.3797091494851" lon="5.455394025304529"><ele>364.0</ele><time>2026-03-31T14:52:57.999Z</time></trkpt><trkpt lat="43.37962839911178" lon="5.45538435114037"><ele>364.0</ele><time>2026-03-31T14:52:59.999Z</time></trkpt><trkpt lat="43.37955596662946" lon="5.455385207036387"><ele>364.0</ele><time>2026-03-31T14:53:01.999Z</time></trkpt><trkpt lat="43.3794874124178" lon="5.45539084627182"><ele>364.0</ele><time>2026-03-31T14:53:03.999Z</time></trkpt><trkpt lat="43.379410551048714" lon="5.455419317167969"><ele>364.0</ele><time>2026-03-31T14:53:05.999Z</time></trkpt><trkpt lat="43.37934881113905" lon="5.4554780472269755"><ele>364.0</ele><time>2026-03-31T14:53:07.999Z</time></trkpt><trkpt lat="43.379305640472" lon="5.45555714415936"><ele>364.0</ele><time>2026-03-31T14:53:09.999Z</time></trkpt><trkpt lat="43.379283113273104" lon="5.455675522394487"><ele>364.0</ele><time>2026-03-31T14:53:11.999Z</time></trkpt><trkpt lat="43.37918189912265" lon="5.455730662390182"><ele>364.0</ele><time>2026-03-31T14:53:13.999Z</time></trkpt><trkpt lat="43.37911437065459" lon="5.4556873738182095"><ele>364.0</ele><time>2026-03-31T14:53:14.999Z</time></trkpt><trkpt lat="43.37904457086423" lon="5.4557034152084585"><ele>364.0</ele><time>2026-03-31T14:53:15.999Z</time></trkpt><trkpt lat="43.378977915346965" lon="5.4557193485724165"><ele>364.0</ele><time>2026-03-31T14:53:16.999Z</time></trkpt><trkpt lat="43.37890322004129" lon="5.455742350624075"><ele>364.0</ele><time>2026-03-31T14:53:17.999Z</time></trkpt><trkpt lat="43.37882144805095" lon="5.455744847244303"><ele>362.4</ele><time>2026-03-31T14:53:18.999Z</time></trkpt><trkpt lat="43.37872902030229" lon="5.455738756673849"><ele>360.79999999999995</ele><time>2026-03-31T14:53:19.999Z</time></trkpt><trkpt lat="43.37863925842941" lon="5.455698168924544"><ele>359.20000000000005</ele><time>2026-03-31T14:53:20.999Z</time></trkpt><trkpt lat="43.37854704174263" lon="5.455670839459756"><ele>357.6</ele><time>2026-03-31T14:53:21.999Z</time></trkpt><trkpt lat="43.37845822215163" lon="5.455683054191721"><ele>356.0</ele><time>2026-03-31T14:53:22.999Z</time></trkpt><trkpt lat="43.3783769738015" lon="5.455677164033342"><ele>356.0</ele><time>2026-03-31T14:53:23.999Z</time></trkpt><trkpt lat="43.37829004860801" lon="5.455679522414444"><ele>356.0</ele><time>2026-03-31T14:53:24.999Z</time></trkpt><trkpt lat="43.37820250735326" lon="5.4556714032649944"><ele>356.0</ele><time>2026-03-31T14:53:25.999Z</time></trkpt><trkpt lat="43.37811069066526" lon="5.455668443752001"><ele>356.0</ele><time>2026-03-31T14:53:26.999Z</time></trkpt><trkpt lat="43.378013990643645" lon="5.455653416579678"><ele>356.0</ele><time>2026-03-31T14:53:27.999Z</time></trkpt><trkpt lat="43.37791259215891" lon="5.455662009478625"><ele>355.0</ele><time>2026-03-31T14:53:28.999Z</time></trkpt><trkpt lat="43.37781547605599" lon="5.455695311617192"><ele>354.0</ele><time>2026-03-31T14:53:29.999Z</time></trkpt><trkpt lat="43.37772884895265" lon="5.455757625919015"><ele>353.0</ele><time>2026-03-31T14:53:30.999Z</time></trkpt><trkpt lat="43.37764231006392" lon="5.455830586465395"><ele>352.0</ele><time>2026-03-31T14:53:31.999Z</time></trkpt><trkpt lat="43.37756697838934" lon="5.455913220769592"><ele>351.0</ele><time>2026-03-31T14:53:32.999Z</time></trkpt><trkpt lat="43.37747941345391" lon="5.455964316260554"><ele>351.0</ele><time>2026-03-31T14:53:33.999Z</time></trkpt><trkpt lat="43.37739588211703" lon="5.45602181139216"><ele>351.0</ele><time>2026-03-31T14:53:34.999Z</time></trkpt><trkpt lat="43.37730504713027" lon="5.456082833827461"><ele>351.0</ele><time>2026-03-31T14:53:35.999Z</time></trkpt><trkpt lat="43.37722559536955" lon="5.456167762053597"><ele>351.0</ele><time>2026-03-31T14:53:36.999Z</time></trkpt><trkpt lat="43.377142313890275" lon="5.456243478785822"><ele>351.0</ele><time>2026-03-31T14:53:37.999Z</time></trkpt><trkpt lat="43.37705679058592" lon="5.456300910776158"><ele>350.8333333333333</ele><time>2026-03-31T14:53:38.999Z</time></trkpt><trkpt lat="43.3769794566166" lon="5.456372250421244"><ele>350.6666666666667</ele><time>2026-03-31T14:53:39.999Z</time></trkpt><trkpt lat="43.37690604829099" lon="5.456436766409871"><ele>350.5</ele><time>2026-03-31T14:53:40.999Z</time></trkpt><trkpt lat="43.37684037781127" lon="5.456515729584328"><ele>350.33333333333337</ele><time>2026-03-31T14:53:41.999Z</time></trkpt><trkpt lat="43.37675914163552" lon="5.456547292466748"><ele>350.1666666666667</ele><time>2026-03-31T14:53:42.999Z</time></trkpt><trkpt lat="43.376674395015385" lon="5.456539456258721"><ele>350.0</ele><time>2026-03-31T14:53:43.999Z</time></trkpt><trkpt lat="43.376594894840835" lon="5.456537392467123"><ele>350.0</ele><time>2026-03-31T14:53:44.999Z</time></trkpt><trkpt lat="43.37651907199703" lon="5.456555914655655"><ele>350.0</ele><time>2026-03-31T14:53:45.999Z</time></trkpt><trkpt lat="43.376446169039546" lon="5.456547495523382"><ele>350.0</ele><time>2026-03-31T14:53:46.999Z</time></trkpt><trkpt lat="43.37637397263347" lon="5.456548599393871"><ele>350.0</ele><time>2026-03-31T14:53:47.999Z</time></trkpt><trkpt lat="43.3763010219638" lon="5.456540884380459"><ele>350.0</ele><time>2026-03-31T14:53:48.999Z</time></trkpt><trkpt lat="43.376229551752594" lon="5.456546797384395"><ele>350.0</ele><time>2026-03-31T14:53:49.999Z</time></trkpt><trkpt lat="43.376155514514764" lon="5.456538378879774"><ele>350.0</ele><time>2026-03-31T14:53:50.998Z</time></trkpt><trkpt lat="43.37607928577312" lon="5.456556277386101"><ele>349.6666666666667</ele><time>2026-03-31T14:53:51.998Z</time></trkpt><trkpt lat="43.37600930891041" lon="5.456595682517458"><ele>349.33333333333337</ele><time>2026-03-31T14:53:52.998Z</time></trkpt><trkpt lat="43.37593539735394" lon="5.4566232797517795"><ele>349.0</ele><time>2026-03-31T14:53:53.998Z</time></trkpt><trkpt lat="43.375857865818816" lon="5.456625909502318"><ele>348.6666666666667</ele><time>2026-03-31T14:53:54.998Z</time></trkpt><trkpt lat="43.37577768285862" lon="5.4566478837950205"><ele>348.3333333333333</ele><time>2026-03-31T14:53:55.998Z</time></trkpt><trkpt lat="43.37569500769348" lon="5.456669109293887"><ele>348.0</ele><time>2026-03-31T14:53:56.998Z</time></trkpt><trkpt lat="43.37560863861219" lon="5.456688206229981"><ele>348.0</ele><time>2026-03-31T14:53:57.998Z</time></trkpt><trkpt lat="43.37552540465876" lon="5.456704806637293"><ele>348.0</ele><time>2026-03-31T14:53:58.998Z</time></trkpt><trkpt lat="43.37543883079708" lon="5.456714701324817"><ele>348.0</ele><time>2026-03-31T14:53:59.998Z</time></trkpt><trkpt lat="43.37534779536036" lon="5.45674086606031"><ele>348.0</ele><time>2026-03-31T14:54:00.998Z</time></trkpt><trkpt lat="43.37525521167401" lon="5.456739329603006"><ele>348.0</ele><time>2026-03-31T14:54:01.998Z</time></trkpt><trkpt lat="43.375160691417015" lon="5.456730860370325"><ele>347.0</ele><time>2026-03-31T14:54:02.998Z</time></trkpt><trkpt lat="43.37506747190445" lon="5.456729764767967"><ele>346.0</ele><time>2026-03-31T14:54:03.998Z</time></trkpt><trkpt lat="43.374979083737955" lon="5.45669466090101"><ele>345.0</ele><time>2026-03-31T14:54:04.998Z</time></trkpt><trkpt lat="43.37488335750701" lon="5.456695899950407"><ele>344.0</ele><time>2026-03-31T14:54:05.998Z</time></trkpt><trkpt lat="43.37479374742834" lon="5.456685226075032"><ele>343.0</ele><time>2026-03-31T14:54:06.998Z</time></trkpt><trkpt lat="43.37470183661707" lon="5.456662740949308"><ele>341.79999999999995</ele><time>2026-03-31T14:54:07.998Z</time></trkpt><trkpt lat="43.374605058335675" lon="5.456671647627278"><ele>340.6</ele><time>2026-03-31T14:54:08.998Z</time></trkpt><trkpt lat="43.374510889197566" lon="5.456708261547766"><ele>339.4</ele><time>2026-03-31T14:54:09.998Z</time></trkpt><trkpt lat="43.374419978482685" lon="5.456778007519126"><ele>338.20000000000005</ele><time>2026-03-31T14:54:10.998Z</time></trkpt><trkpt lat="43.374331891964125" lon="5.456841105329729"><ele>337.0</ele><time>2026-03-31T14:54:12Z</time></trkpt><trkpt lat="43.374241292669794" lon="5.45692227297608"><ele>337.0</ele><time>2026-03-31T14:54:13Z</time></trkpt><trkpt lat="43.374139790061605" lon="5.456963608157021"><ele>337.0</ele><time>2026-03-31T14:54:14Z</time></trkpt><trkpt lat="43.3740434268919" lon="5.457024703026801"><ele>337.0</ele><time>2026-03-31T14:54:15Z</time></trkpt><trkpt lat="43.37394430374633" lon="5.457087547736706"><ele>337.0</ele><time>2026-03-31T14:54:16Z</time></trkpt><trkpt lat="43.37385235363617" lon="5.457145372662224"><ele>337.0</ele><time>2026-03-31T14:54:17Z</time></trkpt><trkpt lat="43.37375546840605" lon="5.457205319801475"><ele>335.40000000000003</ele><time>2026-03-31T14:54:18Z</time></trkpt><trkpt lat="43.37366250248709" lon="5.457287254246107"><ele>333.8</ele><time>2026-03-31T14:54:19Z</time></trkpt><trkpt lat="43.373568923711225" lon="5.457322106465949"><ele>332.2</ele><time>2026-03-31T14:54:20Z</time></trkpt><trkpt lat="43.37348576094772" lon="5.4573745871146295"><ele>330.6</ele><time>2026-03-31T14:54:21Z</time></trkpt><trkpt lat="43.37341120684217" lon="5.457431986248324"><ele>329.0</ele><time>2026-03-31T14:54:22Z</time></trkpt><trkpt lat="43.37333019428217" lon="5.457477093695068"><ele>329.0</ele><time>2026-03-31T14:54:23Z</time></trkpt><trkpt lat="43.37324595824845" lon="5.4575512497042284"><ele>329.0</ele><time>2026-03-31T14:54:24Z</time></trkpt><trkpt lat="43.37315117788592" lon="5.4576228642867"><ele>329.0</ele><time>2026-03-31T14:54:25Z</time></trkpt><trkpt lat="43.373058059621165" lon="5.457706841616678"><ele>329.0</ele><time>2026-03-31T14:54:26Z</time></trkpt><trkpt lat="43.37296374131688" lon="5.457771165927037"><ele>329.0</ele><time>2026-03-31T14:54:27Z</time></trkpt><trkpt lat="43.37286365399396" lon="5.45782543019863"><ele>327.0</ele><time>2026-03-31T14:54:28Z</time></trkpt><trkpt lat="43.37277165961522" lon="5.4578611430426065"><ele>325.0</ele><time>2026-03-31T14:54:29Z</time></trkpt><trkpt lat="43.37267524105329" lon="5.457890646080769"><ele>323.0</ele><time>2026-03-31T14:54:30Z</time></trkpt><trkpt lat="43.37257858861296" lon="5.457911918922756"><ele>321.0</ele><time>2026-03-31T14:54:31Z</time></trkpt><trkpt lat="43.372487593039686" lon="5.457951586550194"><ele>319.0</ele><time>2026-03-31T14:54:32Z</time></trkpt><trkpt lat="43.37240238583776" lon="5.458015883165159"><ele>318.2</ele><time>2026-03-31T14:54:33Z</time></trkpt><trkpt lat="43.3723191788378" lon="5.458092535985684"><ele>317.4</ele><time>2026-03-31T14:54:34Z</time></trkpt><trkpt lat="43.37224123877931" lon="5.458177910924207"><ele>316.6</ele><time>2026-03-31T14:54:35Z</time></trkpt><trkpt lat="43.37214966259292" lon="5.458235261965806"><ele>315.8</ele><time>2026-03-31T14:54:36Z</time></trkpt><trkpt lat="43.37205563296234" lon="5.458319267378095"><ele>315.0</ele><time>2026-03-31T14:54:37Z</time></trkpt><trkpt lat="43.37196667363379" lon="5.458404994149295"><ele>313.2</ele><time>2026-03-31T14:54:38Z</time></trkpt><trkpt lat="43.3718743065018" lon="5.458483720248043"><ele>311.4</ele><time>2026-03-31T14:54:39Z</time></trkpt><trkpt lat="43.37178423993044" lon="5.458559655489034"><ele>309.6</ele><time>2026-03-31T14:54:40Z</time></trkpt><trkpt lat="43.37169363363674" lon="5.458630164333188"><ele>307.8</ele><time>2026-03-31T14:54:41Z</time></trkpt><trkpt lat="43.371602496484996" lon="5.458692958821915"><ele>306.0</ele><time>2026-03-31T14:54:42Z</time></trkpt><trkpt lat="43.37150954880955" lon="5.45874009103553"><ele>305.0</ele><time>2026-03-31T14:54:43Z</time></trkpt><trkpt lat="43.37141992165426" lon="5.458808252043861"><ele>304.0</ele><time>2026-03-31T14:54:44Z</time></trkpt><trkpt lat="43.37132075520405" lon="5.458852795737494"><ele>303.0</ele><time>2026-03-31T14:54:45Z</time></trkpt><trkpt lat="43.37122583065124" lon="5.458913364216889"><ele>302.0</ele><time>2026-03-31T14:54:46Z</time></trkpt><trkpt lat="43.37114217109849" lon="5.458983776472919"><ele>301.0</ele><time>2026-03-31T14:54:47Z</time></trkpt><trkpt lat="43.37106153659471" lon="5.45904898795743"><ele>299.8</ele><time>2026-03-31T14:54:47.999Z</time></trkpt><trkpt lat="43.37098063298122" lon="5.459110706827949"><ele>298.6</ele><time>2026-03-31T14:54:48.999Z</time></trkpt><trkpt lat="43.37089309004881" lon="5.459180205934792"><ele>297.4</ele><time>2026-03-31T14:54:49.999Z</time></trkpt><trkpt lat="43.370805410055894" lon="5.4592442536433285"><ele>296.2</ele><time>2026-03-31T14:54:50.999Z</time></trkpt><trkpt lat="43.37071621757536" lon="5.4592830846655"><ele>295.0</ele><time>2026-03-31T14:54:51.999Z</time></trkpt><trkpt lat="43.37062818798007" lon="5.45933421044224"><ele>295.0</ele><time>2026-03-31T14:54:52.999Z</time></trkpt><trkpt lat="43.37053557044022" lon="5.45938159295969"><ele>295.0</ele><time>2026-03-31T14:54:53.999Z</time></trkpt><trkpt lat="43.37045112559941" lon="5.459420311515869"><ele>295.0</ele><time>2026-03-31T14:54:54.999Z</time></trkpt><trkpt lat="43.37035746185637" lon="5.4594613072028"><ele>295.0</ele><time>2026-03-31T14:54:55.999Z</time></trkpt><trkpt lat="43.37026525069543" lon="5.459497287901682"><ele>295.0</ele><time>2026-03-31T14:54:56.999Z</time></trkpt><trkpt lat="43.37017875440841" lon="5.459531143676923"><ele>293.16666666666663</ele><time>2026-03-31T14:54:57.999Z</time></trkpt><trkpt lat="43.370102943234656" lon="5.4595610198586195"><ele>291.3333333333333</ele><time>2026-03-31T14:54:58.999Z</time></trkpt><trkpt lat="43.37003324372954" lon="5.459612322064574"><ele>289.5</ele><time>2026-03-31T14:54:59.999Z</time></trkpt><trkpt lat="43.36996249952958" lon="5.459631642124139"><ele>287.6666666666667</ele><time>2026-03-31T14:55:00.999Z</time></trkpt><trkpt lat="43.36988916438313" lon="5.4596688917184215"><ele>285.83333333333337</ele><time>2026-03-31T14:55:01.999Z</time></trkpt><trkpt lat="43.369811985698576" lon="5.459700100016462"><ele>284.0</ele><time>2026-03-31T14:55:02.999Z</time></trkpt><trkpt lat="43.36974067411995" lon="5.459724261965324"><ele>281.4</ele><time>2026-03-31T14:55:03.999Z</time></trkpt><trkpt lat="43.36967837063862" lon="5.4597505266468715"><ele>278.79999999999995</ele><time>2026-03-31T14:55:04.999Z</time></trkpt><trkpt lat="43.36956324892896" lon="5.45977369685684"><ele>276.20000000000005</ele><time>2026-03-31T14:55:06.999Z</time></trkpt><trkpt lat="43.36945193822423" lon="5.45981817126822"><ele>273.6</ele><time>2026-03-31T14:55:08.999Z</time></trkpt><trkpt lat="43.36937463616583" lon="5.459874360647068"><ele>271.0</ele><time>2026-03-31T14:55:10.999Z</time></trkpt><trkpt lat="43.36928840061429" lon="5.459909965519648"><ele>271.0</ele><time>2026-03-31T14:55:13.999Z</time></trkpt><trkpt lat="43.36920610339461" lon="5.459941579473587"><ele>271.0</ele><time>2026-03-31T14:55:16.999Z</time></trkpt><trkpt lat="43.36920405232108" lon="5.460078770706283"><ele>271.0</ele><time>2026-03-31T14:55:18.999Z</time></trkpt><trkpt lat="43.36934471067421" lon="5.4601194027669955"><ele>271.0</ele><time>2026-03-31T14:55:20.999Z</time></trkpt><trkpt lat="43.369449719395156" lon="5.460069507569456"><ele>271.0</ele><time>2026-03-31T14:55:22.999Z</time></trkpt><trkpt lat="43.36956260148954" lon="5.46009441556611"><ele>271.0</ele><time>2026-03-31T14:55:24.999Z</time></trkpt><trkpt lat="43.36967146462196" lon="5.460109148550296"><ele>271.0</ele><time>2026-03-31T14:55:26.999Z</time></trkpt><trkpt lat="43.36973627187892" lon="5.460119286487988"><ele>271.0</ele><time>2026-03-31T14:55:27.999Z</time></trkpt><trkpt lat="43.36980363728717" lon="5.460129824613792"><ele>271.0</ele><time>2026-03-31T14:55:28.999Z</time></trkpt><trkpt lat="43.36987425027977" lon="5.460140870762568"><ele>271.0</ele><time>2026-03-31T14:55:29.999Z</time></trkpt><trkpt lat="43.36995208422864" lon="5.460134976840543"><ele>271.0</ele><time>2026-03-31T14:55:30.999Z</time></trkpt><trkpt lat="43.37003349672011" lon="5.460146825089067"><ele>271.66666666666663</ele><time>2026-03-31T14:55:31.999Z</time></trkpt><trkpt lat="43.370114205945185" lon="5.46015053654744"><ele>272.3333333333333</ele><time>2026-03-31T14:55:32.999Z</time></trkpt><trkpt lat="43.370196586854675" lon="5.460186790297831"><ele>273.0</ele><time>2026-03-31T14:55:33.999Z</time></trkpt><trkpt lat="43.370271281621996" lon="5.460212646738206"><ele>273.6666666666667</ele><time>2026-03-31T14:55:34.999Z</time></trkpt><trkpt lat="43.37033797504385" lon="5.460248144773168"><ele>274.33333333333337</ele><time>2026-03-31T14:55:35.999Z</time></trkpt><trkpt lat="43.370406704905804" lon="5.460292720253681"><ele>275.0</ele><time>2026-03-31T14:55:36.999Z</time></trkpt><trkpt lat="43.370471105292296" lon="5.4603521030947775"><ele>275.7142857142857</ele><time>2026-03-31T14:55:37.999Z</time></trkpt><trkpt lat="43.370527286897556" lon="5.460431636716902"><ele>276.42857142857144</ele><time>2026-03-31T14:55:38.999Z</time></trkpt><trkpt lat="43.370562922706554" lon="5.460511618657679"><ele>277.1428571428571</ele><time>2026-03-31T14:55:39.999Z</time></trkpt><trkpt lat="43.37061281256022" lon="5.460608062094256"><ele>277.8571428571429</ele><time>2026-03-31T14:55:40.999Z</time></trkpt><trkpt lat="43.37065660672851" lon="5.460686159132229"><ele>278.57142857142856</ele><time>2026-03-31T14:55:41.999Z</time></trkpt><trkpt lat="43.37071534938285" lon="5.460747253018041"><ele>279.2857142857143</ele><time>2026-03-31T14:55:42.999Z</time></trkpt><trkpt lat="43.370771470619616" lon="5.460790676789074"><ele>280.0</ele><time>2026-03-31T14:55:43.999Z</time></trkpt><trkpt lat="43.37085118500257" lon="5.460755668596163"><ele>277.14285714285717</ele><time>2026-03-31T14:55:44.999Z</time></trkpt><trkpt lat="43.37091482332531" lon="5.460718213406297"><ele>274.2857142857143</ele><time>2026-03-31T14:55:45.999Z</time></trkpt><trkpt lat="43.370984076132316" lon="5.460726026684773"><ele>271.42857142857144</ele><time>2026-03-31T14:55:46.999Z</time></trkpt><trkpt lat="43.371052530155424" lon="5.460719762584877"><ele>268.57142857142856</ele><time>2026-03-31T14:55:47.999Z</time></trkpt><trkpt lat="43.3711072377866" lon="5.460803013104385"><ele>265.7142857142857</ele><time>2026-03-31T14:55:48.999Z</time></trkpt><trkpt lat="43.37116128762657" lon="5.46085497905554"><ele>262.8571428571429</ele><time>2026-03-31T14:55:49.999Z</time></trkpt><trkpt lat="43.3712219419449" lon="5.460902552800933"><ele>260.0</ele><time>2026-03-31T14:55:50.999Z</time></trkpt><trkpt lat="43.37129954054962" lon="5.4609428825893955"><ele>260.0</ele><time>2026-03-31T14:55:51.999Z</time></trkpt><trkpt lat="43.37137261627186" lon="5.460978735975379"><ele>260.0</ele><time>2026-03-31T14:55:52.999Z</time></trkpt><trkpt lat="43.37145630953777" lon="5.4610445934927805"><ele>260.0</ele><time>2026-03-31T14:55:54.998Z</time></trkpt><trkpt lat="43.37146340484414" lon="5.461150759842887"><ele>260.0</ele><time>2026-03-31T14:55:56.998Z</time></trkpt><trkpt lat="43.3713886511217" lon="5.461212698181116"><ele>260.0</ele><time>2026-03-31T14:55:58.998Z</time></trkpt><trkpt lat="43.371293162533604" lon="5.461200948460295"><ele>260.0</ele><time>2026-03-31T14:56:00.998Z</time></trkpt><trkpt lat="43.37118734548142" lon="5.461187687180755"><ele>260.0</ele><time>2026-03-31T14:56:02.998Z</time></trkpt><trkpt lat="43.371079591316814" lon="5.461149274237736"><ele>260.0</ele><time>2026-03-31T14:56:04.998Z</time></trkpt><trkpt lat="43.37096802314817" lon="5.461178202472506"><ele>260.0</ele><time>2026-03-31T14:56:06.998Z</time></trkpt><trkpt lat="43.370916192659806" lon="5.461235133911889"><ele>260.0</ele><time>2026-03-31T14:56:07.998Z</time></trkpt><trkpt lat="43.370823224337556" lon="5.4613094456909685"><ele>260.0</ele><time>2026-03-31T14:56:09.998Z</time></trkpt><trkpt lat="43.3707229716701" lon="5.461365242737236"><ele>259.4</ele><time>2026-03-31T14:56:11.998Z</time></trkpt><trkpt lat="43.37060927266102" lon="5.461335822207263"><ele>258.8</ele><time>2026-03-31T14:56:13.998Z</time></trkpt><trkpt lat="43.37052348644942" lon="5.461224455756082"><ele>258.2</ele><time>2026-03-31T14:56:15.998Z</time></trkpt><trkpt lat="43.37042060732491" lon="5.461132656755491"><ele>257.6</ele><time>2026-03-31T14:56:18Z</time></trkpt><trkpt lat="43.37036770905271" lon="5.4610819644906075"><ele>257.0</ele><time>2026-03-31T14:56:19Z</time></trkpt><trkpt lat="43.37030599127121" lon="5.461048667792525"><ele>257.0</ele><time>2026-03-31T14:56:20Z</time></trkpt><trkpt lat="43.37024251923857" lon="5.461011622021782"><ele>257.0</ele><time>2026-03-31T14:56:21Z</time></trkpt><trkpt lat="43.370167926955546" lon="5.461020265828856"><ele>257.0</ele><time>2026-03-31T14:56:22Z</time></trkpt><trkpt lat="43.370093470933526" lon="5.461033797107713"><ele>257.0</ele><time>2026-03-31T14:56:23Z</time></trkpt><trkpt lat="43.370018119898965" lon="5.461048917433132"><ele>257.0</ele><time>2026-03-31T14:56:24Z</time></trkpt><trkpt lat="43.36994156786183" lon="5.461061192792367"><ele>257.0</ele><time>2026-03-31T14:56:25Z</time></trkpt><trkpt lat="43.36986265905482" lon="5.461062356129466"><ele>257.0</ele><time>2026-03-31T14:56:26Z</time></trkpt><trkpt lat="43.36978315030215" lon="5.46107928708071"><ele>257.0</ele><time>2026-03-31T14:56:27Z</time></trkpt><trkpt lat="43.36971258955866" lon="5.461102001916374"><ele>257.0</ele><time>2026-03-31T14:56:28Z</time></trkpt><trkpt lat="43.36963297887687" lon="5.461153741785633"><ele>257.0</ele><time>2026-03-31T14:56:29Z</time></trkpt><trkpt lat="43.369576738061276" lon="5.461274313893851"><ele>257.0</ele><time>2026-03-31T14:56:30Z</time></trkpt><trkpt lat="43.369497716975324" lon="5.4613475161242535"><ele>257.0</ele><time>2026-03-31T14:56:31Z</time></trkpt><trkpt lat="43.369434883153374" lon="5.461432332256929"><ele>256.1666666666667</ele><time>2026-03-31T14:56:32Z</time></trkpt><trkpt lat="43.369383062666415" lon="5.461525131689668"><ele>255.33333333333334</ele><time>2026-03-31T14:56:33Z</time></trkpt><trkpt lat="43.369340101751554" lon="5.4616199034946735"><ele>254.5</ele><time>2026-03-31T14:56:34Z</time></trkpt><trkpt lat="43.36929592599227" lon="5.4617061231835065"><ele>253.66666666666669</ele><time>2026-03-31T14:56:35Z</time></trkpt><trkpt lat="43.369249171208395" lon="5.461788258745504"><ele>252.83333333333334</ele><time>2026-03-31T14:56:36Z</time></trkpt><trkpt lat="43.3691889087992" lon="5.46183524945987"><ele>252.0</ele><time>2026-03-31T14:56:37Z</time></trkpt><trkpt lat="43.36911273875646" lon="5.461864305283516"><ele>252.0</ele><time>2026-03-31T14:56:38Z</time></trkpt><trkpt lat="43.36902951048433" lon="5.461893394323031"><ele>252.0</ele><time>2026-03-31T14:56:39Z</time></trkpt><trkpt lat="43.36895015749073" lon="5.46189162435419"><ele>252.0</ele><time>2026-03-31T14:56:40Z</time></trkpt><trkpt lat="43.36886806067328" lon="5.461938962509008"><ele>252.0</ele><time>2026-03-31T14:56:41Z</time></trkpt><trkpt lat="43.368798466746796" lon="5.461972222450939"><ele>252.0</ele><time>2026-03-31T14:56:42Z</time></trkpt><trkpt lat="43.36872472671903" lon="5.461982643580428"><ele>252.0</ele><time>2026-03-31T14:56:43Z</time></trkpt><trkpt lat="43.36865436154289" lon="5.46194892073707"><ele>251.16666666666666</ele><time>2026-03-31T14:56:44Z</time></trkpt><trkpt lat="43.36857900488567" lon="5.4619081067385435"><ele>250.33333333333331</ele><time>2026-03-31T14:56:45Z</time></trkpt><trkpt lat="43.368506192869795" lon="5.46186769929873"><ele>249.5</ele><time>2026-03-31T14:56:46Z</time></trkpt><trkpt lat="43.36844092804792" lon="5.461793104475123"><ele>248.66666666666666</ele><time>2026-03-31T14:56:47Z</time></trkpt><trkpt lat="43.368388130010786" lon="5.461723159242407"><ele>247.83333333333331</ele><time>2026-03-31T14:56:48Z</time></trkpt><trkpt lat="43.36832939257436" lon="5.4616705477024015"><ele>247.0</ele><time>2026-03-31T14:56:49Z</time></trkpt><trkpt lat="43.3682570785519" lon="5.461653923293174"><ele>246.99999999999997</ele><time>2026-03-31T14:56:50Z</time></trkpt><trkpt lat="43.36818302942195" lon="5.461673332129783"><ele>247.0</ele><time>2026-03-31T14:56:51Z</time></trkpt><trkpt lat="43.3681040497192" lon="5.461683417950112"><ele>247.0</ele><time>2026-03-31T14:56:52Z</time></trkpt><trkpt lat="43.36802308242165" lon="5.46170480357953"><ele>247.0</ele><time>2026-03-31T14:56:53Z</time></trkpt><trkpt lat="43.36794998154811" lon="5.461701876039217"><ele>246.99999999999997</ele><time>2026-03-31T14:56:53.999Z</time></trkpt><trkpt lat="43.3678909516905" lon="5.461670183235282"><ele>247.0</ele><time>2026-03-31T14:56:54.999Z</time></trkpt><trkpt lat="43.36780636594383" lon="5.461550077988465"><ele>246.16666666666666</ele><time>2026-03-31T14:56:56.999Z</time></trkpt><trkpt lat="43.36773221980389" lon="5.4614054673679115"><ele>245.33333333333331</ele><time>2026-03-31T14:56:58.999Z</time></trkpt><trkpt lat="43.36766867769289" lon="5.461371844853359"><ele>244.5</ele><time>2026-03-31T14:56:59.999Z</time></trkpt><trkpt lat="43.36759245304244" lon="5.461373640348781"><ele>243.66666666666669</ele><time>2026-03-31T14:57:00.999Z</time></trkpt><trkpt lat="43.36752260467919" lon="5.4613998927409195"><ele>242.83333333333334</ele><time>2026-03-31T14:57:01.999Z</time></trkpt><trkpt lat="43.36745217788937" lon="5.461412119056309"><ele>242.0</ele><time>2026-03-31T14:57:02.999Z</time></trkpt><trkpt lat="43.36738001407386" lon="5.461433209491454"><ele>242.00000000000003</ele><time>2026-03-31T14:57:03.999Z</time></trkpt><trkpt lat="43.36730522166166" lon="5.461451772087697"><ele>242.0</ele><time>2026-03-31T14:57:04.999Z</time></trkpt><trkpt lat="43.36722577276485" lon="5.461460514771614"><ele>242.0</ele><time>2026-03-31T14:57:05.999Z</time></trkpt><trkpt lat="43.36714447097235" lon="5.4614541950372"><ele>242.0</ele><time>2026-03-31T14:57:06.999Z</time></trkpt><trkpt lat="43.367058197353074" lon="5.461440369456079"><ele>242.00000000000003</ele><time>2026-03-31T14:57:07.999Z</time></trkpt><trkpt lat="43.36697092668599" lon="5.461434685953436"><ele>242.0</ele><time>2026-03-31T14:57:08.999Z</time></trkpt><trkpt lat="43.36689072813164" lon="5.461396485095747"><ele>242.00000000000003</ele><time>2026-03-31T14:57:09.999Z</time></trkpt><trkpt lat="43.36681516875443" lon="5.461373095022971"><ele>242.0</ele><time>2026-03-31T14:57:10.999Z</time></trkpt><trkpt lat="43.366743811763655" lon="5.461347081204799"><ele>242.0</ele><time>2026-03-31T14:57:11.999Z</time></trkpt><trkpt lat="43.366662406348865" lon="5.461349170243692"><ele>242.0</ele><time>2026-03-31T14:57:12.999Z</time></trkpt><trkpt lat="43.36658049112609" lon="5.461372335800725"><ele>242.00000000000003</ele><time>2026-03-31T14:57:13.999Z</time></trkpt><trkpt lat="43.366502998892464" lon="5.4613849278022535"><ele>242.0</ele><time>2026-03-31T14:57:14.999Z</time></trkpt><trkpt lat="43.36642929301544" lon="5.461395810327689"><ele>240.50000000000003</ele><time>2026-03-31T14:57:15.999Z</time></trkpt><trkpt lat="43.366345975728606" lon="5.461426269030992"><ele>239.0</ele><time>2026-03-31T14:57:16.999Z</time></trkpt><trkpt lat="43.36626105595964" lon="5.461437052154245"><ele>237.5</ele><time>2026-03-31T14:57:17.999Z</time></trkpt><trkpt lat="43.366162286498295" lon="5.461443142421594"><ele>236.0</ele><time>2026-03-31T14:57:18.999Z</time></trkpt><trkpt lat="43.36607649398348" lon="5.461472007011868"><ele>234.50000000000003</ele><time>2026-03-31T14:57:19.999Z</time></trkpt><trkpt lat="43.36599233480898" lon="5.461476708736945"><ele>233.0</ele><time>2026-03-31T14:57:20.999Z</time></trkpt><trkpt lat="43.365904597079826" lon="5.461452349040841"><ele>233.00000000000003</ele><time>2026-03-31T14:57:21.999Z</time></trkpt><trkpt lat="43.36580834803836" lon="5.461435463222572"><ele>233.0</ele><time>2026-03-31T14:57:22.999Z</time></trkpt><trkpt lat="43.36571801900992" lon="5.46138925153951"><ele>233.0</ele><time>2026-03-31T14:57:23.999Z</time></trkpt><trkpt lat="43.36563487322946" lon="5.461370063970425"><ele>233.0</ele><time>2026-03-31T14:57:24.999Z</time></trkpt><trkpt lat="43.36556023060405" lon="5.4613937340003"><ele>233.00000000000003</ele><time>2026-03-31T14:57:25.999Z</time></trkpt><trkpt lat="43.36549085151878" lon="5.4614054254432345"><ele>233.0</ele><time>2026-03-31T14:57:26.999Z</time></trkpt><trkpt lat="43.36542124027677" lon="5.461404398219555"><ele>231.16666666666669</ele><time>2026-03-31T14:57:27.999Z</time></trkpt><trkpt lat="43.36535426867666" lon="5.46141467750908"><ele>229.33333333333334</ele><time>2026-03-31T14:57:28.999Z</time></trkpt><trkpt lat="43.36528804954173" lon="5.461413575992303"><ele>227.5</ele><time>2026-03-31T14:57:29.999Z</time></trkpt><trkpt lat="43.36522106337768" lon="5.461408889474521"><ele>225.66666666666669</ele><time>2026-03-31T14:57:30.999Z</time></trkpt><trkpt lat="43.36515519260496" lon="5.461404646852377"><ele>223.83333333333334</ele><time>2026-03-31T14:57:31.999Z</time></trkpt><trkpt lat="43.3650338297547" lon="5.461396756722534"><ele>222.0</ele><time>2026-03-31T14:57:33.999Z</time></trkpt><trkpt lat="43.36490891379678" lon="5.461437480864781"><ele>222.0</ele><time>2026-03-31T14:57:35.999Z</time></trkpt><trkpt lat="43.36487311579109" lon="5.4615328124996525"><ele>222.0</ele><time>2026-03-31T14:57:36.999Z</time></trkpt><trkpt lat="43.364868939595276" lon="5.461653959653102"><ele>222.0</ele><time>2026-03-31T14:57:37.999Z</time></trkpt><trkpt lat="43.3648971439842" lon="5.461764365324898"><ele>222.0</ele><time>2026-03-31T14:57:38.999Z</time></trkpt><trkpt lat="43.364964476795876" lon="5.461847779620424"><ele>222.0</ele><time>2026-03-31T14:57:39.999Z</time></trkpt><trkpt lat="43.36497729069386" lon="5.461943352632837"><ele>222.0</ele><time>2026-03-31T14:57:40.999Z</time></trkpt><trkpt lat="43.3650048062728" lon="5.462037557961064"><ele>221.42857142857142</ele><time>2026-03-31T14:57:41.999Z</time></trkpt><trkpt lat="43.36497957980582" lon="5.462120537214864"><ele>220.85714285714286</ele><time>2026-03-31T14:57:42.999Z</time></trkpt><trkpt lat="43.36496422742543" lon="5.4622280995577945"><ele>220.28571428571428</ele><time>2026-03-31T14:57:43.999Z</time></trkpt><trkpt lat="43.36494000905875" lon="5.4623232069704"><ele>219.71428571428572</ele><time>2026-03-31T14:57:44.999Z</time></trkpt><trkpt lat="43.364905271478825" lon="5.462416517418262"><ele>219.14285714285717</ele><time>2026-03-31T14:57:45.999Z</time></trkpt><trkpt lat="43.36485957887822" lon="5.462498912183327"><ele>218.57142857142858</ele><time>2026-03-31T14:57:46.999Z</time></trkpt><trkpt lat="43.36480044073086" lon="5.4625512144191175"><ele>218.0</ele><time>2026-03-31T14:57:47.999Z</time></trkpt><trkpt lat="43.36472640530617" lon="5.462602304024464"><ele>216.83333333333334</ele><time>2026-03-31T14:57:48.999Z</time></trkpt><trkpt lat="43.36464918418468" lon="5.462632094462664"><ele>215.66666666666669</ele><time>2026-03-31T14:57:49.999Z</time></trkpt><trkpt lat="43.3645751357246" lon="5.462642055063519"><ele>214.5</ele><time>2026-03-31T14:57:50.999Z</time></trkpt><trkpt lat="43.36450145218585" lon="5.462635352047707"><ele>213.33333333333331</ele><time>2026-03-31T14:57:51.999Z</time></trkpt><trkpt lat="43.36442663671118" lon="5.462637333709022"><ele>212.16666666666666</ele><time>2026-03-31T14:57:52.999Z</time></trkpt><trkpt lat="43.36435882564454" lon="5.462594133284412"><ele>211.0</ele><time>2026-03-31T14:57:53.999Z</time></trkpt><trkpt lat="43.36428900457686" lon="5.46254015128666"><ele>210.99999999999997</ele><time>2026-03-31T14:57:54.999Z</time></trkpt><trkpt lat="43.364223224422524" lon="5.46247564391353"><ele>211.0</ele><time>2026-03-31T14:57:55.999Z</time></trkpt><trkpt lat="43.36415522989147" lon="5.462417423594829"><ele>211.0</ele><time>2026-03-31T14:57:56.999Z</time></trkpt><trkpt lat="43.364089395475624" lon="5.462389839570862"><ele>211.0</ele><time>2026-03-31T14:57:57.999Z</time></trkpt><trkpt lat="43.364018312821194" lon="5.462352559765022"><ele>210.99999999999997</ele><time>2026-03-31T14:57:58.999Z</time></trkpt><trkpt lat="43.36392850025805" lon="5.462391456996011"><ele>211.0</ele><time>2026-03-31T14:57:59.998Z</time></trkpt><trkpt lat="43.363848813829804" lon="5.462446777036889"><ele>210.99999999999997</ele><time>2026-03-31T14:58:00.998Z</time></trkpt><trkpt lat="43.3637643241956" lon="5.462488511413164"><ele>211.0</ele><time>2026-03-31T14:58:01.998Z</time></trkpt><trkpt lat="43.36368321324304" lon="5.462538733172417"><ele>211.0</ele><time>2026-03-31T14:58:02.998Z</time></trkpt><trkpt lat="43.36361141240396" lon="5.462606713331307"><ele>211.0</ele><time>2026-03-31T14:58:03.998Z</time></trkpt><trkpt lat="43.363524131904896" lon="5.462640049046508"><ele>210.99999999999997</ele><time>2026-03-31T14:58:04.998Z</time></trkpt><trkpt lat="43.36344811229128" lon="5.462706238717931"><ele>211.0</ele><time>2026-03-31T14:58:05.998Z</time></trkpt><trkpt lat="43.36337286437486" lon="5.462756822266542"><ele>210.99999999999997</ele><time>2026-03-31T14:58:06.998Z</time></trkpt><trkpt lat="43.363299907230164" lon="5.462818434200348"><ele>211.0</ele><time>2026-03-31T14:58:07.998Z</time></trkpt><trkpt lat="43.363223462574304" lon="5.462874290787466"><ele>211.0</ele><time>2026-03-31T14:58:08.998Z</time></trkpt><trkpt lat="43.36316033620551" lon="5.4629681878989444"><ele>211.0</ele><time>2026-03-31T14:58:09.998Z</time></trkpt><trkpt lat="43.363081545152696" lon="5.463031513130373"><ele>210.99999999999997</ele><time>2026-03-31T14:58:10.998Z</time></trkpt><trkpt lat="43.36301790617489" lon="5.4631105054438125"><ele>211.0</ele><time>2026-03-31T14:58:11.998Z</time></trkpt><trkpt lat="43.36297239472166" lon="5.463197784602015"><ele>208.49999999999997</ele><time>2026-03-31T14:58:12.998Z</time></trkpt><trkpt lat="43.36291517267852" lon="5.463259366639314"><ele>206.0</ele><time>2026-03-31T14:58:13.998Z</time></trkpt><trkpt lat="43.36286035174749" lon="5.46332030520758"><ele>203.5</ele><time>2026-03-31T14:58:14.998Z</time></trkpt><trkpt lat="43.36281434815514" lon="5.463382943909771"><ele>201.0</ele><time>2026-03-31T14:58:15.998Z</time></trkpt><trkpt lat="43.36273041833677" lon="5.463495637555338"><ele>198.49999999999997</ele><time>2026-03-31T14:58:17.998Z</time></trkpt><trkpt lat="43.362667910482145" lon="5.4635780534309495"><ele>196.0</ele><time>2026-03-31T14:58:19.998Z</time></trkpt><trkpt lat="43.36259548419871" lon="5.463647356315834"><ele>195.99999999999997</ele><time>2026-03-31T14:58:21.998Z</time></trkpt><trkpt lat="43.36253538626521" lon="5.463724306625484"><ele>196.0</ele><time>2026-03-31T14:58:25Z</time></trkpt><trkpt lat="43.362485694867146" lon="5.463787932181753"><ele>196.0</ele><time>2026-03-31T14:58:29Z</time></trkpt><trkpt lat="43.36241163322078" lon="5.463819618277619"><ele>196.0</ele><time>2026-03-31T14:58:33Z</time></trkpt><trkpt lat="43.362321556089995" lon="5.46381111353314"><ele>195.99999999999997</ele><time>2026-03-31T14:58:35Z</time></trkpt><trkpt lat="43.362218088736405" lon="5.463803276749469"><ele>196.0</ele><time>2026-03-31T14:58:37Z</time></trkpt><trkpt lat="43.36210794399651" lon="5.463790117904244"><ele>193.75</ele><time>2026-03-31T14:58:39Z</time></trkpt><trkpt lat="43.36199820372011" lon="5.463776373766037"><ele>191.5</ele><time>2026-03-31T14:58:41Z</time></trkpt><trkpt lat="43.361880138257696" lon="5.463761597553052"><ele>189.25</ele><time>2026-03-31T14:58:43Z</time></trkpt><trkpt lat="43.3617609686187" lon="5.463766597053355"><ele>187.0</ele><time>2026-03-31T14:58:45Z</time></trkpt><trkpt lat="43.36163879062462" lon="5.463779491200048"><ele>187.0</ele><time>2026-03-31T14:58:47Z</time></trkpt><trkpt lat="43.361512599400456" lon="5.463788581782823"><ele>187.0</ele><time>2026-03-31T14:58:49Z</time></trkpt><trkpt lat="43.36139451780434" lon="5.463776415141871"><ele>187.0</ele><time>2026-03-31T14:58:51Z</time></trkpt><trkpt lat="43.36127652863875" lon="5.463758061523265"><ele>187.0</ele><time>2026-03-31T14:58:53Z</time></trkpt><trkpt lat="43.361160307092845" lon="5.4637329401456265"><ele>186.39999999999998</ele><time>2026-03-31T14:58:55Z</time></trkpt><trkpt lat="43.36105363939699" lon="5.463693039283156"><ele>185.79999999999998</ele><time>2026-03-31T14:58:56.999Z</time></trkpt><trkpt lat="43.36097857373007" lon="5.4636686078356425"><ele>185.2</ele><time>2026-03-31T14:58:58.999Z</time></trkpt><trkpt lat="43.36089897500085" lon="5.463673815335034"><ele>184.6</ele><time>2026-03-31T14:59:01.999Z</time></trkpt><trkpt lat="43.36081080666348" lon="5.463780948357569"><ele>184.0</ele><time>2026-03-31T14:59:04.999Z</time></trkpt><trkpt lat="43.360751787788246" lon="5.463864106838462"><ele>184.0</ele><time>2026-03-31T14:59:06.999Z</time></trkpt><trkpt lat="43.36068550421412" lon="5.46395481643224"><ele>184.0</ele><time>2026-03-31T14:59:08.999Z</time></trkpt><trkpt lat="43.36060597416401" lon="5.464034254813812"><ele>184.0</ele><time>2026-03-31T14:59:10.999Z</time></trkpt><trkpt lat="43.360537672356024" lon="5.464146277277187"><ele>184.0</ele><time>2026-03-31T14:59:12.999Z</time></trkpt><trkpt lat="43.360452849722854" lon="5.464229038107087"><ele>184.0</ele><time>2026-03-31T14:59:14.999Z</time></trkpt><trkpt lat="43.36037927396304" lon="5.464336943533127"><ele>183.79999999999998</ele><time>2026-03-31T14:59:16.999Z</time></trkpt><trkpt lat="43.36029164064679" lon="5.464426337696016"><ele>183.6</ele><time>2026-03-31T14:59:18.999Z</time></trkpt><trkpt lat="43.36021242808819" lon="5.464523008212868"><ele>183.4</ele><time>2026-03-31T14:59:20.999Z</time></trkpt><trkpt lat="43.360131843138205" lon="5.464618362916777"><ele>183.2</ele><time>2026-03-31T14:59:22.999Z</time></trkpt><trkpt lat="43.3600521695008" lon="5.464715251476327"><ele>183.0</ele><time>2026-03-31T14:59:24.999Z</time></trkpt><trkpt lat="43.36000330432296" lon="5.464773576375925"><ele>183.0</ele><time>2026-03-31T14:59:25.999Z</time></trkpt><trkpt lat="43.359955723113664" lon="5.464834671698929"><ele>183.0</ele><time>2026-03-31T14:59:26.999Z</time></trkpt><trkpt lat="43.359902233358916" lon="5.464900515719446"><ele>183.0</ele><time>2026-03-31T14:59:27.999Z</time></trkpt><trkpt lat="43.359848276222415" lon="5.464968366909034"><ele>183.0</ele><time>2026-03-31T14:59:28.999Z</time></trkpt><trkpt lat="43.3597892421378" lon="5.465039756531388"><ele>183.0</ele><time>2026-03-31T14:59:29.999Z</time></trkpt><trkpt lat="43.359727134156685" lon="5.465114689898022"><ele>183.0</ele><time>2026-03-31T14:59:30.999Z</time></trkpt><trkpt lat="43.35966592970627" lon="5.465194303159159"><ele>182.66666666666666</ele><time>2026-03-31T14:59:31.999Z</time></trkpt><trkpt lat="43.35960054455085" lon="5.465274174282179"><ele>182.33333333333334</ele><time>2026-03-31T14:59:32.999Z</time></trkpt><trkpt lat="43.35953637197878" lon="5.465357428863263"><ele>182.0</ele><time>2026-03-31T14:59:33.999Z</time></trkpt><trkpt lat="43.35946952155728" lon="5.465445457393414"><ele>181.66666666666669</ele><time>2026-03-31T14:59:34.999Z</time></trkpt><trkpt lat="43.35940057961896" lon="5.465524619104191"><ele>181.33333333333334</ele><time>2026-03-31T14:59:35.999Z</time></trkpt><trkpt lat="43.359333072837664" lon="5.465608927527906"><ele>181.0</ele><time>2026-03-31T14:59:36.999Z</time></trkpt><trkpt lat="43.35926851351784" lon="5.465701472550074"><ele>179.8</ele><time>2026-03-31T14:59:37.999Z</time></trkpt><trkpt lat="43.359212115346125" lon="5.46580442973797"><ele>178.60000000000002</ele><time>2026-03-31T14:59:38.999Z</time></trkpt><trkpt lat="43.359160458968134" lon="5.465909902780254"><ele>177.4</ele><time>2026-03-31T14:59:39.999Z</time></trkpt><trkpt lat="43.35910983574163" lon="5.466015804961719"><ele>176.2</ele><time>2026-03-31T14:59:40.999Z</time></trkpt><trkpt lat="43.35904695392633" lon="5.466113457246786"><ele>175.0</ele><time>2026-03-31T14:59:41.999Z</time></trkpt><trkpt lat="43.359012609648026" lon="5.466231209823938"><ele>174.83333333333334</ele><time>2026-03-31T14:59:42.999Z</time></trkpt><trkpt lat="43.358969697040024" lon="5.466323359477374"><ele>174.66666666666669</ele><time>2026-03-31T14:59:43.999Z</time></trkpt><trkpt lat="43.35892582580988" lon="5.466408430540432"><ele>174.5</ele><time>2026-03-31T14:59:44.999Z</time></trkpt><trkpt lat="43.358850687906866" lon="5.466455208594799"><ele>174.33333333333334</ele><time>2026-03-31T14:59:45.999Z</time></trkpt><trkpt lat="43.35878556287757" lon="5.466512649146453"><ele>174.16666666666666</ele><time>2026-03-31T14:59:46.999Z</time></trkpt><trkpt lat="43.35870327628058" lon="5.466529188502123"><ele>174.0</ele><time>2026-03-31T14:59:47.999Z</time></trkpt><trkpt lat="43.35861784903549" lon="5.466531287062863"><ele>173.66666666666666</ele><time>2026-03-31T14:59:48.999Z</time></trkpt><trkpt lat="43.358533702399946" lon="5.466524312115814"><ele>173.33333333333334</ele><time>2026-03-31T14:59:49.999Z</time></trkpt><trkpt lat="43.35844763670536" lon="5.466504858628352"><ele>173.0</ele><time>2026-03-31T14:59:50.999Z</time></trkpt><trkpt lat="43.35836159820838" lon="5.466486605835056"><ele>172.66666666666669</ele><time>2026-03-31T14:59:51.999Z</time></trkpt><trkpt lat="43.35827659745278" lon="5.466482128652431"><ele>172.33333333333334</ele><time>2026-03-31T14:59:52.999Z</time></trkpt><trkpt lat="43.358190955000325" lon="5.46647193986811"><ele>172.0</ele><time>2026-03-31T14:59:53.999Z</time></trkpt><trkpt lat="43.35811092035886" lon="5.46645470750976"><ele>171.33333333333334</ele><time>2026-03-31T14:59:54.999Z</time></trkpt><trkpt lat="43.35802700806346" lon="5.466442896721125"><ele>170.66666666666669</ele><time>2026-03-31T14:59:55.999Z</time></trkpt><trkpt lat="43.35795200592363" lon="5.466432914476573"><ele>170.0</ele><time>2026-03-31T14:59:56.999Z</time></trkpt><trkpt lat="43.35784480636209" lon="5.466413437852173"><ele>169.33333333333334</ele><time>2026-03-31T14:59:58.999Z</time></trkpt><trkpt lat="43.35778337507155" lon="5.466373409463683"><ele>168.66666666666666</ele><time>2026-03-31T15:00:01.998Z</time></trkpt><trkpt lat="43.35780231024555" lon="5.466279237403134"><ele>168.0</ele><time>2026-03-31T15:00:02.998Z</time></trkpt><trkpt lat="43.35783987964026" lon="5.466170155881656"><ele>168.0</ele><time>2026-03-31T15:00:04.998Z</time></trkpt><trkpt lat="43.35786792150685" lon="5.466044678430091"><ele>168.0</ele><time>2026-03-31T15:00:06.998Z</time></trkpt><trkpt lat="43.35790090224647" lon="5.465921190343089"><ele>168.0</ele><time>2026-03-31T15:00:08.998Z</time></trkpt><trkpt lat="43.3579271371199" lon="5.465791408009968"><ele>168.0</ele><time>2026-03-31T15:00:10.998Z</time></trkpt><trkpt lat="43.35795615721625" lon="5.4656578466107355"><ele>168.0</ele><time>2026-03-31T15:00:12.998Z</time></trkpt><trkpt lat="43.35799496806578" lon="5.465529049324212"><ele>169.4</ele><time>2026-03-31T15:00:14.998Z</time></trkpt><trkpt lat="43.358027662639586" lon="5.465406360971162"><ele>170.8</ele><time>2026-03-31T15:00:16.998Z</time></trkpt><trkpt lat="43.35805640640649" lon="5.465283878154696"><ele>172.2</ele><time>2026-03-31T15:00:18.998Z</time></trkpt><trkpt lat="43.35808235022477" lon="5.465159808760732"><ele>173.6</ele><time>2026-03-31T15:00:20.998Z</time></trkpt><trkpt lat="43.35811136243346" lon="5.465039565760556"><ele>175.0</ele><time>2026-03-31T15:00:22.998Z</time></trkpt><trkpt lat="43.35812947692862" lon="5.464923205865778"><ele>175.66666666666669</ele><time>2026-03-31T15:00:24.998Z</time></trkpt><trkpt lat="43.35813516443852" lon="5.464823803438168"><ele>176.33333333333334</ele><time>2026-03-31T15:00:26.998Z</time></trkpt><trkpt lat="43.3581433789383" lon="5.464730634354551"><ele>177.0</ele><time>2026-03-31T15:00:29Z</time></trkpt><trkpt lat="43.35814905943824" lon="5.4646093566894285"><ele>177.66666666666666</ele><time>2026-03-31T15:00:32Z</time></trkpt><trkpt lat="43.358022374303836" lon="5.4645254199452395"><ele>178.33333333333331</ele><time>2026-03-31T15:00:37Z</time></trkpt><trkpt lat="43.357943431398354" lon="5.464523084254056"><ele>179.0</ele><time>2026-03-31T15:00:39Z</time></trkpt><trkpt lat="43.35786119891248" lon="5.464511375801543"><ele>180.66666666666666</ele><time>2026-03-31T15:00:41Z</time></trkpt><trkpt lat="43.35778654122872" lon="5.464507545743716"><ele>182.33333333333331</ele><time>2026-03-31T15:00:43Z</time></trkpt><trkpt lat="43.35770948004377" lon="5.464498906451071"><ele>184.0</ele><time>2026-03-31T15:00:45Z</time></trkpt><trkpt lat="43.35763213340307" lon="5.464488594665431"><ele>185.66666666666666</ele><time>2026-03-31T15:00:47Z</time></trkpt><trkpt lat="43.35755121915424" lon="5.464480267939416"><ele>187.33333333333334</ele><time>2026-03-31T15:00:49Z</time></trkpt><trkpt lat="43.3574575279509" lon="5.464468430066731"><ele>189.0</ele><time>2026-03-31T15:00:51Z</time></trkpt><trkpt lat="43.35735034099478" lon="5.464450557989076"><ele>189.0</ele><time>2026-03-31T15:00:53Z</time></trkpt><trkpt lat="43.357237843721435" lon="5.464425149479828"><ele>189.0</ele><time>2026-03-31T15:00:55Z</time></trkpt><trkpt lat="43.35713777433544" lon="5.464367744910126"><ele>189.0</ele><time>2026-03-31T15:00:57Z</time></trkpt><trkpt lat="43.35706515336272" lon="5.464266735181768"><ele>189.0</ele><time>2026-03-31T15:00:58.999Z</time></trkpt><trkpt lat="43.35699734084575" lon="5.464155382823035"><ele>189.0</ele><time>2026-03-31T15:01:00.999Z</time></trkpt><trkpt lat="43.356924166408945" lon="5.464045526909811"><ele>189.0</ele><time>2026-03-31T15:01:02.999Z</time></trkpt><trkpt lat="43.356858717171434" lon="5.4639409080248855"><ele>189.0</ele><time>2026-03-31T15:01:04.999Z</time></trkpt><trkpt lat="43.356796588222885" lon="5.463830626624459"><ele>189.0</ele><time>2026-03-31T15:01:06.999Z</time></trkpt><trkpt lat="43.3567246628437" lon="5.463720462823191"><ele>189.0</ele><time>2026-03-31T15:01:08.999Z</time></trkpt><trkpt lat="43.35665152397934" lon="5.463604801530948"><ele>189.0</ele><time>2026-03-31T15:01:10.999Z</time></trkpt><trkpt lat="43.35658148305378" lon="5.463477646359788"><ele>189.0</ele><time>2026-03-31T15:01:12.999Z</time></trkpt><trkpt lat="43.35651410648395" lon="5.463348042164378"><ele>189.0</ele><time>2026-03-31T15:01:14.999Z</time></trkpt><trkpt lat="43.35644687851425" lon="5.463225324610536"><ele>189.0</ele><time>2026-03-31T15:01:16.999Z</time></trkpt><trkpt lat="43.35638687213801" lon="5.463141535550326"><ele>189.0</ele><time>2026-03-31T15:01:18.999Z</time></trkpt><trkpt lat="43.356424760088146" lon="5.4629523241268565"><ele>189.0</ele><time>2026-03-31T15:01:22.999Z</time></trkpt><trkpt lat="43.35648280589156" lon="5.462896229248828"><ele>196.0</ele><time>2026-03-31T15:01:24.999Z</time></trkpt><trkpt lat="43.356537147771725" lon="5.46284089663349"><ele>196.0</ele><time>2026-03-31T15:01:26.999Z</time></trkpt><trkpt lat="43.356599437779956" lon="5.462801142193615"><ele>196.0</ele><time>2026-03-31T15:01:28.999Z</time></trkpt><trkpt lat="43.35666351392124" lon="5.462805018895129"><ele>196.0</ele><time>2026-03-31T15:01:30.999Z</time></trkpt><trkpt lat="43.35674566824273" lon="5.462817851460007"><ele>196.0</ele><time>2026-03-31T15:01:33.999Z</time></trkpt></trkseg></trk></gpx>